<?xml version="1.0" encoding="UTF-8" standalone="no" ?>
<gpx xmlns="http://www.topografix.com/GPX/1/1" xmlns:xsi="http://www.w3.org/2001/XMLSchema-instance" xsi:schemaLocation="http://www.topografix.com/GPX/1/1 http://www.topografix.com/GPX/1/1/gpx.xsd" version="1.1" creator="VisuGPX - https://www.visugpx.com">
  <metadata>
    <name>07 - Saint-Félicien circuits en partant de l'Etape cavalière du Balayn </name>
    <desc><![CDATA[Ces itinéraires font partie de la collection de EquiLiberté : www.equiliberte.org Ils sont proposés par 07410 L'Étape Cavalière du Balayn à St Félicien. http://etapecavalieredubalayn.fr/index.php/contact-reservation/ Circuits NON ACCESSIBLE aux attelages ]]></desc>
  </metadata>
  <trk>
    <name><![CDATA[07 - St Félicien : Balade de Montplot]]></name>
    <trkseg>
      <trkpt lat="45.09414" lon="4.65216">
        <ele>618</ele>
        <time>2020-07-15T18:54:51 02:00</time>
      </trkpt>
      <trkpt lat="45.09444" lon="4.65235">
        <ele>613</ele>
        <time>2020-07-15T18:54:56 02:00</time>
      </trkpt>
      <trkpt lat="45.09475" lon="4.65181">
        <ele>611</ele>
        <time>2020-07-15T18:55:01 02:00</time>
      </trkpt>
      <trkpt lat="45.09507" lon="4.65126">
        <ele>612</ele>
        <time>2020-07-15T18:55:06 02:00</time>
      </trkpt>
      <trkpt lat="45.0956" lon="4.65076">
        <ele>610</ele>
        <time>2020-07-15T18:55:11 02:00</time>
      </trkpt>
      <trkpt lat="45.09588" lon="4.6504">
        <ele>611</ele>
        <time>2020-07-15T18:55:16 02:00</time>
      </trkpt>
      <trkpt lat="45.09629" lon="4.6493">
        <ele>615</ele>
        <time>2020-07-15T18:55:21 02:00</time>
      </trkpt>
      <trkpt lat="45.09649" lon="4.64905">
        <ele>615</ele>
        <time>2020-07-15T18:55:26 02:00</time>
      </trkpt>
      <trkpt lat="45.09593" lon="4.64855">
        <ele>621</ele>
        <time>2020-07-15T18:55:31 02:00</time>
      </trkpt>
      <trkpt lat="45.09576" lon="4.64834">
        <ele>623</ele>
        <time>2020-07-15T18:55:36 02:00</time>
      </trkpt>
      <trkpt lat="45.09573" lon="4.64774">
        <ele>624</ele>
        <time>2020-07-15T18:55:41 02:00</time>
      </trkpt>
      <trkpt lat="45.09572" lon="4.64724">
        <ele>625</ele>
        <time>2020-07-15T18:55:46 02:00</time>
      </trkpt>
      <trkpt lat="45.09561" lon="4.64686">
        <ele>625</ele>
        <time>2020-07-15T18:55:51 02:00</time>
      </trkpt>
      <trkpt lat="45.09549" lon="4.64647">
        <ele>624</ele>
        <time>2020-07-15T18:55:56 02:00</time>
      </trkpt>
      <trkpt lat="45.09546" lon="4.64609">
        <ele>621</ele>
        <time>2020-07-15T18:56:01 02:00</time>
      </trkpt>
      <trkpt lat="45.09604" lon="4.64589">
        <ele>614</ele>
        <time>2020-07-15T18:56:06 02:00</time>
      </trkpt>
      <trkpt lat="45.09666" lon="4.64617">
        <ele>616</ele>
        <time>2020-07-15T18:56:11 02:00</time>
      </trkpt>
      <trkpt lat="45.09703" lon="4.64609">
        <ele>622</ele>
        <time>2020-07-15T18:56:16 02:00</time>
      </trkpt>
      <trkpt lat="45.09747" lon="4.64729">
        <ele>622</ele>
        <time>2020-07-15T18:56:21 02:00</time>
      </trkpt>
      <trkpt lat="45.09802" lon="4.648">
        <ele>626</ele>
        <time>2020-07-15T18:56:26 02:00</time>
      </trkpt>
      <trkpt lat="45.0984" lon="4.64825">
        <ele>629</ele>
        <time>2020-07-15T18:56:31 02:00</time>
      </trkpt>
      <trkpt lat="45.09872" lon="4.64875">
        <ele>637</ele>
        <time>2020-07-15T18:56:36 02:00</time>
      </trkpt>
      <trkpt lat="45.09875" lon="4.64928">
        <ele>638</ele>
        <time>2020-07-15T18:56:41 02:00</time>
      </trkpt>
      <trkpt lat="45.09888" lon="4.64903">
        <ele>641</ele>
        <time>2020-07-15T18:56:46 02:00</time>
      </trkpt>
      <trkpt lat="45.099" lon="4.64939">
        <ele>643</ele>
        <time>2020-07-15T18:56:51 02:00</time>
      </trkpt>
      <trkpt lat="45.09914" lon="4.64898">
        <ele>646</ele>
        <time>2020-07-15T18:56:56 02:00</time>
      </trkpt>
      <trkpt lat="45.09976" lon="4.64926">
        <ele>653</ele>
        <time>2020-07-15T18:57:01 02:00</time>
      </trkpt>
      <trkpt lat="45.10025" lon="4.64945">
        <ele>656</ele>
        <time>2020-07-15T18:57:06 02:00</time>
      </trkpt>
      <trkpt lat="45.10094" lon="4.64918">
        <ele>663</ele>
        <time>2020-07-15T18:57:11 02:00</time>
      </trkpt>
      <trkpt lat="45.10125" lon="4.64903">
        <ele>666</ele>
        <time>2020-07-15T18:57:16 02:00</time>
      </trkpt>
      <trkpt lat="45.10194" lon="4.64797">
        <ele>674</ele>
        <time>2020-07-15T18:57:21 02:00</time>
      </trkpt>
      <trkpt lat="45.10268" lon="4.64703">
        <ele>672</ele>
        <time>2020-07-15T18:57:26 02:00</time>
      </trkpt>
      <trkpt lat="45.10314" lon="4.64645">
        <ele>671</ele>
        <time>2020-07-15T18:57:31 02:00</time>
      </trkpt>
      <trkpt lat="45.10333" lon="4.64615">
        <ele>672</ele>
        <time>2020-07-15T18:57:36 02:00</time>
      </trkpt>
      <trkpt lat="45.10293" lon="4.64612">
        <ele>687</ele>
        <time>2020-07-15T18:57:41 02:00</time>
      </trkpt>
      <trkpt lat="45.10257" lon="4.64639">
        <ele>692</ele>
        <time>2020-07-15T18:57:46 02:00</time>
      </trkpt>
      <trkpt lat="45.10242" lon="4.64644">
        <ele>695</ele>
        <time>2020-07-15T18:57:51 02:00</time>
      </trkpt>
      <trkpt lat="45.10231" lon="4.64672">
        <ele>691</ele>
        <time>2020-07-15T18:57:56 02:00</time>
      </trkpt>
      <trkpt lat="45.10246" lon="4.64613">
        <ele>703</ele>
        <time>2020-07-15T18:58:01 02:00</time>
      </trkpt>
      <trkpt lat="45.10278" lon="4.64555">
        <ele>706</ele>
        <time>2020-07-15T18:58:06 02:00</time>
      </trkpt>
      <trkpt lat="45.10314" lon="4.64476">
        <ele>710</ele>
        <time>2020-07-15T18:58:11 02:00</time>
      </trkpt>
      <trkpt lat="45.10328" lon="4.64436">
        <ele>714</ele>
        <time>2020-07-15T18:58:16 02:00</time>
      </trkpt>
      <trkpt lat="45.10345" lon="4.64364">
        <ele>720</ele>
        <time>2020-07-15T18:58:21 02:00</time>
      </trkpt>
      <trkpt lat="45.10361" lon="4.64295">
        <ele>729</ele>
        <time>2020-07-15T18:58:26 02:00</time>
      </trkpt>
      <trkpt lat="45.10384" lon="4.64259">
        <ele>731</ele>
        <time>2020-07-15T18:58:31 02:00</time>
      </trkpt>
      <trkpt lat="45.10442" lon="4.64219">
        <ele>734</ele>
        <time>2020-07-15T18:58:36 02:00</time>
      </trkpt>
      <trkpt lat="45.10509" lon="4.64233">
        <ele>727</ele>
        <time>2020-07-15T18:58:41 02:00</time>
      </trkpt>
      <trkpt lat="45.10565" lon="4.64215">
        <ele>735</ele>
        <time>2020-07-15T18:58:46 02:00</time>
      </trkpt>
      <trkpt lat="45.106" lon="4.64188">
        <ele>744</ele>
        <time>2020-07-15T18:58:51 02:00</time>
      </trkpt>
      <trkpt lat="45.1063" lon="4.64147">
        <ele>755</ele>
        <time>2020-07-15T18:58:56 02:00</time>
      </trkpt>
      <trkpt lat="45.10667" lon="4.64121">
        <ele>760</ele>
        <time>2020-07-15T18:59:01 02:00</time>
      </trkpt>
      <trkpt lat="45.10712" lon="4.64132">
        <ele>768</ele>
        <time>2020-07-15T18:59:06 02:00</time>
      </trkpt>
      <trkpt lat="45.10735" lon="4.64154">
        <ele>770</ele>
        <time>2020-07-15T18:59:11 02:00</time>
      </trkpt>
      <trkpt lat="45.10771" lon="4.64136">
        <ele>785</ele>
        <time>2020-07-15T18:59:16 02:00</time>
      </trkpt>
      <trkpt lat="45.10763" lon="4.64095">
        <ele>787</ele>
        <time>2020-07-15T18:59:21 02:00</time>
      </trkpt>
      <trkpt lat="45.10741" lon="4.6403">
        <ele>794</ele>
        <time>2020-07-15T18:59:26 02:00</time>
      </trkpt>
      <trkpt lat="45.10678" lon="4.64017">
        <ele>791</ele>
        <time>2020-07-15T18:59:31 02:00</time>
      </trkpt>
      <trkpt lat="45.10643" lon="4.64023">
        <ele>790</ele>
        <time>2020-07-15T18:59:36 02:00</time>
      </trkpt>
      <trkpt lat="45.10627" lon="4.64006">
        <ele>796</ele>
        <time>2020-07-15T18:59:41 02:00</time>
      </trkpt>
      <trkpt lat="45.10633" lon="4.63984">
        <ele>799</ele>
        <time>2020-07-15T18:59:46 02:00</time>
      </trkpt>
      <trkpt lat="45.1068" lon="4.63976">
        <ele>800</ele>
        <time>2020-07-15T18:59:51 02:00</time>
      </trkpt>
      <trkpt lat="45.10736" lon="4.63943">
        <ele>811</ele>
        <time>2020-07-15T18:59:56 02:00</time>
      </trkpt>
      <trkpt lat="45.10803" lon="4.63943">
        <ele>827</ele>
        <time>2020-07-15T19:00:01 02:00</time>
      </trkpt>
      <trkpt lat="45.10839" lon="4.64031">
        <ele>826</ele>
        <time>2020-07-15T19:00:06 02:00</time>
      </trkpt>
      <trkpt lat="45.10867" lon="4.64136">
        <ele>826</ele>
        <time>2020-07-15T19:00:11 02:00</time>
      </trkpt>
      <trkpt lat="45.10862" lon="4.64184">
        <ele>821</ele>
        <time>2020-07-15T19:00:16 02:00</time>
      </trkpt>
      <trkpt lat="45.10885" lon="4.64246">
        <ele>827</ele>
        <time>2020-07-15T19:00:21 02:00</time>
      </trkpt>
      <trkpt lat="45.10871" lon="4.64304">
        <ele>822</ele>
        <time>2020-07-15T19:00:26 02:00</time>
      </trkpt>
      <trkpt lat="45.10874" lon="4.64347">
        <ele>824</ele>
        <time>2020-07-15T19:00:31 02:00</time>
      </trkpt>
      <trkpt lat="45.10898" lon="4.64403">
        <ele>830</ele>
        <time>2020-07-15T19:00:36 02:00</time>
      </trkpt>
      <trkpt lat="45.10948" lon="4.64443">
        <ele>833</ele>
        <time>2020-07-15T19:00:41 02:00</time>
      </trkpt>
      <trkpt lat="45.11003" lon="4.64491">
        <ele>831</ele>
        <time>2020-07-15T19:00:46 02:00</time>
      </trkpt>
      <trkpt lat="45.11068" lon="4.64521">
        <ele>828</ele>
        <time>2020-07-15T19:00:51 02:00</time>
      </trkpt>
      <trkpt lat="45.11118" lon="4.64551">
        <ele>819</ele>
        <time>2020-07-15T19:00:56 02:00</time>
      </trkpt>
      <trkpt lat="45.11104" lon="4.64651">
        <ele>814</ele>
        <time>2020-07-15T19:01:01 02:00</time>
      </trkpt>
      <trkpt lat="45.11098" lon="4.64705">
        <ele>813</ele>
        <time>2020-07-15T19:01:06 02:00</time>
      </trkpt>
      <trkpt lat="45.11098" lon="4.64724">
        <ele>812</ele>
        <time>2020-07-15T19:01:11 02:00</time>
      </trkpt>
      <trkpt lat="45.11139" lon="4.64675">
        <ele>810</ele>
        <time>2020-07-15T19:01:16 02:00</time>
      </trkpt>
      <trkpt lat="45.11226" lon="4.64606">
        <ele>802</ele>
        <time>2020-07-15T19:01:21 02:00</time>
      </trkpt>
      <trkpt lat="45.11318" lon="4.6457">
        <ele>790</ele>
        <time>2020-07-15T19:01:26 02:00</time>
      </trkpt>
      <trkpt lat="45.1136" lon="4.64563">
        <ele>787</ele>
        <time>2020-07-15T19:01:31 02:00</time>
      </trkpt>
      <trkpt lat="45.11333" lon="4.64636">
        <ele>788</ele>
        <time>2020-07-15T19:01:36 02:00</time>
      </trkpt>
      <trkpt lat="45.11332" lon="4.64686">
        <ele>789</ele>
        <time>2020-07-15T19:01:41 02:00</time>
      </trkpt>
      <trkpt lat="45.11363" lon="4.64789">
        <ele>785</ele>
        <time>2020-07-15T19:01:46 02:00</time>
      </trkpt>
      <trkpt lat="45.11379" lon="4.64823">
        <ele>783</ele>
        <time>2020-07-15T19:01:51 02:00</time>
      </trkpt>
      <trkpt lat="45.11397" lon="4.64885">
        <ele>783</ele>
        <time>2020-07-15T19:01:56 02:00</time>
      </trkpt>
      <trkpt lat="45.11403" lon="4.64954">
        <ele>784</ele>
        <time>2020-07-15T19:02:01 02:00</time>
      </trkpt>
      <trkpt lat="45.11392" lon="4.65044">
        <ele>786</ele>
        <time>2020-07-15T19:02:06 02:00</time>
      </trkpt>
      <trkpt lat="45.11351" lon="4.65141">
        <ele>785</ele>
        <time>2020-07-15T19:02:11 02:00</time>
      </trkpt>
      <trkpt lat="45.11326" lon="4.65203">
        <ele>784</ele>
        <time>2020-07-15T19:02:16 02:00</time>
      </trkpt>
      <trkpt lat="45.11292" lon="4.65244">
        <ele>784</ele>
        <time>2020-07-15T19:02:21 02:00</time>
      </trkpt>
      <trkpt lat="45.11263" lon="4.65276">
        <ele>786</ele>
        <time>2020-07-15T19:02:26 02:00</time>
      </trkpt>
      <trkpt lat="45.11255" lon="4.65267">
        <ele>786</ele>
        <time>2020-07-15T19:02:31 02:00</time>
      </trkpt>
      <trkpt lat="45.11248" lon="4.65181">
        <ele>795</ele>
        <time>2020-07-15T19:02:36 02:00</time>
      </trkpt>
      <trkpt lat="45.11212" lon="4.65139">
        <ele>799</ele>
        <time>2020-07-15T19:02:41 02:00</time>
      </trkpt>
      <trkpt lat="45.11195" lon="4.65074">
        <ele>806</ele>
        <time>2020-07-15T19:02:46 02:00</time>
      </trkpt>
      <trkpt lat="45.1117" lon="4.65033">
        <ele>809</ele>
        <time>2020-07-15T19:02:51 02:00</time>
      </trkpt>
      <trkpt lat="45.11142" lon="4.64973">
        <ele>808</ele>
        <time>2020-07-15T19:02:56 02:00</time>
      </trkpt>
      <trkpt lat="45.11117" lon="4.64879">
        <ele>807</ele>
        <time>2020-07-15T19:03:01 02:00</time>
      </trkpt>
      <trkpt lat="45.11101" lon="4.64808">
        <ele>808</ele>
        <time>2020-07-15T19:03:06 02:00</time>
      </trkpt>
      <trkpt lat="45.11098" lon="4.64776">
        <ele>810</ele>
        <time>2020-07-15T19:03:11 02:00</time>
      </trkpt>
      <trkpt lat="45.11094" lon="4.64748">
        <ele>811</ele>
        <time>2020-07-15T19:03:16 02:00</time>
      </trkpt>
      <trkpt lat="45.11064" lon="4.64761">
        <ele>807</ele>
        <time>2020-07-15T19:03:21 02:00</time>
      </trkpt>
      <trkpt lat="45.11061" lon="4.64804">
        <ele>801</ele>
        <time>2020-07-15T19:03:26 02:00</time>
      </trkpt>
      <trkpt lat="45.11064" lon="4.64885">
        <ele>794</ele>
        <time>2020-07-15T19:03:31 02:00</time>
      </trkpt>
      <trkpt lat="45.11082" lon="4.64926">
        <ele>796</ele>
        <time>2020-07-15T19:03:36 02:00</time>
      </trkpt>
      <trkpt lat="45.11076" lon="4.6496">
        <ele>792</ele>
        <time>2020-07-15T19:03:41 02:00</time>
      </trkpt>
      <trkpt lat="45.11089" lon="4.65044">
        <ele>789</ele>
        <time>2020-07-15T19:03:46 02:00</time>
      </trkpt>
      <trkpt lat="45.11076" lon="4.65029">
        <ele>786</ele>
        <time>2020-07-15T19:03:51 02:00</time>
      </trkpt>
      <trkpt lat="45.11054" lon="4.64956">
        <ele>785</ele>
        <time>2020-07-15T19:03:56 02:00</time>
      </trkpt>
      <trkpt lat="45.11014" lon="4.64885">
        <ele>780</ele>
        <time>2020-07-15T19:04:01 02:00</time>
      </trkpt>
      <trkpt lat="45.10983" lon="4.64834">
        <ele>779</ele>
        <time>2020-07-15T19:04:06 02:00</time>
      </trkpt>
      <trkpt lat="45.10938" lon="4.64776">
        <ele>779</ele>
        <time>2020-07-15T19:04:11 02:00</time>
      </trkpt>
      <trkpt lat="45.10911" lon="4.64757">
        <ele>779</ele>
        <time>2020-07-15T19:04:16 02:00</time>
      </trkpt>
      <trkpt lat="45.10873" lon="4.64812">
        <ele>772</ele>
        <time>2020-07-15T19:04:21 02:00</time>
      </trkpt>
      <trkpt lat="45.10864" lon="4.6486">
        <ele>762</ele>
        <time>2020-07-15T19:04:26 02:00</time>
      </trkpt>
      <trkpt lat="45.10805" lon="4.64883">
        <ele>762</ele>
        <time>2020-07-15T19:04:31 02:00</time>
      </trkpt>
      <trkpt lat="45.10768" lon="4.64935">
        <ele>754</ele>
        <time>2020-07-15T19:04:36 02:00</time>
      </trkpt>
      <trkpt lat="45.10732" lon="4.65003">
        <ele>742</ele>
        <time>2020-07-15T19:04:41 02:00</time>
      </trkpt>
      <trkpt lat="45.10729" lon="4.65016">
        <ele>740</ele>
        <time>2020-07-15T19:04:46 02:00</time>
      </trkpt>
      <trkpt lat="45.10706" lon="4.65051">
        <ele>734</ele>
        <time>2020-07-15T19:04:51 02:00</time>
      </trkpt>
      <trkpt lat="45.10653" lon="4.65042">
        <ele>738</ele>
        <time>2020-07-15T19:04:56 02:00</time>
      </trkpt>
      <trkpt lat="45.106" lon="4.6501">
        <ele>738</ele>
        <time>2020-07-15T19:05:01 02:00</time>
      </trkpt>
      <trkpt lat="45.10547" lon="4.64969">
        <ele>729</ele>
        <time>2020-07-15T19:05:06 02:00</time>
      </trkpt>
      <trkpt lat="45.10529" lon="4.64937">
        <ele>726</ele>
        <time>2020-07-15T19:05:11 02:00</time>
      </trkpt>
      <trkpt lat="45.10511" lon="4.64883">
        <ele>718</ele>
        <time>2020-07-15T19:05:16 02:00</time>
      </trkpt>
      <trkpt lat="45.10518" lon="4.64797">
        <ele>714</ele>
        <time>2020-07-15T19:05:21 02:00</time>
      </trkpt>
      <trkpt lat="45.10523" lon="4.64737">
        <ele>709</ele>
        <time>2020-07-15T19:05:26 02:00</time>
      </trkpt>
      <trkpt lat="45.10538" lon="4.64669">
        <ele>705</ele>
        <time>2020-07-15T19:05:31 02:00</time>
      </trkpt>
      <trkpt lat="45.10555" lon="4.64611">
        <ele>708</ele>
        <time>2020-07-15T19:05:36 02:00</time>
      </trkpt>
      <trkpt lat="45.10549" lon="4.64538">
        <ele>700</ele>
        <time>2020-07-15T19:05:41 02:00</time>
      </trkpt>
      <trkpt lat="45.1054" lon="4.64523">
        <ele>696</ele>
        <time>2020-07-15T19:05:46 02:00</time>
      </trkpt>
      <trkpt lat="45.10529" lon="4.64542">
        <ele>693</ele>
        <time>2020-07-15T19:05:51 02:00</time>
      </trkpt>
      <trkpt lat="45.10494" lon="4.6454">
        <ele>682</ele>
        <time>2020-07-15T19:05:56 02:00</time>
      </trkpt>
      <trkpt lat="45.10455" lon="4.64488">
        <ele>681</ele>
        <time>2020-07-15T19:06:01 02:00</time>
      </trkpt>
      <trkpt lat="45.10414" lon="4.64503">
        <ele>677</ele>
        <time>2020-07-15T19:06:06 02:00</time>
      </trkpt>
      <trkpt lat="45.10368" lon="4.64576">
        <ele>675</ele>
        <time>2020-07-15T19:06:11 02:00</time>
      </trkpt>
      <trkpt lat="45.10306" lon="4.64669">
        <ele>668</ele>
        <time>2020-07-15T19:06:16 02:00</time>
      </trkpt>
      <trkpt lat="45.10275" lon="4.64701">
        <ele>671</ele>
        <time>2020-07-15T19:06:21 02:00</time>
      </trkpt>
      <trkpt lat="45.10221" lon="4.64772">
        <ele>671</ele>
        <time>2020-07-15T19:06:26 02:00</time>
      </trkpt>
      <trkpt lat="45.10158" lon="4.64849">
        <ele>673</ele>
        <time>2020-07-15T19:06:31 02:00</time>
      </trkpt>
      <trkpt lat="45.10125" lon="4.64898">
        <ele>666</ele>
        <time>2020-07-15T19:06:36 02:00</time>
      </trkpt>
      <trkpt lat="45.10091" lon="4.64918">
        <ele>663</ele>
        <time>2020-07-15T19:06:41 02:00</time>
      </trkpt>
      <trkpt lat="45.10037" lon="4.64935">
        <ele>658</ele>
        <time>2020-07-15T19:06:46 02:00</time>
      </trkpt>
      <trkpt lat="45.09994" lon="4.64928">
        <ele>655</ele>
        <time>2020-07-15T19:06:51 02:00</time>
      </trkpt>
      <trkpt lat="45.0994" lon="4.64903">
        <ele>650</ele>
        <time>2020-07-15T19:06:56 02:00</time>
      </trkpt>
      <trkpt lat="45.09916" lon="4.64898">
        <ele>646</ele>
        <time>2020-07-15T19:07:01 02:00</time>
      </trkpt>
      <trkpt lat="45.09896" lon="4.64933">
        <ele>642</ele>
        <time>2020-07-15T19:07:06 02:00</time>
      </trkpt>
      <trkpt lat="45.09888" lon="4.64907">
        <ele>641</ele>
        <time>2020-07-15T19:07:11 02:00</time>
      </trkpt>
      <trkpt lat="45.09873" lon="4.64924">
        <ele>638</ele>
        <time>2020-07-15T19:07:16 02:00</time>
      </trkpt>
      <trkpt lat="45.09866" lon="4.64857">
        <ele>635</ele>
        <time>2020-07-15T19:07:21 02:00</time>
      </trkpt>
      <trkpt lat="45.09828" lon="4.6481">
        <ele>628</ele>
        <time>2020-07-15T19:07:26 02:00</time>
      </trkpt>
      <trkpt lat="45.09787" lon="4.6478">
        <ele>625</ele>
        <time>2020-07-15T19:07:31 02:00</time>
      </trkpt>
      <trkpt lat="45.09744" lon="4.64716">
        <ele>623</ele>
        <time>2020-07-15T19:07:36 02:00</time>
      </trkpt>
      <trkpt lat="45.09705" lon="4.64619">
        <ele>622</ele>
        <time>2020-07-15T19:07:41 02:00</time>
      </trkpt>
      <trkpt lat="45.09649" lon="4.64613">
        <ele>616</ele>
        <time>2020-07-15T19:07:46 02:00</time>
      </trkpt>
      <trkpt lat="45.09605" lon="4.64589">
        <ele>614</ele>
        <time>2020-07-15T19:07:51 02:00</time>
      </trkpt>
      <trkpt lat="45.09543" lon="4.64604">
        <ele>620</ele>
        <time>2020-07-15T19:07:56 02:00</time>
      </trkpt>
      <trkpt lat="45.09472" lon="4.64553">
        <ele>623</ele>
        <time>2020-07-15T19:08:01 02:00</time>
      </trkpt>
      <trkpt lat="45.09388" lon="4.64542">
        <ele>628</ele>
        <time>2020-07-15T19:08:06 02:00</time>
      </trkpt>
      <trkpt lat="45.0934" lon="4.64542">
        <ele>631</ele>
        <time>2020-07-15T19:08:11 02:00</time>
      </trkpt>
      <trkpt lat="45.09366" lon="4.64675">
        <ele>642</ele>
        <time>2020-07-15T19:08:16 02:00</time>
      </trkpt>
      <trkpt lat="45.09379" lon="4.64772">
        <ele>644</ele>
        <time>2020-07-15T19:08:21 02:00</time>
      </trkpt>
      <trkpt lat="45.09379" lon="4.64789">
        <ele>644</ele>
        <time>2020-07-15T19:08:26 02:00</time>
      </trkpt>
      <trkpt lat="45.09376" lon="4.64969">
        <ele>637</ele>
        <time>2020-07-15T19:08:31 02:00</time>
      </trkpt>
      <trkpt lat="45.09404" lon="4.6496">
        <ele>635</ele>
        <time>2020-07-15T19:08:36 02:00</time>
      </trkpt>
      <trkpt lat="45.09426" lon="4.64973">
        <ele>633</ele>
        <time>2020-07-15T19:08:41 02:00</time>
      </trkpt>
      <trkpt lat="45.09431" lon="4.65021">
        <ele>629</ele>
        <time>2020-07-15T19:08:46 02:00</time>
      </trkpt>
      <trkpt lat="45.09417" lon="4.65051">
        <ele>628</ele>
        <time>2020-07-15T19:08:51 02:00</time>
      </trkpt>
      <trkpt lat="45.09396" lon="4.65063">
        <ele>628</ele>
        <time>2020-07-15T19:08:56 02:00</time>
      </trkpt>
      <trkpt lat="45.09394" lon="4.65117">
        <ele>624</ele>
        <time>2020-07-15T19:09:01 02:00</time>
      </trkpt>
      <trkpt lat="45.09401" lon="4.65209">
        <ele>619</ele>
        <time>2020-07-15T19:09:06 02:00</time>
      </trkpt>
    </trkseg>
  </trk>
  <trk>
    <name><![CDATA[07 St Félicien : Boucle de Pailharès]]></name>
    <trkseg>
      <trkpt lat="45.09406" lon="4.65209">
        <ele>619</ele>
        <time>2019-10-12T15:42:26 02:00</time>
      </trkpt>
      <trkpt lat="45.09406" lon="4.65209">
        <ele>619</ele>
        <time>2019-10-12T15:42:26 02:00</time>
      </trkpt>
      <trkpt lat="45.09442" lon="4.65228">
        <ele>614</ele>
        <time>2019-10-12T15:42:31 02:00</time>
      </trkpt>
      <trkpt lat="45.09463" lon="4.652">
        <ele>612</ele>
        <time>2019-10-12T15:42:36 02:00</time>
      </trkpt>
      <trkpt lat="45.09488" lon="4.65155">
        <ele>611</ele>
        <time>2019-10-12T15:42:41 02:00</time>
      </trkpt>
      <trkpt lat="45.0954" lon="4.65088">
        <ele>611</ele>
        <time>2019-10-12T15:42:46 02:00</time>
      </trkpt>
      <trkpt lat="45.09582" lon="4.65047">
        <ele>611</ele>
        <time>2019-10-12T15:42:51 02:00</time>
      </trkpt>
      <trkpt lat="45.09609" lon="4.64974">
        <ele>615</ele>
        <time>2019-10-12T15:42:56 02:00</time>
      </trkpt>
      <trkpt lat="45.09622" lon="4.64933">
        <ele>616</ele>
        <time>2019-10-12T15:43:01 02:00</time>
      </trkpt>
      <trkpt lat="45.09646" lon="4.64904">
        <ele>615</ele>
        <time>2019-10-12T15:43:06 02:00</time>
      </trkpt>
      <trkpt lat="45.0958" lon="4.6484">
        <ele>622</ele>
        <time>2019-10-12T15:43:11 02:00</time>
      </trkpt>
      <trkpt lat="45.09571" lon="4.64711">
        <ele>624</ele>
        <time>2019-10-12T15:43:16 02:00</time>
      </trkpt>
      <trkpt lat="45.0955" lon="4.64657">
        <ele>625</ele>
        <time>2019-10-12T15:43:21 02:00</time>
      </trkpt>
      <trkpt lat="45.09542" lon="4.64604">
        <ele>621</ele>
        <time>2019-10-12T15:43:26 02:00</time>
      </trkpt>
      <trkpt lat="45.096" lon="4.64592">
        <ele>614</ele>
        <time>2019-10-12T15:43:31 02:00</time>
      </trkpt>
      <trkpt lat="45.09646" lon="4.64605">
        <ele>616</ele>
        <time>2019-10-12T15:43:36 02:00</time>
      </trkpt>
      <trkpt lat="45.09641" lon="4.64557">
        <ele>613</ele>
        <time>2019-10-12T15:43:41 02:00</time>
      </trkpt>
      <trkpt lat="45.09652" lon="4.64513">
        <ele>612</ele>
        <time>2019-10-12T15:43:46 02:00</time>
      </trkpt>
      <trkpt lat="45.09671" lon="4.64434">
        <ele>607</ele>
        <time>2019-10-12T15:43:51 02:00</time>
      </trkpt>
      <trkpt lat="45.09704" lon="4.64363">
        <ele>608</ele>
        <time>2019-10-12T15:43:56 02:00</time>
      </trkpt>
      <trkpt lat="45.0966" lon="4.64247">
        <ele>593</ele>
        <time>2019-10-12T15:44:01 02:00</time>
      </trkpt>
      <trkpt lat="45.09654" lon="4.6421">
        <ele>589</ele>
        <time>2019-10-12T15:44:06 02:00</time>
      </trkpt>
      <trkpt lat="45.09664" lon="4.64183">
        <ele>588</ele>
        <time>2019-10-12T15:44:11 02:00</time>
      </trkpt>
      <trkpt lat="45.09694" lon="4.64155">
        <ele>592</ele>
        <time>2019-10-12T15:44:16 02:00</time>
      </trkpt>
      <trkpt lat="45.09718" lon="4.6411">
        <ele>592</ele>
        <time>2019-10-12T15:44:21 02:00</time>
      </trkpt>
      <trkpt lat="45.09721" lon="4.64073">
        <ele>590</ele>
        <time>2019-10-12T15:44:26 02:00</time>
      </trkpt>
      <trkpt lat="45.09711" lon="4.64019">
        <ele>586</ele>
        <time>2019-10-12T15:44:31 02:00</time>
      </trkpt>
      <trkpt lat="45.09693" lon="4.63983">
        <ele>581</ele>
        <time>2019-10-12T15:44:36 02:00</time>
      </trkpt>
      <trkpt lat="45.09686" lon="4.63818">
        <ele>578</ele>
        <time>2019-10-12T15:44:41 02:00</time>
      </trkpt>
      <trkpt lat="45.09691" lon="4.63736">
        <ele>576</ele>
        <time>2019-10-12T15:44:46 02:00</time>
      </trkpt>
      <trkpt lat="45.0971" lon="4.63677">
        <ele>574</ele>
        <time>2019-10-12T15:44:51 02:00</time>
      </trkpt>
      <trkpt lat="45.09724" lon="4.63662">
        <ele>574</ele>
        <time>2019-10-12T15:44:56 02:00</time>
      </trkpt>
      <trkpt lat="45.09727" lon="4.63634">
        <ele>572</ele>
        <time>2019-10-12T15:45:01 02:00</time>
      </trkpt>
      <trkpt lat="45.0978" lon="4.63591">
        <ele>573</ele>
        <time>2019-10-12T15:45:06 02:00</time>
      </trkpt>
      <trkpt lat="45.09784" lon="4.63548">
        <ele>574</ele>
        <time>2019-10-12T15:45:11 02:00</time>
      </trkpt>
      <trkpt lat="45.09771" lon="4.63475">
        <ele>572</ele>
        <time>2019-10-12T15:45:16 02:00</time>
      </trkpt>
      <trkpt lat="45.09778" lon="4.63403">
        <ele>573</ele>
        <time>2019-10-12T15:45:21 02:00</time>
      </trkpt>
      <trkpt lat="45.09799" lon="4.63342">
        <ele>574</ele>
        <time>2019-10-12T15:45:26 02:00</time>
      </trkpt>
      <trkpt lat="45.09846" lon="4.63232">
        <ele>571</ele>
        <time>2019-10-12T15:45:31 02:00</time>
      </trkpt>
      <trkpt lat="45.09878" lon="4.63181">
        <ele>568</ele>
        <time>2019-10-12T15:45:36 02:00</time>
      </trkpt>
      <trkpt lat="45.09923" lon="4.63145">
        <ele>568</ele>
        <time>2019-10-12T15:45:41 02:00</time>
      </trkpt>
      <trkpt lat="45.09954" lon="4.6308">
        <ele>561</ele>
        <time>2019-10-12T15:45:46 02:00</time>
      </trkpt>
      <trkpt lat="45.1" lon="4.63025">
        <ele>565</ele>
        <time>2019-10-12T15:45:51 02:00</time>
      </trkpt>
      <trkpt lat="45.1001" lon="4.62974">
        <ele>567</ele>
        <time>2019-10-12T15:45:56 02:00</time>
      </trkpt>
      <trkpt lat="45.09989" lon="4.62928">
        <ele>568</ele>
        <time>2019-10-12T15:46:01 02:00</time>
      </trkpt>
      <trkpt lat="45.09961" lon="4.62913">
        <ele>565</ele>
        <time>2019-10-12T15:46:06 02:00</time>
      </trkpt>
      <trkpt lat="45.09855" lon="4.62758">
        <ele>563</ele>
        <time>2019-10-12T15:46:11 02:00</time>
      </trkpt>
      <trkpt lat="45.09846" lon="4.6273">
        <ele>560</ele>
        <time>2019-10-12T15:46:16 02:00</time>
      </trkpt>
      <trkpt lat="45.09855" lon="4.62702">
        <ele>562</ele>
        <time>2019-10-12T15:46:21 02:00</time>
      </trkpt>
      <trkpt lat="45.09844" lon="4.62653">
        <ele>556</ele>
        <time>2019-10-12T15:46:26 02:00</time>
      </trkpt>
      <trkpt lat="45.09838" lon="4.62596">
        <ele>550</ele>
        <time>2019-10-12T15:46:31 02:00</time>
      </trkpt>
      <trkpt lat="45.09843" lon="4.62543">
        <ele>550</ele>
        <time>2019-10-12T15:46:36 02:00</time>
      </trkpt>
      <trkpt lat="45.09849" lon="4.62511">
        <ele>550</ele>
        <time>2019-10-12T15:46:41 02:00</time>
      </trkpt>
      <trkpt lat="45.09849" lon="4.62488">
        <ele>552</ele>
        <time>2019-10-12T15:46:46 02:00</time>
      </trkpt>
      <trkpt lat="45.09827" lon="4.62487">
        <ele>552</ele>
        <time>2019-10-12T15:46:51 02:00</time>
      </trkpt>
      <trkpt lat="45.09808" lon="4.62522">
        <ele>552</ele>
        <time>2019-10-12T15:46:56 02:00</time>
      </trkpt>
      <trkpt lat="45.09786" lon="4.62535">
        <ele>556</ele>
        <time>2019-10-12T15:47:01 02:00</time>
      </trkpt>
      <trkpt lat="45.0975" lon="4.6263">
        <ele>555</ele>
        <time>2019-10-12T15:47:06 02:00</time>
      </trkpt>
      <trkpt lat="45.09692" lon="4.62721">
        <ele>563</ele>
        <time>2019-10-12T15:47:11 02:00</time>
      </trkpt>
      <trkpt lat="45.09678" lon="4.62786">
        <ele>559</ele>
        <time>2019-10-12T15:47:16 02:00</time>
      </trkpt>
      <trkpt lat="45.09672" lon="4.62846">
        <ele>554</ele>
        <time>2019-10-12T15:47:21 02:00</time>
      </trkpt>
      <trkpt lat="45.09665" lon="4.62894">
        <ele>552</ele>
        <time>2019-10-12T15:47:26 02:00</time>
      </trkpt>
      <trkpt lat="45.09628" lon="4.62929">
        <ele>552</ele>
        <time>2019-10-12T15:47:31 02:00</time>
      </trkpt>
      <trkpt lat="45.09595" lon="4.62945">
        <ele>553</ele>
        <time>2019-10-12T15:47:36 02:00</time>
      </trkpt>
      <trkpt lat="45.09555" lon="4.6293">
        <ele>556</ele>
        <time>2019-10-12T15:47:41 02:00</time>
      </trkpt>
      <trkpt lat="45.09542" lon="4.62908">
        <ele>559</ele>
        <time>2019-10-12T15:47:46 02:00</time>
      </trkpt>
      <trkpt lat="45.09562" lon="4.62889">
        <ele>562</ele>
        <time>2019-10-12T15:47:51 02:00</time>
      </trkpt>
      <trkpt lat="45.09542" lon="4.62859">
        <ele>566</ele>
        <time>2019-10-12T15:47:56 02:00</time>
      </trkpt>
      <trkpt lat="45.09517" lon="4.62831">
        <ele>570</ele>
        <time>2019-10-12T15:48:01 02:00</time>
      </trkpt>
      <trkpt lat="45.0951" lon="4.62799">
        <ele>572</ele>
        <time>2019-10-12T15:48:06 02:00</time>
      </trkpt>
      <trkpt lat="45.09548" lon="4.62814">
        <ele>573</ele>
        <time>2019-10-12T15:48:11 02:00</time>
      </trkpt>
      <trkpt lat="45.09575" lon="4.6276">
        <ele>582</ele>
        <time>2019-10-12T15:48:16 02:00</time>
      </trkpt>
      <trkpt lat="45.09549" lon="4.62698">
        <ele>587</ele>
        <time>2019-10-12T15:48:21 02:00</time>
      </trkpt>
      <trkpt lat="45.09543" lon="4.62657">
        <ele>591</ele>
        <time>2019-10-12T15:48:26 02:00</time>
      </trkpt>
      <trkpt lat="45.09566" lon="4.62644">
        <ele>595</ele>
        <time>2019-10-12T15:48:31 02:00</time>
      </trkpt>
      <trkpt lat="45.09584" lon="4.62617">
        <ele>600</ele>
        <time>2019-10-12T15:48:36 02:00</time>
      </trkpt>
      <trkpt lat="45.09563" lon="4.62617">
        <ele>599</ele>
        <time>2019-10-12T15:48:41 02:00</time>
      </trkpt>
      <trkpt lat="45.09557" lon="4.62599">
        <ele>600</ele>
        <time>2019-10-12T15:48:46 02:00</time>
      </trkpt>
      <trkpt lat="45.09546" lon="4.62507">
        <ele>614</ele>
        <time>2019-10-12T15:48:51 02:00</time>
      </trkpt>
      <trkpt lat="45.09545" lon="4.62444">
        <ele>620</ele>
        <time>2019-10-12T15:48:56 02:00</time>
      </trkpt>
      <trkpt lat="45.09531" lon="4.62385">
        <ele>623</ele>
        <time>2019-10-12T15:49:01 02:00</time>
      </trkpt>
      <trkpt lat="45.09505" lon="4.62241">
        <ele>632</ele>
        <time>2019-10-12T15:49:06 02:00</time>
      </trkpt>
      <trkpt lat="45.09492" lon="4.62177">
        <ele>640</ele>
        <time>2019-10-12T15:49:11 02:00</time>
      </trkpt>
      <trkpt lat="45.09502" lon="4.62127">
        <ele>647</ele>
        <time>2019-10-12T15:49:16 02:00</time>
      </trkpt>
      <trkpt lat="45.0953" lon="4.62087">
        <ele>651</ele>
        <time>2019-10-12T15:49:21 02:00</time>
      </trkpt>
      <trkpt lat="45.09533" lon="4.62065">
        <ele>654</ele>
        <time>2019-10-12T15:49:26 02:00</time>
      </trkpt>
      <trkpt lat="45.0953" lon="4.62031">
        <ele>662</ele>
        <time>2019-10-12T15:49:31 02:00</time>
      </trkpt>
      <trkpt lat="45.09554" lon="4.62001">
        <ele>664</ele>
        <time>2019-10-12T15:49:36 02:00</time>
      </trkpt>
      <trkpt lat="45.09592" lon="4.61975">
        <ele>665</ele>
        <time>2019-10-12T15:49:41 02:00</time>
      </trkpt>
      <trkpt lat="45.0963" lon="4.61915">
        <ele>675</ele>
        <time>2019-10-12T15:49:46 02:00</time>
      </trkpt>
      <trkpt lat="45.09696" lon="4.61904">
        <ele>674</ele>
        <time>2019-10-12T15:49:51 02:00</time>
      </trkpt>
      <trkpt lat="45.09716" lon="4.61911">
        <ele>673</ele>
        <time>2019-10-12T15:49:56 02:00</time>
      </trkpt>
      <trkpt lat="45.09825" lon="4.61814">
        <ele>684</ele>
        <time>2019-10-12T15:50:01 02:00</time>
      </trkpt>
      <trkpt lat="45.09901" lon="4.6172">
        <ele>688</ele>
        <time>2019-10-12T15:50:06 02:00</time>
      </trkpt>
      <trkpt lat="45.09908" lon="4.61694">
        <ele>690</ele>
        <time>2019-10-12T15:50:11 02:00</time>
      </trkpt>
      <trkpt lat="45.09907" lon="4.6164">
        <ele>693</ele>
        <time>2019-10-12T15:50:16 02:00</time>
      </trkpt>
      <trkpt lat="45.09892" lon="4.61518">
        <ele>690</ele>
        <time>2019-10-12T15:50:21 02:00</time>
      </trkpt>
      <trkpt lat="45.09828" lon="4.61439">
        <ele>693</ele>
        <time>2019-10-12T15:50:26 02:00</time>
      </trkpt>
      <trkpt lat="45.09796" lon="4.61397">
        <ele>699</ele>
        <time>2019-10-12T15:50:31 02:00</time>
      </trkpt>
      <trkpt lat="45.09783" lon="4.61262">
        <ele>705</ele>
        <time>2019-10-12T15:50:36 02:00</time>
      </trkpt>
      <trkpt lat="45.09751" lon="4.61127">
        <ele>707</ele>
        <time>2019-10-12T15:50:41 02:00</time>
      </trkpt>
      <trkpt lat="45.09737" lon="4.61099">
        <ele>709</ele>
        <time>2019-10-12T15:50:46 02:00</time>
      </trkpt>
      <trkpt lat="45.09713" lon="4.60997">
        <ele>707</ele>
        <time>2019-10-12T15:50:51 02:00</time>
      </trkpt>
      <trkpt lat="45.09677" lon="4.6097">
        <ele>712</ele>
        <time>2019-10-12T15:50:56 02:00</time>
      </trkpt>
      <trkpt lat="45.09689" lon="4.60895">
        <ele>710</ele>
        <time>2019-10-12T15:51:01 02:00</time>
      </trkpt>
      <trkpt lat="45.09681" lon="4.60775">
        <ele>716</ele>
        <time>2019-10-12T15:51:06 02:00</time>
      </trkpt>
      <trkpt lat="45.09643" lon="4.60647">
        <ele>726</ele>
        <time>2019-10-12T15:51:11 02:00</time>
      </trkpt>
      <trkpt lat="45.09616" lon="4.60544">
        <ele>730</ele>
        <time>2019-10-12T15:51:16 02:00</time>
      </trkpt>
      <trkpt lat="45.09601" lon="4.60404">
        <ele>740</ele>
        <time>2019-10-12T15:51:21 02:00</time>
      </trkpt>
      <trkpt lat="45.09604" lon="4.60342">
        <ele>742</ele>
        <time>2019-10-12T15:51:26 02:00</time>
      </trkpt>
      <trkpt lat="45.0968" lon="4.60228">
        <ele>758</ele>
        <time>2019-10-12T15:51:31 02:00</time>
      </trkpt>
      <trkpt lat="45.09693" lon="4.60132">
        <ele>758</ele>
        <time>2019-10-12T15:51:36 02:00</time>
      </trkpt>
      <trkpt lat="45.0971" lon="4.6004">
        <ele>761</ele>
        <time>2019-10-12T15:51:41 02:00</time>
      </trkpt>
      <trkpt lat="45.09733" lon="4.59973">
        <ele>768</ele>
        <time>2019-10-12T15:51:46 02:00</time>
      </trkpt>
      <trkpt lat="45.09742" lon="4.59889">
        <ele>775</ele>
        <time>2019-10-12T15:51:51 02:00</time>
      </trkpt>
      <trkpt lat="45.09721" lon="4.59778">
        <ele>778</ele>
        <time>2019-10-12T15:51:56 02:00</time>
      </trkpt>
      <trkpt lat="45.09713" lon="4.59673">
        <ele>781</ele>
        <time>2019-10-12T15:52:01 02:00</time>
      </trkpt>
      <trkpt lat="45.09705" lon="4.59559">
        <ele>778</ele>
        <time>2019-10-12T15:52:06 02:00</time>
      </trkpt>
      <trkpt lat="45.09704" lon="4.59499">
        <ele>778</ele>
        <time>2019-10-12T15:52:11 02:00</time>
      </trkpt>
      <trkpt lat="45.09644" lon="4.59407">
        <ele>792</ele>
        <time>2019-10-12T15:52:16 02:00</time>
      </trkpt>
      <trkpt lat="45.09554" lon="4.59291">
        <ele>805</ele>
        <time>2019-10-12T15:52:21 02:00</time>
      </trkpt>
      <trkpt lat="45.09516" lon="4.59209">
        <ele>805</ele>
        <time>2019-10-12T15:52:26 02:00</time>
      </trkpt>
      <trkpt lat="45.09512" lon="4.59061">
        <ele>815</ele>
        <time>2019-10-12T15:52:31 02:00</time>
      </trkpt>
      <trkpt lat="45.09521" lon="4.58932">
        <ele>827</ele>
        <time>2019-10-12T15:52:36 02:00</time>
      </trkpt>
      <trkpt lat="45.09499" lon="4.58814">
        <ele>829</ele>
        <time>2019-10-12T15:52:41 02:00</time>
      </trkpt>
      <trkpt lat="45.09495" lon="4.58746">
        <ele>826</ele>
        <time>2019-10-12T15:52:46 02:00</time>
      </trkpt>
      <trkpt lat="45.0951" lon="4.5869">
        <ele>825</ele>
        <time>2019-10-12T15:52:51 02:00</time>
      </trkpt>
      <trkpt lat="45.0954" lon="4.58675">
        <ele>827</ele>
        <time>2019-10-12T15:52:56 02:00</time>
      </trkpt>
      <trkpt lat="45.09595" lon="4.58705">
        <ele>835</ele>
        <time>2019-10-12T15:53:01 02:00</time>
      </trkpt>
      <trkpt lat="45.09674" lon="4.58743">
        <ele>844</ele>
        <time>2019-10-12T15:53:06 02:00</time>
      </trkpt>
      <trkpt lat="45.09777" lon="4.58718">
        <ele>849</ele>
        <time>2019-10-12T15:53:11 02:00</time>
      </trkpt>
      <trkpt lat="45.09817" lon="4.58692">
        <ele>848</ele>
        <time>2019-10-12T15:53:16 02:00</time>
      </trkpt>
      <trkpt lat="45.09856" lon="4.58676">
        <ele>849</ele>
        <time>2019-10-12T15:53:21 02:00</time>
      </trkpt>
      <trkpt lat="45.09879" lon="4.58657">
        <ele>849</ele>
        <time>2019-10-12T15:53:26 02:00</time>
      </trkpt>
      <trkpt lat="45.0989" lon="4.5867">
        <ele>850</ele>
        <time>2019-10-12T15:53:31 02:00</time>
      </trkpt>
      <trkpt lat="45.09901" lon="4.58675">
        <ele>851</ele>
        <time>2019-10-12T15:53:36 02:00</time>
      </trkpt>
      <trkpt lat="45.0992" lon="4.58646">
        <ele>852</ele>
        <time>2019-10-12T15:53:41 02:00</time>
      </trkpt>
      <trkpt lat="45.09917" lon="4.58614">
        <ele>853</ele>
        <time>2019-10-12T15:53:46 02:00</time>
      </trkpt>
      <trkpt lat="45.09919" lon="4.58585">
        <ele>854</ele>
        <time>2019-10-12T15:53:51 02:00</time>
      </trkpt>
      <trkpt lat="45.0996" lon="4.58518">
        <ele>857</ele>
        <time>2019-10-12T15:53:56 02:00</time>
      </trkpt>
      <trkpt lat="45.10001" lon="4.58459">
        <ele>869</ele>
        <time>2019-10-12T15:54:01 02:00</time>
      </trkpt>
      <trkpt lat="45.09969" lon="4.58425">
        <ele>869</ele>
        <time>2019-10-12T15:54:06 02:00</time>
      </trkpt>
      <trkpt lat="45.09959" lon="4.5839">
        <ele>868</ele>
        <time>2019-10-12T15:54:11 02:00</time>
      </trkpt>
      <trkpt lat="45.09958" lon="4.58355">
        <ele>869</ele>
        <time>2019-10-12T15:54:16 02:00</time>
      </trkpt>
      <trkpt lat="45.09975" lon="4.58256">
        <ele>867</ele>
        <time>2019-10-12T15:54:21 02:00</time>
      </trkpt>
      <trkpt lat="45.10004" lon="4.58119">
        <ele>862</ele>
        <time>2019-10-12T15:54:26 02:00</time>
      </trkpt>
      <trkpt lat="45.1002" lon="4.57981">
        <ele>858</ele>
        <time>2019-10-12T15:54:31 02:00</time>
      </trkpt>
      <trkpt lat="45.10005" lon="4.57928">
        <ele>852</ele>
        <time>2019-10-12T15:54:36 02:00</time>
      </trkpt>
      <trkpt lat="45.09969" lon="4.57761">
        <ele>852</ele>
        <time>2019-10-12T15:54:41 02:00</time>
      </trkpt>
      <trkpt lat="45.09961" lon="4.57686">
        <ele>840</ele>
        <time>2019-10-12T15:54:46 02:00</time>
      </trkpt>
      <trkpt lat="45.09957" lon="4.57648">
        <ele>831</ele>
        <time>2019-10-12T15:54:51 02:00</time>
      </trkpt>
      <trkpt lat="45.09931" lon="4.57736">
        <ele>832</ele>
        <time>2019-10-12T15:54:56 02:00</time>
      </trkpt>
      <trkpt lat="45.09931" lon="4.5777">
        <ele>833</ele>
        <time>2019-10-12T15:55:01 02:00</time>
      </trkpt>
      <trkpt lat="45.09887" lon="4.57723">
        <ele>810</ele>
        <time>2019-10-12T15:55:06 02:00</time>
      </trkpt>
      <trkpt lat="45.09874" lon="4.57593">
        <ele>782</ele>
        <time>2019-10-12T15:55:11 02:00</time>
      </trkpt>
      <trkpt lat="45.09801" lon="4.57683">
        <ele>766</ele>
        <time>2019-10-12T15:55:16 02:00</time>
      </trkpt>
      <trkpt lat="45.09834" lon="4.57585">
        <ele>764</ele>
        <time>2019-10-12T15:55:21 02:00</time>
      </trkpt>
      <trkpt lat="45.09852" lon="4.57527">
        <ele>757</ele>
        <time>2019-10-12T15:55:26 02:00</time>
      </trkpt>
      <trkpt lat="45.09878" lon="4.57469">
        <ele>756</ele>
        <time>2019-10-12T15:55:31 02:00</time>
      </trkpt>
      <trkpt lat="45.09881" lon="4.57445">
        <ele>753</ele>
        <time>2019-10-12T15:55:36 02:00</time>
      </trkpt>
      <trkpt lat="45.09883" lon="4.57387">
        <ele>745</ele>
        <time>2019-10-12T15:55:41 02:00</time>
      </trkpt>
      <trkpt lat="45.0988" lon="4.57332">
        <ele>738</ele>
        <time>2019-10-12T15:55:46 02:00</time>
      </trkpt>
      <trkpt lat="45.09868" lon="4.57254">
        <ele>732</ele>
        <time>2019-10-12T15:55:51 02:00</time>
      </trkpt>
      <trkpt lat="45.09873" lon="4.57174">
        <ele>734</ele>
        <time>2019-10-12T15:55:56 02:00</time>
      </trkpt>
      <trkpt lat="45.09897" lon="4.5709">
        <ele>735</ele>
        <time>2019-10-12T15:56:01 02:00</time>
      </trkpt>
      <trkpt lat="45.09924" lon="4.57012">
        <ele>735</ele>
        <time>2019-10-12T15:56:06 02:00</time>
      </trkpt>
      <trkpt lat="45.09913" lon="4.56996">
        <ele>736</ele>
        <time>2019-10-12T15:56:11 02:00</time>
      </trkpt>
      <trkpt lat="45.09897" lon="4.56993">
        <ele>740</ele>
        <time>2019-10-12T15:56:16 02:00</time>
      </trkpt>
      <trkpt lat="45.09833" lon="4.57074">
        <ele>735</ele>
        <time>2019-10-12T15:56:21 02:00</time>
      </trkpt>
      <trkpt lat="45.0979" lon="4.57186">
        <ele>734</ele>
        <time>2019-10-12T15:56:26 02:00</time>
      </trkpt>
      <trkpt lat="45.09751" lon="4.57218">
        <ele>734</ele>
        <time>2019-10-12T15:56:31 02:00</time>
      </trkpt>
      <trkpt lat="45.09716" lon="4.57231">
        <ele>737</ele>
        <time>2019-10-12T15:56:36 02:00</time>
      </trkpt>
      <trkpt lat="45.09625" lon="4.57256">
        <ele>745</ele>
        <time>2019-10-12T15:56:41 02:00</time>
      </trkpt>
      <trkpt lat="45.09526" lon="4.57245">
        <ele>756</ele>
        <time>2019-10-12T15:56:46 02:00</time>
      </trkpt>
      <trkpt lat="45.09491" lon="4.57259">
        <ele>754</ele>
        <time>2019-10-12T15:56:51 02:00</time>
      </trkpt>
      <trkpt lat="45.09459" lon="4.57259">
        <ele>760</ele>
        <time>2019-10-12T15:56:56 02:00</time>
      </trkpt>
      <trkpt lat="45.09404" lon="4.57307">
        <ele>754</ele>
        <time>2019-10-12T15:57:01 02:00</time>
      </trkpt>
      <trkpt lat="45.09342" lon="4.5736">
        <ele>753</ele>
        <time>2019-10-12T15:57:06 02:00</time>
      </trkpt>
      <trkpt lat="45.09312" lon="4.57443">
        <ele>741</ele>
        <time>2019-10-12T15:57:11 02:00</time>
      </trkpt>
      <trkpt lat="45.09236" lon="4.57515">
        <ele>743</ele>
        <time>2019-10-12T15:57:16 02:00</time>
      </trkpt>
      <trkpt lat="45.09194" lon="4.57545">
        <ele>746</ele>
        <time>2019-10-12T15:57:21 02:00</time>
      </trkpt>
      <trkpt lat="45.09151" lon="4.57635">
        <ele>734</ele>
        <time>2019-10-12T15:57:26 02:00</time>
      </trkpt>
      <trkpt lat="45.0908" lon="4.57642">
        <ele>732</ele>
        <time>2019-10-12T15:57:31 02:00</time>
      </trkpt>
      <trkpt lat="45.09042" lon="4.57605">
        <ele>734</ele>
        <time>2019-10-12T15:57:36 02:00</time>
      </trkpt>
      <trkpt lat="45.08997" lon="4.57534">
        <ele>738</ele>
        <time>2019-10-12T15:57:41 02:00</time>
      </trkpt>
      <trkpt lat="45.0897" lon="4.57457">
        <ele>742</ele>
        <time>2019-10-12T15:57:46 02:00</time>
      </trkpt>
      <trkpt lat="45.08901" lon="4.57319">
        <ele>749</ele>
        <time>2019-10-12T15:57:51 02:00</time>
      </trkpt>
      <trkpt lat="45.08851" lon="4.57274">
        <ele>745</ele>
        <time>2019-10-12T15:57:56 02:00</time>
      </trkpt>
      <trkpt lat="45.08805" lon="4.57251">
        <ele>739</ele>
        <time>2019-10-12T15:58:01 02:00</time>
      </trkpt>
      <trkpt lat="45.08757" lon="4.57236">
        <ele>735</ele>
        <time>2019-10-12T15:58:06 02:00</time>
      </trkpt>
      <trkpt lat="45.08714" lon="4.57272">
        <ele>726</ele>
        <time>2019-10-12T15:58:11 02:00</time>
      </trkpt>
      <trkpt lat="45.0867" lon="4.57321">
        <ele>720</ele>
        <time>2019-10-12T15:58:16 02:00</time>
      </trkpt>
      <trkpt lat="45.08609" lon="4.57304">
        <ele>713</ele>
        <time>2019-10-12T15:58:21 02:00</time>
      </trkpt>
      <trkpt lat="45.08599" lon="4.57197">
        <ele>698</ele>
        <time>2019-10-12T15:58:26 02:00</time>
      </trkpt>
      <trkpt lat="45.08615" lon="4.57008">
        <ele>686</ele>
        <time>2019-10-12T15:58:31 02:00</time>
      </trkpt>
      <trkpt lat="45.08621" lon="4.56905">
        <ele>690</ele>
        <time>2019-10-12T15:58:36 02:00</time>
      </trkpt>
      <trkpt lat="45.0861" lon="4.56871">
        <ele>689</ele>
        <time>2019-10-12T15:58:41 02:00</time>
      </trkpt>
      <trkpt lat="45.08551" lon="4.56963">
        <ele>676</ele>
        <time>2019-10-12T15:58:46 02:00</time>
      </trkpt>
      <trkpt lat="45.08481" lon="4.56971">
        <ele>675</ele>
        <time>2019-10-12T15:58:51 02:00</time>
      </trkpt>
      <trkpt lat="45.08444" lon="4.56951">
        <ele>681</ele>
        <time>2019-10-12T15:58:56 02:00</time>
      </trkpt>
      <trkpt lat="45.0841" lon="4.56923">
        <ele>691</ele>
        <time>2019-10-12T15:59:01 02:00</time>
      </trkpt>
      <trkpt lat="45.08376" lon="4.56914">
        <ele>693</ele>
        <time>2019-10-12T15:59:06 02:00</time>
      </trkpt>
      <trkpt lat="45.08314" lon="4.56961">
        <ele>682</ele>
        <time>2019-10-12T15:59:11 02:00</time>
      </trkpt>
      <trkpt lat="45.08285" lon="4.56957">
        <ele>682</ele>
        <time>2019-10-12T15:59:16 02:00</time>
      </trkpt>
      <trkpt lat="45.08254" lon="4.56932">
        <ele>685</ele>
        <time>2019-10-12T15:59:21 02:00</time>
      </trkpt>
      <trkpt lat="45.08234" lon="4.56887">
        <ele>685</ele>
        <time>2019-10-12T15:59:26 02:00</time>
      </trkpt>
      <trkpt lat="45.0819" lon="4.56768">
        <ele>685</ele>
        <time>2019-10-12T15:59:31 02:00</time>
      </trkpt>
      <trkpt lat="45.08158" lon="4.56687">
        <ele>690</ele>
        <time>2019-10-12T15:59:36 02:00</time>
      </trkpt>
      <trkpt lat="45.08127" lon="4.56663">
        <ele>691</ele>
        <time>2019-10-12T15:59:41 02:00</time>
      </trkpt>
      <trkpt lat="45.08074" lon="4.56629">
        <ele>696</ele>
        <time>2019-10-12T15:59:46 02:00</time>
      </trkpt>
      <trkpt lat="45.08049" lon="4.56607">
        <ele>699</ele>
        <time>2019-10-12T15:59:51 02:00</time>
      </trkpt>
      <trkpt lat="45.08016" lon="4.56594">
        <ele>699</ele>
        <time>2019-10-12T15:59:56 02:00</time>
      </trkpt>
      <trkpt lat="45.07951" lon="4.56575">
        <ele>696</ele>
        <time>2019-10-12T16:00:01 02:00</time>
      </trkpt>
      <trkpt lat="45.07894" lon="4.56571">
        <ele>692</ele>
        <time>2019-10-12T16:00:06 02:00</time>
      </trkpt>
      <trkpt lat="45.07845" lon="4.5654">
        <ele>689</ele>
        <time>2019-10-12T16:00:11 02:00</time>
      </trkpt>
      <trkpt lat="45.07821" lon="4.56553">
        <ele>687</ele>
        <time>2019-10-12T16:00:16 02:00</time>
      </trkpt>
      <trkpt lat="45.0782" lon="4.56523">
        <ele>686</ele>
        <time>2019-10-12T16:00:21 02:00</time>
      </trkpt>
      <trkpt lat="45.07754" lon="4.5653">
        <ele>678</ele>
        <time>2019-10-12T16:00:26 02:00</time>
      </trkpt>
      <trkpt lat="45.07686" lon="4.56547">
        <ele>668</ele>
        <time>2019-10-12T16:00:31 02:00</time>
      </trkpt>
      <trkpt lat="45.07663" lon="4.56583">
        <ele>669</ele>
        <time>2019-10-12T16:00:36 02:00</time>
      </trkpt>
      <trkpt lat="45.07648" lon="4.56628">
        <ele>665</ele>
        <time>2019-10-12T16:00:41 02:00</time>
      </trkpt>
      <trkpt lat="45.07624" lon="4.5671">
        <ele>654</ele>
        <time>2019-10-12T16:00:46 02:00</time>
      </trkpt>
      <trkpt lat="45.07616" lon="4.56758">
        <ele>646</ele>
        <time>2019-10-12T16:00:51 02:00</time>
      </trkpt>
      <trkpt lat="45.07618" lon="4.56806">
        <ele>640</ele>
        <time>2019-10-12T16:00:56 02:00</time>
      </trkpt>
      <trkpt lat="45.07648" lon="4.56875">
        <ele>640</ele>
        <time>2019-10-12T16:01:01 02:00</time>
      </trkpt>
      <trkpt lat="45.07648" lon="4.56907">
        <ele>634</ele>
        <time>2019-10-12T16:01:06 02:00</time>
      </trkpt>
      <trkpt lat="45.07653" lon="4.56939">
        <ele>631</ele>
        <time>2019-10-12T16:01:11 02:00</time>
      </trkpt>
      <trkpt lat="45.07677" lon="4.57002">
        <ele>627</ele>
        <time>2019-10-12T16:01:16 02:00</time>
      </trkpt>
      <trkpt lat="45.07641" lon="4.57082">
        <ele>610</ele>
        <time>2019-10-12T16:01:21 02:00</time>
      </trkpt>
      <trkpt lat="45.07627" lon="4.57134">
        <ele>603</ele>
        <time>2019-10-12T16:01:26 02:00</time>
      </trkpt>
      <trkpt lat="45.07624" lon="4.57184">
        <ele>597</ele>
        <time>2019-10-12T16:01:31 02:00</time>
      </trkpt>
      <trkpt lat="45.07627" lon="4.57248">
        <ele>591</ele>
        <time>2019-10-12T16:01:36 02:00</time>
      </trkpt>
      <trkpt lat="45.07638" lon="4.57287">
        <ele>587</ele>
        <time>2019-10-12T16:01:41 02:00</time>
      </trkpt>
      <trkpt lat="45.07679" lon="4.57334">
        <ele>584</ele>
        <time>2019-10-12T16:01:46 02:00</time>
      </trkpt>
      <trkpt lat="45.07703" lon="4.57373">
        <ele>580</ele>
        <time>2019-10-12T16:01:51 02:00</time>
      </trkpt>
      <trkpt lat="45.07707" lon="4.57422">
        <ele>575</ele>
        <time>2019-10-12T16:01:56 02:00</time>
      </trkpt>
      <trkpt lat="45.07695" lon="4.5751">
        <ele>567</ele>
        <time>2019-10-12T16:02:01 02:00</time>
      </trkpt>
      <trkpt lat="45.07668" lon="4.57569">
        <ele>558</ele>
        <time>2019-10-12T16:02:06 02:00</time>
      </trkpt>
      <trkpt lat="45.07676" lon="4.57592">
        <ele>556</ele>
        <time>2019-10-12T16:02:11 02:00</time>
      </trkpt>
      <trkpt lat="45.07735" lon="4.57633">
        <ele>556</ele>
        <time>2019-10-12T16:02:16 02:00</time>
      </trkpt>
      <trkpt lat="45.07769" lon="4.57658">
        <ele>554</ele>
        <time>2019-10-12T16:02:21 02:00</time>
      </trkpt>
      <trkpt lat="45.078" lon="4.57695">
        <ele>553</ele>
        <time>2019-10-12T16:02:26 02:00</time>
      </trkpt>
      <trkpt lat="45.07817" lon="4.57736">
        <ele>550</ele>
        <time>2019-10-12T16:02:31 02:00</time>
      </trkpt>
      <trkpt lat="45.07845" lon="4.57757">
        <ele>549</ele>
        <time>2019-10-12T16:02:36 02:00</time>
      </trkpt>
      <trkpt lat="45.07874" lon="4.57783">
        <ele>550</ele>
        <time>2019-10-12T16:02:41 02:00</time>
      </trkpt>
      <trkpt lat="45.07938" lon="4.57778">
        <ele>554</ele>
        <time>2019-10-12T16:02:46 02:00</time>
      </trkpt>
      <trkpt lat="45.07955" lon="4.5779">
        <ele>555</ele>
        <time>2019-10-12T16:02:51 02:00</time>
      </trkpt>
      <trkpt lat="45.0796" lon="4.57821">
        <ele>554</ele>
        <time>2019-10-12T16:02:56 02:00</time>
      </trkpt>
      <trkpt lat="45.0797" lon="4.57851">
        <ele>553</ele>
        <time>2019-10-12T16:03:01 02:00</time>
      </trkpt>
      <trkpt lat="45.08005" lon="4.57868">
        <ele>556</ele>
        <time>2019-10-12T16:03:06 02:00</time>
      </trkpt>
      <trkpt lat="45.08022" lon="4.57871">
        <ele>556</ele>
        <time>2019-10-12T16:03:11 02:00</time>
      </trkpt>
      <trkpt lat="45.08059" lon="4.57922">
        <ele>554</ele>
        <time>2019-10-12T16:03:16 02:00</time>
      </trkpt>
      <trkpt lat="45.0813" lon="4.57967">
        <ele>556</ele>
        <time>2019-10-12T16:03:21 02:00</time>
      </trkpt>
      <trkpt lat="45.08159" lon="4.5798">
        <ele>558</ele>
        <time>2019-10-12T16:03:26 02:00</time>
      </trkpt>
      <trkpt lat="45.08171" lon="4.58021">
        <ele>556</ele>
        <time>2019-10-12T16:03:31 02:00</time>
      </trkpt>
      <trkpt lat="45.08188" lon="4.58098">
        <ele>551</ele>
        <time>2019-10-12T16:03:36 02:00</time>
      </trkpt>
      <trkpt lat="45.08186" lon="4.58112">
        <ele>549</ele>
        <time>2019-10-12T16:03:41 02:00</time>
      </trkpt>
      <trkpt lat="45.08186" lon="4.58133">
        <ele>547</ele>
        <time>2019-10-12T16:03:46 02:00</time>
      </trkpt>
      <trkpt lat="45.08189" lon="4.58162">
        <ele>545</ele>
        <time>2019-10-12T16:03:51 02:00</time>
      </trkpt>
      <trkpt lat="45.08186" lon="4.58192">
        <ele>542</ele>
        <time>2019-10-12T16:03:56 02:00</time>
      </trkpt>
      <trkpt lat="45.08184" lon="4.58223">
        <ele>540</ele>
        <time>2019-10-12T16:04:01 02:00</time>
      </trkpt>
      <trkpt lat="45.08176" lon="4.58275">
        <ele>537</ele>
        <time>2019-10-12T16:04:06 02:00</time>
      </trkpt>
      <trkpt lat="45.0816" lon="4.58315">
        <ele>534</ele>
        <time>2019-10-12T16:04:11 02:00</time>
      </trkpt>
      <trkpt lat="45.08154" lon="4.58366">
        <ele>533</ele>
        <time>2019-10-12T16:04:16 02:00</time>
      </trkpt>
      <trkpt lat="45.08162" lon="4.58403">
        <ele>533</ele>
        <time>2019-10-12T16:04:21 02:00</time>
      </trkpt>
      <trkpt lat="45.0814" lon="4.58394">
        <ele>532</ele>
        <time>2019-10-12T16:04:26 02:00</time>
      </trkpt>
      <trkpt lat="45.0813" lon="4.58378">
        <ele>532</ele>
        <time>2019-10-12T16:04:31 02:00</time>
      </trkpt>
      <trkpt lat="45.08132" lon="4.58319">
        <ele>534</ele>
        <time>2019-10-12T16:04:36 02:00</time>
      </trkpt>
      <trkpt lat="45.08078" lon="4.5831">
        <ele>535</ele>
        <time>2019-10-12T16:04:41 02:00</time>
      </trkpt>
      <trkpt lat="45.08061" lon="4.58359">
        <ele>542</ele>
        <time>2019-10-12T16:04:46 02:00</time>
      </trkpt>
      <trkpt lat="45.08064" lon="4.58425">
        <ele>536</ele>
        <time>2019-10-12T16:04:51 02:00</time>
      </trkpt>
      <trkpt lat="45.08056" lon="4.58496">
        <ele>535</ele>
        <time>2019-10-12T16:04:56 02:00</time>
      </trkpt>
      <trkpt lat="45.08053" lon="4.58547">
        <ele>534</ele>
        <time>2019-10-12T16:05:01 02:00</time>
      </trkpt>
      <trkpt lat="45.08042" lon="4.58603">
        <ele>535</ele>
        <time>2019-10-12T16:05:06 02:00</time>
      </trkpt>
      <trkpt lat="45.0801" lon="4.58646">
        <ele>540</ele>
        <time>2019-10-12T16:05:11 02:00</time>
      </trkpt>
      <trkpt lat="45.07961" lon="4.58668">
        <ele>555</ele>
        <time>2019-10-12T16:05:16 02:00</time>
      </trkpt>
      <trkpt lat="45.07968" lon="4.58758">
        <ele>547</ele>
        <time>2019-10-12T16:05:21 02:00</time>
      </trkpt>
      <trkpt lat="45.07988" lon="4.58833">
        <ele>539</ele>
        <time>2019-10-12T16:05:26 02:00</time>
      </trkpt>
      <trkpt lat="45.08027" lon="4.58901">
        <ele>529</ele>
        <time>2019-10-12T16:05:31 02:00</time>
      </trkpt>
      <trkpt lat="45.08041" lon="4.58936">
        <ele>526</ele>
        <time>2019-10-12T16:05:36 02:00</time>
      </trkpt>
      <trkpt lat="45.08027" lon="4.58964">
        <ele>525</ele>
        <time>2019-10-12T16:05:41 02:00</time>
      </trkpt>
      <trkpt lat="45.08042" lon="4.5903">
        <ele>520</ele>
        <time>2019-10-12T16:05:46 02:00</time>
      </trkpt>
      <trkpt lat="45.08079" lon="4.58985">
        <ele>518</ele>
        <time>2019-10-12T16:05:51 02:00</time>
      </trkpt>
      <trkpt lat="45.08106" lon="4.58996">
        <ele>523</ele>
        <time>2019-10-12T16:05:56 02:00</time>
      </trkpt>
      <trkpt lat="45.08124" lon="4.59088">
        <ele>528</ele>
        <time>2019-10-12T16:06:01 02:00</time>
      </trkpt>
      <trkpt lat="45.08138" lon="4.59213">
        <ele>525</ele>
        <time>2019-10-12T16:06:06 02:00</time>
      </trkpt>
      <trkpt lat="45.08154" lon="4.59281">
        <ele>521</ele>
        <time>2019-10-12T16:06:11 02:00</time>
      </trkpt>
      <trkpt lat="45.08175" lon="4.59325">
        <ele>519</ele>
        <time>2019-10-12T16:06:16 02:00</time>
      </trkpt>
      <trkpt lat="45.08192" lon="4.59374">
        <ele>519</ele>
        <time>2019-10-12T16:06:21 02:00</time>
      </trkpt>
      <trkpt lat="45.08203" lon="4.59402">
        <ele>519</ele>
        <time>2019-10-12T16:06:26 02:00</time>
      </trkpt>
      <trkpt lat="45.08194" lon="4.59437">
        <ele>517</ele>
        <time>2019-10-12T16:06:31 02:00</time>
      </trkpt>
      <trkpt lat="45.08176" lon="4.59466">
        <ele>514</ele>
        <time>2019-10-12T16:06:36 02:00</time>
      </trkpt>
      <trkpt lat="45.08173" lon="4.59554">
        <ele>516</ele>
        <time>2019-10-12T16:06:41 02:00</time>
      </trkpt>
      <trkpt lat="45.08167" lon="4.59634">
        <ele>513</ele>
        <time>2019-10-12T16:06:46 02:00</time>
      </trkpt>
      <trkpt lat="45.08189" lon="4.5975">
        <ele>513</ele>
        <time>2019-10-12T16:06:51 02:00</time>
      </trkpt>
      <trkpt lat="45.08226" lon="4.59855">
        <ele>511</ele>
        <time>2019-10-12T16:06:56 02:00</time>
      </trkpt>
      <trkpt lat="45.08262" lon="4.59893">
        <ele>511</ele>
        <time>2019-10-12T16:07:01 02:00</time>
      </trkpt>
      <trkpt lat="45.0827" lon="4.59904">
        <ele>511</ele>
        <time>2019-10-12T16:07:06 02:00</time>
      </trkpt>
      <trkpt lat="45.08257" lon="4.60011">
        <ele>511</ele>
        <time>2019-10-12T16:07:11 02:00</time>
      </trkpt>
      <trkpt lat="45.08239" lon="4.60058">
        <ele>510</ele>
        <time>2019-10-12T16:07:16 02:00</time>
      </trkpt>
      <trkpt lat="45.08241" lon="4.60098">
        <ele>511</ele>
        <time>2019-10-12T16:07:21 02:00</time>
      </trkpt>
      <trkpt lat="45.0826" lon="4.60163">
        <ele>515</ele>
        <time>2019-10-12T16:07:26 02:00</time>
      </trkpt>
      <trkpt lat="45.08286" lon="4.60286">
        <ele>524</ele>
        <time>2019-10-12T16:07:31 02:00</time>
      </trkpt>
      <trkpt lat="45.08306" lon="4.60148">
        <ele>531</ele>
        <time>2019-10-12T16:07:36 02:00</time>
      </trkpt>
      <trkpt lat="45.0832" lon="4.60105">
        <ele>534</ele>
        <time>2019-10-12T16:07:41 02:00</time>
      </trkpt>
      <trkpt lat="45.08388" lon="4.60007">
        <ele>541</ele>
        <time>2019-10-12T16:07:46 02:00</time>
      </trkpt>
      <trkpt lat="45.08412" lon="4.60002">
        <ele>545</ele>
        <time>2019-10-12T16:07:51 02:00</time>
      </trkpt>
      <trkpt lat="45.08457" lon="4.60015">
        <ele>552</ele>
        <time>2019-10-12T16:07:56 02:00</time>
      </trkpt>
      <trkpt lat="45.08506" lon="4.60019">
        <ele>557</ele>
        <time>2019-10-12T16:08:01 02:00</time>
      </trkpt>
      <trkpt lat="45.08598" lon="4.60077">
        <ele>569</ele>
        <time>2019-10-12T16:08:06 02:00</time>
      </trkpt>
      <trkpt lat="45.08651" lon="4.6012">
        <ele>571</ele>
        <time>2019-10-12T16:08:11 02:00</time>
      </trkpt>
      <trkpt lat="45.08724" lon="4.60193">
        <ele>578</ele>
        <time>2019-10-12T16:08:16 02:00</time>
      </trkpt>
      <trkpt lat="45.08761" lon="4.60236">
        <ele>584</ele>
        <time>2019-10-12T16:08:21 02:00</time>
      </trkpt>
      <trkpt lat="45.08774" lon="4.60278">
        <ele>590</ele>
        <time>2019-10-12T16:08:26 02:00</time>
      </trkpt>
      <trkpt lat="45.08688" lon="4.60232">
        <ele>592</ele>
        <time>2019-10-12T16:08:31 02:00</time>
      </trkpt>
      <trkpt lat="45.08642" lon="4.6023">
        <ele>593</ele>
        <time>2019-10-12T16:08:36 02:00</time>
      </trkpt>
      <trkpt lat="45.08606" lon="4.6027">
        <ele>599</ele>
        <time>2019-10-12T16:08:41 02:00</time>
      </trkpt>
      <trkpt lat="45.08536" lon="4.60361">
        <ele>600</ele>
        <time>2019-10-12T16:08:46 02:00</time>
      </trkpt>
      <trkpt lat="45.08495" lon="4.60522">
        <ele>606</ele>
        <time>2019-10-12T16:08:51 02:00</time>
      </trkpt>
      <trkpt lat="45.08482" lon="4.6054">
        <ele>604</ele>
        <time>2019-10-12T16:08:56 02:00</time>
      </trkpt>
      <trkpt lat="45.08469" lon="4.60563">
        <ele>604</ele>
        <time>2019-10-12T16:09:01 02:00</time>
      </trkpt>
      <trkpt lat="45.08459" lon="4.60597">
        <ele>605</ele>
        <time>2019-10-12T16:09:06 02:00</time>
      </trkpt>
      <trkpt lat="45.08457" lon="4.60612">
        <ele>605</ele>
        <time>2019-10-12T16:09:11 02:00</time>
      </trkpt>
      <trkpt lat="45.0848" lon="4.60608">
        <ele>610</ele>
        <time>2019-10-12T16:09:16 02:00</time>
      </trkpt>
      <trkpt lat="45.085" lon="4.60592">
        <ele>613</ele>
        <time>2019-10-12T16:09:21 02:00</time>
      </trkpt>
      <trkpt lat="45.08521" lon="4.60604">
        <ele>621</ele>
        <time>2019-10-12T16:09:26 02:00</time>
      </trkpt>
      <trkpt lat="45.08482" lon="4.60706">
        <ele>615</ele>
        <time>2019-10-12T16:09:31 02:00</time>
      </trkpt>
      <trkpt lat="45.0848" lon="4.60745">
        <ele>614</ele>
        <time>2019-10-12T16:09:36 02:00</time>
      </trkpt>
      <trkpt lat="45.08459" lon="4.60755">
        <ele>607</ele>
        <time>2019-10-12T16:09:41 02:00</time>
      </trkpt>
      <trkpt lat="45.08438" lon="4.60737">
        <ele>601</ele>
        <time>2019-10-12T16:09:46 02:00</time>
      </trkpt>
      <trkpt lat="45.0841" lon="4.60717">
        <ele>594</ele>
        <time>2019-10-12T16:09:51 02:00</time>
      </trkpt>
      <trkpt lat="45.08401" lon="4.60794">
        <ele>588</ele>
        <time>2019-10-12T16:09:56 02:00</time>
      </trkpt>
      <trkpt lat="45.08418" lon="4.60869">
        <ele>585</ele>
        <time>2019-10-12T16:10:01 02:00</time>
      </trkpt>
      <trkpt lat="45.0843" lon="4.60901">
        <ele>585</ele>
        <time>2019-10-12T16:10:06 02:00</time>
      </trkpt>
      <trkpt lat="45.08444" lon="4.61003">
        <ele>581</ele>
        <time>2019-10-12T16:10:11 02:00</time>
      </trkpt>
      <trkpt lat="45.085" lon="4.61197">
        <ele>578</ele>
        <time>2019-10-12T16:10:16 02:00</time>
      </trkpt>
      <trkpt lat="45.08495" lon="4.6123">
        <ele>576</ele>
        <time>2019-10-12T16:10:21 02:00</time>
      </trkpt>
      <trkpt lat="45.08466" lon="4.61225">
        <ele>571</ele>
        <time>2019-10-12T16:10:26 02:00</time>
      </trkpt>
      <trkpt lat="45.08373" lon="4.613">
        <ele>567</ele>
        <time>2019-10-12T16:10:31 02:00</time>
      </trkpt>
      <trkpt lat="45.08318" lon="4.61361">
        <ele>564</ele>
        <time>2019-10-12T16:10:36 02:00</time>
      </trkpt>
      <trkpt lat="45.08304" lon="4.61384">
        <ele>561</ele>
        <time>2019-10-12T16:10:41 02:00</time>
      </trkpt>
      <trkpt lat="45.08309" lon="4.61429">
        <ele>562</ele>
        <time>2019-10-12T16:10:46 02:00</time>
      </trkpt>
      <trkpt lat="45.08321" lon="4.61526">
        <ele>560</ele>
        <time>2019-10-12T16:10:51 02:00</time>
      </trkpt>
      <trkpt lat="45.08329" lon="4.61605">
        <ele>554</ele>
        <time>2019-10-12T16:10:56 02:00</time>
      </trkpt>
      <trkpt lat="45.0836" lon="4.61697">
        <ele>557</ele>
        <time>2019-10-12T16:11:01 02:00</time>
      </trkpt>
      <trkpt lat="45.084" lon="4.61782">
        <ele>562</ele>
        <time>2019-10-12T16:11:06 02:00</time>
      </trkpt>
      <trkpt lat="45.08414" lon="4.61862">
        <ele>562</ele>
        <time>2019-10-12T16:11:11 02:00</time>
      </trkpt>
      <trkpt lat="45.08415" lon="4.61946">
        <ele>561</ele>
        <time>2019-10-12T16:11:16 02:00</time>
      </trkpt>
      <trkpt lat="45.08398" lon="4.62004">
        <ele>558</ele>
        <time>2019-10-12T16:11:21 02:00</time>
      </trkpt>
      <trkpt lat="45.08374" lon="4.62103">
        <ele>562</ele>
        <time>2019-10-12T16:11:26 02:00</time>
      </trkpt>
      <trkpt lat="45.08376" lon="4.62142">
        <ele>564</ele>
        <time>2019-10-12T16:11:31 02:00</time>
      </trkpt>
      <trkpt lat="45.08392" lon="4.62172">
        <ele>567</ele>
        <time>2019-10-12T16:11:36 02:00</time>
      </trkpt>
      <trkpt lat="45.08364" lon="4.62219">
        <ele>562</ele>
        <time>2019-10-12T16:11:41 02:00</time>
      </trkpt>
      <trkpt lat="45.08342" lon="4.62274">
        <ele>557</ele>
        <time>2019-10-12T16:11:46 02:00</time>
      </trkpt>
      <trkpt lat="45.08292" lon="4.62352">
        <ele>550</ele>
        <time>2019-10-12T16:11:51 02:00</time>
      </trkpt>
      <trkpt lat="45.08276" lon="4.62412">
        <ele>547</ele>
        <time>2019-10-12T16:11:56 02:00</time>
      </trkpt>
      <trkpt lat="45.08274" lon="4.62491">
        <ele>545</ele>
        <time>2019-10-12T16:12:01 02:00</time>
      </trkpt>
      <trkpt lat="45.08282" lon="4.62575">
        <ele>538</ele>
        <time>2019-10-12T16:12:06 02:00</time>
      </trkpt>
      <trkpt lat="45.08304" lon="4.62617">
        <ele>536</ele>
        <time>2019-10-12T16:12:11 02:00</time>
      </trkpt>
      <trkpt lat="45.0841" lon="4.62649">
        <ele>533</ele>
        <time>2019-10-12T16:12:16 02:00</time>
      </trkpt>
      <trkpt lat="45.08411" lon="4.62686">
        <ele>531</ele>
        <time>2019-10-12T16:12:21 02:00</time>
      </trkpt>
      <trkpt lat="45.08453" lon="4.62712">
        <ele>530</ele>
        <time>2019-10-12T16:12:26 02:00</time>
      </trkpt>
      <trkpt lat="45.08454" lon="4.62777">
        <ele>526</ele>
        <time>2019-10-12T16:12:31 02:00</time>
      </trkpt>
      <trkpt lat="45.08464" lon="4.62851">
        <ele>522</ele>
        <time>2019-10-12T16:12:36 02:00</time>
      </trkpt>
      <trkpt lat="45.08541" lon="4.63001">
        <ele>515</ele>
        <time>2019-10-12T16:12:41 02:00</time>
      </trkpt>
      <trkpt lat="45.08587" lon="4.63059">
        <ele>513</ele>
        <time>2019-10-12T16:12:46 02:00</time>
      </trkpt>
      <trkpt lat="45.08616" lon="4.63066">
        <ele>513</ele>
        <time>2019-10-12T16:12:51 02:00</time>
      </trkpt>
      <trkpt lat="45.08735" lon="4.63026">
        <ele>515</ele>
        <time>2019-10-12T16:12:56 02:00</time>
      </trkpt>
      <trkpt lat="45.08767" lon="4.63098">
        <ele>507</ele>
        <time>2019-10-12T16:13:01 02:00</time>
      </trkpt>
      <trkpt lat="45.08789" lon="4.63136">
        <ele>502</ele>
        <time>2019-10-12T16:13:06 02:00</time>
      </trkpt>
      <trkpt lat="45.08817" lon="4.63182">
        <ele>497</ele>
        <time>2019-10-12T16:13:11 02:00</time>
      </trkpt>
      <trkpt lat="45.08839" lon="4.63202">
        <ele>495</ele>
        <time>2019-10-12T16:13:16 02:00</time>
      </trkpt>
      <trkpt lat="45.08847" lon="4.63227">
        <ele>492</ele>
        <time>2019-10-12T16:13:21 02:00</time>
      </trkpt>
      <trkpt lat="45.08863" lon="4.63267">
        <ele>488</ele>
        <time>2019-10-12T16:13:26 02:00</time>
      </trkpt>
      <trkpt lat="45.08858" lon="4.63297">
        <ele>487</ele>
        <time>2019-10-12T16:13:31 02:00</time>
      </trkpt>
      <trkpt lat="45.08842" lon="4.63325">
        <ele>486</ele>
        <time>2019-10-12T16:13:36 02:00</time>
      </trkpt>
      <trkpt lat="45.08874" lon="4.63314">
        <ele>485</ele>
        <time>2019-10-12T16:13:41 02:00</time>
      </trkpt>
      <trkpt lat="45.08898" lon="4.63332">
        <ele>484</ele>
        <time>2019-10-12T16:13:46 02:00</time>
      </trkpt>
      <trkpt lat="45.08905" lon="4.63334">
        <ele>484</ele>
        <time>2019-10-12T16:13:51 02:00</time>
      </trkpt>
      <trkpt lat="45.08919" lon="4.63295">
        <ele>484</ele>
        <time>2019-10-12T16:13:56 02:00</time>
      </trkpt>
      <trkpt lat="45.08936" lon="4.63287">
        <ele>485</ele>
        <time>2019-10-12T16:14:01 02:00</time>
      </trkpt>
      <trkpt lat="45.08958" lon="4.63299">
        <ele>486</ele>
        <time>2019-10-12T16:14:06 02:00</time>
      </trkpt>
      <trkpt lat="45.0896" lon="4.63329">
        <ele>487</ele>
        <time>2019-10-12T16:14:11 02:00</time>
      </trkpt>
      <trkpt lat="45.08956" lon="4.63389">
        <ele>490</ele>
        <time>2019-10-12T16:14:16 02:00</time>
      </trkpt>
      <trkpt lat="45.08969" lon="4.63418">
        <ele>492</ele>
        <time>2019-10-12T16:14:21 02:00</time>
      </trkpt>
      <trkpt lat="45.08973" lon="4.63454">
        <ele>496</ele>
        <time>2019-10-12T16:14:26 02:00</time>
      </trkpt>
      <trkpt lat="45.08985" lon="4.63475">
        <ele>499</ele>
        <time>2019-10-12T16:14:31 02:00</time>
      </trkpt>
      <trkpt lat="45.08993" lon="4.63514">
        <ele>504</ele>
        <time>2019-10-12T16:14:36 02:00</time>
      </trkpt>
      <trkpt lat="45.08994" lon="4.63536">
        <ele>507</ele>
        <time>2019-10-12T16:14:41 02:00</time>
      </trkpt>
      <trkpt lat="45.09029" lon="4.63584">
        <ele>509</ele>
        <time>2019-10-12T16:14:46 02:00</time>
      </trkpt>
      <trkpt lat="45.09082" lon="4.63659">
        <ele>515</ele>
        <time>2019-10-12T16:14:51 02:00</time>
      </trkpt>
      <trkpt lat="45.09101" lon="4.6369">
        <ele>519</ele>
        <time>2019-10-12T16:14:56 02:00</time>
      </trkpt>
      <trkpt lat="45.09116" lon="4.6379">
        <ele>532</ele>
        <time>2019-10-12T16:15:01 02:00</time>
      </trkpt>
      <trkpt lat="45.09117" lon="4.63807">
        <ele>534</ele>
        <time>2019-10-12T16:15:06 02:00</time>
      </trkpt>
      <trkpt lat="45.09113" lon="4.6381">
        <ele>535</ele>
        <time>2019-10-12T16:15:11 02:00</time>
      </trkpt>
      <trkpt lat="45.09067" lon="4.63778">
        <ele>533</ele>
        <time>2019-10-12T16:15:16 02:00</time>
      </trkpt>
      <trkpt lat="45.09032" lon="4.63777">
        <ele>535</ele>
        <time>2019-10-12T16:15:21 02:00</time>
      </trkpt>
      <trkpt lat="45.09025" lon="4.63795">
        <ele>538</ele>
        <time>2019-10-12T16:15:26 02:00</time>
      </trkpt>
      <trkpt lat="45.09038" lon="4.63837">
        <ele>543</ele>
        <time>2019-10-12T16:15:31 02:00</time>
      </trkpt>
      <trkpt lat="45.09044" lon="4.63855">
        <ele>545</ele>
        <time>2019-10-12T16:15:36 02:00</time>
      </trkpt>
      <trkpt lat="45.0905" lon="4.63897">
        <ele>550</ele>
        <time>2019-10-12T16:15:41 02:00</time>
      </trkpt>
      <trkpt lat="45.09072" lon="4.63937">
        <ele>554</ele>
        <time>2019-10-12T16:15:46 02:00</time>
      </trkpt>
      <trkpt lat="45.09082" lon="4.63973">
        <ele>557</ele>
        <time>2019-10-12T16:15:51 02:00</time>
      </trkpt>
      <trkpt lat="45.09085" lon="4.64">
        <ele>559</ele>
        <time>2019-10-12T16:15:56 02:00</time>
      </trkpt>
      <trkpt lat="45.09031" lon="4.63995">
        <ele>560</ele>
        <time>2019-10-12T16:16:01 02:00</time>
      </trkpt>
      <trkpt lat="45.08994" lon="4.63996">
        <ele>560</ele>
        <time>2019-10-12T16:16:06 02:00</time>
      </trkpt>
      <trkpt lat="45.0898" lon="4.64004">
        <ele>561</ele>
        <time>2019-10-12T16:16:11 02:00</time>
      </trkpt>
      <trkpt lat="45.08972" lon="4.64031">
        <ele>566</ele>
        <time>2019-10-12T16:16:16 02:00</time>
      </trkpt>
      <trkpt lat="45.08941" lon="4.64027">
        <ele>564</ele>
        <time>2019-10-12T16:16:21 02:00</time>
      </trkpt>
      <trkpt lat="45.08894" lon="4.64016">
        <ele>559</ele>
        <time>2019-10-12T16:16:26 02:00</time>
      </trkpt>
      <trkpt lat="45.0886" lon="4.64012">
        <ele>556</ele>
        <time>2019-10-12T16:16:31 02:00</time>
      </trkpt>
      <trkpt lat="45.08784" lon="4.64042">
        <ele>556</ele>
        <time>2019-10-12T16:16:36 02:00</time>
      </trkpt>
      <trkpt lat="45.08754" lon="4.64067">
        <ele>559</ele>
        <time>2019-10-12T16:16:41 02:00</time>
      </trkpt>
      <trkpt lat="45.08745" lon="4.64067">
        <ele>559</ele>
        <time>2019-10-12T16:16:46 02:00</time>
      </trkpt>
      <trkpt lat="45.08723" lon="4.64052">
        <ele>557</ele>
        <time>2019-10-12T16:16:51 02:00</time>
      </trkpt>
      <trkpt lat="45.08705" lon="4.64029">
        <ele>553</ele>
        <time>2019-10-12T16:16:56 02:00</time>
      </trkpt>
      <trkpt lat="45.08659" lon="4.64023">
        <ele>553</ele>
        <time>2019-10-12T16:17:01 02:00</time>
      </trkpt>
      <trkpt lat="45.0863" lon="4.6403">
        <ele>551</ele>
        <time>2019-10-12T16:17:06 02:00</time>
      </trkpt>
      <trkpt lat="45.08597" lon="4.64062">
        <ele>554</ele>
        <time>2019-10-12T16:17:11 02:00</time>
      </trkpt>
      <trkpt lat="45.08545" lon="4.64236">
        <ele>564</ele>
        <time>2019-10-12T16:17:16 02:00</time>
      </trkpt>
      <trkpt lat="45.08576" lon="4.64232">
        <ele>570</ele>
        <time>2019-10-12T16:17:21 02:00</time>
      </trkpt>
      <trkpt lat="45.086" lon="4.64195">
        <ele>573</ele>
        <time>2019-10-12T16:17:26 02:00</time>
      </trkpt>
      <trkpt lat="45.08616" lon="4.64182">
        <ele>574</ele>
        <time>2019-10-12T16:17:31 02:00</time>
      </trkpt>
      <trkpt lat="45.08623" lon="4.642">
        <ele>577</ele>
        <time>2019-10-12T16:17:36 02:00</time>
      </trkpt>
      <trkpt lat="45.08632" lon="4.6424">
        <ele>582</ele>
        <time>2019-10-12T16:17:41 02:00</time>
      </trkpt>
      <trkpt lat="45.08659" lon="4.64263">
        <ele>588</ele>
        <time>2019-10-12T16:17:46 02:00</time>
      </trkpt>
      <trkpt lat="45.08659" lon="4.64306">
        <ele>592</ele>
        <time>2019-10-12T16:17:51 02:00</time>
      </trkpt>
      <trkpt lat="45.08676" lon="4.64323">
        <ele>596</ele>
        <time>2019-10-12T16:17:56 02:00</time>
      </trkpt>
      <trkpt lat="45.08685" lon="4.64333">
        <ele>599</ele>
        <time>2019-10-12T16:18:01 02:00</time>
      </trkpt>
      <trkpt lat="45.08711" lon="4.64343">
        <ele>602</ele>
        <time>2019-10-12T16:18:06 02:00</time>
      </trkpt>
      <trkpt lat="45.08723" lon="4.64354">
        <ele>602</ele>
        <time>2019-10-12T16:18:11 02:00</time>
      </trkpt>
      <trkpt lat="45.08797" lon="4.64365">
        <ele>609</ele>
        <time>2019-10-12T16:18:16 02:00</time>
      </trkpt>
      <trkpt lat="45.08858" lon="4.64369">
        <ele>612</ele>
        <time>2019-10-12T16:18:21 02:00</time>
      </trkpt>
      <trkpt lat="45.08881" lon="4.64383">
        <ele>613</ele>
        <time>2019-10-12T16:18:26 02:00</time>
      </trkpt>
      <trkpt lat="45.08926" lon="4.64413">
        <ele>618</ele>
        <time>2019-10-12T16:18:31 02:00</time>
      </trkpt>
      <trkpt lat="45.08993" lon="4.64418">
        <ele>625</ele>
        <time>2019-10-12T16:18:36 02:00</time>
      </trkpt>
      <trkpt lat="45.09075" lon="4.64456">
        <ele>633</ele>
        <time>2019-10-12T16:18:41 02:00</time>
      </trkpt>
      <trkpt lat="45.09115" lon="4.64469">
        <ele>633</ele>
        <time>2019-10-12T16:18:46 02:00</time>
      </trkpt>
      <trkpt lat="45.09132" lon="4.64491">
        <ele>636</ele>
        <time>2019-10-12T16:18:51 02:00</time>
      </trkpt>
      <trkpt lat="45.09169" lon="4.64511">
        <ele>635</ele>
        <time>2019-10-12T16:18:56 02:00</time>
      </trkpt>
      <trkpt lat="45.09176" lon="4.64517">
        <ele>636</ele>
        <time>2019-10-12T16:19:01 02:00</time>
      </trkpt>
      <trkpt lat="45.09202" lon="4.64516">
        <ele>634</ele>
        <time>2019-10-12T16:19:06 02:00</time>
      </trkpt>
      <trkpt lat="45.09241" lon="4.64542">
        <ele>636</ele>
        <time>2019-10-12T16:19:11 02:00</time>
      </trkpt>
      <trkpt lat="45.09272" lon="4.64542">
        <ele>634</ele>
        <time>2019-10-12T16:19:16 02:00</time>
      </trkpt>
      <trkpt lat="45.09342" lon="4.64538">
        <ele>630</ele>
        <time>2019-10-12T16:19:21 02:00</time>
      </trkpt>
      <trkpt lat="45.09346" lon="4.6459">
        <ele>637</ele>
        <time>2019-10-12T16:19:26 02:00</time>
      </trkpt>
      <trkpt lat="45.09359" lon="4.64633">
        <ele>639</ele>
        <time>2019-10-12T16:19:31 02:00</time>
      </trkpt>
      <trkpt lat="45.09371" lon="4.64688">
        <ele>642</ele>
        <time>2019-10-12T16:19:36 02:00</time>
      </trkpt>
      <trkpt lat="45.09379" lon="4.64783">
        <ele>644</ele>
        <time>2019-10-12T16:19:41 02:00</time>
      </trkpt>
      <trkpt lat="45.09376" lon="4.64965">
        <ele>637</ele>
        <time>2019-10-12T16:19:46 02:00</time>
      </trkpt>
      <trkpt lat="45.09402" lon="4.64963">
        <ele>635</ele>
        <time>2019-10-12T16:19:51 02:00</time>
      </trkpt>
      <trkpt lat="45.09419" lon="4.64975">
        <ele>633</ele>
        <time>2019-10-12T16:19:56 02:00</time>
      </trkpt>
      <trkpt lat="45.0943" lon="4.65012">
        <ele>630</ele>
        <time>2019-10-12T16:20:01 02:00</time>
      </trkpt>
      <trkpt lat="45.09428" lon="4.65039">
        <ele>628</ele>
        <time>2019-10-12T16:20:06 02:00</time>
      </trkpt>
      <trkpt lat="45.09394" lon="4.65068">
        <ele>627</ele>
        <time>2019-10-12T16:20:11 02:00</time>
      </trkpt>
      <trkpt lat="45.094" lon="4.65169">
        <ele>621</ele>
        <time>2019-10-12T16:20:16 02:00</time>
      </trkpt>
      <trkpt lat="45.09398" lon="4.65203">
        <ele>619</ele>
        <time>2019-10-12T16:20:21 02:00</time>
      </trkpt>
    </trkseg>
  </trk>
  <trk>
    <name><![CDATA[07 - St Félicien : Boucle de Préaux : De la Vivance au Furon]]></name>
    <trkseg>
      <trkpt lat="45.09397" lon="4.65203">
        <ele>619</ele>
        <time>2019-10-12T15:44:36 02:00</time>
      </trkpt>
      <trkpt lat="45.09397" lon="4.65203">
        <ele>619</ele>
        <time>2019-10-12T15:44:36 02:00</time>
      </trkpt>
      <trkpt lat="45.09442" lon="4.65233">
        <ele>614</ele>
        <time>2019-10-12T15:44:41 02:00</time>
      </trkpt>
      <trkpt lat="45.09472" lon="4.65174">
        <ele>612</ele>
        <time>2019-10-12T15:44:46 02:00</time>
      </trkpt>
      <trkpt lat="45.09515" lon="4.65116">
        <ele>612</ele>
        <time>2019-10-12T15:44:51 02:00</time>
      </trkpt>
      <trkpt lat="45.09582" lon="4.65048">
        <ele>611</ele>
        <time>2019-10-12T15:44:56 02:00</time>
      </trkpt>
      <trkpt lat="45.09639" lon="4.64894">
        <ele>616</ele>
        <time>2019-10-12T15:45:01 02:00</time>
      </trkpt>
      <trkpt lat="45.09575" lon="4.64837">
        <ele>623</ele>
        <time>2019-10-12T15:45:06 02:00</time>
      </trkpt>
      <trkpt lat="45.09569" lon="4.64724">
        <ele>625</ele>
        <time>2019-10-12T15:45:11 02:00</time>
      </trkpt>
      <trkpt lat="45.09558" lon="4.64678">
        <ele>625</ele>
        <time>2019-10-12T15:45:16 02:00</time>
      </trkpt>
      <trkpt lat="45.09545" lon="4.64641">
        <ele>624</ele>
        <time>2019-10-12T15:45:21 02:00</time>
      </trkpt>
      <trkpt lat="45.09541" lon="4.64601">
        <ele>620</ele>
        <time>2019-10-12T15:45:26 02:00</time>
      </trkpt>
      <trkpt lat="45.096" lon="4.64598">
        <ele>615</ele>
        <time>2019-10-12T15:45:31 02:00</time>
      </trkpt>
      <trkpt lat="45.09639" lon="4.64606">
        <ele>616</ele>
        <time>2019-10-12T15:45:36 02:00</time>
      </trkpt>
      <trkpt lat="45.09643" lon="4.64547">
        <ele>613</ele>
        <time>2019-10-12T15:45:41 02:00</time>
      </trkpt>
      <trkpt lat="45.09654" lon="4.64508">
        <ele>612</ele>
        <time>2019-10-12T15:45:46 02:00</time>
      </trkpt>
      <trkpt lat="45.09661" lon="4.64473">
        <ele>610</ele>
        <time>2019-10-12T15:45:51 02:00</time>
      </trkpt>
      <trkpt lat="45.09667" lon="4.64442">
        <ele>608</ele>
        <time>2019-10-12T15:45:56 02:00</time>
      </trkpt>
      <trkpt lat="45.09699" lon="4.64375">
        <ele>608</ele>
        <time>2019-10-12T15:46:01 02:00</time>
      </trkpt>
      <trkpt lat="45.097" lon="4.64349">
        <ele>606</ele>
        <time>2019-10-12T15:46:06 02:00</time>
      </trkpt>
      <trkpt lat="45.09655" lon="4.64228">
        <ele>591</ele>
        <time>2019-10-12T15:46:11 02:00</time>
      </trkpt>
      <trkpt lat="45.09661" lon="4.64189">
        <ele>588</ele>
        <time>2019-10-12T15:46:16 02:00</time>
      </trkpt>
      <trkpt lat="45.0969" lon="4.64161">
        <ele>592</ele>
        <time>2019-10-12T15:46:21 02:00</time>
      </trkpt>
      <trkpt lat="45.09709" lon="4.64129">
        <ele>592</ele>
        <time>2019-10-12T15:46:26 02:00</time>
      </trkpt>
      <trkpt lat="45.0972" lon="4.64104">
        <ele>592</ele>
        <time>2019-10-12T15:46:31 02:00</time>
      </trkpt>
      <trkpt lat="45.09721" lon="4.64062">
        <ele>589</ele>
        <time>2019-10-12T15:46:36 02:00</time>
      </trkpt>
      <trkpt lat="45.09711" lon="4.64018">
        <ele>586</ele>
        <time>2019-10-12T15:46:41 02:00</time>
      </trkpt>
      <trkpt lat="45.09689" lon="4.63987">
        <ele>580</ele>
        <time>2019-10-12T15:46:46 02:00</time>
      </trkpt>
      <trkpt lat="45.09684" lon="4.63855">
        <ele>579</ele>
        <time>2019-10-12T15:46:51 02:00</time>
      </trkpt>
      <trkpt lat="45.09688" lon="4.63782">
        <ele>577</ele>
        <time>2019-10-12T15:46:56 02:00</time>
      </trkpt>
      <trkpt lat="45.09693" lon="4.63717">
        <ele>575</ele>
        <time>2019-10-12T15:47:01 02:00</time>
      </trkpt>
      <trkpt lat="45.09709" lon="4.63685">
        <ele>575</ele>
        <time>2019-10-12T15:47:06 02:00</time>
      </trkpt>
      <trkpt lat="45.09726" lon="4.63649">
        <ele>573</ele>
        <time>2019-10-12T15:47:11 02:00</time>
      </trkpt>
      <trkpt lat="45.09724" lon="4.6364">
        <ele>572</ele>
        <time>2019-10-12T15:47:16 02:00</time>
      </trkpt>
      <trkpt lat="45.09777" lon="4.63594">
        <ele>573</ele>
        <time>2019-10-12T15:47:21 02:00</time>
      </trkpt>
      <trkpt lat="45.09785" lon="4.63551">
        <ele>574</ele>
        <time>2019-10-12T15:47:26 02:00</time>
      </trkpt>
      <trkpt lat="45.09771" lon="4.63473">
        <ele>572</ele>
        <time>2019-10-12T15:47:31 02:00</time>
      </trkpt>
      <trkpt lat="45.09778" lon="4.63401">
        <ele>573</ele>
        <time>2019-10-12T15:47:36 02:00</time>
      </trkpt>
      <trkpt lat="45.09793" lon="4.63352">
        <ele>573</ele>
        <time>2019-10-12T15:47:41 02:00</time>
      </trkpt>
      <trkpt lat="45.09815" lon="4.6331">
        <ele>574</ele>
        <time>2019-10-12T15:47:46 02:00</time>
      </trkpt>
      <trkpt lat="45.09837" lon="4.63244">
        <ele>571</ele>
        <time>2019-10-12T15:47:51 02:00</time>
      </trkpt>
      <trkpt lat="45.09854" lon="4.63215">
        <ele>569</ele>
        <time>2019-10-12T15:47:56 02:00</time>
      </trkpt>
      <trkpt lat="45.09867" lon="4.63192">
        <ele>567</ele>
        <time>2019-10-12T15:48:01 02:00</time>
      </trkpt>
      <trkpt lat="45.09915" lon="4.63154">
        <ele>569</ele>
        <time>2019-10-12T15:48:06 02:00</time>
      </trkpt>
      <trkpt lat="45.09977" lon="4.63051">
        <ele>563</ele>
        <time>2019-10-12T15:48:11 02:00</time>
      </trkpt>
      <trkpt lat="45.10012" lon="4.63027">
        <ele>568</ele>
        <time>2019-10-12T15:48:16 02:00</time>
      </trkpt>
      <trkpt lat="45.10013" lon="4.62969">
        <ele>568</ele>
        <time>2019-10-12T15:48:21 02:00</time>
      </trkpt>
      <trkpt lat="45.09993" lon="4.62934">
        <ele>568</ele>
        <time>2019-10-12T15:48:26 02:00</time>
      </trkpt>
      <trkpt lat="45.0997" lon="4.6292">
        <ele>565</ele>
        <time>2019-10-12T15:48:31 02:00</time>
      </trkpt>
      <trkpt lat="45.09954" lon="4.62898">
        <ele>566</ele>
        <time>2019-10-12T15:48:36 02:00</time>
      </trkpt>
      <trkpt lat="45.0991" lon="4.62843">
        <ele>568</ele>
        <time>2019-10-12T15:48:41 02:00</time>
      </trkpt>
      <trkpt lat="45.09858" lon="4.62755">
        <ele>563</ele>
        <time>2019-10-12T15:48:46 02:00</time>
      </trkpt>
      <trkpt lat="45.0985" lon="4.62723">
        <ele>560</ele>
        <time>2019-10-12T15:48:51 02:00</time>
      </trkpt>
      <trkpt lat="45.09853" lon="4.62699">
        <ele>561</ele>
        <time>2019-10-12T15:48:56 02:00</time>
      </trkpt>
      <trkpt lat="45.09851" lon="4.62681">
        <ele>560</ele>
        <time>2019-10-12T15:49:01 02:00</time>
      </trkpt>
      <trkpt lat="45.09841" lon="4.62628">
        <ele>553</ele>
        <time>2019-10-12T15:49:06 02:00</time>
      </trkpt>
      <trkpt lat="45.0984" lon="4.62588">
        <ele>551</ele>
        <time>2019-10-12T15:49:11 02:00</time>
      </trkpt>
      <trkpt lat="45.09842" lon="4.62542">
        <ele>550</ele>
        <time>2019-10-12T15:49:16 02:00</time>
      </trkpt>
      <trkpt lat="45.09849" lon="4.62509">
        <ele>550</ele>
        <time>2019-10-12T15:49:21 02:00</time>
      </trkpt>
      <trkpt lat="45.098" lon="4.6252">
        <ele>554</ele>
        <time>2019-10-12T15:49:26 02:00</time>
      </trkpt>
      <trkpt lat="45.09812" lon="4.62495">
        <ele>553</ele>
        <time>2019-10-12T15:49:31 02:00</time>
      </trkpt>
      <trkpt lat="45.09862" lon="4.62437">
        <ele>559</ele>
        <time>2019-10-12T15:49:36 02:00</time>
      </trkpt>
      <trkpt lat="45.09878" lon="4.62417">
        <ele>557</ele>
        <time>2019-10-12T15:49:41 02:00</time>
      </trkpt>
      <trkpt lat="45.09902" lon="4.62403">
        <ele>556</ele>
        <time>2019-10-12T15:49:46 02:00</time>
      </trkpt>
      <trkpt lat="45.09953" lon="4.62374">
        <ele>559</ele>
        <time>2019-10-12T15:49:51 02:00</time>
      </trkpt>
      <trkpt lat="45.09988" lon="4.62339">
        <ele>560</ele>
        <time>2019-10-12T15:49:56 02:00</time>
      </trkpt>
      <trkpt lat="45.10028" lon="4.62305">
        <ele>563</ele>
        <time>2019-10-12T15:50:01 02:00</time>
      </trkpt>
      <trkpt lat="45.10069" lon="4.62283">
        <ele>563</ele>
        <time>2019-10-12T15:50:06 02:00</time>
      </trkpt>
      <trkpt lat="45.10112" lon="4.62201">
        <ele>572</ele>
        <time>2019-10-12T15:50:11 02:00</time>
      </trkpt>
      <trkpt lat="45.10153" lon="4.62111">
        <ele>579</ele>
        <time>2019-10-12T15:50:16 02:00</time>
      </trkpt>
      <trkpt lat="45.10169" lon="4.62069">
        <ele>584</ele>
        <time>2019-10-12T15:50:21 02:00</time>
      </trkpt>
      <trkpt lat="45.10184" lon="4.62044">
        <ele>587</ele>
        <time>2019-10-12T15:50:26 02:00</time>
      </trkpt>
      <trkpt lat="45.1026" lon="4.61979">
        <ele>587</ele>
        <time>2019-10-12T15:50:31 02:00</time>
      </trkpt>
      <trkpt lat="45.1028" lon="4.61955">
        <ele>591</ele>
        <time>2019-10-12T15:50:36 02:00</time>
      </trkpt>
      <trkpt lat="45.10311" lon="4.61949">
        <ele>592</ele>
        <time>2019-10-12T15:50:41 02:00</time>
      </trkpt>
      <trkpt lat="45.10317" lon="4.61942">
        <ele>593</ele>
        <time>2019-10-12T15:50:46 02:00</time>
      </trkpt>
      <trkpt lat="45.10351" lon="4.61939">
        <ele>591</ele>
        <time>2019-10-12T15:50:51 02:00</time>
      </trkpt>
      <trkpt lat="45.10381" lon="4.61924">
        <ele>589</ele>
        <time>2019-10-12T15:50:56 02:00</time>
      </trkpt>
      <trkpt lat="45.10392" lon="4.61881">
        <ele>590</ele>
        <time>2019-10-12T15:51:01 02:00</time>
      </trkpt>
      <trkpt lat="45.10396" lon="4.61832">
        <ele>591</ele>
        <time>2019-10-12T15:51:06 02:00</time>
      </trkpt>
      <trkpt lat="45.104" lon="4.61801">
        <ele>589</ele>
        <time>2019-10-12T15:51:11 02:00</time>
      </trkpt>
      <trkpt lat="45.10396" lon="4.61763">
        <ele>589</ele>
        <time>2019-10-12T15:51:16 02:00</time>
      </trkpt>
      <trkpt lat="45.10397" lon="4.61755">
        <ele>589</ele>
        <time>2019-10-12T15:51:21 02:00</time>
      </trkpt>
      <trkpt lat="45.10416" lon="4.61756">
        <ele>584</ele>
        <time>2019-10-12T15:51:26 02:00</time>
      </trkpt>
      <trkpt lat="45.10433" lon="4.6177">
        <ele>583</ele>
        <time>2019-10-12T15:51:31 02:00</time>
      </trkpt>
      <trkpt lat="45.1046" lon="4.61819">
        <ele>580</ele>
        <time>2019-10-12T15:51:36 02:00</time>
      </trkpt>
      <trkpt lat="45.10516" lon="4.61853">
        <ele>574</ele>
        <time>2019-10-12T15:51:41 02:00</time>
      </trkpt>
      <trkpt lat="45.10572" lon="4.61875">
        <ele>579</ele>
        <time>2019-10-12T15:51:46 02:00</time>
      </trkpt>
      <trkpt lat="45.10594" lon="4.61879">
        <ele>581</ele>
        <time>2019-10-12T15:51:51 02:00</time>
      </trkpt>
      <trkpt lat="45.10604" lon="4.61887">
        <ele>581</ele>
        <time>2019-10-12T15:51:56 02:00</time>
      </trkpt>
      <trkpt lat="45.10639" lon="4.61903">
        <ele>582</ele>
        <time>2019-10-12T15:52:01 02:00</time>
      </trkpt>
      <trkpt lat="45.10645" lon="4.61925">
        <ele>581</ele>
        <time>2019-10-12T15:52:06 02:00</time>
      </trkpt>
      <trkpt lat="45.1064" lon="4.61937">
        <ele>582</ele>
        <time>2019-10-12T15:52:11 02:00</time>
      </trkpt>
      <trkpt lat="45.10631" lon="4.61974">
        <ele>585</ele>
        <time>2019-10-12T15:52:16 02:00</time>
      </trkpt>
      <trkpt lat="45.10636" lon="4.61995">
        <ele>586</ele>
        <time>2019-10-12T15:52:21 02:00</time>
      </trkpt>
      <trkpt lat="45.10691" lon="4.62085">
        <ele>598</ele>
        <time>2019-10-12T15:52:26 02:00</time>
      </trkpt>
      <trkpt lat="45.10739" lon="4.6214">
        <ele>604</ele>
        <time>2019-10-12T15:52:31 02:00</time>
      </trkpt>
      <trkpt lat="45.10804" lon="4.62252">
        <ele>618</ele>
        <time>2019-10-12T15:52:36 02:00</time>
      </trkpt>
      <trkpt lat="45.10829" lon="4.623">
        <ele>625</ele>
        <time>2019-10-12T15:52:41 02:00</time>
      </trkpt>
      <trkpt lat="45.10845" lon="4.62356">
        <ele>631</ele>
        <time>2019-10-12T15:52:46 02:00</time>
      </trkpt>
      <trkpt lat="45.10858" lon="4.62403">
        <ele>635</ele>
        <time>2019-10-12T15:52:51 02:00</time>
      </trkpt>
      <trkpt lat="45.10881" lon="4.62451">
        <ele>639</ele>
        <time>2019-10-12T15:52:56 02:00</time>
      </trkpt>
      <trkpt lat="45.1092" lon="4.62492">
        <ele>637</ele>
        <time>2019-10-12T15:53:01 02:00</time>
      </trkpt>
      <trkpt lat="45.10951" lon="4.62534">
        <ele>638</ele>
        <time>2019-10-12T15:53:06 02:00</time>
      </trkpt>
      <trkpt lat="45.10993" lon="4.62605">
        <ele>645</ele>
        <time>2019-10-12T15:53:11 02:00</time>
      </trkpt>
      <trkpt lat="45.11017" lon="4.62643">
        <ele>650</ele>
        <time>2019-10-12T15:53:16 02:00</time>
      </trkpt>
      <trkpt lat="45.11032" lon="4.62646">
        <ele>648</ele>
        <time>2019-10-12T15:53:21 02:00</time>
      </trkpt>
      <trkpt lat="45.11048" lon="4.62638">
        <ele>642</ele>
        <time>2019-10-12T15:53:26 02:00</time>
      </trkpt>
      <trkpt lat="45.11079" lon="4.62641">
        <ele>636</ele>
        <time>2019-10-12T15:53:31 02:00</time>
      </trkpt>
      <trkpt lat="45.11129" lon="4.6269">
        <ele>639</ele>
        <time>2019-10-12T15:53:36 02:00</time>
      </trkpt>
      <trkpt lat="45.11164" lon="4.62683">
        <ele>632</ele>
        <time>2019-10-12T15:53:41 02:00</time>
      </trkpt>
      <trkpt lat="45.11191" lon="4.62726">
        <ele>638</ele>
        <time>2019-10-12T15:53:46 02:00</time>
      </trkpt>
      <trkpt lat="45.11212" lon="4.62777">
        <ele>640</ele>
        <time>2019-10-12T15:53:51 02:00</time>
      </trkpt>
      <trkpt lat="45.11239" lon="4.62773">
        <ele>638</ele>
        <time>2019-10-12T15:53:56 02:00</time>
      </trkpt>
      <trkpt lat="45.11229" lon="4.6271">
        <ele>638</ele>
        <time>2019-10-12T15:54:01 02:00</time>
      </trkpt>
      <trkpt lat="45.11239" lon="4.62647">
        <ele>640</ele>
        <time>2019-10-12T15:54:06 02:00</time>
      </trkpt>
      <trkpt lat="45.11234" lon="4.62589">
        <ele>638</ele>
        <time>2019-10-12T15:54:11 02:00</time>
      </trkpt>
      <trkpt lat="45.1126" lon="4.62536">
        <ele>642</ele>
        <time>2019-10-12T15:54:16 02:00</time>
      </trkpt>
      <trkpt lat="45.11254" lon="4.626">
        <ele>643</ele>
        <time>2019-10-12T15:54:21 02:00</time>
      </trkpt>
      <trkpt lat="45.1127" lon="4.62672">
        <ele>647</ele>
        <time>2019-10-12T15:54:26 02:00</time>
      </trkpt>
      <trkpt lat="45.11278" lon="4.62661">
        <ele>650</ele>
        <time>2019-10-12T15:54:31 02:00</time>
      </trkpt>
      <trkpt lat="45.11267" lon="4.6262">
        <ele>647</ele>
        <time>2019-10-12T15:54:36 02:00</time>
      </trkpt>
      <trkpt lat="45.11273" lon="4.62585">
        <ele>648</ele>
        <time>2019-10-12T15:54:41 02:00</time>
      </trkpt>
      <trkpt lat="45.1133" lon="4.62515">
        <ele>656</ele>
        <time>2019-10-12T15:54:46 02:00</time>
      </trkpt>
      <trkpt lat="45.11396" lon="4.62452">
        <ele>669</ele>
        <time>2019-10-12T15:54:51 02:00</time>
      </trkpt>
      <trkpt lat="45.11399" lon="4.62435">
        <ele>670</ele>
        <time>2019-10-12T15:54:56 02:00</time>
      </trkpt>
      <trkpt lat="45.11378" lon="4.62412">
        <ele>666</ele>
        <time>2019-10-12T15:55:01 02:00</time>
      </trkpt>
      <trkpt lat="45.11348" lon="4.62398">
        <ele>662</ele>
        <time>2019-10-12T15:55:06 02:00</time>
      </trkpt>
      <trkpt lat="45.11321" lon="4.62367">
        <ele>662</ele>
        <time>2019-10-12T15:55:11 02:00</time>
      </trkpt>
      <trkpt lat="45.11297" lon="4.62306">
        <ele>665</ele>
        <time>2019-10-12T15:55:16 02:00</time>
      </trkpt>
      <trkpt lat="45.11289" lon="4.62241">
        <ele>668</ele>
        <time>2019-10-12T15:55:21 02:00</time>
      </trkpt>
      <trkpt lat="45.11298" lon="4.62159">
        <ele>675</ele>
        <time>2019-10-12T15:55:26 02:00</time>
      </trkpt>
      <trkpt lat="45.11291" lon="4.62064">
        <ele>682</ele>
        <time>2019-10-12T15:55:31 02:00</time>
      </trkpt>
      <trkpt lat="45.11242" lon="4.61976">
        <ele>683</ele>
        <time>2019-10-12T15:55:36 02:00</time>
      </trkpt>
      <trkpt lat="45.11193" lon="4.61928">
        <ele>681</ele>
        <time>2019-10-12T15:55:41 02:00</time>
      </trkpt>
      <trkpt lat="45.1116" lon="4.61892">
        <ele>681</ele>
        <time>2019-10-12T15:55:46 02:00</time>
      </trkpt>
      <trkpt lat="45.11142" lon="4.61833">
        <ele>688</ele>
        <time>2019-10-12T15:55:51 02:00</time>
      </trkpt>
      <trkpt lat="45.11201" lon="4.61865">
        <ele>690</ele>
        <time>2019-10-12T15:55:56 02:00</time>
      </trkpt>
      <trkpt lat="45.11222" lon="4.61883">
        <ele>691</ele>
        <time>2019-10-12T15:56:01 02:00</time>
      </trkpt>
      <trkpt lat="45.11353" lon="4.61957">
        <ele>710</ele>
        <time>2019-10-12T15:56:06 02:00</time>
      </trkpt>
      <trkpt lat="45.11418" lon="4.61992">
        <ele>722</ele>
        <time>2019-10-12T15:56:11 02:00</time>
      </trkpt>
      <trkpt lat="45.1145" lon="4.61993">
        <ele>727</ele>
        <time>2019-10-12T15:56:16 02:00</time>
      </trkpt>
      <trkpt lat="45.11469" lon="4.62005">
        <ele>730</ele>
        <time>2019-10-12T15:56:21 02:00</time>
      </trkpt>
      <trkpt lat="45.11601" lon="4.62017">
        <ele>748</ele>
        <time>2019-10-12T15:56:26 02:00</time>
      </trkpt>
      <trkpt lat="45.11651" lon="4.62007">
        <ele>756</ele>
        <time>2019-10-12T15:56:31 02:00</time>
      </trkpt>
      <trkpt lat="45.11702" lon="4.62014">
        <ele>765</ele>
        <time>2019-10-12T15:56:36 02:00</time>
      </trkpt>
      <trkpt lat="45.11709" lon="4.62021">
        <ele>767</ele>
        <time>2019-10-12T15:56:41 02:00</time>
      </trkpt>
      <trkpt lat="45.11747" lon="4.62024">
        <ele>774</ele>
        <time>2019-10-12T15:56:46 02:00</time>
      </trkpt>
      <trkpt lat="45.11791" lon="4.6204">
        <ele>776</ele>
        <time>2019-10-12T15:56:51 02:00</time>
      </trkpt>
      <trkpt lat="45.11811" lon="4.62049">
        <ele>778</ele>
        <time>2019-10-12T15:56:56 02:00</time>
      </trkpt>
      <trkpt lat="45.11826" lon="4.62067">
        <ele>781</ele>
        <time>2019-10-12T15:57:01 02:00</time>
      </trkpt>
      <trkpt lat="45.11853" lon="4.62111">
        <ele>786</ele>
        <time>2019-10-12T15:57:06 02:00</time>
      </trkpt>
      <trkpt lat="45.11862" lon="4.62126">
        <ele>788</ele>
        <time>2019-10-12T15:57:11 02:00</time>
      </trkpt>
      <trkpt lat="45.11889" lon="4.6214">
        <ele>788</ele>
        <time>2019-10-12T15:57:16 02:00</time>
      </trkpt>
      <trkpt lat="45.11943" lon="4.62152">
        <ele>786</ele>
        <time>2019-10-12T15:57:21 02:00</time>
      </trkpt>
      <trkpt lat="45.12047" lon="4.62232">
        <ele>800</ele>
        <time>2019-10-12T15:57:26 02:00</time>
      </trkpt>
      <trkpt lat="45.12102" lon="4.62255">
        <ele>803</ele>
        <time>2019-10-12T15:57:31 02:00</time>
      </trkpt>
      <trkpt lat="45.12143" lon="4.62287">
        <ele>808</ele>
        <time>2019-10-12T15:57:36 02:00</time>
      </trkpt>
      <trkpt lat="45.12179" lon="4.62328">
        <ele>812</ele>
        <time>2019-10-12T15:57:41 02:00</time>
      </trkpt>
      <trkpt lat="45.12183" lon="4.62343">
        <ele>812</ele>
        <time>2019-10-12T15:57:46 02:00</time>
      </trkpt>
      <trkpt lat="45.12202" lon="4.62358">
        <ele>812</ele>
        <time>2019-10-12T15:57:51 02:00</time>
      </trkpt>
      <trkpt lat="45.12232" lon="4.62373">
        <ele>809</ele>
        <time>2019-10-12T15:57:56 02:00</time>
      </trkpt>
      <trkpt lat="45.12299" lon="4.62386">
        <ele>807</ele>
        <time>2019-10-12T15:58:01 02:00</time>
      </trkpt>
      <trkpt lat="45.12327" lon="4.62378">
        <ele>811</ele>
        <time>2019-10-12T15:58:06 02:00</time>
      </trkpt>
      <trkpt lat="45.12351" lon="4.62383">
        <ele>812</ele>
        <time>2019-10-12T15:58:11 02:00</time>
      </trkpt>
      <trkpt lat="45.12435" lon="4.62455">
        <ele>802</ele>
        <time>2019-10-12T15:58:16 02:00</time>
      </trkpt>
      <trkpt lat="45.12515" lon="4.62483">
        <ele>798</ele>
        <time>2019-10-12T15:58:21 02:00</time>
      </trkpt>
      <trkpt lat="45.12569" lon="4.62458">
        <ele>790</ele>
        <time>2019-10-12T15:58:26 02:00</time>
      </trkpt>
      <trkpt lat="45.12615" lon="4.62418">
        <ele>783</ele>
        <time>2019-10-12T15:58:31 02:00</time>
      </trkpt>
      <trkpt lat="45.12628" lon="4.62412">
        <ele>780</ele>
        <time>2019-10-12T15:58:36 02:00</time>
      </trkpt>
      <trkpt lat="45.12642" lon="4.62371">
        <ele>783</ele>
        <time>2019-10-12T15:58:41 02:00</time>
      </trkpt>
      <trkpt lat="45.12701" lon="4.6227">
        <ele>787</ele>
        <time>2019-10-12T15:58:46 02:00</time>
      </trkpt>
      <trkpt lat="45.12745" lon="4.62214">
        <ele>782</ele>
        <time>2019-10-12T15:58:51 02:00</time>
      </trkpt>
      <trkpt lat="45.12768" lon="4.62163">
        <ele>781</ele>
        <time>2019-10-12T15:58:56 02:00</time>
      </trkpt>
      <trkpt lat="45.1278" lon="4.62137">
        <ele>779</ele>
        <time>2019-10-12T15:59:01 02:00</time>
      </trkpt>
      <trkpt lat="45.12806" lon="4.62128">
        <ele>771</ele>
        <time>2019-10-12T15:59:06 02:00</time>
      </trkpt>
      <trkpt lat="45.12814" lon="4.62082">
        <ele>771</ele>
        <time>2019-10-12T15:59:11 02:00</time>
      </trkpt>
      <trkpt lat="45.12846" lon="4.61986">
        <ele>766</ele>
        <time>2019-10-12T15:59:16 02:00</time>
      </trkpt>
      <trkpt lat="45.1289" lon="4.61912">
        <ele>766</ele>
        <time>2019-10-12T15:59:21 02:00</time>
      </trkpt>
      <trkpt lat="45.12928" lon="4.61854">
        <ele>766</ele>
        <time>2019-10-12T15:59:26 02:00</time>
      </trkpt>
      <trkpt lat="45.12944" lon="4.61853">
        <ele>765</ele>
        <time>2019-10-12T15:59:31 02:00</time>
      </trkpt>
      <trkpt lat="45.12976" lon="4.6187">
        <ele>762</ele>
        <time>2019-10-12T15:59:36 02:00</time>
      </trkpt>
      <trkpt lat="45.12967" lon="4.61831">
        <ele>764</ele>
        <time>2019-10-12T15:59:41 02:00</time>
      </trkpt>
      <trkpt lat="45.12943" lon="4.61765">
        <ele>766</ele>
        <time>2019-10-12T15:59:46 02:00</time>
      </trkpt>
      <trkpt lat="45.12922" lon="4.61695">
        <ele>774</ele>
        <time>2019-10-12T15:59:51 02:00</time>
      </trkpt>
      <trkpt lat="45.12913" lon="4.61636">
        <ele>779</ele>
        <time>2019-10-12T15:59:56 02:00</time>
      </trkpt>
      <trkpt lat="45.12916" lon="4.61575">
        <ele>779</ele>
        <time>2019-10-12T16:00:01 02:00</time>
      </trkpt>
      <trkpt lat="45.12936" lon="4.61439">
        <ele>786</ele>
        <time>2019-10-12T16:00:06 02:00</time>
      </trkpt>
      <trkpt lat="45.12949" lon="4.61328">
        <ele>794</ele>
        <time>2019-10-12T16:00:11 02:00</time>
      </trkpt>
      <trkpt lat="45.12957" lon="4.61291">
        <ele>798</ele>
        <time>2019-10-12T16:00:16 02:00</time>
      </trkpt>
      <trkpt lat="45.12969" lon="4.6129">
        <ele>799</ele>
        <time>2019-10-12T16:00:21 02:00</time>
      </trkpt>
      <trkpt lat="45.13007" lon="4.61358">
        <ele>792</ele>
        <time>2019-10-12T16:00:26 02:00</time>
      </trkpt>
      <trkpt lat="45.13041" lon="4.61434">
        <ele>792</ele>
        <time>2019-10-12T16:00:31 02:00</time>
      </trkpt>
      <trkpt lat="45.13087" lon="4.61519">
        <ele>790</ele>
        <time>2019-10-12T16:00:36 02:00</time>
      </trkpt>
      <trkpt lat="45.13149" lon="4.61558">
        <ele>792</ele>
        <time>2019-10-12T16:00:41 02:00</time>
      </trkpt>
      <trkpt lat="45.13205" lon="4.61622">
        <ele>792</ele>
        <time>2019-10-12T16:00:46 02:00</time>
      </trkpt>
      <trkpt lat="45.13304" lon="4.61728">
        <ele>797</ele>
        <time>2019-10-12T16:00:51 02:00</time>
      </trkpt>
      <trkpt lat="45.13343" lon="4.61782">
        <ele>798</ele>
        <time>2019-10-12T16:00:56 02:00</time>
      </trkpt>
      <trkpt lat="45.13388" lon="4.61819">
        <ele>801</ele>
        <time>2019-10-12T16:01:01 02:00</time>
      </trkpt>
      <trkpt lat="45.13522" lon="4.61896">
        <ele>807</ele>
        <time>2019-10-12T16:01:06 02:00</time>
      </trkpt>
      <trkpt lat="45.13563" lon="4.61948">
        <ele>811</ele>
        <time>2019-10-12T16:01:11 02:00</time>
      </trkpt>
      <trkpt lat="45.13596" lon="4.62013">
        <ele>816</ele>
        <time>2019-10-12T16:01:16 02:00</time>
      </trkpt>
      <trkpt lat="45.13596" lon="4.62047">
        <ele>819</ele>
        <time>2019-10-12T16:01:21 02:00</time>
      </trkpt>
      <trkpt lat="45.1358" lon="4.62069">
        <ele>818</ele>
        <time>2019-10-12T16:01:26 02:00</time>
      </trkpt>
      <trkpt lat="45.13548" lon="4.62083">
        <ele>815</ele>
        <time>2019-10-12T16:01:31 02:00</time>
      </trkpt>
      <trkpt lat="45.13473" lon="4.62139">
        <ele>811</ele>
        <time>2019-10-12T16:01:36 02:00</time>
      </trkpt>
      <trkpt lat="45.13438" lon="4.6219">
        <ele>812</ele>
        <time>2019-10-12T16:01:41 02:00</time>
      </trkpt>
      <trkpt lat="45.13431" lon="4.62212">
        <ele>812</ele>
        <time>2019-10-12T16:01:46 02:00</time>
      </trkpt>
      <trkpt lat="45.1344" lon="4.6226">
        <ele>815</ele>
        <time>2019-10-12T16:01:51 02:00</time>
      </trkpt>
      <trkpt lat="45.1342" lon="4.62345">
        <ele>811</ele>
        <time>2019-10-12T16:01:56 02:00</time>
      </trkpt>
      <trkpt lat="45.13407" lon="4.62389">
        <ele>812</ele>
        <time>2019-10-12T16:02:01 02:00</time>
      </trkpt>
      <trkpt lat="45.13382" lon="4.62423">
        <ele>806</ele>
        <time>2019-10-12T16:02:06 02:00</time>
      </trkpt>
      <trkpt lat="45.13362" lon="4.62463">
        <ele>802</ele>
        <time>2019-10-12T16:02:11 02:00</time>
      </trkpt>
      <trkpt lat="45.13326" lon="4.62593">
        <ele>793</ele>
        <time>2019-10-12T16:02:16 02:00</time>
      </trkpt>
      <trkpt lat="45.13328" lon="4.62643">
        <ele>789</ele>
        <time>2019-10-12T16:02:21 02:00</time>
      </trkpt>
      <trkpt lat="45.13414" lon="4.62761">
        <ele>785</ele>
        <time>2019-10-12T16:02:26 02:00</time>
      </trkpt>
      <trkpt lat="45.13477" lon="4.62875">
        <ele>771</ele>
        <time>2019-10-12T16:02:31 02:00</time>
      </trkpt>
      <trkpt lat="45.13521" lon="4.62919">
        <ele>766</ele>
        <time>2019-10-12T16:02:36 02:00</time>
      </trkpt>
      <trkpt lat="45.13569" lon="4.62925">
        <ele>770</ele>
        <time>2019-10-12T16:02:41 02:00</time>
      </trkpt>
      <trkpt lat="45.13624" lon="4.62944">
        <ele>773</ele>
        <time>2019-10-12T16:02:46 02:00</time>
      </trkpt>
      <trkpt lat="45.13656" lon="4.62973">
        <ele>772</ele>
        <time>2019-10-12T16:02:51 02:00</time>
      </trkpt>
      <trkpt lat="45.13704" lon="4.63109">
        <ele>760</ele>
        <time>2019-10-12T16:02:56 02:00</time>
      </trkpt>
      <trkpt lat="45.13775" lon="4.63271">
        <ele>751</ele>
        <time>2019-10-12T16:03:01 02:00</time>
      </trkpt>
      <trkpt lat="45.13804" lon="4.63344">
        <ele>744</ele>
        <time>2019-10-12T16:03:06 02:00</time>
      </trkpt>
      <trkpt lat="45.13846" lon="4.63407">
        <ele>740</ele>
        <time>2019-10-12T16:03:11 02:00</time>
      </trkpt>
      <trkpt lat="45.13882" lon="4.63454">
        <ele>733</ele>
        <time>2019-10-12T16:03:16 02:00</time>
      </trkpt>
      <trkpt lat="45.13909" lon="4.63467">
        <ele>735</ele>
        <time>2019-10-12T16:03:21 02:00</time>
      </trkpt>
      <trkpt lat="45.14059" lon="4.63586">
        <ele>715</ele>
        <time>2019-10-12T16:03:26 02:00</time>
      </trkpt>
      <trkpt lat="45.14121" lon="4.63613">
        <ele>710</ele>
        <time>2019-10-12T16:03:31 02:00</time>
      </trkpt>
      <trkpt lat="45.14073" lon="4.63638">
        <ele>708</ele>
        <time>2019-10-12T16:03:36 02:00</time>
      </trkpt>
      <trkpt lat="45.14026" lon="4.6365">
        <ele>704</ele>
        <time>2019-10-12T16:03:41 02:00</time>
      </trkpt>
      <trkpt lat="45.13962" lon="4.63629">
        <ele>698</ele>
        <time>2019-10-12T16:03:46 02:00</time>
      </trkpt>
      <trkpt lat="45.13886" lon="4.63556">
        <ele>699</ele>
        <time>2019-10-12T16:03:51 02:00</time>
      </trkpt>
      <trkpt lat="45.13783" lon="4.63523">
        <ele>688</ele>
        <time>2019-10-12T16:03:56 02:00</time>
      </trkpt>
      <trkpt lat="45.13632" lon="4.63383">
        <ele>680</ele>
        <time>2019-10-12T16:04:01 02:00</time>
      </trkpt>
      <trkpt lat="45.13605" lon="4.63362">
        <ele>678</ele>
        <time>2019-10-12T16:04:06 02:00</time>
      </trkpt>
      <trkpt lat="45.13578" lon="4.63363">
        <ele>671</ele>
        <time>2019-10-12T16:04:11 02:00</time>
      </trkpt>
      <trkpt lat="45.13569" lon="4.63403">
        <ele>663</ele>
        <time>2019-10-12T16:04:16 02:00</time>
      </trkpt>
      <trkpt lat="45.13584" lon="4.63449">
        <ele>657</ele>
        <time>2019-10-12T16:04:21 02:00</time>
      </trkpt>
      <trkpt lat="45.13587" lon="4.63469">
        <ele>654</ele>
        <time>2019-10-12T16:04:26 02:00</time>
      </trkpt>
      <trkpt lat="45.13545" lon="4.6346">
        <ele>649</ele>
        <time>2019-10-12T16:04:31 02:00</time>
      </trkpt>
      <trkpt lat="45.13532" lon="4.63469">
        <ele>646</ele>
        <time>2019-10-12T16:04:36 02:00</time>
      </trkpt>
      <trkpt lat="45.1356" lon="4.63582">
        <ele>633</ele>
        <time>2019-10-12T16:04:41 02:00</time>
      </trkpt>
      <trkpt lat="45.13567" lon="4.6366">
        <ele>624</ele>
        <time>2019-10-12T16:04:46 02:00</time>
      </trkpt>
      <trkpt lat="45.13535" lon="4.63753">
        <ele>612</ele>
        <time>2019-10-12T16:04:51 02:00</time>
      </trkpt>
      <trkpt lat="45.13457" lon="4.63782">
        <ele>601</ele>
        <time>2019-10-12T16:04:56 02:00</time>
      </trkpt>
      <trkpt lat="45.13379" lon="4.63806">
        <ele>590</ele>
        <time>2019-10-12T16:05:01 02:00</time>
      </trkpt>
      <trkpt lat="45.13289" lon="4.63784">
        <ele>582</ele>
        <time>2019-10-12T16:05:06 02:00</time>
      </trkpt>
      <trkpt lat="45.1324" lon="4.63817">
        <ele>575</ele>
        <time>2019-10-12T16:05:11 02:00</time>
      </trkpt>
      <trkpt lat="45.1319" lon="4.63866">
        <ele>570</ele>
        <time>2019-10-12T16:05:16 02:00</time>
      </trkpt>
      <trkpt lat="45.13171" lon="4.63907">
        <ele>569</ele>
        <time>2019-10-12T16:05:21 02:00</time>
      </trkpt>
      <trkpt lat="45.132" lon="4.63992">
        <ele>562</ele>
        <time>2019-10-12T16:05:26 02:00</time>
      </trkpt>
      <trkpt lat="45.13222" lon="4.64044">
        <ele>558</ele>
        <time>2019-10-12T16:05:31 02:00</time>
      </trkpt>
      <trkpt lat="45.13232" lon="4.64132">
        <ele>551</ele>
        <time>2019-10-12T16:05:36 02:00</time>
      </trkpt>
      <trkpt lat="45.1324" lon="4.64156">
        <ele>549</ele>
        <time>2019-10-12T16:05:41 02:00</time>
      </trkpt>
      <trkpt lat="45.13254" lon="4.64176">
        <ele>549</ele>
        <time>2019-10-12T16:05:46 02:00</time>
      </trkpt>
      <trkpt lat="45.13272" lon="4.64173">
        <ele>553</ele>
        <time>2019-10-12T16:05:51 02:00</time>
      </trkpt>
      <trkpt lat="45.13273" lon="4.64178">
        <ele>553</ele>
        <time>2019-10-12T16:05:56 02:00</time>
      </trkpt>
      <trkpt lat="45.13234" lon="4.64224">
        <ele>545</ele>
        <time>2019-10-12T16:06:01 02:00</time>
      </trkpt>
      <trkpt lat="45.1324" lon="4.64245">
        <ele>544</ele>
        <time>2019-10-12T16:06:06 02:00</time>
      </trkpt>
      <trkpt lat="45.13228" lon="4.64308">
        <ele>544</ele>
        <time>2019-10-12T16:06:11 02:00</time>
      </trkpt>
      <trkpt lat="45.13249" lon="4.64371">
        <ele>542</ele>
        <time>2019-10-12T16:06:16 02:00</time>
      </trkpt>
      <trkpt lat="45.13287" lon="4.64436">
        <ele>543</ele>
        <time>2019-10-12T16:06:21 02:00</time>
      </trkpt>
      <trkpt lat="45.13316" lon="4.64506">
        <ele>544</ele>
        <time>2019-10-12T16:06:26 02:00</time>
      </trkpt>
      <trkpt lat="45.13325" lon="4.64587">
        <ele>546</ele>
        <time>2019-10-12T16:06:31 02:00</time>
      </trkpt>
      <trkpt lat="45.1337" lon="4.64737">
        <ele>547</ele>
        <time>2019-10-12T16:06:36 02:00</time>
      </trkpt>
      <trkpt lat="45.13422" lon="4.64821">
        <ele>544</ele>
        <time>2019-10-12T16:06:41 02:00</time>
      </trkpt>
      <trkpt lat="45.13311" lon="4.64952">
        <ele>564</ele>
        <time>2019-10-12T16:06:46 02:00</time>
      </trkpt>
      <trkpt lat="45.13287" lon="4.64978">
        <ele>569</ele>
        <time>2019-10-12T16:06:51 02:00</time>
      </trkpt>
      <trkpt lat="45.13271" lon="4.64991">
        <ele>571</ele>
        <time>2019-10-12T16:06:56 02:00</time>
      </trkpt>
      <trkpt lat="45.13233" lon="4.65007">
        <ele>574</ele>
        <time>2019-10-12T16:07:01 02:00</time>
      </trkpt>
      <trkpt lat="45.13215" lon="4.65013">
        <ele>574</ele>
        <time>2019-10-12T16:07:06 02:00</time>
      </trkpt>
      <trkpt lat="45.13197" lon="4.6502">
        <ele>574</ele>
        <time>2019-10-12T16:07:11 02:00</time>
      </trkpt>
      <trkpt lat="45.13187" lon="4.6501">
        <ele>573</ele>
        <time>2019-10-12T16:07:16 02:00</time>
      </trkpt>
      <trkpt lat="45.13179" lon="4.64964">
        <ele>572</ele>
        <time>2019-10-12T16:07:21 02:00</time>
      </trkpt>
      <trkpt lat="45.1312" lon="4.64968">
        <ele>570</ele>
        <time>2019-10-12T16:07:26 02:00</time>
      </trkpt>
      <trkpt lat="45.13046" lon="4.64942">
        <ele>568</ele>
        <time>2019-10-12T16:07:31 02:00</time>
      </trkpt>
      <trkpt lat="45.13018" lon="4.64941">
        <ele>566</ele>
        <time>2019-10-12T16:07:36 02:00</time>
      </trkpt>
      <trkpt lat="45.12991" lon="4.64961">
        <ele>563</ele>
        <time>2019-10-12T16:07:41 02:00</time>
      </trkpt>
      <trkpt lat="45.12981" lon="4.65072">
        <ele>554</ele>
        <time>2019-10-12T16:07:46 02:00</time>
      </trkpt>
      <trkpt lat="45.12972" lon="4.65205">
        <ele>541</ele>
        <time>2019-10-12T16:07:51 02:00</time>
      </trkpt>
      <trkpt lat="45.12961" lon="4.65263">
        <ele>535</ele>
        <time>2019-10-12T16:07:56 02:00</time>
      </trkpt>
      <trkpt lat="45.12944" lon="4.65323">
        <ele>531</ele>
        <time>2019-10-12T16:08:01 02:00</time>
      </trkpt>
      <trkpt lat="45.12908" lon="4.65349">
        <ele>528</ele>
        <time>2019-10-12T16:08:06 02:00</time>
      </trkpt>
      <trkpt lat="45.12887" lon="4.65391">
        <ele>520</ele>
        <time>2019-10-12T16:08:11 02:00</time>
      </trkpt>
      <trkpt lat="45.12897" lon="4.65443">
        <ele>514</ele>
        <time>2019-10-12T16:08:16 02:00</time>
      </trkpt>
      <trkpt lat="45.12931" lon="4.65459">
        <ele>516</ele>
        <time>2019-10-12T16:08:21 02:00</time>
      </trkpt>
      <trkpt lat="45.12962" lon="4.65448">
        <ele>519</ele>
        <time>2019-10-12T16:08:26 02:00</time>
      </trkpt>
      <trkpt lat="45.12988" lon="4.65562">
        <ele>511</ele>
        <time>2019-10-12T16:08:31 02:00</time>
      </trkpt>
      <trkpt lat="45.12995" lon="4.65637">
        <ele>505</ele>
        <time>2019-10-12T16:08:36 02:00</time>
      </trkpt>
      <trkpt lat="45.12996" lon="4.65711">
        <ele>494</ele>
        <time>2019-10-12T16:08:41 02:00</time>
      </trkpt>
      <trkpt lat="45.1304" lon="4.658">
        <ele>490</ele>
        <time>2019-10-12T16:08:46 02:00</time>
      </trkpt>
      <trkpt lat="45.13114" lon="4.65902">
        <ele>484</ele>
        <time>2019-10-12T16:08:51 02:00</time>
      </trkpt>
      <trkpt lat="45.13037" lon="4.65907">
        <ele>467</ele>
        <time>2019-10-12T16:08:56 02:00</time>
      </trkpt>
      <trkpt lat="45.12997" lon="4.65873">
        <ele>465</ele>
        <time>2019-10-12T16:09:01 02:00</time>
      </trkpt>
      <trkpt lat="45.12958" lon="4.6583">
        <ele>464</ele>
        <time>2019-10-12T16:09:06 02:00</time>
      </trkpt>
      <trkpt lat="45.12936" lon="4.65811">
        <ele>462</ele>
        <time>2019-10-12T16:09:11 02:00</time>
      </trkpt>
      <trkpt lat="45.12918" lon="4.65781">
        <ele>461</ele>
        <time>2019-10-12T16:09:16 02:00</time>
      </trkpt>
      <trkpt lat="45.12884" lon="4.65733">
        <ele>468</ele>
        <time>2019-10-12T16:09:21 02:00</time>
      </trkpt>
      <trkpt lat="45.12867" lon="4.65697">
        <ele>471</ele>
        <time>2019-10-12T16:09:26 02:00</time>
      </trkpt>
      <trkpt lat="45.12849" lon="4.65672">
        <ele>470</ele>
        <time>2019-10-12T16:09:31 02:00</time>
      </trkpt>
      <trkpt lat="45.12832" lon="4.65665">
        <ele>467</ele>
        <time>2019-10-12T16:09:36 02:00</time>
      </trkpt>
      <trkpt lat="45.12807" lon="4.65674">
        <ele>469</ele>
        <time>2019-10-12T16:09:41 02:00</time>
      </trkpt>
      <trkpt lat="45.12781" lon="4.65683">
        <ele>472</ele>
        <time>2019-10-12T16:09:46 02:00</time>
      </trkpt>
      <trkpt lat="45.12757" lon="4.6569">
        <ele>475</ele>
        <time>2019-10-12T16:09:51 02:00</time>
      </trkpt>
      <trkpt lat="45.12717" lon="4.65693">
        <ele>484</ele>
        <time>2019-10-12T16:09:56 02:00</time>
      </trkpt>
      <trkpt lat="45.1273" lon="4.65666">
        <ele>478</ele>
        <time>2019-10-12T16:10:01 02:00</time>
      </trkpt>
      <trkpt lat="45.12729" lon="4.65641">
        <ele>477</ele>
        <time>2019-10-12T16:10:06 02:00</time>
      </trkpt>
      <trkpt lat="45.12716" lon="4.6562">
        <ele>479</ele>
        <time>2019-10-12T16:10:11 02:00</time>
      </trkpt>
      <trkpt lat="45.12685" lon="4.65589">
        <ele>484</ele>
        <time>2019-10-12T16:10:16 02:00</time>
      </trkpt>
      <trkpt lat="45.1266" lon="4.65571">
        <ele>489</ele>
        <time>2019-10-12T16:10:21 02:00</time>
      </trkpt>
      <trkpt lat="45.1266" lon="4.65605">
        <ele>491</ele>
        <time>2019-10-12T16:10:26 02:00</time>
      </trkpt>
      <trkpt lat="45.12663" lon="4.65636">
        <ele>492</ele>
        <time>2019-10-12T16:10:31 02:00</time>
      </trkpt>
      <trkpt lat="45.12661" lon="4.6566">
        <ele>494</ele>
        <time>2019-10-12T16:10:36 02:00</time>
      </trkpt>
      <trkpt lat="45.12635" lon="4.65683">
        <ele>500</ele>
        <time>2019-10-12T16:10:41 02:00</time>
      </trkpt>
      <trkpt lat="45.12615" lon="4.65683">
        <ele>504</ele>
        <time>2019-10-12T16:10:46 02:00</time>
      </trkpt>
      <trkpt lat="45.12588" lon="4.65677">
        <ele>509</ele>
        <time>2019-10-12T16:10:51 02:00</time>
      </trkpt>
      <trkpt lat="45.12559" lon="4.65686">
        <ele>516</ele>
        <time>2019-10-12T16:10:56 02:00</time>
      </trkpt>
      <trkpt lat="45.12542" lon="4.6569">
        <ele>519</ele>
        <time>2019-10-12T16:11:01 02:00</time>
      </trkpt>
      <trkpt lat="45.1251" lon="4.65678">
        <ele>525</ele>
        <time>2019-10-12T16:11:06 02:00</time>
      </trkpt>
      <trkpt lat="45.12474" lon="4.65669">
        <ele>531</ele>
        <time>2019-10-12T16:11:11 02:00</time>
      </trkpt>
      <trkpt lat="45.12477" lon="4.65687">
        <ele>531</ele>
        <time>2019-10-12T16:11:16 02:00</time>
      </trkpt>
      <trkpt lat="45.12468" lon="4.65691">
        <ele>533</ele>
        <time>2019-10-12T16:11:21 02:00</time>
      </trkpt>
      <trkpt lat="45.12449" lon="4.65678">
        <ele>535</ele>
        <time>2019-10-12T16:11:26 02:00</time>
      </trkpt>
      <trkpt lat="45.1244" lon="4.65694">
        <ele>538</ele>
        <time>2019-10-12T16:11:31 02:00</time>
      </trkpt>
      <trkpt lat="45.12442" lon="4.65738">
        <ele>540</ele>
        <time>2019-10-12T16:11:36 02:00</time>
      </trkpt>
      <trkpt lat="45.1243" lon="4.6578">
        <ele>545</ele>
        <time>2019-10-12T16:11:41 02:00</time>
      </trkpt>
      <trkpt lat="45.12409" lon="4.65828">
        <ele>551</ele>
        <time>2019-10-12T16:11:46 02:00</time>
      </trkpt>
      <trkpt lat="45.12405" lon="4.65845">
        <ele>553</ele>
        <time>2019-10-12T16:11:51 02:00</time>
      </trkpt>
      <trkpt lat="45.12372" lon="4.65806">
        <ele>558</ele>
        <time>2019-10-12T16:11:56 02:00</time>
      </trkpt>
      <trkpt lat="45.12344" lon="4.65787">
        <ele>562</ele>
        <time>2019-10-12T16:12:01 02:00</time>
      </trkpt>
      <trkpt lat="45.1231" lon="4.65777">
        <ele>570</ele>
        <time>2019-10-12T16:12:06 02:00</time>
      </trkpt>
      <trkpt lat="45.12315" lon="4.65808">
        <ele>571</ele>
        <time>2019-10-12T16:12:11 02:00</time>
      </trkpt>
      <trkpt lat="45.12317" lon="4.65861">
        <ele>573</ele>
        <time>2019-10-12T16:12:16 02:00</time>
      </trkpt>
      <trkpt lat="45.12309" lon="4.65884">
        <ele>576</ele>
        <time>2019-10-12T16:12:21 02:00</time>
      </trkpt>
      <trkpt lat="45.123" lon="4.65885">
        <ele>578</ele>
        <time>2019-10-12T16:12:26 02:00</time>
      </trkpt>
      <trkpt lat="45.12258" lon="4.65848">
        <ele>588</ele>
        <time>2019-10-12T16:12:31 02:00</time>
      </trkpt>
      <trkpt lat="45.12246" lon="4.65836">
        <ele>590</ele>
        <time>2019-10-12T16:12:36 02:00</time>
      </trkpt>
      <trkpt lat="45.12241" lon="4.65831">
        <ele>591</ele>
        <time>2019-10-12T16:12:41 02:00</time>
      </trkpt>
      <trkpt lat="45.12226" lon="4.65911">
        <ele>599</ele>
        <time>2019-10-12T16:12:46 02:00</time>
      </trkpt>
      <trkpt lat="45.12217" lon="4.65957">
        <ele>601</ele>
        <time>2019-10-12T16:12:51 02:00</time>
      </trkpt>
      <trkpt lat="45.12184" lon="4.65987">
        <ele>610</ele>
        <time>2019-10-12T16:12:56 02:00</time>
      </trkpt>
      <trkpt lat="45.12172" lon="4.65993">
        <ele>613</ele>
        <time>2019-10-12T16:13:01 02:00</time>
      </trkpt>
      <trkpt lat="45.12167" lon="4.66019">
        <ele>613</ele>
        <time>2019-10-12T16:13:06 02:00</time>
      </trkpt>
      <trkpt lat="45.12141" lon="4.66031">
        <ele>619</ele>
        <time>2019-10-12T16:13:11 02:00</time>
      </trkpt>
      <trkpt lat="45.1213" lon="4.66051">
        <ele>621</ele>
        <time>2019-10-12T16:13:16 02:00</time>
      </trkpt>
      <trkpt lat="45.12096" lon="4.66025">
        <ele>629</ele>
        <time>2019-10-12T16:13:21 02:00</time>
      </trkpt>
      <trkpt lat="45.12084" lon="4.65997">
        <ele>633</ele>
        <time>2019-10-12T16:13:26 02:00</time>
      </trkpt>
      <trkpt lat="45.12089" lon="4.65965">
        <ele>631</ele>
        <time>2019-10-12T16:13:31 02:00</time>
      </trkpt>
      <trkpt lat="45.12084" lon="4.65928">
        <ele>632</ele>
        <time>2019-10-12T16:13:36 02:00</time>
      </trkpt>
      <trkpt lat="45.12066" lon="4.65916">
        <ele>636</ele>
        <time>2019-10-12T16:13:41 02:00</time>
      </trkpt>
      <trkpt lat="45.12036" lon="4.65912">
        <ele>644</ele>
        <time>2019-10-12T16:13:46 02:00</time>
      </trkpt>
      <trkpt lat="45.12009" lon="4.65862">
        <ele>649</ele>
        <time>2019-10-12T16:13:51 02:00</time>
      </trkpt>
      <trkpt lat="45.11992" lon="4.65807">
        <ele>653</ele>
        <time>2019-10-12T16:13:56 02:00</time>
      </trkpt>
      <trkpt lat="45.11978" lon="4.65774">
        <ele>656</ele>
        <time>2019-10-12T16:14:01 02:00</time>
      </trkpt>
      <trkpt lat="45.11963" lon="4.65749">
        <ele>659</ele>
        <time>2019-10-12T16:14:06 02:00</time>
      </trkpt>
      <trkpt lat="45.11946" lon="4.65703">
        <ele>664</ele>
        <time>2019-10-12T16:14:11 02:00</time>
      </trkpt>
      <trkpt lat="45.11935" lon="4.65602">
        <ele>669</ele>
        <time>2019-10-12T16:14:16 02:00</time>
      </trkpt>
      <trkpt lat="45.11926" lon="4.65544">
        <ele>671</ele>
        <time>2019-10-12T16:14:21 02:00</time>
      </trkpt>
      <trkpt lat="45.11907" lon="4.65518">
        <ele>674</ele>
        <time>2019-10-12T16:14:26 02:00</time>
      </trkpt>
      <trkpt lat="45.11883" lon="4.65515">
        <ele>677</ele>
        <time>2019-10-12T16:14:31 02:00</time>
      </trkpt>
      <trkpt lat="45.11844" lon="4.65529">
        <ele>685</ele>
        <time>2019-10-12T16:14:36 02:00</time>
      </trkpt>
      <trkpt lat="45.11824" lon="4.65543">
        <ele>689</ele>
        <time>2019-10-12T16:14:41 02:00</time>
      </trkpt>
      <trkpt lat="45.11814" lon="4.65545">
        <ele>691</ele>
        <time>2019-10-12T16:14:46 02:00</time>
      </trkpt>
      <trkpt lat="45.118" lon="4.65553">
        <ele>693</ele>
        <time>2019-10-12T16:14:51 02:00</time>
      </trkpt>
      <trkpt lat="45.1179" lon="4.65567">
        <ele>696</ele>
        <time>2019-10-12T16:14:56 02:00</time>
      </trkpt>
      <trkpt lat="45.11782" lon="4.65578">
        <ele>698</ele>
        <time>2019-10-12T16:15:01 02:00</time>
      </trkpt>
      <trkpt lat="45.11758" lon="4.65595">
        <ele>701</ele>
        <time>2019-10-12T16:15:06 02:00</time>
      </trkpt>
      <trkpt lat="45.11747" lon="4.65589">
        <ele>702</ele>
        <time>2019-10-12T16:15:11 02:00</time>
      </trkpt>
      <trkpt lat="45.11741" lon="4.65578">
        <ele>704</ele>
        <time>2019-10-12T16:15:16 02:00</time>
      </trkpt>
      <trkpt lat="45.11727" lon="4.65557">
        <ele>706</ele>
        <time>2019-10-12T16:15:21 02:00</time>
      </trkpt>
      <trkpt lat="45.11696" lon="4.65521">
        <ele>713</ele>
        <time>2019-10-12T16:15:26 02:00</time>
      </trkpt>
      <trkpt lat="45.11661" lon="4.6547">
        <ele>721</ele>
        <time>2019-10-12T16:15:31 02:00</time>
      </trkpt>
      <trkpt lat="45.11645" lon="4.65435">
        <ele>724</ele>
        <time>2019-10-12T16:15:36 02:00</time>
      </trkpt>
      <trkpt lat="45.11637" lon="4.65413">
        <ele>725</ele>
        <time>2019-10-12T16:15:41 02:00</time>
      </trkpt>
      <trkpt lat="45.11621" lon="4.65398">
        <ele>730</ele>
        <time>2019-10-12T16:15:46 02:00</time>
      </trkpt>
      <trkpt lat="45.11599" lon="4.6537">
        <ele>735</ele>
        <time>2019-10-12T16:15:51 02:00</time>
      </trkpt>
      <trkpt lat="45.11578" lon="4.65326">
        <ele>737</ele>
        <time>2019-10-12T16:15:56 02:00</time>
      </trkpt>
      <trkpt lat="45.11555" lon="4.65255">
        <ele>737</ele>
        <time>2019-10-12T16:16:01 02:00</time>
      </trkpt>
      <trkpt lat="45.11553" lon="4.65241">
        <ele>738</ele>
        <time>2019-10-12T16:16:06 02:00</time>
      </trkpt>
      <trkpt lat="45.11577" lon="4.65193">
        <ele>734</ele>
        <time>2019-10-12T16:16:11 02:00</time>
      </trkpt>
      <trkpt lat="45.11606" lon="4.65144">
        <ele>732</ele>
        <time>2019-10-12T16:16:16 02:00</time>
      </trkpt>
      <trkpt lat="45.11611" lon="4.65112">
        <ele>733</ele>
        <time>2019-10-12T16:16:21 02:00</time>
      </trkpt>
      <trkpt lat="45.11607" lon="4.65081">
        <ele>736</ele>
        <time>2019-10-12T16:16:26 02:00</time>
      </trkpt>
      <trkpt lat="45.11601" lon="4.65054">
        <ele>738</ele>
        <time>2019-10-12T16:16:31 02:00</time>
      </trkpt>
      <trkpt lat="45.11586" lon="4.65076">
        <ele>742</ele>
        <time>2019-10-12T16:16:36 02:00</time>
      </trkpt>
      <trkpt lat="45.11567" lon="4.65072">
        <ele>746</ele>
        <time>2019-10-12T16:16:41 02:00</time>
      </trkpt>
      <trkpt lat="45.11553" lon="4.65028">
        <ele>750</ele>
        <time>2019-10-12T16:16:46 02:00</time>
      </trkpt>
      <trkpt lat="45.11507" lon="4.64958">
        <ele>758</ele>
        <time>2019-10-12T16:16:51 02:00</time>
      </trkpt>
      <trkpt lat="45.11462" lon="4.64885">
        <ele>766</ele>
        <time>2019-10-12T16:16:56 02:00</time>
      </trkpt>
      <trkpt lat="45.11414" lon="4.64835">
        <ele>776</ele>
        <time>2019-10-12T16:17:01 02:00</time>
      </trkpt>
      <trkpt lat="45.11391" lon="4.6482">
        <ele>780</ele>
        <time>2019-10-12T16:17:06 02:00</time>
      </trkpt>
      <trkpt lat="45.11375" lon="4.64808">
        <ele>783</ele>
        <time>2019-10-12T16:17:11 02:00</time>
      </trkpt>
      <trkpt lat="45.11343" lon="4.6473">
        <ele>787</ele>
        <time>2019-10-12T16:17:16 02:00</time>
      </trkpt>
      <trkpt lat="45.11328" lon="4.64679">
        <ele>789</ele>
        <time>2019-10-12T16:17:21 02:00</time>
      </trkpt>
      <trkpt lat="45.11338" lon="4.64619">
        <ele>788</ele>
        <time>2019-10-12T16:17:26 02:00</time>
      </trkpt>
      <trkpt lat="45.11354" lon="4.64568">
        <ele>787</ele>
        <time>2019-10-12T16:17:31 02:00</time>
      </trkpt>
      <trkpt lat="45.1133" lon="4.64562">
        <ele>789</ele>
        <time>2019-10-12T16:17:36 02:00</time>
      </trkpt>
      <trkpt lat="45.11272" lon="4.64587">
        <ele>796</ele>
        <time>2019-10-12T16:17:41 02:00</time>
      </trkpt>
      <trkpt lat="45.11142" lon="4.64665">
        <ele>810</ele>
        <time>2019-10-12T16:17:46 02:00</time>
      </trkpt>
      <trkpt lat="45.11091" lon="4.64736">
        <ele>812</ele>
        <time>2019-10-12T16:17:51 02:00</time>
      </trkpt>
      <trkpt lat="45.11059" lon="4.64762">
        <ele>806</ele>
        <time>2019-10-12T16:17:56 02:00</time>
      </trkpt>
      <trkpt lat="45.11053" lon="4.64802">
        <ele>800</ele>
        <time>2019-10-12T16:18:01 02:00</time>
      </trkpt>
      <trkpt lat="45.11062" lon="4.64864">
        <ele>796</ele>
        <time>2019-10-12T16:18:06 02:00</time>
      </trkpt>
      <trkpt lat="45.11079" lon="4.64919">
        <ele>796</ele>
        <time>2019-10-12T16:18:11 02:00</time>
      </trkpt>
      <trkpt lat="45.11074" lon="4.64945">
        <ele>792</ele>
        <time>2019-10-12T16:18:16 02:00</time>
      </trkpt>
      <trkpt lat="45.11083" lon="4.65017">
        <ele>790</ele>
        <time>2019-10-12T16:18:21 02:00</time>
      </trkpt>
      <trkpt lat="45.11084" lon="4.65033">
        <ele>789</ele>
        <time>2019-10-12T16:18:26 02:00</time>
      </trkpt>
      <trkpt lat="45.11082" lon="4.6504">
        <ele>787</ele>
        <time>2019-10-12T16:18:31 02:00</time>
      </trkpt>
      <trkpt lat="45.11063" lon="4.64981">
        <ele>786</ele>
        <time>2019-10-12T16:18:36 02:00</time>
      </trkpt>
      <trkpt lat="45.11045" lon="4.64933">
        <ele>784</ele>
        <time>2019-10-12T16:18:41 02:00</time>
      </trkpt>
      <trkpt lat="45.10977" lon="4.64825">
        <ele>779</ele>
        <time>2019-10-12T16:18:46 02:00</time>
      </trkpt>
      <trkpt lat="45.10937" lon="4.6477">
        <ele>780</ele>
        <time>2019-10-12T16:18:51 02:00</time>
      </trkpt>
      <trkpt lat="45.10919" lon="4.64758">
        <ele>779</ele>
        <time>2019-10-12T16:18:56 02:00</time>
      </trkpt>
      <trkpt lat="45.10895" lon="4.64771">
        <ele>778</ele>
        <time>2019-10-12T16:19:01 02:00</time>
      </trkpt>
      <trkpt lat="45.10879" lon="4.64809">
        <ele>772</ele>
        <time>2019-10-12T16:19:06 02:00</time>
      </trkpt>
      <trkpt lat="45.10863" lon="4.64846">
        <ele>765</ele>
        <time>2019-10-12T16:19:11 02:00</time>
      </trkpt>
      <trkpt lat="45.10831" lon="4.64872">
        <ele>761</ele>
        <time>2019-10-12T16:19:16 02:00</time>
      </trkpt>
      <trkpt lat="45.10799" lon="4.64892">
        <ele>760</ele>
        <time>2019-10-12T16:19:21 02:00</time>
      </trkpt>
      <trkpt lat="45.1075" lon="4.64964">
        <ele>749</ele>
        <time>2019-10-12T16:19:26 02:00</time>
      </trkpt>
      <trkpt lat="45.10735" lon="4.65002">
        <ele>742</ele>
        <time>2019-10-12T16:19:31 02:00</time>
      </trkpt>
      <trkpt lat="45.1073" lon="4.65025">
        <ele>738</ele>
        <time>2019-10-12T16:19:36 02:00</time>
      </trkpt>
      <trkpt lat="45.10697" lon="4.65051">
        <ele>735</ele>
        <time>2019-10-12T16:19:41 02:00</time>
      </trkpt>
      <trkpt lat="45.10629" lon="4.65031">
        <ele>736</ele>
        <time>2019-10-12T16:19:46 02:00</time>
      </trkpt>
      <trkpt lat="45.1055" lon="4.64972">
        <ele>730</ele>
        <time>2019-10-12T16:19:51 02:00</time>
      </trkpt>
      <trkpt lat="45.10525" lon="4.64924">
        <ele>725</ele>
        <time>2019-10-12T16:19:56 02:00</time>
      </trkpt>
      <trkpt lat="45.10513" lon="4.64874">
        <ele>718</ele>
        <time>2019-10-12T16:20:01 02:00</time>
      </trkpt>
      <trkpt lat="45.10514" lon="4.64781">
        <ele>710</ele>
        <time>2019-10-12T16:20:06 02:00</time>
      </trkpt>
      <trkpt lat="45.10545" lon="4.6465">
        <ele>707</ele>
        <time>2019-10-12T16:20:11 02:00</time>
      </trkpt>
      <trkpt lat="45.10548" lon="4.64602">
        <ele>704</ele>
        <time>2019-10-12T16:20:16 02:00</time>
      </trkpt>
      <trkpt lat="45.10549" lon="4.64566">
        <ele>702</ele>
        <time>2019-10-12T16:20:21 02:00</time>
      </trkpt>
      <trkpt lat="45.10539" lon="4.64524">
        <ele>696</ele>
        <time>2019-10-12T16:20:26 02:00</time>
      </trkpt>
      <trkpt lat="45.10534" lon="4.64522">
        <ele>694</ele>
        <time>2019-10-12T16:20:31 02:00</time>
      </trkpt>
      <trkpt lat="45.10529" lon="4.64538">
        <ele>693</ele>
        <time>2019-10-12T16:20:36 02:00</time>
      </trkpt>
      <trkpt lat="45.10518" lon="4.64541">
        <ele>689</ele>
        <time>2019-10-12T16:20:41 02:00</time>
      </trkpt>
      <trkpt lat="45.10492" lon="4.64537">
        <ele>682</ele>
        <time>2019-10-12T16:20:46 02:00</time>
      </trkpt>
      <trkpt lat="45.10472" lon="4.64507">
        <ele>681</ele>
        <time>2019-10-12T16:20:51 02:00</time>
      </trkpt>
      <trkpt lat="45.10456" lon="4.64485">
        <ele>681</ele>
        <time>2019-10-12T16:20:56 02:00</time>
      </trkpt>
      <trkpt lat="45.1042" lon="4.64501">
        <ele>677</ele>
        <time>2019-10-12T16:21:01 02:00</time>
      </trkpt>
      <trkpt lat="45.10383" lon="4.64545">
        <ele>678</ele>
        <time>2019-10-12T16:21:06 02:00</time>
      </trkpt>
      <trkpt lat="45.10297" lon="4.64676">
        <ele>669</ele>
        <time>2019-10-12T16:21:11 02:00</time>
      </trkpt>
      <trkpt lat="45.10249" lon="4.64723">
        <ele>672</ele>
        <time>2019-10-12T16:21:16 02:00</time>
      </trkpt>
      <trkpt lat="45.10202" lon="4.64776">
        <ele>675</ele>
        <time>2019-10-12T16:21:21 02:00</time>
      </trkpt>
      <trkpt lat="45.10134" lon="4.64886">
        <ele>668</ele>
        <time>2019-10-12T16:21:26 02:00</time>
      </trkpt>
      <trkpt lat="45.10095" lon="4.64913">
        <ele>664</ele>
        <time>2019-10-12T16:21:31 02:00</time>
      </trkpt>
      <trkpt lat="45.10055" lon="4.64929">
        <ele>659</ele>
        <time>2019-10-12T16:21:36 02:00</time>
      </trkpt>
      <trkpt lat="45.10014" lon="4.64934">
        <ele>656</ele>
        <time>2019-10-12T16:21:41 02:00</time>
      </trkpt>
      <trkpt lat="45.0995" lon="4.64913">
        <ele>651</ele>
        <time>2019-10-12T16:21:46 02:00</time>
      </trkpt>
      <trkpt lat="45.09919" lon="4.64903">
        <ele>647</ele>
        <time>2019-10-12T16:21:51 02:00</time>
      </trkpt>
      <trkpt lat="45.09895" lon="4.6493">
        <ele>642</ele>
        <time>2019-10-12T16:21:56 02:00</time>
      </trkpt>
      <trkpt lat="45.09886" lon="4.64908">
        <ele>640</ele>
        <time>2019-10-12T16:22:01 02:00</time>
      </trkpt>
      <trkpt lat="45.09872" lon="4.64924">
        <ele>638</ele>
        <time>2019-10-12T16:22:06 02:00</time>
      </trkpt>
      <trkpt lat="45.09869" lon="4.64867">
        <ele>636</ele>
        <time>2019-10-12T16:22:11 02:00</time>
      </trkpt>
      <trkpt lat="45.09848" lon="4.64833">
        <ele>631</ele>
        <time>2019-10-12T16:22:16 02:00</time>
      </trkpt>
      <trkpt lat="45.09813" lon="4.64805">
        <ele>627</ele>
        <time>2019-10-12T16:22:21 02:00</time>
      </trkpt>
      <trkpt lat="45.09775" lon="4.64768">
        <ele>624</ele>
        <time>2019-10-12T16:22:26 02:00</time>
      </trkpt>
      <trkpt lat="45.09743" lon="4.64719">
        <ele>623</ele>
        <time>2019-10-12T16:22:31 02:00</time>
      </trkpt>
      <trkpt lat="45.09714" lon="4.64648">
        <ele>623</ele>
        <time>2019-10-12T16:22:36 02:00</time>
      </trkpt>
      <trkpt lat="45.09698" lon="4.64613">
        <ele>621</ele>
        <time>2019-10-12T16:22:41 02:00</time>
      </trkpt>
      <trkpt lat="45.09659" lon="4.64614">
        <ele>616</ele>
        <time>2019-10-12T16:22:46 02:00</time>
      </trkpt>
      <trkpt lat="45.09635" lon="4.64601">
        <ele>615</ele>
        <time>2019-10-12T16:22:51 02:00</time>
      </trkpt>
      <trkpt lat="45.09598" lon="4.6459">
        <ele>614</ele>
        <time>2019-10-12T16:22:56 02:00</time>
      </trkpt>
      <trkpt lat="45.09561" lon="4.64598">
        <ele>617</ele>
        <time>2019-10-12T16:23:01 02:00</time>
      </trkpt>
      <trkpt lat="45.09525" lon="4.64591">
        <ele>621</ele>
        <time>2019-10-12T16:23:06 02:00</time>
      </trkpt>
      <trkpt lat="45.09478" lon="4.64555">
        <ele>622</ele>
        <time>2019-10-12T16:23:11 02:00</time>
      </trkpt>
      <trkpt lat="45.09416" lon="4.64545">
        <ele>627</ele>
        <time>2019-10-12T16:23:16 02:00</time>
      </trkpt>
      <trkpt lat="45.09343" lon="4.64539">
        <ele>630</ele>
        <time>2019-10-12T16:23:21 02:00</time>
      </trkpt>
      <trkpt lat="45.09346" lon="4.6459">
        <ele>637</ele>
        <time>2019-10-12T16:23:26 02:00</time>
      </trkpt>
      <trkpt lat="45.09365" lon="4.6465">
        <ele>640</ele>
        <time>2019-10-12T16:23:31 02:00</time>
      </trkpt>
      <trkpt lat="45.09377" lon="4.64724">
        <ele>644</ele>
        <time>2019-10-12T16:23:36 02:00</time>
      </trkpt>
      <trkpt lat="45.09377" lon="4.64842">
        <ele>643</ele>
        <time>2019-10-12T16:23:41 02:00</time>
      </trkpt>
      <trkpt lat="45.09377" lon="4.64963">
        <ele>637</ele>
        <time>2019-10-12T16:23:46 02:00</time>
      </trkpt>
      <trkpt lat="45.09407" lon="4.64964">
        <ele>635</ele>
        <time>2019-10-12T16:23:51 02:00</time>
      </trkpt>
      <trkpt lat="45.09419" lon="4.64974">
        <ele>633</ele>
        <time>2019-10-12T16:23:56 02:00</time>
      </trkpt>
      <trkpt lat="45.09427" lon="4.64995">
        <ele>631</ele>
        <time>2019-10-12T16:24:01 02:00</time>
      </trkpt>
      <trkpt lat="45.0943" lon="4.65023">
        <ele>629</ele>
        <time>2019-10-12T16:24:06 02:00</time>
      </trkpt>
      <trkpt lat="45.0942" lon="4.6505">
        <ele>627</ele>
        <time>2019-10-12T16:24:11 02:00</time>
      </trkpt>
      <trkpt lat="45.09393" lon="4.65067">
        <ele>628</ele>
        <time>2019-10-12T16:24:16 02:00</time>
      </trkpt>
      <trkpt lat="45.094" lon="4.65207">
        <ele>619</ele>
        <time>2019-10-12T16:24:21 02:00</time>
      </trkpt>
    </trkseg>
  </trk>
  <trk>
    <name><![CDATA[07 - St Félicien : Boucle de St Victor : de Corsas à Montplot]]></name>
    <trkseg>
      <trkpt lat="45.09397" lon="4.65207">
        <ele>619</ele>
        <time>2020-07-15T18:53:42 02:00</time>
      </trkpt>
      <trkpt lat="45.09335" lon="4.65235">
        <ele>618</ele>
        <time>2020-07-15T18:53:47 02:00</time>
      </trkpt>
      <trkpt lat="45.09297" lon="4.65227">
        <ele>616</ele>
        <time>2020-07-15T18:53:52 02:00</time>
      </trkpt>
      <trkpt lat="45.09217" lon="4.65203">
        <ele>615</ele>
        <time>2020-07-15T18:53:57 02:00</time>
      </trkpt>
      <trkpt lat="45.09173" lon="4.65276">
        <ele>604</ele>
        <time>2020-07-15T18:54:02 02:00</time>
      </trkpt>
      <trkpt lat="45.09171" lon="4.65375">
        <ele>592</ele>
        <time>2020-07-15T18:54:07 02:00</time>
      </trkpt>
      <trkpt lat="45.0918" lon="4.65484">
        <ele>581</ele>
        <time>2020-07-15T18:54:12 02:00</time>
      </trkpt>
      <trkpt lat="45.09167" lon="4.65551">
        <ele>575</ele>
        <time>2020-07-15T18:54:17 02:00</time>
      </trkpt>
      <trkpt lat="45.09124" lon="4.65604">
        <ele>569</ele>
        <time>2020-07-15T18:54:22 02:00</time>
      </trkpt>
      <trkpt lat="45.09095" lon="4.65744">
        <ele>563</ele>
        <time>2020-07-15T18:54:27 02:00</time>
      </trkpt>
      <trkpt lat="45.09121" lon="4.6604">
        <ele>548</ele>
        <time>2020-07-15T18:54:32 02:00</time>
      </trkpt>
      <trkpt lat="45.09124" lon="4.66074">
        <ele>546</ele>
        <time>2020-07-15T18:54:37 02:00</time>
      </trkpt>
      <trkpt lat="45.09083" lon="4.66111">
        <ele>546</ele>
        <time>2020-07-15T18:54:42 02:00</time>
      </trkpt>
      <trkpt lat="45.09118" lon="4.66287">
        <ele>533</ele>
        <time>2020-07-15T18:54:47 02:00</time>
      </trkpt>
      <trkpt lat="45.09139" lon="4.66355">
        <ele>528</ele>
        <time>2020-07-15T18:54:52 02:00</time>
      </trkpt>
      <trkpt lat="45.09147" lon="4.66471">
        <ele>521</ele>
        <time>2020-07-15T18:54:57 02:00</time>
      </trkpt>
      <trkpt lat="45.09233" lon="4.66426">
        <ele>517</ele>
        <time>2020-07-15T18:55:02 02:00</time>
      </trkpt>
      <trkpt lat="45.09286" lon="4.66415">
        <ele>516</ele>
        <time>2020-07-15T18:55:07 02:00</time>
      </trkpt>
      <trkpt lat="45.09335" lon="4.6645">
        <ele>516</ele>
        <time>2020-07-15T18:55:12 02:00</time>
      </trkpt>
      <trkpt lat="45.09324" lon="4.66516">
        <ele>516</ele>
        <time>2020-07-15T18:55:17 02:00</time>
      </trkpt>
      <trkpt lat="45.09326" lon="4.6657">
        <ele>516</ele>
        <time>2020-07-15T18:55:22 02:00</time>
      </trkpt>
      <trkpt lat="45.09348" lon="4.66632">
        <ele>518</ele>
        <time>2020-07-15T18:55:27 02:00</time>
      </trkpt>
      <trkpt lat="45.09379" lon="4.6663">
        <ele>522</ele>
        <time>2020-07-15T18:55:32 02:00</time>
      </trkpt>
      <trkpt lat="45.09485" lon="4.66739">
        <ele>529</ele>
        <time>2020-07-15T18:55:37 02:00</time>
      </trkpt>
      <trkpt lat="45.095" lon="4.66765">
        <ele>529</ele>
        <time>2020-07-15T18:55:42 02:00</time>
      </trkpt>
      <trkpt lat="45.09548" lon="4.66778">
        <ele>530</ele>
        <time>2020-07-15T18:55:47 02:00</time>
      </trkpt>
      <trkpt lat="45.09606" lon="4.66744">
        <ele>537</ele>
        <time>2020-07-15T18:55:52 02:00</time>
      </trkpt>
      <trkpt lat="45.09657" lon="4.6678">
        <ele>539</ele>
        <time>2020-07-15T18:55:57 02:00</time>
      </trkpt>
      <trkpt lat="45.09685" lon="4.6678">
        <ele>540</ele>
        <time>2020-07-15T18:56:02 02:00</time>
      </trkpt>
      <trkpt lat="45.0971" lon="4.66774">
        <ele>542</ele>
        <time>2020-07-15T18:56:07 02:00</time>
      </trkpt>
      <trkpt lat="45.09744" lon="4.66787">
        <ele>544</ele>
        <time>2020-07-15T18:56:12 02:00</time>
      </trkpt>
      <trkpt lat="45.09769" lon="4.66898">
        <ele>549</ele>
        <time>2020-07-15T18:56:17 02:00</time>
      </trkpt>
      <trkpt lat="45.09775" lon="4.66967">
        <ele>552</ele>
        <time>2020-07-15T18:56:22 02:00</time>
      </trkpt>
      <trkpt lat="45.09786" lon="4.66988">
        <ele>553</ele>
        <time>2020-07-15T18:56:27 02:00</time>
      </trkpt>
      <trkpt lat="45.09765" lon="4.67055">
        <ele>554</ele>
        <time>2020-07-15T18:56:32 02:00</time>
      </trkpt>
      <trkpt lat="45.09859" lon="4.67188">
        <ele>567</ele>
        <time>2020-07-15T18:56:37 02:00</time>
      </trkpt>
      <trkpt lat="45.09883" lon="4.67175">
        <ele>570</ele>
        <time>2020-07-15T18:56:42 02:00</time>
      </trkpt>
      <trkpt lat="45.09907" lon="4.67278">
        <ele>571</ele>
        <time>2020-07-15T18:56:47 02:00</time>
      </trkpt>
      <trkpt lat="45.09909" lon="4.67329">
        <ele>572</ele>
        <time>2020-07-15T18:56:52 02:00</time>
      </trkpt>
      <trkpt lat="45.09875" lon="4.67439">
        <ele>575</ele>
        <time>2020-07-15T18:56:57 02:00</time>
      </trkpt>
      <trkpt lat="45.09945" lon="4.67626">
        <ele>589</ele>
        <time>2020-07-15T18:57:02 02:00</time>
      </trkpt>
      <trkpt lat="45.10012" lon="4.67724">
        <ele>595</ele>
        <time>2020-07-15T18:57:07 02:00</time>
      </trkpt>
      <trkpt lat="45.10042" lon="4.67761">
        <ele>596</ele>
        <time>2020-07-15T18:57:12 02:00</time>
      </trkpt>
      <trkpt lat="45.1003" lon="4.67939">
        <ele>596</ele>
        <time>2020-07-15T18:57:17 02:00</time>
      </trkpt>
      <trkpt lat="45.10033" lon="4.68037">
        <ele>596</ele>
        <time>2020-07-15T18:57:22 02:00</time>
      </trkpt>
      <trkpt lat="45.09875" lon="4.68125">
        <ele>614</ele>
        <time>2020-07-15T18:57:27 02:00</time>
      </trkpt>
      <trkpt lat="45.09807" lon="4.68098">
        <ele>620</ele>
        <time>2020-07-15T18:57:32 02:00</time>
      </trkpt>
      <trkpt lat="45.09786" lon="4.6811">
        <ele>624</ele>
        <time>2020-07-15T18:57:37 02:00</time>
      </trkpt>
      <trkpt lat="45.09788" lon="4.68162">
        <ele>630</ele>
        <time>2020-07-15T18:57:42 02:00</time>
      </trkpt>
      <trkpt lat="45.09816" lon="4.68226">
        <ele>633</ele>
        <time>2020-07-15T18:57:47 02:00</time>
      </trkpt>
      <trkpt lat="45.09798" lon="4.68295">
        <ele>644</ele>
        <time>2020-07-15T18:57:52 02:00</time>
      </trkpt>
      <trkpt lat="45.09777" lon="4.68364">
        <ele>653</ele>
        <time>2020-07-15T18:57:57 02:00</time>
      </trkpt>
      <trkpt lat="45.09732" lon="4.68456">
        <ele>660</ele>
        <time>2020-07-15T18:58:02 02:00</time>
      </trkpt>
      <trkpt lat="45.09679" lon="4.6851">
        <ele>663</ele>
        <time>2020-07-15T18:58:07 02:00</time>
      </trkpt>
      <trkpt lat="45.09566" lon="4.68587">
        <ele>662</ele>
        <time>2020-07-15T18:58:12 02:00</time>
      </trkpt>
      <trkpt lat="45.09503" lon="4.68636">
        <ele>659</ele>
        <time>2020-07-15T18:58:17 02:00</time>
      </trkpt>
      <trkpt lat="45.09389" lon="4.68628">
        <ele>659</ele>
        <time>2020-07-15T18:58:22 02:00</time>
      </trkpt>
      <trkpt lat="45.09348" lon="4.68598">
        <ele>657</ele>
        <time>2020-07-15T18:58:27 02:00</time>
      </trkpt>
      <trkpt lat="45.09327" lon="4.68574">
        <ele>655</ele>
        <time>2020-07-15T18:58:32 02:00</time>
      </trkpt>
      <trkpt lat="45.09279" lon="4.6864">
        <ele>649</ele>
        <time>2020-07-15T18:58:37 02:00</time>
      </trkpt>
      <trkpt lat="45.09267" lon="4.68736">
        <ele>649</ele>
        <time>2020-07-15T18:58:42 02:00</time>
      </trkpt>
      <trkpt lat="45.09289" lon="4.68817">
        <ele>640</ele>
        <time>2020-07-15T18:58:47 02:00</time>
      </trkpt>
      <trkpt lat="45.09361" lon="4.68817">
        <ele>634</ele>
        <time>2020-07-15T18:58:52 02:00</time>
      </trkpt>
      <trkpt lat="45.09478" lon="4.6882">
        <ele>609</ele>
        <time>2020-07-15T18:58:57 02:00</time>
      </trkpt>
      <trkpt lat="45.09561" lon="4.6883">
        <ele>594</ele>
        <time>2020-07-15T18:59:02 02:00</time>
      </trkpt>
      <trkpt lat="45.0958" lon="4.68854">
        <ele>587</ele>
        <time>2020-07-15T18:59:07 02:00</time>
      </trkpt>
      <trkpt lat="45.09592" lon="4.68888">
        <ele>580</ele>
        <time>2020-07-15T18:59:12 02:00</time>
      </trkpt>
      <trkpt lat="45.096" lon="4.68928">
        <ele>574</ele>
        <time>2020-07-15T18:59:17 02:00</time>
      </trkpt>
      <trkpt lat="45.09645" lon="4.68943">
        <ele>572</ele>
        <time>2020-07-15T18:59:22 02:00</time>
      </trkpt>
      <trkpt lat="45.09654" lon="4.68979">
        <ele>568</ele>
        <time>2020-07-15T18:59:27 02:00</time>
      </trkpt>
      <trkpt lat="45.09677" lon="4.68995">
        <ele>567</ele>
        <time>2020-07-15T18:59:32 02:00</time>
      </trkpt>
      <trkpt lat="45.09616" lon="4.69065">
        <ele>563</ele>
        <time>2020-07-15T18:59:37 02:00</time>
      </trkpt>
      <trkpt lat="45.09603" lon="4.69183">
        <ele>557</ele>
        <time>2020-07-15T18:59:42 02:00</time>
      </trkpt>
      <trkpt lat="45.09583" lon="4.69254">
        <ele>557</ele>
        <time>2020-07-15T18:59:47 02:00</time>
      </trkpt>
      <trkpt lat="45.09535" lon="4.6931">
        <ele>555</ele>
        <time>2020-07-15T18:59:52 02:00</time>
      </trkpt>
      <trkpt lat="45.09497" lon="4.69344">
        <ele>552</ele>
        <time>2020-07-15T18:59:57 02:00</time>
      </trkpt>
      <trkpt lat="45.09453" lon="4.69452">
        <ele>547</ele>
        <time>2020-07-15T19:00:02 02:00</time>
      </trkpt>
      <trkpt lat="45.09442" lon="4.69488">
        <ele>545</ele>
        <time>2020-07-15T19:00:07 02:00</time>
      </trkpt>
      <trkpt lat="45.09433" lon="4.69567">
        <ele>541</ele>
        <time>2020-07-15T19:00:12 02:00</time>
      </trkpt>
      <trkpt lat="45.09513" lon="4.69608">
        <ele>536</ele>
        <time>2020-07-15T19:00:17 02:00</time>
      </trkpt>
      <trkpt lat="45.09595" lon="4.69623">
        <ele>529</ele>
        <time>2020-07-15T19:00:22 02:00</time>
      </trkpt>
      <trkpt lat="45.09703" lon="4.69696">
        <ele>520</ele>
        <time>2020-07-15T19:00:27 02:00</time>
      </trkpt>
      <trkpt lat="45.09713" lon="4.69703">
        <ele>520</ele>
        <time>2020-07-15T19:00:32 02:00</time>
      </trkpt>
      <trkpt lat="45.09727" lon="4.69726">
        <ele>519</ele>
        <time>2020-07-15T19:00:37 02:00</time>
      </trkpt>
      <trkpt lat="45.09791" lon="4.6975">
        <ele>516</ele>
        <time>2020-07-15T19:00:42 02:00</time>
      </trkpt>
      <trkpt lat="45.098" lon="4.69786">
        <ele>512</ele>
        <time>2020-07-15T19:00:47 02:00</time>
      </trkpt>
      <trkpt lat="45.09789" lon="4.69887">
        <ele>506</ele>
        <time>2020-07-15T19:00:52 02:00</time>
      </trkpt>
      <trkpt lat="45.09794" lon="4.69992">
        <ele>498</ele>
        <time>2020-07-15T19:00:57 02:00</time>
      </trkpt>
      <trkpt lat="45.09832" lon="4.70308">
        <ele>479</ele>
        <time>2020-07-15T19:01:02 02:00</time>
      </trkpt>
      <trkpt lat="45.09842" lon="4.70389">
        <ele>474</ele>
        <time>2020-07-15T19:01:07 02:00</time>
      </trkpt>
      <trkpt lat="45.09868" lon="4.70535">
        <ele>468</ele>
        <time>2020-07-15T19:01:12 02:00</time>
      </trkpt>
      <trkpt lat="45.09916" lon="4.70657">
        <ele>465</ele>
        <time>2020-07-15T19:01:17 02:00</time>
      </trkpt>
      <trkpt lat="45.099" lon="4.70812">
        <ele>462</ele>
        <time>2020-07-15T19:01:22 02:00</time>
      </trkpt>
      <trkpt lat="45.09888" lon="4.70891">
        <ele>458</ele>
        <time>2020-07-15T19:01:27 02:00</time>
      </trkpt>
      <trkpt lat="45.09889" lon="4.70928">
        <ele>456</ele>
        <time>2020-07-15T19:01:32 02:00</time>
      </trkpt>
      <trkpt lat="45.09916" lon="4.70915">
        <ele>452</ele>
        <time>2020-07-15T19:01:37 02:00</time>
      </trkpt>
      <trkpt lat="45.09922" lon="4.70878">
        <ele>455</ele>
        <time>2020-07-15T19:01:42 02:00</time>
      </trkpt>
      <trkpt lat="45.09975" lon="4.70868">
        <ele>462</ele>
        <time>2020-07-15T19:01:47 02:00</time>
      </trkpt>
      <trkpt lat="45.10119" lon="4.70883">
        <ele>466</ele>
        <time>2020-07-15T19:01:52 02:00</time>
      </trkpt>
      <trkpt lat="45.10118" lon="4.70825">
        <ele>468</ele>
        <time>2020-07-15T19:01:57 02:00</time>
      </trkpt>
      <trkpt lat="45.10131" lon="4.70752">
        <ele>468</ele>
        <time>2020-07-15T19:02:02 02:00</time>
      </trkpt>
      <trkpt lat="45.1015" lon="4.70737">
        <ele>467</ele>
        <time>2020-07-15T19:02:07 02:00</time>
      </trkpt>
      <trkpt lat="45.10184" lon="4.70685">
        <ele>468</ele>
        <time>2020-07-15T19:02:12 02:00</time>
      </trkpt>
      <trkpt lat="45.10215" lon="4.70642">
        <ele>467</ele>
        <time>2020-07-15T19:02:17 02:00</time>
      </trkpt>
      <trkpt lat="45.10245" lon="4.7061">
        <ele>465</ele>
        <time>2020-07-15T19:02:22 02:00</time>
      </trkpt>
      <trkpt lat="45.10271" lon="4.70578">
        <ele>465</ele>
        <time>2020-07-15T19:02:27 02:00</time>
      </trkpt>
      <trkpt lat="45.10306" lon="4.7057">
        <ele>465</ele>
        <time>2020-07-15T19:02:32 02:00</time>
      </trkpt>
      <trkpt lat="45.10313" lon="4.70529">
        <ele>468</ele>
        <time>2020-07-15T19:02:37 02:00</time>
      </trkpt>
      <trkpt lat="45.10351" lon="4.7052">
        <ele>467</ele>
        <time>2020-07-15T19:02:42 02:00</time>
      </trkpt>
      <trkpt lat="45.10369" lon="4.70531">
        <ele>466</ele>
        <time>2020-07-15T19:02:47 02:00</time>
      </trkpt>
      <trkpt lat="45.10406" lon="4.70484">
        <ele>467</ele>
        <time>2020-07-15T19:02:52 02:00</time>
      </trkpt>
      <trkpt lat="45.10395" lon="4.70439">
        <ele>470</ele>
        <time>2020-07-15T19:02:57 02:00</time>
      </trkpt>
      <trkpt lat="45.10395" lon="4.70417">
        <ele>471</ele>
        <time>2020-07-15T19:03:02 02:00</time>
      </trkpt>
      <trkpt lat="45.104" lon="4.70381">
        <ele>473</ele>
        <time>2020-07-15T19:03:07 02:00</time>
      </trkpt>
      <trkpt lat="45.10406" lon="4.70357">
        <ele>474</ele>
        <time>2020-07-15T19:03:12 02:00</time>
      </trkpt>
      <trkpt lat="45.10378" lon="4.7034">
        <ele>475</ele>
        <time>2020-07-15T19:03:17 02:00</time>
      </trkpt>
      <trkpt lat="45.10378" lon="4.70293">
        <ele>477</ele>
        <time>2020-07-15T19:03:22 02:00</time>
      </trkpt>
      <trkpt lat="45.10372" lon="4.70258">
        <ele>478</ele>
        <time>2020-07-15T19:03:27 02:00</time>
      </trkpt>
      <trkpt lat="45.10372" lon="4.70222">
        <ele>479</ele>
        <time>2020-07-15T19:03:32 02:00</time>
      </trkpt>
      <trkpt lat="45.10403" lon="4.70198">
        <ele>478</ele>
        <time>2020-07-15T19:03:37 02:00</time>
      </trkpt>
      <trkpt lat="45.10431" lon="4.70203">
        <ele>479</ele>
        <time>2020-07-15T19:03:42 02:00</time>
      </trkpt>
      <trkpt lat="45.10445" lon="4.70245">
        <ele>478</ele>
        <time>2020-07-15T19:03:47 02:00</time>
      </trkpt>
      <trkpt lat="45.10448" lon="4.70284">
        <ele>477</ele>
        <time>2020-07-15T19:03:52 02:00</time>
      </trkpt>
      <trkpt lat="45.10519" lon="4.70325">
        <ele>477</ele>
        <time>2020-07-15T19:03:57 02:00</time>
      </trkpt>
      <trkpt lat="45.10509" lon="4.70299">
        <ele>479</ele>
        <time>2020-07-15T19:04:02 02:00</time>
      </trkpt>
      <trkpt lat="45.10524" lon="4.70237">
        <ele>484</ele>
        <time>2020-07-15T19:04:07 02:00</time>
      </trkpt>
      <trkpt lat="45.10533" lon="4.70192">
        <ele>488</ele>
        <time>2020-07-15T19:04:12 02:00</time>
      </trkpt>
      <trkpt lat="45.10574" lon="4.70181">
        <ele>491</ele>
        <time>2020-07-15T19:04:17 02:00</time>
      </trkpt>
      <trkpt lat="45.1056" lon="4.70044">
        <ele>495</ele>
        <time>2020-07-15T19:04:22 02:00</time>
      </trkpt>
      <trkpt lat="45.10531" lon="4.70003">
        <ele>493</ele>
        <time>2020-07-15T19:04:27 02:00</time>
      </trkpt>
      <trkpt lat="45.10513" lon="4.6996">
        <ele>491</ele>
        <time>2020-07-15T19:04:32 02:00</time>
      </trkpt>
      <trkpt lat="45.10498" lon="4.69917">
        <ele>488</ele>
        <time>2020-07-15T19:04:37 02:00</time>
      </trkpt>
      <trkpt lat="45.10496" lon="4.69902">
        <ele>487</ele>
        <time>2020-07-15T19:04:42 02:00</time>
      </trkpt>
      <trkpt lat="45.10524" lon="4.69855">
        <ele>488</ele>
        <time>2020-07-15T19:04:47 02:00</time>
      </trkpt>
      <trkpt lat="45.10546" lon="4.69782">
        <ele>490</ele>
        <time>2020-07-15T19:04:52 02:00</time>
      </trkpt>
      <trkpt lat="45.10554" lon="4.6972">
        <ele>493</ele>
        <time>2020-07-15T19:04:57 02:00</time>
      </trkpt>
      <trkpt lat="45.10555" lon="4.6966">
        <ele>496</ele>
        <time>2020-07-15T19:05:02 02:00</time>
      </trkpt>
      <trkpt lat="45.10555" lon="4.69615">
        <ele>496</ele>
        <time>2020-07-15T19:05:07 02:00</time>
      </trkpt>
      <trkpt lat="45.10551" lon="4.6961">
        <ele>496</ele>
        <time>2020-07-15T19:05:12 02:00</time>
      </trkpt>
      <trkpt lat="45.10537" lon="4.69542">
        <ele>495</ele>
        <time>2020-07-15T19:05:17 02:00</time>
      </trkpt>
      <trkpt lat="45.10518" lon="4.69473">
        <ele>494</ele>
        <time>2020-07-15T19:05:22 02:00</time>
      </trkpt>
      <trkpt lat="45.10513" lon="4.6946">
        <ele>494</ele>
        <time>2020-07-15T19:05:27 02:00</time>
      </trkpt>
      <trkpt lat="45.1053" lon="4.69434">
        <ele>495</ele>
        <time>2020-07-15T19:05:32 02:00</time>
      </trkpt>
      <trkpt lat="45.1053" lon="4.69359">
        <ele>497</ele>
        <time>2020-07-15T19:05:37 02:00</time>
      </trkpt>
      <trkpt lat="45.10539" lon="4.69295">
        <ele>499</ele>
        <time>2020-07-15T19:05:42 02:00</time>
      </trkpt>
      <trkpt lat="45.10577" lon="4.69303">
        <ele>499</ele>
        <time>2020-07-15T19:05:47 02:00</time>
      </trkpt>
      <trkpt lat="45.10599" lon="4.69243">
        <ele>501</ele>
        <time>2020-07-15T19:05:52 02:00</time>
      </trkpt>
      <trkpt lat="45.10628" lon="4.69226">
        <ele>504</ele>
        <time>2020-07-15T19:05:57 02:00</time>
      </trkpt>
      <trkpt lat="45.10631" lon="4.69166">
        <ele>504</ele>
        <time>2020-07-15T19:06:02 02:00</time>
      </trkpt>
      <trkpt lat="45.10645" lon="4.69136">
        <ele>505</ele>
        <time>2020-07-15T19:06:07 02:00</time>
      </trkpt>
      <trkpt lat="45.10651" lon="4.69098">
        <ele>505</ele>
        <time>2020-07-15T19:06:12 02:00</time>
      </trkpt>
      <trkpt lat="45.10601" lon="4.69031">
        <ele>505</ele>
        <time>2020-07-15T19:06:17 02:00</time>
      </trkpt>
      <trkpt lat="45.10578" lon="4.69005">
        <ele>506</ele>
        <time>2020-07-15T19:06:22 02:00</time>
      </trkpt>
      <trkpt lat="45.10574" lon="4.68999">
        <ele>507</ele>
        <time>2020-07-15T19:06:27 02:00</time>
      </trkpt>
      <trkpt lat="45.10566" lon="4.68941">
        <ele>509</ele>
        <time>2020-07-15T19:06:32 02:00</time>
      </trkpt>
      <trkpt lat="45.10536" lon="4.6893">
        <ele>511</ele>
        <time>2020-07-15T19:06:37 02:00</time>
      </trkpt>
      <trkpt lat="45.10481" lon="4.68915">
        <ele>515</ele>
        <time>2020-07-15T19:06:42 02:00</time>
      </trkpt>
      <trkpt lat="45.10431" lon="4.68913">
        <ele>518</ele>
        <time>2020-07-15T19:06:47 02:00</time>
      </trkpt>
      <trkpt lat="45.10387" lon="4.68857">
        <ele>524</ele>
        <time>2020-07-15T19:06:52 02:00</time>
      </trkpt>
      <trkpt lat="45.10428" lon="4.68752">
        <ele>531</ele>
        <time>2020-07-15T19:06:57 02:00</time>
      </trkpt>
      <trkpt lat="45.10395" lon="4.68735">
        <ele>534</ele>
        <time>2020-07-15T19:07:02 02:00</time>
      </trkpt>
      <trkpt lat="45.10395" lon="4.68658">
        <ele>538</ele>
        <time>2020-07-15T19:07:07 02:00</time>
      </trkpt>
      <trkpt lat="45.10472" lon="4.68529">
        <ele>522</ele>
        <time>2020-07-15T19:07:12 02:00</time>
      </trkpt>
      <trkpt lat="45.10533" lon="4.68428">
        <ele>521</ele>
        <time>2020-07-15T19:07:17 02:00</time>
      </trkpt>
      <trkpt lat="45.10478" lon="4.68331">
        <ele>529</ele>
        <time>2020-07-15T19:07:22 02:00</time>
      </trkpt>
      <trkpt lat="45.10433" lon="4.68226">
        <ele>535</ele>
        <time>2020-07-15T19:07:27 02:00</time>
      </trkpt>
      <trkpt lat="45.10389" lon="4.68125">
        <ele>542</ele>
        <time>2020-07-15T19:07:32 02:00</time>
      </trkpt>
      <trkpt lat="45.10369" lon="4.68076">
        <ele>548</ele>
        <time>2020-07-15T19:07:37 02:00</time>
      </trkpt>
      <trkpt lat="45.10359" lon="4.68022">
        <ele>551</ele>
        <time>2020-07-15T19:07:42 02:00</time>
      </trkpt>
      <trkpt lat="45.10334" lon="4.67932">
        <ele>557</ele>
        <time>2020-07-15T19:07:47 02:00</time>
      </trkpt>
      <trkpt lat="45.10286" lon="4.67836">
        <ele>568</ele>
        <time>2020-07-15T19:07:52 02:00</time>
      </trkpt>
      <trkpt lat="45.10275" lon="4.67797">
        <ele>569</ele>
        <time>2020-07-15T19:07:57 02:00</time>
      </trkpt>
      <trkpt lat="45.10237" lon="4.67752">
        <ele>573</ele>
        <time>2020-07-15T19:08:02 02:00</time>
      </trkpt>
      <trkpt lat="45.10184" lon="4.67645">
        <ele>584</ele>
        <time>2020-07-15T19:08:07 02:00</time>
      </trkpt>
      <trkpt lat="45.1018" lon="4.67598">
        <ele>586</ele>
        <time>2020-07-15T19:08:12 02:00</time>
      </trkpt>
      <trkpt lat="45.10189" lon="4.6752">
        <ele>592</ele>
        <time>2020-07-15T19:08:17 02:00</time>
      </trkpt>
      <trkpt lat="45.10197" lon="4.67458">
        <ele>599</ele>
        <time>2020-07-15T19:08:22 02:00</time>
      </trkpt>
      <trkpt lat="45.10219" lon="4.67402">
        <ele>605</ele>
        <time>2020-07-15T19:08:27 02:00</time>
      </trkpt>
      <trkpt lat="45.10284" lon="4.67387">
        <ele>606</ele>
        <time>2020-07-15T19:08:32 02:00</time>
      </trkpt>
      <trkpt lat="45.10325" lon="4.67365">
        <ele>612</ele>
        <time>2020-07-15T19:08:37 02:00</time>
      </trkpt>
      <trkpt lat="45.10357" lon="4.6734">
        <ele>620</ele>
        <time>2020-07-15T19:08:42 02:00</time>
      </trkpt>
      <trkpt lat="45.10311" lon="4.67313">
        <ele>625</ele>
        <time>2020-07-15T19:08:47 02:00</time>
      </trkpt>
      <trkpt lat="45.10278" lon="4.67288">
        <ele>628</ele>
        <time>2020-07-15T19:08:52 02:00</time>
      </trkpt>
      <trkpt lat="45.10267" lon="4.67251">
        <ele>634</ele>
        <time>2020-07-15T19:08:57 02:00</time>
      </trkpt>
      <trkpt lat="45.10278" lon="4.67204">
        <ele>640</ele>
        <time>2020-07-15T19:09:02 02:00</time>
      </trkpt>
      <trkpt lat="45.10309" lon="4.6723">
        <ele>643</ele>
        <time>2020-07-15T19:09:07 02:00</time>
      </trkpt>
      <trkpt lat="45.10334" lon="4.67217">
        <ele>649</ele>
        <time>2020-07-15T19:09:12 02:00</time>
      </trkpt>
      <trkpt lat="45.10353" lon="4.67212">
        <ele>653</ele>
        <time>2020-07-15T19:09:17 02:00</time>
      </trkpt>
      <trkpt lat="45.10352" lon="4.6718">
        <ele>658</ele>
        <time>2020-07-15T19:09:22 02:00</time>
      </trkpt>
      <trkpt lat="45.10375" lon="4.67174">
        <ele>663</ele>
        <time>2020-07-15T19:09:27 02:00</time>
      </trkpt>
      <trkpt lat="45.10394" lon="4.67131">
        <ele>671</ele>
        <time>2020-07-15T19:09:32 02:00</time>
      </trkpt>
      <trkpt lat="45.10414" lon="4.67129">
        <ele>676</ele>
        <time>2020-07-15T19:09:37 02:00</time>
      </trkpt>
      <trkpt lat="45.10434" lon="4.67099">
        <ele>681</ele>
        <time>2020-07-15T19:09:42 02:00</time>
      </trkpt>
      <trkpt lat="45.10452" lon="4.67041">
        <ele>690</ele>
        <time>2020-07-15T19:09:47 02:00</time>
      </trkpt>
      <trkpt lat="45.10579" lon="4.67058">
        <ele>690</ele>
        <time>2020-07-15T19:09:52 02:00</time>
      </trkpt>
      <trkpt lat="45.1063" lon="4.67011">
        <ele>685</ele>
        <time>2020-07-15T19:09:57 02:00</time>
      </trkpt>
      <trkpt lat="45.1067" lon="4.6694">
        <ele>683</ele>
        <time>2020-07-15T19:10:02 02:00</time>
      </trkpt>
      <trkpt lat="45.10762" lon="4.66891">
        <ele>667</ele>
        <time>2020-07-15T19:10:07 02:00</time>
      </trkpt>
      <trkpt lat="45.10832" lon="4.66865">
        <ele>659</ele>
        <time>2020-07-15T19:10:12 02:00</time>
      </trkpt>
      <trkpt lat="45.1077" lon="4.67015">
        <ele>644</ele>
        <time>2020-07-15T19:10:17 02:00</time>
      </trkpt>
      <trkpt lat="45.10771" lon="4.67116">
        <ele>632</ele>
        <time>2020-07-15T19:10:22 02:00</time>
      </trkpt>
      <trkpt lat="45.10755" lon="4.67204">
        <ele>622</ele>
        <time>2020-07-15T19:10:27 02:00</time>
      </trkpt>
      <trkpt lat="45.10826" lon="4.67133">
        <ele>622</ele>
        <time>2020-07-15T19:10:32 02:00</time>
      </trkpt>
      <trkpt lat="45.10859" lon="4.67159">
        <ele>619</ele>
        <time>2020-07-15T19:10:37 02:00</time>
      </trkpt>
      <trkpt lat="45.10898" lon="4.67156">
        <ele>620</ele>
        <time>2020-07-15T19:10:42 02:00</time>
      </trkpt>
      <trkpt lat="45.10945" lon="4.67126">
        <ele>623</ele>
        <time>2020-07-15T19:10:47 02:00</time>
      </trkpt>
      <trkpt lat="45.10992" lon="4.67059">
        <ele>626</ele>
        <time>2020-07-15T19:10:52 02:00</time>
      </trkpt>
      <trkpt lat="45.1106" lon="4.67023">
        <ele>622</ele>
        <time>2020-07-15T19:10:57 02:00</time>
      </trkpt>
      <trkpt lat="45.1114" lon="4.66995">
        <ele>611</ele>
        <time>2020-07-15T19:11:02 02:00</time>
      </trkpt>
      <trkpt lat="45.11219" lon="4.6699">
        <ele>607</ele>
        <time>2020-07-15T19:11:07 02:00</time>
      </trkpt>
      <trkpt lat="45.11257" lon="4.67053">
        <ele>602</ele>
        <time>2020-07-15T19:11:12 02:00</time>
      </trkpt>
      <trkpt lat="45.1125" lon="4.67136">
        <ele>595</ele>
        <time>2020-07-15T19:11:17 02:00</time>
      </trkpt>
      <trkpt lat="45.11181" lon="4.67204">
        <ele>591</ele>
        <time>2020-07-15T19:11:22 02:00</time>
      </trkpt>
      <trkpt lat="45.11152" lon="4.6726">
        <ele>590</ele>
        <time>2020-07-15T19:11:27 02:00</time>
      </trkpt>
      <trkpt lat="45.11121" lon="4.67387">
        <ele>587</ele>
        <time>2020-07-15T19:11:32 02:00</time>
      </trkpt>
      <trkpt lat="45.11069" lon="4.6744">
        <ele>576</ele>
        <time>2020-07-15T19:11:37 02:00</time>
      </trkpt>
      <trkpt lat="45.11025" lon="4.6751">
        <ele>569</ele>
        <time>2020-07-15T19:11:42 02:00</time>
      </trkpt>
      <trkpt lat="45.11092" lon="4.67514">
        <ele>579</ele>
        <time>2020-07-15T19:11:47 02:00</time>
      </trkpt>
      <trkpt lat="45.11084" lon="4.67615">
        <ele>577</ele>
        <time>2020-07-15T19:11:52 02:00</time>
      </trkpt>
      <trkpt lat="45.11092" lon="4.67653">
        <ele>580</ele>
        <time>2020-07-15T19:11:57 02:00</time>
      </trkpt>
      <trkpt lat="45.1109" lon="4.67724">
        <ele>580</ele>
        <time>2020-07-15T19:12:02 02:00</time>
      </trkpt>
      <trkpt lat="45.11118" lon="4.67774">
        <ele>588</ele>
        <time>2020-07-15T19:12:07 02:00</time>
      </trkpt>
      <trkpt lat="45.11156" lon="4.67825">
        <ele>598</ele>
        <time>2020-07-15T19:12:12 02:00</time>
      </trkpt>
      <trkpt lat="45.11179" lon="4.67857">
        <ele>605</ele>
        <time>2020-07-15T19:12:17 02:00</time>
      </trkpt>
      <trkpt lat="45.11215" lon="4.67969">
        <ele>616</ele>
        <time>2020-07-15T19:12:22 02:00</time>
      </trkpt>
      <trkpt lat="45.11233" lon="4.67962">
        <ele>623</ele>
        <time>2020-07-15T19:12:27 02:00</time>
      </trkpt>
      <trkpt lat="45.1123" lon="4.67902">
        <ele>624</ele>
        <time>2020-07-15T19:12:32 02:00</time>
      </trkpt>
      <trkpt lat="45.11229" lon="4.6784">
        <ele>626</ele>
        <time>2020-07-15T19:12:37 02:00</time>
      </trkpt>
      <trkpt lat="45.11212" lon="4.6775">
        <ele>623</ele>
        <time>2020-07-15T19:12:42 02:00</time>
      </trkpt>
      <trkpt lat="45.11212" lon="4.67709">
        <ele>624</ele>
        <time>2020-07-15T19:12:47 02:00</time>
      </trkpt>
      <trkpt lat="45.11221" lon="4.67591">
        <ele>629</ele>
        <time>2020-07-15T19:12:52 02:00</time>
      </trkpt>
      <trkpt lat="45.11245" lon="4.67546">
        <ele>634</ele>
        <time>2020-07-15T19:12:57 02:00</time>
      </trkpt>
      <trkpt lat="45.11328" lon="4.67527">
        <ele>641</ele>
        <time>2020-07-15T19:13:02 02:00</time>
      </trkpt>
      <trkpt lat="45.11404" lon="4.67559">
        <ele>652</ele>
        <time>2020-07-15T19:13:07 02:00</time>
      </trkpt>
      <trkpt lat="45.11431" lon="4.67548">
        <ele>655</ele>
        <time>2020-07-15T19:13:12 02:00</time>
      </trkpt>
      <trkpt lat="45.11442" lon="4.67501">
        <ele>653</ele>
        <time>2020-07-15T19:13:17 02:00</time>
      </trkpt>
      <trkpt lat="45.11438" lon="4.67456">
        <ele>650</ele>
        <time>2020-07-15T19:13:22 02:00</time>
      </trkpt>
      <trkpt lat="45.11462" lon="4.67366">
        <ele>653</ele>
        <time>2020-07-15T19:13:27 02:00</time>
      </trkpt>
      <trkpt lat="45.11509" lon="4.67398">
        <ele>668</ele>
        <time>2020-07-15T19:13:32 02:00</time>
      </trkpt>
      <trkpt lat="45.11571" lon="4.67362">
        <ele>683</ele>
        <time>2020-07-15T19:13:37 02:00</time>
      </trkpt>
      <trkpt lat="45.11616" lon="4.67297">
        <ele>688</ele>
        <time>2020-07-15T19:13:42 02:00</time>
      </trkpt>
      <trkpt lat="45.11681" lon="4.67237">
        <ele>698</ele>
        <time>2020-07-15T19:13:47 02:00</time>
      </trkpt>
      <trkpt lat="45.11728" lon="4.6722">
        <ele>709</ele>
        <time>2020-07-15T19:13:52 02:00</time>
      </trkpt>
      <trkpt lat="45.11712" lon="4.67261">
        <ele>711</ele>
        <time>2020-07-15T19:13:57 02:00</time>
      </trkpt>
      <trkpt lat="45.1168" lon="4.67295">
        <ele>709</ele>
        <time>2020-07-15T19:14:02 02:00</time>
      </trkpt>
      <trkpt lat="45.11637" lon="4.67387">
        <ele>712</ele>
        <time>2020-07-15T19:14:07 02:00</time>
      </trkpt>
      <trkpt lat="45.11639" lon="4.67512">
        <ele>732</ele>
        <time>2020-07-15T19:14:12 02:00</time>
      </trkpt>
      <trkpt lat="45.11676" lon="4.6747">
        <ele>742</ele>
        <time>2020-07-15T19:14:17 02:00</time>
      </trkpt>
      <trkpt lat="45.11711" lon="4.67425">
        <ele>750</ele>
        <time>2020-07-15T19:14:22 02:00</time>
      </trkpt>
      <trkpt lat="45.11755" lon="4.6738">
        <ele>755</ele>
        <time>2020-07-15T19:14:27 02:00</time>
      </trkpt>
      <trkpt lat="45.11781" lon="4.67345">
        <ele>751</ele>
        <time>2020-07-15T19:14:32 02:00</time>
      </trkpt>
      <trkpt lat="45.11829" lon="4.67354">
        <ele>763</ele>
        <time>2020-07-15T19:14:37 02:00</time>
      </trkpt>
      <trkpt lat="45.11878" lon="4.67358">
        <ele>765</ele>
        <time>2020-07-15T19:14:42 02:00</time>
      </trkpt>
      <trkpt lat="45.11911" lon="4.67341">
        <ele>764</ele>
        <time>2020-07-15T19:14:47 02:00</time>
      </trkpt>
      <trkpt lat="45.11973" lon="4.67354">
        <ele>761</ele>
        <time>2020-07-15T19:14:52 02:00</time>
      </trkpt>
      <trkpt lat="45.11977" lon="4.67345">
        <ele>760</ele>
        <time>2020-07-15T19:14:57 02:00</time>
      </trkpt>
      <trkpt lat="45.1198" lon="4.6735">
        <ele>760</ele>
        <time>2020-07-15T19:15:02 02:00</time>
      </trkpt>
      <trkpt lat="45.11977" lon="4.6735">
        <ele>760</ele>
        <time>2020-07-15T19:15:07 02:00</time>
      </trkpt>
      <trkpt lat="45.11974" lon="4.67343">
        <ele>760</ele>
        <time>2020-07-15T19:15:12 02:00</time>
      </trkpt>
      <trkpt lat="45.11971" lon="4.67339">
        <ele>760</ele>
        <time>2020-07-15T19:15:17 02:00</time>
      </trkpt>
      <trkpt lat="45.11976" lon="4.67348">
        <ele>760</ele>
        <time>2020-07-15T19:15:22 02:00</time>
      </trkpt>
      <trkpt lat="45.11979" lon="4.67347">
        <ele>760</ele>
        <time>2020-07-15T19:15:27 02:00</time>
      </trkpt>
      <trkpt lat="45.11976" lon="4.67345">
        <ele>760</ele>
        <time>2020-07-15T19:15:32 02:00</time>
      </trkpt>
      <trkpt lat="45.1198" lon="4.6735">
        <ele>760</ele>
        <time>2020-07-15T19:15:37 02:00</time>
      </trkpt>
      <trkpt lat="45.11976" lon="4.67351">
        <ele>761</ele>
        <time>2020-07-15T19:15:42 02:00</time>
      </trkpt>
      <trkpt lat="45.11979" lon="4.67352">
        <ele>760</ele>
        <time>2020-07-15T19:15:47 02:00</time>
      </trkpt>
      <trkpt lat="45.11976" lon="4.6735">
        <ele>761</ele>
        <time>2020-07-15T19:15:52 02:00</time>
      </trkpt>
      <trkpt lat="45.11971" lon="4.67352">
        <ele>761</ele>
        <time>2020-07-15T19:15:57 02:00</time>
      </trkpt>
      <trkpt lat="45.1198" lon="4.67345">
        <ele>760</ele>
        <time>2020-07-15T19:16:02 02:00</time>
      </trkpt>
      <trkpt lat="45.11981" lon="4.67341">
        <ele>760</ele>
        <time>2020-07-15T19:16:07 02:00</time>
      </trkpt>
      <trkpt lat="45.11982" lon="4.67339">
        <ele>759</ele>
        <time>2020-07-15T19:16:12 02:00</time>
      </trkpt>
      <trkpt lat="45.11981" lon="4.67332">
        <ele>759</ele>
        <time>2020-07-15T19:16:17 02:00</time>
      </trkpt>
      <trkpt lat="45.11979" lon="4.67328">
        <ele>759</ele>
        <time>2020-07-15T19:16:22 02:00</time>
      </trkpt>
      <trkpt lat="45.11985" lon="4.67328">
        <ele>759</ele>
        <time>2020-07-15T19:16:27 02:00</time>
      </trkpt>
      <trkpt lat="45.11983" lon="4.67329">
        <ele>759</ele>
        <time>2020-07-15T19:16:32 02:00</time>
      </trkpt>
      <trkpt lat="45.11985" lon="4.67327">
        <ele>759</ele>
        <time>2020-07-15T19:16:37 02:00</time>
      </trkpt>
      <trkpt lat="45.1198" lon="4.67332">
        <ele>759</ele>
        <time>2020-07-15T19:16:42 02:00</time>
      </trkpt>
      <trkpt lat="45.11982" lon="4.67326">
        <ele>759</ele>
        <time>2020-07-15T19:16:47 02:00</time>
      </trkpt>
      <trkpt lat="45.11984" lon="4.67323">
        <ele>758</ele>
        <time>2020-07-15T19:16:52 02:00</time>
      </trkpt>
      <trkpt lat="45.11983" lon="4.67313">
        <ele>758</ele>
        <time>2020-07-15T19:16:57 02:00</time>
      </trkpt>
      <trkpt lat="45.11985" lon="4.67307">
        <ele>758</ele>
        <time>2020-07-15T19:17:02 02:00</time>
      </trkpt>
      <trkpt lat="45.11984" lon="4.67298">
        <ele>757</ele>
        <time>2020-07-15T19:17:07 02:00</time>
      </trkpt>
      <trkpt lat="45.11985" lon="4.6729">
        <ele>757</ele>
        <time>2020-07-15T19:17:12 02:00</time>
      </trkpt>
      <trkpt lat="45.11979" lon="4.67281">
        <ele>757</ele>
        <time>2020-07-15T19:17:17 02:00</time>
      </trkpt>
      <trkpt lat="45.11981" lon="4.67274">
        <ele>756</ele>
        <time>2020-07-15T19:17:22 02:00</time>
      </trkpt>
      <trkpt lat="45.11979" lon="4.67267">
        <ele>756</ele>
        <time>2020-07-15T19:17:27 02:00</time>
      </trkpt>
      <trkpt lat="45.11978" lon="4.67256">
        <ele>756</ele>
        <time>2020-07-15T19:17:32 02:00</time>
      </trkpt>
      <trkpt lat="45.11979" lon="4.67248">
        <ele>755</ele>
        <time>2020-07-15T19:17:37 02:00</time>
      </trkpt>
      <trkpt lat="45.11976" lon="4.6724">
        <ele>755</ele>
        <time>2020-07-15T19:17:42 02:00</time>
      </trkpt>
      <trkpt lat="45.11974" lon="4.67236">
        <ele>755</ele>
        <time>2020-07-15T19:17:47 02:00</time>
      </trkpt>
      <trkpt lat="45.11977" lon="4.6723">
        <ele>755</ele>
        <time>2020-07-15T19:17:52 02:00</time>
      </trkpt>
      <trkpt lat="45.11976" lon="4.67232">
        <ele>755</ele>
        <time>2020-07-15T19:17:57 02:00</time>
      </trkpt>
      <trkpt lat="45.11971" lon="4.67221">
        <ele>755</ele>
        <time>2020-07-15T19:18:02 02:00</time>
      </trkpt>
      <trkpt lat="45.11974" lon="4.67223">
        <ele>755</ele>
        <time>2020-07-15T19:18:07 02:00</time>
      </trkpt>
      <trkpt lat="45.11973" lon="4.67219">
        <ele>755</ele>
        <time>2020-07-15T19:18:12 02:00</time>
      </trkpt>
      <trkpt lat="45.11969" lon="4.67221">
        <ele>755</ele>
        <time>2020-07-15T19:18:17 02:00</time>
      </trkpt>
      <trkpt lat="45.11976" lon="4.67221">
        <ele>755</ele>
        <time>2020-07-15T19:18:22 02:00</time>
      </trkpt>
      <trkpt lat="45.11969" lon="4.67215">
        <ele>755</ele>
        <time>2020-07-15T19:18:27 02:00</time>
      </trkpt>
      <trkpt lat="45.11971" lon="4.67206">
        <ele>754</ele>
        <time>2020-07-15T19:18:32 02:00</time>
      </trkpt>
      <trkpt lat="45.11968" lon="4.67193">
        <ele>754</ele>
        <time>2020-07-15T19:18:37 02:00</time>
      </trkpt>
      <trkpt lat="45.11968" lon="4.67182">
        <ele>754</ele>
        <time>2020-07-15T19:18:42 02:00</time>
      </trkpt>
      <trkpt lat="45.11966" lon="4.67178">
        <ele>754</ele>
        <time>2020-07-15T19:18:47 02:00</time>
      </trkpt>
      <trkpt lat="45.11966" lon="4.67182">
        <ele>754</ele>
        <time>2020-07-15T19:18:52 02:00</time>
      </trkpt>
      <trkpt lat="45.11965" lon="4.67187">
        <ele>754</ele>
        <time>2020-07-15T19:18:57 02:00</time>
      </trkpt>
      <trkpt lat="45.11966" lon="4.67176">
        <ele>754</ele>
        <time>2020-07-15T19:19:02 02:00</time>
      </trkpt>
      <trkpt lat="45.11965" lon="4.67187">
        <ele>754</ele>
        <time>2020-07-15T19:19:07 02:00</time>
      </trkpt>
      <trkpt lat="45.11965" lon="4.67185">
        <ele>754</ele>
        <time>2020-07-15T19:19:12 02:00</time>
      </trkpt>
      <trkpt lat="45.11963" lon="4.67178">
        <ele>754</ele>
        <time>2020-07-15T19:19:17 02:00</time>
      </trkpt>
      <trkpt lat="45.11968" lon="4.67176">
        <ele>754</ele>
        <time>2020-07-15T19:19:22 02:00</time>
      </trkpt>
      <trkpt lat="45.11965" lon="4.67176">
        <ele>754</ele>
        <time>2020-07-15T19:19:27 02:00</time>
      </trkpt>
      <trkpt lat="45.11966" lon="4.67165">
        <ele>753</ele>
        <time>2020-07-15T19:19:32 02:00</time>
      </trkpt>
      <trkpt lat="45.11962" lon="4.6717">
        <ele>754</ele>
        <time>2020-07-15T19:19:37 02:00</time>
      </trkpt>
      <trkpt lat="45.11962" lon="4.6717">
        <ele>754</ele>
        <time>2020-07-15T19:19:42 02:00</time>
      </trkpt>
      <trkpt lat="45.11963" lon="4.67167">
        <ele>754</ele>
        <time>2020-07-15T19:19:47 02:00</time>
      </trkpt>
      <trkpt lat="45.1196" lon="4.67165">
        <ele>754</ele>
        <time>2020-07-15T19:19:52 02:00</time>
      </trkpt>
      <trkpt lat="45.11962" lon="4.67174">
        <ele>754</ele>
        <time>2020-07-15T19:19:57 02:00</time>
      </trkpt>
      <trkpt lat="45.11963" lon="4.67172">
        <ele>754</ele>
        <time>2020-07-15T19:20:02 02:00</time>
      </trkpt>
      <trkpt lat="45.11963" lon="4.6717">
        <ele>754</ele>
        <time>2020-07-15T19:20:07 02:00</time>
      </trkpt>
      <trkpt lat="45.1196" lon="4.67165">
        <ele>754</ele>
        <time>2020-07-15T19:20:12 02:00</time>
      </trkpt>
      <trkpt lat="45.1196" lon="4.67163">
        <ele>754</ele>
        <time>2020-07-15T19:20:17 02:00</time>
      </trkpt>
      <trkpt lat="45.1196" lon="4.67139">
        <ele>752</ele>
        <time>2020-07-15T19:20:22 02:00</time>
      </trkpt>
      <trkpt lat="45.11948" lon="4.67116">
        <ele>751</ele>
        <time>2020-07-15T19:20:27 02:00</time>
      </trkpt>
      <trkpt lat="45.11944" lon="4.67086">
        <ele>749</ele>
        <time>2020-07-15T19:20:32 02:00</time>
      </trkpt>
      <trkpt lat="45.11936" lon="4.67067">
        <ele>749</ele>
        <time>2020-07-15T19:20:37 02:00</time>
      </trkpt>
      <trkpt lat="45.11929" lon="4.67054">
        <ele>750</ele>
        <time>2020-07-15T19:20:42 02:00</time>
      </trkpt>
      <trkpt lat="45.11932" lon="4.67049">
        <ele>749</ele>
        <time>2020-07-15T19:20:47 02:00</time>
      </trkpt>
      <trkpt lat="45.1193" lon="4.67049">
        <ele>750</ele>
        <time>2020-07-15T19:20:52 02:00</time>
      </trkpt>
      <trkpt lat="45.1192" lon="4.67013">
        <ele>751</ele>
        <time>2020-07-15T19:20:57 02:00</time>
      </trkpt>
      <trkpt lat="45.11901" lon="4.66985">
        <ele>750</ele>
        <time>2020-07-15T19:21:02 02:00</time>
      </trkpt>
      <trkpt lat="45.11895" lon="4.66944">
        <ele>754</ele>
        <time>2020-07-15T19:21:07 02:00</time>
      </trkpt>
      <trkpt lat="45.11904" lon="4.66892">
        <ele>757</ele>
        <time>2020-07-15T19:21:12 02:00</time>
      </trkpt>
      <trkpt lat="45.11892" lon="4.66898">
        <ele>757</ele>
        <time>2020-07-15T19:21:17 02:00</time>
      </trkpt>
      <trkpt lat="45.11872" lon="4.66862">
        <ele>760</ele>
        <time>2020-07-15T19:21:22 02:00</time>
      </trkpt>
      <trkpt lat="45.11833" lon="4.66802">
        <ele>767</ele>
        <time>2020-07-15T19:21:27 02:00</time>
      </trkpt>
      <trkpt lat="45.11799" lon="4.66726">
        <ele>766</ele>
        <time>2020-07-15T19:21:32 02:00</time>
      </trkpt>
      <trkpt lat="45.11768" lon="4.66681">
        <ele>771</ele>
        <time>2020-07-15T19:21:37 02:00</time>
      </trkpt>
      <trkpt lat="45.11749" lon="4.66621">
        <ele>773</ele>
        <time>2020-07-15T19:21:42 02:00</time>
      </trkpt>
      <trkpt lat="45.11742" lon="4.66561">
        <ele>769</ele>
        <time>2020-07-15T19:21:47 02:00</time>
      </trkpt>
      <trkpt lat="45.11718" lon="4.66518">
        <ele>766</ele>
        <time>2020-07-15T19:21:52 02:00</time>
      </trkpt>
      <trkpt lat="45.11696" lon="4.66493">
        <ele>766</ele>
        <time>2020-07-15T19:21:57 02:00</time>
      </trkpt>
      <trkpt lat="45.11678" lon="4.66486">
        <ele>768</ele>
        <time>2020-07-15T19:22:02 02:00</time>
      </trkpt>
      <trkpt lat="45.11659" lon="4.66407">
        <ele>765</ele>
        <time>2020-07-15T19:22:07 02:00</time>
      </trkpt>
      <trkpt lat="45.11628" lon="4.66304">
        <ele>766</ele>
        <time>2020-07-15T19:22:12 02:00</time>
      </trkpt>
      <trkpt lat="45.1161" lon="4.66244">
        <ele>773</ele>
        <time>2020-07-15T19:22:17 02:00</time>
      </trkpt>
      <trkpt lat="45.116" lon="4.66218">
        <ele>776</ele>
        <time>2020-07-15T19:22:22 02:00</time>
      </trkpt>
      <trkpt lat="45.11565" lon="4.66201">
        <ele>775</ele>
        <time>2020-07-15T19:22:27 02:00</time>
      </trkpt>
      <trkpt lat="45.11539" lon="4.66141">
        <ele>778</ele>
        <time>2020-07-15T19:22:32 02:00</time>
      </trkpt>
      <trkpt lat="45.11525" lon="4.66111">
        <ele>779</ele>
        <time>2020-07-15T19:22:37 02:00</time>
      </trkpt>
      <trkpt lat="45.115" lon="4.66067">
        <ele>783</ele>
        <time>2020-07-15T19:22:42 02:00</time>
      </trkpt>
      <trkpt lat="45.11491" lon="4.66019">
        <ele>786</ele>
        <time>2020-07-15T19:22:47 02:00</time>
      </trkpt>
      <trkpt lat="45.11487" lon="4.6597">
        <ele>792</ele>
        <time>2020-07-15T19:22:52 02:00</time>
      </trkpt>
      <trkpt lat="45.11507" lon="4.65957">
        <ele>793</ele>
        <time>2020-07-15T19:22:57 02:00</time>
      </trkpt>
      <trkpt lat="45.11513" lon="4.65916">
        <ele>796</ele>
        <time>2020-07-15T19:23:02 02:00</time>
      </trkpt>
      <trkpt lat="45.11503" lon="4.65908">
        <ele>798</ele>
        <time>2020-07-15T19:23:07 02:00</time>
      </trkpt>
      <trkpt lat="45.11465" lon="4.6591">
        <ele>802</ele>
        <time>2020-07-15T19:23:12 02:00</time>
      </trkpt>
      <trkpt lat="45.11398" lon="4.659">
        <ele>803</ele>
        <time>2020-07-15T19:23:17 02:00</time>
      </trkpt>
      <trkpt lat="45.11373" lon="4.65833">
        <ele>811</ele>
        <time>2020-07-15T19:23:22 02:00</time>
      </trkpt>
      <trkpt lat="45.1135" lon="4.65792">
        <ele>814</ele>
        <time>2020-07-15T19:23:27 02:00</time>
      </trkpt>
      <trkpt lat="45.11341" lon="4.65728">
        <ele>819</ele>
        <time>2020-07-15T19:23:32 02:00</time>
      </trkpt>
      <trkpt lat="45.11299" lon="4.65686">
        <ele>821</ele>
        <time>2020-07-15T19:23:37 02:00</time>
      </trkpt>
      <trkpt lat="45.11288" lon="4.6564">
        <ele>821</ele>
        <time>2020-07-15T19:23:42 02:00</time>
      </trkpt>
      <trkpt lat="45.11291" lon="4.65592">
        <ele>820</ele>
        <time>2020-07-15T19:23:47 02:00</time>
      </trkpt>
      <trkpt lat="45.11303" lon="4.65512">
        <ele>813</ele>
        <time>2020-07-15T19:23:52 02:00</time>
      </trkpt>
      <trkpt lat="45.113" lon="4.65467">
        <ele>806</ele>
        <time>2020-07-15T19:23:57 02:00</time>
      </trkpt>
      <trkpt lat="45.11292" lon="4.65396">
        <ele>795</ele>
        <time>2020-07-15T19:24:02 02:00</time>
      </trkpt>
      <trkpt lat="45.11292" lon="4.65355">
        <ele>790</ele>
        <time>2020-07-15T19:24:07 02:00</time>
      </trkpt>
      <trkpt lat="45.1128" lon="4.65318">
        <ele>786</ele>
        <time>2020-07-15T19:24:12 02:00</time>
      </trkpt>
      <trkpt lat="45.11274" lon="4.65302">
        <ele>786</ele>
        <time>2020-07-15T19:24:17 02:00</time>
      </trkpt>
      <trkpt lat="45.11254" lon="4.65278">
        <ele>786</ele>
        <time>2020-07-15T19:24:22 02:00</time>
      </trkpt>
      <trkpt lat="45.11295" lon="4.65248">
        <ele>783</ele>
        <time>2020-07-15T19:24:27 02:00</time>
      </trkpt>
      <trkpt lat="45.11324" lon="4.65209">
        <ele>784</ele>
        <time>2020-07-15T19:24:32 02:00</time>
      </trkpt>
      <trkpt lat="45.11342" lon="4.65156">
        <ele>786</ele>
        <time>2020-07-15T19:24:37 02:00</time>
      </trkpt>
      <trkpt lat="45.11372" lon="4.65083">
        <ele>787</ele>
        <time>2020-07-15T19:24:42 02:00</time>
      </trkpt>
      <trkpt lat="45.11385" lon="4.65048">
        <ele>787</ele>
        <time>2020-07-15T19:24:47 02:00</time>
      </trkpt>
      <trkpt lat="45.11392" lon="4.64999">
        <ele>787</ele>
        <time>2020-07-15T19:24:52 02:00</time>
      </trkpt>
      <trkpt lat="45.11403" lon="4.64935">
        <ele>783</ele>
        <time>2020-07-15T19:24:57 02:00</time>
      </trkpt>
      <trkpt lat="45.11401" lon="4.64872">
        <ele>781</ele>
        <time>2020-07-15T19:25:02 02:00</time>
      </trkpt>
      <trkpt lat="45.11378" lon="4.64812">
        <ele>783</ele>
        <time>2020-07-15T19:25:07 02:00</time>
      </trkpt>
      <trkpt lat="45.11357" lon="4.64765">
        <ele>785</ele>
        <time>2020-07-15T19:25:12 02:00</time>
      </trkpt>
      <trkpt lat="45.11341" lon="4.64714">
        <ele>788</ele>
        <time>2020-07-15T19:25:17 02:00</time>
      </trkpt>
      <trkpt lat="45.11325" lon="4.64684">
        <ele>789</ele>
        <time>2020-07-15T19:25:22 02:00</time>
      </trkpt>
      <trkpt lat="45.11359" lon="4.64559">
        <ele>787</ele>
        <time>2020-07-15T19:25:27 02:00</time>
      </trkpt>
      <trkpt lat="45.11259" lon="4.64591">
        <ele>798</ele>
        <time>2020-07-15T19:25:32 02:00</time>
      </trkpt>
      <trkpt lat="45.11191" lon="4.64632">
        <ele>806</ele>
        <time>2020-07-15T19:25:37 02:00</time>
      </trkpt>
      <trkpt lat="45.11124" lon="4.64677">
        <ele>812</ele>
        <time>2020-07-15T19:25:42 02:00</time>
      </trkpt>
      <trkpt lat="45.111" lon="4.64727">
        <ele>812</ele>
        <time>2020-07-15T19:25:47 02:00</time>
      </trkpt>
      <trkpt lat="45.11095" lon="4.64682">
        <ele>813</ele>
        <time>2020-07-15T19:25:52 02:00</time>
      </trkpt>
      <trkpt lat="45.11112" lon="4.64609">
        <ele>816</ele>
        <time>2020-07-15T19:25:57 02:00</time>
      </trkpt>
      <trkpt lat="45.11116" lon="4.6457">
        <ele>818</ele>
        <time>2020-07-15T19:26:02 02:00</time>
      </trkpt>
      <trkpt lat="45.11113" lon="4.64542">
        <ele>821</ele>
        <time>2020-07-15T19:26:07 02:00</time>
      </trkpt>
      <trkpt lat="45.11068" lon="4.64513">
        <ele>829</ele>
        <time>2020-07-15T19:26:12 02:00</time>
      </trkpt>
      <trkpt lat="45.10985" lon="4.64465">
        <ele>832</ele>
        <time>2020-07-15T19:26:17 02:00</time>
      </trkpt>
      <trkpt lat="45.10924" lon="4.64406">
        <ele>835</ele>
        <time>2020-07-15T19:26:22 02:00</time>
      </trkpt>
      <trkpt lat="45.10889" lon="4.64385">
        <ele>828</ele>
        <time>2020-07-15T19:26:27 02:00</time>
      </trkpt>
      <trkpt lat="45.10874" lon="4.64338">
        <ele>824</ele>
        <time>2020-07-15T19:26:32 02:00</time>
      </trkpt>
      <trkpt lat="45.1088" lon="4.6425">
        <ele>825</ele>
        <time>2020-07-15T19:26:37 02:00</time>
      </trkpt>
      <trkpt lat="45.1087" lon="4.64179">
        <ele>824</ele>
        <time>2020-07-15T19:26:42 02:00</time>
      </trkpt>
      <trkpt lat="45.10855" lon="4.64083">
        <ele>826</ele>
        <time>2020-07-15T19:26:47 02:00</time>
      </trkpt>
      <trkpt lat="45.10824" lon="4.63985">
        <ele>826</ele>
        <time>2020-07-15T19:26:52 02:00</time>
      </trkpt>
      <trkpt lat="45.10797" lon="4.63941">
        <ele>825</ele>
        <time>2020-07-15T19:26:57 02:00</time>
      </trkpt>
      <trkpt lat="45.10735" lon="4.63939">
        <ele>812</ele>
        <time>2020-07-15T19:27:02 02:00</time>
      </trkpt>
      <trkpt lat="45.10688" lon="4.63973">
        <ele>801</ele>
        <time>2020-07-15T19:27:07 02:00</time>
      </trkpt>
      <trkpt lat="45.10652" lon="4.6398">
        <ele>799</ele>
        <time>2020-07-15T19:27:12 02:00</time>
      </trkpt>
      <trkpt lat="45.10623" lon="4.63995">
        <ele>798</ele>
        <time>2020-07-15T19:27:17 02:00</time>
      </trkpt>
      <trkpt lat="45.10633" lon="4.64021">
        <ele>791</ele>
        <time>2020-07-15T19:27:22 02:00</time>
      </trkpt>
      <trkpt lat="45.10683" lon="4.64025">
        <ele>790</ele>
        <time>2020-07-15T19:27:27 02:00</time>
      </trkpt>
      <trkpt lat="45.10744" lon="4.64019">
        <ele>797</ele>
        <time>2020-07-15T19:27:32 02:00</time>
      </trkpt>
      <trkpt lat="45.1076" lon="4.64055">
        <ele>793</ele>
        <time>2020-07-15T19:27:37 02:00</time>
      </trkpt>
      <trkpt lat="45.10762" lon="4.64089">
        <ele>787</ele>
        <time>2020-07-15T19:27:42 02:00</time>
      </trkpt>
      <trkpt lat="45.10776" lon="4.64134">
        <ele>788</ele>
        <time>2020-07-15T19:27:47 02:00</time>
      </trkpt>
      <trkpt lat="45.1075" lon="4.64155">
        <ele>773</ele>
        <time>2020-07-15T19:27:52 02:00</time>
      </trkpt>
      <trkpt lat="45.10718" lon="4.64145">
        <ele>767</ele>
        <time>2020-07-15T19:27:57 02:00</time>
      </trkpt>
      <trkpt lat="45.1071" lon="4.64125">
        <ele>769</ele>
        <time>2020-07-15T19:28:02 02:00</time>
      </trkpt>
      <trkpt lat="45.10692" lon="4.64126">
        <ele>765</ele>
        <time>2020-07-15T19:28:07 02:00</time>
      </trkpt>
      <trkpt lat="45.10664" lon="4.64124">
        <ele>760</ele>
        <time>2020-07-15T19:28:12 02:00</time>
      </trkpt>
      <trkpt lat="45.10611" lon="4.64171">
        <ele>748</ele>
        <time>2020-07-15T19:28:17 02:00</time>
      </trkpt>
      <trkpt lat="45.10579" lon="4.64207">
        <ele>737</ele>
        <time>2020-07-15T19:28:22 02:00</time>
      </trkpt>
      <trkpt lat="45.10539" lon="4.64222">
        <ele>732</ele>
        <time>2020-07-15T19:28:27 02:00</time>
      </trkpt>
      <trkpt lat="45.10506" lon="4.64231">
        <ele>728</ele>
        <time>2020-07-15T19:28:32 02:00</time>
      </trkpt>
      <trkpt lat="45.10462" lon="4.64227">
        <ele>731</ele>
        <time>2020-07-15T19:28:37 02:00</time>
      </trkpt>
      <trkpt lat="45.10427" lon="4.64231">
        <ele>731</ele>
        <time>2020-07-15T19:28:42 02:00</time>
      </trkpt>
      <trkpt lat="45.10387" lon="4.64257">
        <ele>731</ele>
        <time>2020-07-15T19:28:47 02:00</time>
      </trkpt>
      <trkpt lat="45.10352" lon="4.64323">
        <ele>725</ele>
        <time>2020-07-15T19:28:52 02:00</time>
      </trkpt>
      <trkpt lat="45.10346" lon="4.64381">
        <ele>718</ele>
        <time>2020-07-15T19:28:57 02:00</time>
      </trkpt>
      <trkpt lat="45.10346" lon="4.64403">
        <ele>715</ele>
        <time>2020-07-15T19:29:02 02:00</time>
      </trkpt>
      <trkpt lat="45.10347" lon="4.64411">
        <ele>713</ele>
        <time>2020-07-15T19:29:07 02:00</time>
      </trkpt>
      <trkpt lat="45.10314" lon="4.64465">
        <ele>712</ele>
        <time>2020-07-15T19:29:12 02:00</time>
      </trkpt>
      <trkpt lat="45.10265" lon="4.64523">
        <ele>716</ele>
        <time>2020-07-15T19:29:17 02:00</time>
      </trkpt>
      <trkpt lat="45.10233" lon="4.64591">
        <ele>711</ele>
        <time>2020-07-15T19:29:22 02:00</time>
      </trkpt>
      <trkpt lat="45.10226" lon="4.64667">
        <ele>694</ele>
        <time>2020-07-15T19:29:27 02:00</time>
      </trkpt>
      <trkpt lat="45.10257" lon="4.64651">
        <ele>689</ele>
        <time>2020-07-15T19:29:32 02:00</time>
      </trkpt>
      <trkpt lat="45.10282" lon="4.64641">
        <ele>683</ele>
        <time>2020-07-15T19:29:37 02:00</time>
      </trkpt>
      <trkpt lat="45.10307" lon="4.64619">
        <ele>680</ele>
        <time>2020-07-15T19:29:42 02:00</time>
      </trkpt>
      <trkpt lat="45.1034" lon="4.64595">
        <ele>675</ele>
        <time>2020-07-15T19:29:47 02:00</time>
      </trkpt>
      <trkpt lat="45.10361" lon="4.64584">
        <ele>674</ele>
        <time>2020-07-15T19:29:52 02:00</time>
      </trkpt>
      <trkpt lat="45.10346" lon="4.64615">
        <ele>670</ele>
        <time>2020-07-15T19:29:57 02:00</time>
      </trkpt>
      <trkpt lat="45.10302" lon="4.64679">
        <ele>667</ele>
        <time>2020-07-15T19:30:02 02:00</time>
      </trkpt>
      <trkpt lat="45.1024" lon="4.64735">
        <ele>672</ele>
        <time>2020-07-15T19:30:07 02:00</time>
      </trkpt>
      <trkpt lat="45.10211" lon="4.64769">
        <ele>674</ele>
        <time>2020-07-15T19:30:12 02:00</time>
      </trkpt>
      <trkpt lat="45.10176" lon="4.64817">
        <ele>675</ele>
        <time>2020-07-15T19:30:17 02:00</time>
      </trkpt>
      <trkpt lat="45.1015" lon="4.64855">
        <ele>672</ele>
        <time>2020-07-15T19:30:22 02:00</time>
      </trkpt>
      <trkpt lat="45.10128" lon="4.64894">
        <ele>667</ele>
        <time>2020-07-15T19:30:27 02:00</time>
      </trkpt>
      <trkpt lat="45.10097" lon="4.64915">
        <ele>663</ele>
        <time>2020-07-15T19:30:32 02:00</time>
      </trkpt>
      <trkpt lat="45.10043" lon="4.64935">
        <ele>658</ele>
        <time>2020-07-15T19:30:37 02:00</time>
      </trkpt>
      <trkpt lat="45.10006" lon="4.64936">
        <ele>655</ele>
        <time>2020-07-15T19:30:42 02:00</time>
      </trkpt>
      <trkpt lat="45.09967" lon="4.64922">
        <ele>652</ele>
        <time>2020-07-15T19:30:47 02:00</time>
      </trkpt>
      <trkpt lat="45.09944" lon="4.64911">
        <ele>650</ele>
        <time>2020-07-15T19:30:52 02:00</time>
      </trkpt>
      <trkpt lat="45.09922" lon="4.64898">
        <ele>647</ele>
        <time>2020-07-15T19:30:57 02:00</time>
      </trkpt>
      <trkpt lat="45.09894" lon="4.64928">
        <ele>642</ele>
        <time>2020-07-15T19:31:02 02:00</time>
      </trkpt>
      <trkpt lat="45.09888" lon="4.64913">
        <ele>640</ele>
        <time>2020-07-15T19:31:07 02:00</time>
      </trkpt>
      <trkpt lat="45.09881" lon="4.64904">
        <ele>639</ele>
        <time>2020-07-15T19:31:12 02:00</time>
      </trkpt>
      <trkpt lat="45.09873" lon="4.64922">
        <ele>638</ele>
        <time>2020-07-15T19:31:17 02:00</time>
      </trkpt>
      <trkpt lat="45.09867" lon="4.64857">
        <ele>636</ele>
        <time>2020-07-15T19:31:22 02:00</time>
      </trkpt>
      <trkpt lat="45.09822" lon="4.64808">
        <ele>628</ele>
        <time>2020-07-15T19:31:27 02:00</time>
      </trkpt>
      <trkpt lat="45.09764" lon="4.64755">
        <ele>623</ele>
        <time>2020-07-15T19:31:32 02:00</time>
      </trkpt>
      <trkpt lat="45.09732" lon="4.64692">
        <ele>623</ele>
        <time>2020-07-15T19:31:37 02:00</time>
      </trkpt>
      <trkpt lat="45.09699" lon="4.64619">
        <ele>621</ele>
        <time>2020-07-15T19:31:42 02:00</time>
      </trkpt>
      <trkpt lat="45.0966" lon="4.64615">
        <ele>616</ele>
        <time>2020-07-15T19:31:47 02:00</time>
      </trkpt>
      <trkpt lat="45.096" lon="4.64598">
        <ele>615</ele>
        <time>2020-07-15T19:31:52 02:00</time>
      </trkpt>
      <trkpt lat="45.09549" lon="4.646">
        <ele>619</ele>
        <time>2020-07-15T19:31:57 02:00</time>
      </trkpt>
      <trkpt lat="45.09476" lon="4.64551">
        <ele>622</ele>
        <time>2020-07-15T19:32:02 02:00</time>
      </trkpt>
      <trkpt lat="45.09411" lon="4.64548">
        <ele>628</ele>
        <time>2020-07-15T19:32:07 02:00</time>
      </trkpt>
      <trkpt lat="45.09342" lon="4.64537">
        <ele>630</ele>
        <time>2020-07-15T19:32:12 02:00</time>
      </trkpt>
      <trkpt lat="45.09353" lon="4.64605">
        <ele>638</ele>
        <time>2020-07-15T19:32:17 02:00</time>
      </trkpt>
      <trkpt lat="45.09366" lon="4.6466">
        <ele>641</ele>
        <time>2020-07-15T19:32:22 02:00</time>
      </trkpt>
      <trkpt lat="45.09377" lon="4.64785">
        <ele>644</ele>
        <time>2020-07-15T19:32:27 02:00</time>
      </trkpt>
      <trkpt lat="45.09376" lon="4.64956">
        <ele>638</ele>
        <time>2020-07-15T19:32:32 02:00</time>
      </trkpt>
      <trkpt lat="45.09402" lon="4.64967">
        <ele>635</ele>
        <time>2020-07-15T19:32:37 02:00</time>
      </trkpt>
      <trkpt lat="45.09419" lon="4.64967">
        <ele>634</ele>
        <time>2020-07-15T19:32:42 02:00</time>
      </trkpt>
      <trkpt lat="45.09431" lon="4.64993">
        <ele>631</ele>
        <time>2020-07-15T19:32:47 02:00</time>
      </trkpt>
      <trkpt lat="45.09431" lon="4.65029">
        <ele>628</ele>
        <time>2020-07-15T19:32:52 02:00</time>
      </trkpt>
      <trkpt lat="45.09414" lon="4.65055">
        <ele>628</ele>
        <time>2020-07-15T19:32:57 02:00</time>
      </trkpt>
      <trkpt lat="45.09396" lon="4.65061">
        <ele>628</ele>
        <time>2020-07-15T19:33:02 02:00</time>
      </trkpt>
      <trkpt lat="45.09402" lon="4.65196">
        <ele>619</ele>
        <time>2020-07-15T19:33:07 02:00</time>
      </trkpt>
    </trkseg>
  </trk>
  <trk>
    <name><![CDATA[07 - St Félicien : Boucle de Vaudevant]]></name>
    <trkseg>
      <trkpt lat="45.09416" lon="4.65226">
        <ele>618</ele>
        <time>2019-10-12T15:41:10 02:00</time>
      </trkpt>
      <trkpt lat="45.09416" lon="4.65226">
        <ele>618</ele>
        <time>2019-10-12T15:41:10 02:00</time>
      </trkpt>
      <trkpt lat="45.09419" lon="4.652">
        <ele>618</ele>
        <time>2019-10-12T15:41:15 02:00</time>
      </trkpt>
      <trkpt lat="45.09446" lon="4.65245">
        <ele>612</ele>
        <time>2019-10-12T15:41:20 02:00</time>
      </trkpt>
      <trkpt lat="45.09498" lon="4.65136">
        <ele>612</ele>
        <time>2019-10-12T15:41:25 02:00</time>
      </trkpt>
      <trkpt lat="45.09562" lon="4.65076">
        <ele>610</ele>
        <time>2019-10-12T15:41:30 02:00</time>
      </trkpt>
      <trkpt lat="45.09598" lon="4.65013">
        <ele>614</ele>
        <time>2019-10-12T15:41:35 02:00</time>
      </trkpt>
      <trkpt lat="45.09628" lon="4.64928">
        <ele>616</ele>
        <time>2019-10-12T15:41:40 02:00</time>
      </trkpt>
      <trkpt lat="45.09639" lon="4.649">
        <ele>616</ele>
        <time>2019-10-12T15:41:45 02:00</time>
      </trkpt>
      <trkpt lat="45.0959" lon="4.6485">
        <ele>621</ele>
        <time>2019-10-12T15:41:50 02:00</time>
      </trkpt>
      <trkpt lat="45.09572" lon="4.64829">
        <ele>623</ele>
        <time>2019-10-12T15:41:55 02:00</time>
      </trkpt>
      <trkpt lat="45.09574" lon="4.64741">
        <ele>625</ele>
        <time>2019-10-12T15:42:00 02:00</time>
      </trkpt>
      <trkpt lat="45.09566" lon="4.647">
        <ele>625</ele>
        <time>2019-10-12T15:42:05 02:00</time>
      </trkpt>
      <trkpt lat="45.09545" lon="4.64634">
        <ele>623</ele>
        <time>2019-10-12T15:42:10 02:00</time>
      </trkpt>
      <trkpt lat="45.09545" lon="4.64593">
        <ele>619</ele>
        <time>2019-10-12T15:42:15 02:00</time>
      </trkpt>
      <trkpt lat="45.09605" lon="4.64599">
        <ele>615</ele>
        <time>2019-10-12T15:42:20 02:00</time>
      </trkpt>
      <trkpt lat="45.09646" lon="4.64601">
        <ele>615</ele>
        <time>2019-10-12T15:42:25 02:00</time>
      </trkpt>
      <trkpt lat="45.09643" lon="4.64558">
        <ele>613</ele>
        <time>2019-10-12T15:42:30 02:00</time>
      </trkpt>
      <trkpt lat="45.0966" lon="4.64496">
        <ele>612</ele>
        <time>2019-10-12T15:42:35 02:00</time>
      </trkpt>
      <trkpt lat="45.09668" lon="4.64434">
        <ele>607</ele>
        <time>2019-10-12T15:42:40 02:00</time>
      </trkpt>
      <trkpt lat="45.09705" lon="4.64361">
        <ele>608</ele>
        <time>2019-10-12T15:42:45 02:00</time>
      </trkpt>
      <trkpt lat="45.09696" lon="4.64329">
        <ele>604</ele>
        <time>2019-10-12T15:42:50 02:00</time>
      </trkpt>
      <trkpt lat="45.0966" lon="4.6423">
        <ele>591</ele>
        <time>2019-10-12T15:42:55 02:00</time>
      </trkpt>
      <trkpt lat="45.0966" lon="4.64204">
        <ele>589</ele>
        <time>2019-10-12T15:43:00 02:00</time>
      </trkpt>
      <trkpt lat="45.0969" lon="4.64157">
        <ele>591</ele>
        <time>2019-10-12T15:43:05 02:00</time>
      </trkpt>
      <trkpt lat="45.0971" lon="4.64131">
        <ele>593</ele>
        <time>2019-10-12T15:43:10 02:00</time>
      </trkpt>
      <trkpt lat="45.09725" lon="4.64069">
        <ele>591</ele>
        <time>2019-10-12T15:43:15 02:00</time>
      </trkpt>
      <trkpt lat="45.09713" lon="4.64018">
        <ele>587</ele>
        <time>2019-10-12T15:43:20 02:00</time>
      </trkpt>
      <trkpt lat="45.09692" lon="4.63981">
        <ele>581</ele>
        <time>2019-10-12T15:43:25 02:00</time>
      </trkpt>
      <trkpt lat="45.09689" lon="4.6387">
        <ele>580</ele>
        <time>2019-10-12T15:43:30 02:00</time>
      </trkpt>
      <trkpt lat="45.09687" lon="4.63786">
        <ele>577</ele>
        <time>2019-10-12T15:43:35 02:00</time>
      </trkpt>
      <trkpt lat="45.09698" lon="4.63722">
        <ele>576</ele>
        <time>2019-10-12T15:43:40 02:00</time>
      </trkpt>
      <trkpt lat="45.0971" lon="4.63677">
        <ele>574</ele>
        <time>2019-10-12T15:43:45 02:00</time>
      </trkpt>
      <trkpt lat="45.09724" lon="4.63638">
        <ele>572</ele>
        <time>2019-10-12T15:43:50 02:00</time>
      </trkpt>
      <trkpt lat="45.09746" lon="4.63621">
        <ele>571</ele>
        <time>2019-10-12T15:43:55 02:00</time>
      </trkpt>
      <trkpt lat="45.09778" lon="4.63599">
        <ele>574</ele>
        <time>2019-10-12T15:44:00 02:00</time>
      </trkpt>
      <trkpt lat="45.09787" lon="4.63554">
        <ele>574</ele>
        <time>2019-10-12T15:44:05 02:00</time>
      </trkpt>
      <trkpt lat="45.09774" lon="4.63477">
        <ele>572</ele>
        <time>2019-10-12T15:44:10 02:00</time>
      </trkpt>
      <trkpt lat="45.09774" lon="4.63419">
        <ele>573</ele>
        <time>2019-10-12T15:44:15 02:00</time>
      </trkpt>
      <trkpt lat="45.09795" lon="4.6335">
        <ele>573</ele>
        <time>2019-10-12T15:44:20 02:00</time>
      </trkpt>
      <trkpt lat="45.0983" lon="4.6328">
        <ele>574</ele>
        <time>2019-10-12T15:44:25 02:00</time>
      </trkpt>
      <trkpt lat="45.09845" lon="4.63226">
        <ele>569</ele>
        <time>2019-10-12T15:44:30 02:00</time>
      </trkpt>
      <trkpt lat="45.09868" lon="4.63193">
        <ele>568</ele>
        <time>2019-10-12T15:44:35 02:00</time>
      </trkpt>
      <trkpt lat="45.0991" lon="4.63154">
        <ele>568</ele>
        <time>2019-10-12T15:44:40 02:00</time>
      </trkpt>
      <trkpt lat="45.09954" lon="4.63085">
        <ele>562</ele>
        <time>2019-10-12T15:44:45 02:00</time>
      </trkpt>
      <trkpt lat="45.09983" lon="4.63048">
        <ele>564</ele>
        <time>2019-10-12T15:44:50 02:00</time>
      </trkpt>
      <trkpt lat="45.09999" lon="4.63034">
        <ele>566</ele>
        <time>2019-10-12T15:44:55 02:00</time>
      </trkpt>
      <trkpt lat="45.1001" lon="4.63029">
        <ele>568</ele>
        <time>2019-10-12T15:45:00 02:00</time>
      </trkpt>
      <trkpt lat="45.10014" lon="4.62979">
        <ele>567</ele>
        <time>2019-10-12T15:45:05 02:00</time>
      </trkpt>
      <trkpt lat="45.10008" lon="4.62957">
        <ele>568</ele>
        <time>2019-10-12T15:45:10 02:00</time>
      </trkpt>
      <trkpt lat="45.1001" lon="4.62956">
        <ele>569</ele>
        <time>2019-10-12T15:45:15 02:00</time>
      </trkpt>
      <trkpt lat="45.09986" lon="4.62931">
        <ele>567</ele>
        <time>2019-10-12T15:45:20 02:00</time>
      </trkpt>
      <trkpt lat="45.09964" lon="4.62915">
        <ele>565</ele>
        <time>2019-10-12T15:45:25 02:00</time>
      </trkpt>
      <trkpt lat="45.09866" lon="4.6277">
        <ele>565</ele>
        <time>2019-10-12T15:45:30 02:00</time>
      </trkpt>
      <trkpt lat="45.09855" lon="4.62753">
        <ele>563</ele>
        <time>2019-10-12T15:45:35 02:00</time>
      </trkpt>
      <trkpt lat="45.09849" lon="4.62715">
        <ele>560</ele>
        <time>2019-10-12T15:45:40 02:00</time>
      </trkpt>
      <trkpt lat="45.09855" lon="4.62696">
        <ele>562</ele>
        <time>2019-10-12T15:45:45 02:00</time>
      </trkpt>
      <trkpt lat="45.09841" lon="4.62627">
        <ele>553</ele>
        <time>2019-10-12T15:45:50 02:00</time>
      </trkpt>
      <trkpt lat="45.09843" lon="4.62544">
        <ele>550</ele>
        <time>2019-10-12T15:45:55 02:00</time>
      </trkpt>
      <trkpt lat="45.09848" lon="4.62512">
        <ele>550</ele>
        <time>2019-10-12T15:46:00 02:00</time>
      </trkpt>
      <trkpt lat="45.09848" lon="4.62509">
        <ele>550</ele>
        <time>2019-10-12T15:46:05 02:00</time>
      </trkpt>
      <trkpt lat="45.09805" lon="4.62521">
        <ele>553</ele>
        <time>2019-10-12T15:46:10 02:00</time>
      </trkpt>
      <trkpt lat="45.09803" lon="4.6252">
        <ele>553</ele>
        <time>2019-10-12T15:46:15 02:00</time>
      </trkpt>
      <trkpt lat="45.09816" lon="4.62488">
        <ele>554</ele>
        <time>2019-10-12T15:46:20 02:00</time>
      </trkpt>
      <trkpt lat="45.09865" lon="4.62434">
        <ele>558</ele>
        <time>2019-10-12T15:46:25 02:00</time>
      </trkpt>
      <trkpt lat="45.09887" lon="4.62411">
        <ele>557</ele>
        <time>2019-10-12T15:46:30 02:00</time>
      </trkpt>
      <trkpt lat="45.09947" lon="4.62376">
        <ele>559</ele>
        <time>2019-10-12T15:46:35 02:00</time>
      </trkpt>
      <trkpt lat="45.09999" lon="4.62329">
        <ele>560</ele>
        <time>2019-10-12T15:46:40 02:00</time>
      </trkpt>
      <trkpt lat="45.10061" lon="4.62287">
        <ele>563</ele>
        <time>2019-10-12T15:46:45 02:00</time>
      </trkpt>
      <trkpt lat="45.10086" lon="4.62256">
        <ele>564</ele>
        <time>2019-10-12T15:46:50 02:00</time>
      </trkpt>
      <trkpt lat="45.10143" lon="4.62129">
        <ele>578</ele>
        <time>2019-10-12T15:46:55 02:00</time>
      </trkpt>
      <trkpt lat="45.10173" lon="4.6206">
        <ele>585</ele>
        <time>2019-10-12T15:47:00 02:00</time>
      </trkpt>
      <trkpt lat="45.10204" lon="4.62023">
        <ele>588</ele>
        <time>2019-10-12T15:47:05 02:00</time>
      </trkpt>
      <trkpt lat="45.10236" lon="4.62006">
        <ele>585</ele>
        <time>2019-10-12T15:47:10 02:00</time>
      </trkpt>
      <trkpt lat="45.1027" lon="4.61969">
        <ele>589</ele>
        <time>2019-10-12T15:47:15 02:00</time>
      </trkpt>
      <trkpt lat="45.10287" lon="4.61954">
        <ele>592</ele>
        <time>2019-10-12T15:47:20 02:00</time>
      </trkpt>
      <trkpt lat="45.10318" lon="4.61949">
        <ele>592</ele>
        <time>2019-10-12T15:47:25 02:00</time>
      </trkpt>
      <trkpt lat="45.10319" lon="4.61937">
        <ele>594</ele>
        <time>2019-10-12T15:47:30 02:00</time>
      </trkpt>
      <trkpt lat="45.10353" lon="4.61936">
        <ele>592</ele>
        <time>2019-10-12T15:47:35 02:00</time>
      </trkpt>
      <trkpt lat="45.10348" lon="4.61901">
        <ele>596</ele>
        <time>2019-10-12T15:47:40 02:00</time>
      </trkpt>
      <trkpt lat="45.10339" lon="4.61882">
        <ele>598</ele>
        <time>2019-10-12T15:47:45 02:00</time>
      </trkpt>
      <trkpt lat="45.10352" lon="4.61847">
        <ele>598</ele>
        <time>2019-10-12T15:47:50 02:00</time>
      </trkpt>
      <trkpt lat="45.10339" lon="4.61819">
        <ele>601</ele>
        <time>2019-10-12T15:47:55 02:00</time>
      </trkpt>
      <trkpt lat="45.10318" lon="4.61758">
        <ele>607</ele>
        <time>2019-10-12T15:48:00 02:00</time>
      </trkpt>
      <trkpt lat="45.10284" lon="4.61768">
        <ele>613</ele>
        <time>2019-10-12T15:48:05 02:00</time>
      </trkpt>
      <trkpt lat="45.10269" lon="4.6177">
        <ele>617</ele>
        <time>2019-10-12T15:48:10 02:00</time>
      </trkpt>
      <trkpt lat="45.10212" lon="4.61814">
        <ele>627</ele>
        <time>2019-10-12T15:48:15 02:00</time>
      </trkpt>
      <trkpt lat="45.10169" lon="4.61852">
        <ele>636</ele>
        <time>2019-10-12T15:48:20 02:00</time>
      </trkpt>
      <trkpt lat="45.1013" lon="4.61896">
        <ele>639</ele>
        <time>2019-10-12T15:48:25 02:00</time>
      </trkpt>
      <trkpt lat="45.10097" lon="4.61945">
        <ele>641</ele>
        <time>2019-10-12T15:48:30 02:00</time>
      </trkpt>
      <trkpt lat="45.10052" lon="4.61972">
        <ele>642</ele>
        <time>2019-10-12T15:48:35 02:00</time>
      </trkpt>
      <trkpt lat="45.10013" lon="4.6198">
        <ele>643</ele>
        <time>2019-10-12T15:48:40 02:00</time>
      </trkpt>
      <trkpt lat="45.09992" lon="4.61964">
        <ele>647</ele>
        <time>2019-10-12T15:48:45 02:00</time>
      </trkpt>
      <trkpt lat="45.09963" lon="4.61934">
        <ele>652</ele>
        <time>2019-10-12T15:48:50 02:00</time>
      </trkpt>
      <trkpt lat="45.09919" lon="4.61933">
        <ele>653</ele>
        <time>2019-10-12T15:48:55 02:00</time>
      </trkpt>
      <trkpt lat="45.09864" lon="4.62008">
        <ele>650</ele>
        <time>2019-10-12T15:49:00 02:00</time>
      </trkpt>
      <trkpt lat="45.09843" lon="4.62018">
        <ele>653</ele>
        <time>2019-10-12T15:49:05 02:00</time>
      </trkpt>
      <trkpt lat="45.0981" lon="4.61998">
        <ele>659</ele>
        <time>2019-10-12T15:49:10 02:00</time>
      </trkpt>
      <trkpt lat="45.09778" lon="4.61981">
        <ele>664</ele>
        <time>2019-10-12T15:49:15 02:00</time>
      </trkpt>
      <trkpt lat="45.09743" lon="4.61971">
        <ele>666</ele>
        <time>2019-10-12T15:49:20 02:00</time>
      </trkpt>
      <trkpt lat="45.09718" lon="4.61952">
        <ele>667</ele>
        <time>2019-10-12T15:49:25 02:00</time>
      </trkpt>
      <trkpt lat="45.09709" lon="4.61923">
        <ele>671</ele>
        <time>2019-10-12T15:49:30 02:00</time>
      </trkpt>
      <trkpt lat="45.09866" lon="4.61769">
        <ele>685</ele>
        <time>2019-10-12T15:49:35 02:00</time>
      </trkpt>
      <trkpt lat="45.09896" lon="4.61736">
        <ele>687</ele>
        <time>2019-10-12T15:49:40 02:00</time>
      </trkpt>
      <trkpt lat="45.09909" lon="4.61694">
        <ele>690</ele>
        <time>2019-10-12T15:49:45 02:00</time>
      </trkpt>
      <trkpt lat="45.0991" lon="4.61649">
        <ele>692</ele>
        <time>2019-10-12T15:49:50 02:00</time>
      </trkpt>
      <trkpt lat="45.09894" lon="4.6154">
        <ele>692</ele>
        <time>2019-10-12T15:49:55 02:00</time>
      </trkpt>
      <trkpt lat="45.09881" lon="4.61499">
        <ele>690</ele>
        <time>2019-10-12T15:50:00 02:00</time>
      </trkpt>
      <trkpt lat="45.09848" lon="4.61466">
        <ele>693</ele>
        <time>2019-10-12T15:50:05 02:00</time>
      </trkpt>
      <trkpt lat="45.09819" lon="4.61441">
        <ele>695</ele>
        <time>2019-10-12T15:50:10 02:00</time>
      </trkpt>
      <trkpt lat="45.09802" lon="4.61412">
        <ele>697</ele>
        <time>2019-10-12T15:50:15 02:00</time>
      </trkpt>
      <trkpt lat="45.09794" lon="4.61385">
        <ele>700</ele>
        <time>2019-10-12T15:50:20 02:00</time>
      </trkpt>
      <trkpt lat="45.09784" lon="4.61316">
        <ele>704</ele>
        <time>2019-10-12T15:50:25 02:00</time>
      </trkpt>
      <trkpt lat="45.09769" lon="4.61206">
        <ele>707</ele>
        <time>2019-10-12T15:50:30 02:00</time>
      </trkpt>
      <trkpt lat="45.09757" lon="4.61145">
        <ele>707</ele>
        <time>2019-10-12T15:50:35 02:00</time>
      </trkpt>
      <trkpt lat="45.09737" lon="4.61109">
        <ele>710</ele>
        <time>2019-10-12T15:50:40 02:00</time>
      </trkpt>
      <trkpt lat="45.09723" lon="4.61062">
        <ele>710</ele>
        <time>2019-10-12T15:50:45 02:00</time>
      </trkpt>
      <trkpt lat="45.09713" lon="4.60998">
        <ele>707</ele>
        <time>2019-10-12T15:50:50 02:00</time>
      </trkpt>
      <trkpt lat="45.09684" lon="4.60965">
        <ele>711</ele>
        <time>2019-10-12T15:50:55 02:00</time>
      </trkpt>
      <trkpt lat="45.09695" lon="4.6092">
        <ele>709</ele>
        <time>2019-10-12T15:51:00 02:00</time>
      </trkpt>
      <trkpt lat="45.09683" lon="4.60787">
        <ele>716</ele>
        <time>2019-10-12T15:51:05 02:00</time>
      </trkpt>
      <trkpt lat="45.09674" lon="4.60738">
        <ele>720</ele>
        <time>2019-10-12T15:51:10 02:00</time>
      </trkpt>
      <trkpt lat="45.09662" lon="4.60699">
        <ele>724</ele>
        <time>2019-10-12T15:51:15 02:00</time>
      </trkpt>
      <trkpt lat="45.09639" lon="4.60634">
        <ele>727</ele>
        <time>2019-10-12T15:51:20 02:00</time>
      </trkpt>
      <trkpt lat="45.09621" lon="4.60564">
        <ele>730</ele>
        <time>2019-10-12T15:51:25 02:00</time>
      </trkpt>
      <trkpt lat="45.09612" lon="4.60514">
        <ele>731</ele>
        <time>2019-10-12T15:51:30 02:00</time>
      </trkpt>
      <trkpt lat="45.0961" lon="4.60479">
        <ele>735</ele>
        <time>2019-10-12T15:51:35 02:00</time>
      </trkpt>
      <trkpt lat="45.096" lon="4.6041">
        <ele>740</ele>
        <time>2019-10-12T15:51:40 02:00</time>
      </trkpt>
      <trkpt lat="45.09602" lon="4.60362">
        <ele>741</ele>
        <time>2019-10-12T15:51:45 02:00</time>
      </trkpt>
      <trkpt lat="45.09631" lon="4.60298">
        <ele>747</ele>
        <time>2019-10-12T15:51:50 02:00</time>
      </trkpt>
      <trkpt lat="45.0964" lon="4.60276">
        <ele>748</ele>
        <time>2019-10-12T15:51:55 02:00</time>
      </trkpt>
      <trkpt lat="45.0968" lon="4.60238">
        <ele>759</ele>
        <time>2019-10-12T15:52:00 02:00</time>
      </trkpt>
      <trkpt lat="45.09685" lon="4.60203">
        <ele>758</ele>
        <time>2019-10-12T15:52:05 02:00</time>
      </trkpt>
      <trkpt lat="45.09685" lon="4.60173">
        <ele>755</ele>
        <time>2019-10-12T15:52:10 02:00</time>
      </trkpt>
      <trkpt lat="45.09696" lon="4.60134">
        <ele>759</ele>
        <time>2019-10-12T15:52:15 02:00</time>
      </trkpt>
      <trkpt lat="45.09696" lon="4.60108">
        <ele>758</ele>
        <time>2019-10-12T15:52:20 02:00</time>
      </trkpt>
      <trkpt lat="45.09733" lon="4.59972">
        <ele>768</ele>
        <time>2019-10-12T15:52:25 02:00</time>
      </trkpt>
      <trkpt lat="45.09744" lon="4.59908">
        <ele>774</ele>
        <time>2019-10-12T15:52:30 02:00</time>
      </trkpt>
      <trkpt lat="45.09738" lon="4.59859">
        <ele>777</ele>
        <time>2019-10-12T15:52:35 02:00</time>
      </trkpt>
      <trkpt lat="45.09727" lon="4.59811">
        <ele>777</ele>
        <time>2019-10-12T15:52:40 02:00</time>
      </trkpt>
      <trkpt lat="45.09717" lon="4.59755">
        <ele>778</ele>
        <time>2019-10-12T15:52:45 02:00</time>
      </trkpt>
      <trkpt lat="45.09715" lon="4.59691">
        <ele>781</ele>
        <time>2019-10-12T15:52:50 02:00</time>
      </trkpt>
      <trkpt lat="45.0971" lon="4.59646">
        <ele>780</ele>
        <time>2019-10-12T15:52:55 02:00</time>
      </trkpt>
      <trkpt lat="45.09708" lon="4.59602">
        <ele>779</ele>
        <time>2019-10-12T15:53:00 02:00</time>
      </trkpt>
      <trkpt lat="45.09703" lon="4.59564">
        <ele>778</ele>
        <time>2019-10-12T15:53:05 02:00</time>
      </trkpt>
      <trkpt lat="45.09702" lon="4.59499">
        <ele>778</ele>
        <time>2019-10-12T15:53:10 02:00</time>
      </trkpt>
      <trkpt lat="45.09672" lon="4.59443">
        <ele>788</ele>
        <time>2019-10-12T15:53:15 02:00</time>
      </trkpt>
      <trkpt lat="45.09654" lon="4.59414">
        <ele>792</ele>
        <time>2019-10-12T15:53:20 02:00</time>
      </trkpt>
      <trkpt lat="45.09584" lon="4.59331">
        <ele>805</ele>
        <time>2019-10-12T15:53:25 02:00</time>
      </trkpt>
      <trkpt lat="45.09555" lon="4.59295">
        <ele>805</ele>
        <time>2019-10-12T15:53:30 02:00</time>
      </trkpt>
      <trkpt lat="45.09532" lon="4.59256">
        <ele>805</ele>
        <time>2019-10-12T15:53:35 02:00</time>
      </trkpt>
      <trkpt lat="45.09522" lon="4.59226">
        <ele>806</ele>
        <time>2019-10-12T15:53:40 02:00</time>
      </trkpt>
      <trkpt lat="45.09515" lon="4.59183">
        <ele>808</ele>
        <time>2019-10-12T15:53:45 02:00</time>
      </trkpt>
      <trkpt lat="45.09512" lon="4.59131">
        <ele>811</ele>
        <time>2019-10-12T15:53:50 02:00</time>
      </trkpt>
      <trkpt lat="45.09512" lon="4.59054">
        <ele>816</ele>
        <time>2019-10-12T15:53:55 02:00</time>
      </trkpt>
      <trkpt lat="45.09518" lon="4.58972">
        <ele>823</ele>
        <time>2019-10-12T15:54:00 02:00</time>
      </trkpt>
      <trkpt lat="45.09518" lon="4.58922">
        <ele>827</ele>
        <time>2019-10-12T15:54:05 02:00</time>
      </trkpt>
      <trkpt lat="45.09505" lon="4.58851">
        <ele>829</ele>
        <time>2019-10-12T15:54:10 02:00</time>
      </trkpt>
      <trkpt lat="45.09496" lon="4.58812">
        <ele>827</ele>
        <time>2019-10-12T15:54:15 02:00</time>
      </trkpt>
      <trkpt lat="45.09493" lon="4.58794">
        <ele>826</ele>
        <time>2019-10-12T15:54:20 02:00</time>
      </trkpt>
      <trkpt lat="45.09501" lon="4.58713">
        <ele>826</ele>
        <time>2019-10-12T15:54:25 02:00</time>
      </trkpt>
      <trkpt lat="45.09517" lon="4.58683">
        <ele>826</ele>
        <time>2019-10-12T15:54:30 02:00</time>
      </trkpt>
      <trkpt lat="45.09543" lon="4.58675">
        <ele>827</ele>
        <time>2019-10-12T15:54:35 02:00</time>
      </trkpt>
      <trkpt lat="45.09623" lon="4.58723">
        <ele>838</ele>
        <time>2019-10-12T15:54:40 02:00</time>
      </trkpt>
      <trkpt lat="45.09674" lon="4.58738">
        <ele>843</ele>
        <time>2019-10-12T15:54:45 02:00</time>
      </trkpt>
      <trkpt lat="45.09722" lon="4.58728">
        <ele>845</ele>
        <time>2019-10-12T15:54:50 02:00</time>
      </trkpt>
      <trkpt lat="45.09752" lon="4.5872">
        <ele>847</ele>
        <time>2019-10-12T15:54:55 02:00</time>
      </trkpt>
      <trkpt lat="45.09774" lon="4.58722">
        <ele>849</ele>
        <time>2019-10-12T15:55:00 02:00</time>
      </trkpt>
      <trkpt lat="45.09802" lon="4.58703">
        <ele>848</ele>
        <time>2019-10-12T15:55:05 02:00</time>
      </trkpt>
      <trkpt lat="45.09858" lon="4.58675">
        <ele>849</ele>
        <time>2019-10-12T15:55:10 02:00</time>
      </trkpt>
      <trkpt lat="45.09878" lon="4.58659">
        <ele>849</ele>
        <time>2019-10-12T15:55:15 02:00</time>
      </trkpt>
      <trkpt lat="45.09901" lon="4.58672">
        <ele>851</ele>
        <time>2019-10-12T15:55:20 02:00</time>
      </trkpt>
      <trkpt lat="45.09926" lon="4.58652">
        <ele>851</ele>
        <time>2019-10-12T15:55:25 02:00</time>
      </trkpt>
      <trkpt lat="45.0992" lon="4.58607">
        <ele>853</ele>
        <time>2019-10-12T15:55:30 02:00</time>
      </trkpt>
      <trkpt lat="45.0993" lon="4.58573">
        <ele>854</ele>
        <time>2019-10-12T15:55:35 02:00</time>
      </trkpt>
      <trkpt lat="45.09982" lon="4.58487">
        <ele>862</ele>
        <time>2019-10-12T15:55:40 02:00</time>
      </trkpt>
      <trkpt lat="45.09997" lon="4.58457">
        <ele>869</ele>
        <time>2019-10-12T15:55:45 02:00</time>
      </trkpt>
      <trkpt lat="45.10091" lon="4.58463">
        <ele>869</ele>
        <time>2019-10-12T15:55:50 02:00</time>
      </trkpt>
      <trkpt lat="45.10177" lon="4.58448">
        <ele>867</ele>
        <time>2019-10-12T15:55:55 02:00</time>
      </trkpt>
      <trkpt lat="45.10206" lon="4.58438">
        <ele>873</ele>
        <time>2019-10-12T15:56:00 02:00</time>
      </trkpt>
      <trkpt lat="45.10239" lon="4.58436">
        <ele>877</ele>
        <time>2019-10-12T15:56:05 02:00</time>
      </trkpt>
      <trkpt lat="45.10253" lon="4.58481">
        <ele>871</ele>
        <time>2019-10-12T15:56:10 02:00</time>
      </trkpt>
      <trkpt lat="45.10321" lon="4.58569">
        <ele>881</ele>
        <time>2019-10-12T15:56:15 02:00</time>
      </trkpt>
      <trkpt lat="45.10357" lon="4.58584">
        <ele>886</ele>
        <time>2019-10-12T15:56:20 02:00</time>
      </trkpt>
      <trkpt lat="45.1041" lon="4.58592">
        <ele>892</ele>
        <time>2019-10-12T15:56:25 02:00</time>
      </trkpt>
      <trkpt lat="45.10454" lon="4.58543">
        <ele>901</ele>
        <time>2019-10-12T15:56:30 02:00</time>
      </trkpt>
      <trkpt lat="45.10492" lon="4.58487">
        <ele>913</ele>
        <time>2019-10-12T15:56:35 02:00</time>
      </trkpt>
      <trkpt lat="45.10547" lon="4.58472">
        <ele>909</ele>
        <time>2019-10-12T15:56:40 02:00</time>
      </trkpt>
      <trkpt lat="45.1058" lon="4.58459">
        <ele>906</ele>
        <time>2019-10-12T15:56:45 02:00</time>
      </trkpt>
      <trkpt lat="45.10632" lon="4.58399">
        <ele>911</ele>
        <time>2019-10-12T15:56:50 02:00</time>
      </trkpt>
      <trkpt lat="45.10686" lon="4.58367">
        <ele>902</ele>
        <time>2019-10-12T15:56:55 02:00</time>
      </trkpt>
      <trkpt lat="45.10709" lon="4.58339">
        <ele>899</ele>
        <time>2019-10-12T15:57:00 02:00</time>
      </trkpt>
      <trkpt lat="45.10733" lon="4.58253">
        <ele>905</ele>
        <time>2019-10-12T15:57:05 02:00</time>
      </trkpt>
      <trkpt lat="45.10739" lon="4.58236">
        <ele>906</ele>
        <time>2019-10-12T15:57:10 02:00</time>
      </trkpt>
      <trkpt lat="45.10785" lon="4.58215">
        <ele>902</ele>
        <time>2019-10-12T15:57:15 02:00</time>
      </trkpt>
      <trkpt lat="45.10809" lon="4.58212">
        <ele>900</ele>
        <time>2019-10-12T15:57:20 02:00</time>
      </trkpt>
      <trkpt lat="45.1088" lon="4.58116">
        <ele>903</ele>
        <time>2019-10-12T15:57:25 02:00</time>
      </trkpt>
      <trkpt lat="45.10909" lon="4.58081">
        <ele>901</ele>
        <time>2019-10-12T15:57:30 02:00</time>
      </trkpt>
      <trkpt lat="45.10919" lon="4.58069">
        <ele>903</ele>
        <time>2019-10-12T15:57:35 02:00</time>
      </trkpt>
      <trkpt lat="45.10928" lon="4.58079">
        <ele>902</ele>
        <time>2019-10-12T15:57:40 02:00</time>
      </trkpt>
      <trkpt lat="45.10953" lon="4.58161">
        <ele>893</ele>
        <time>2019-10-12T15:57:45 02:00</time>
      </trkpt>
      <trkpt lat="45.10971" lon="4.58175">
        <ele>893</ele>
        <time>2019-10-12T15:57:50 02:00</time>
      </trkpt>
      <trkpt lat="45.11019" lon="4.58193">
        <ele>894</ele>
        <time>2019-10-12T15:57:55 02:00</time>
      </trkpt>
      <trkpt lat="45.11048" lon="4.58205">
        <ele>895</ele>
        <time>2019-10-12T15:58:00 02:00</time>
      </trkpt>
      <trkpt lat="45.11057" lon="4.58216">
        <ele>895</ele>
        <time>2019-10-12T15:58:05 02:00</time>
      </trkpt>
      <trkpt lat="45.1109" lon="4.5805">
        <ele>911</ele>
        <time>2019-10-12T15:58:10 02:00</time>
      </trkpt>
      <trkpt lat="45.11109" lon="4.58025">
        <ele>915</ele>
        <time>2019-10-12T15:58:15 02:00</time>
      </trkpt>
      <trkpt lat="45.11156" lon="4.58076">
        <ele>905</ele>
        <time>2019-10-12T15:58:20 02:00</time>
      </trkpt>
      <trkpt lat="45.11201" lon="4.5808">
        <ele>909</ele>
        <time>2019-10-12T15:58:25 02:00</time>
      </trkpt>
      <trkpt lat="45.11313" lon="4.58138">
        <ele>912</ele>
        <time>2019-10-12T15:58:30 02:00</time>
      </trkpt>
      <trkpt lat="45.11362" lon="4.58166">
        <ele>908</ele>
        <time>2019-10-12T15:58:35 02:00</time>
      </trkpt>
      <trkpt lat="45.11392" lon="4.58179">
        <ele>907</ele>
        <time>2019-10-12T15:58:40 02:00</time>
      </trkpt>
      <trkpt lat="45.1144" lon="4.58177">
        <ele>909</ele>
        <time>2019-10-12T15:58:45 02:00</time>
      </trkpt>
      <trkpt lat="45.1146" lon="4.5819">
        <ele>910</ele>
        <time>2019-10-12T15:58:50 02:00</time>
      </trkpt>
      <trkpt lat="45.11452" lon="4.58233">
        <ele>909</ele>
        <time>2019-10-12T15:58:55 02:00</time>
      </trkpt>
      <trkpt lat="45.11471" lon="4.58331">
        <ele>913</ele>
        <time>2019-10-12T15:59:00 02:00</time>
      </trkpt>
      <trkpt lat="45.11502" lon="4.58424">
        <ele>912</ele>
        <time>2019-10-12T15:59:05 02:00</time>
      </trkpt>
      <trkpt lat="45.11504" lon="4.58473">
        <ele>902</ele>
        <time>2019-10-12T15:59:10 02:00</time>
      </trkpt>
      <trkpt lat="45.1154" lon="4.58522">
        <ele>903</ele>
        <time>2019-10-12T15:59:15 02:00</time>
      </trkpt>
      <trkpt lat="45.11572" lon="4.5864">
        <ele>889</ele>
        <time>2019-10-12T15:59:20 02:00</time>
      </trkpt>
      <trkpt lat="45.11625" lon="4.58741">
        <ele>881</ele>
        <time>2019-10-12T15:59:25 02:00</time>
      </trkpt>
      <trkpt lat="45.11648" lon="4.58765">
        <ele>883</ele>
        <time>2019-10-12T15:59:30 02:00</time>
      </trkpt>
      <trkpt lat="45.11678" lon="4.58778">
        <ele>884</ele>
        <time>2019-10-12T15:59:35 02:00</time>
      </trkpt>
      <trkpt lat="45.11711" lon="4.58859">
        <ele>880</ele>
        <time>2019-10-12T15:59:40 02:00</time>
      </trkpt>
      <trkpt lat="45.11737" lon="4.58941">
        <ele>885</ele>
        <time>2019-10-12T15:59:45 02:00</time>
      </trkpt>
      <trkpt lat="45.1172" lon="4.5901">
        <ele>885</ele>
        <time>2019-10-12T15:59:50 02:00</time>
      </trkpt>
      <trkpt lat="45.11705" lon="4.59063">
        <ele>880</ele>
        <time>2019-10-12T15:59:55 02:00</time>
      </trkpt>
      <trkpt lat="45.11717" lon="4.59153">
        <ele>878</ele>
        <time>2019-10-12T16:00:00 02:00</time>
      </trkpt>
      <trkpt lat="45.11723" lon="4.59185">
        <ele>877</ele>
        <time>2019-10-12T16:00:05 02:00</time>
      </trkpt>
      <trkpt lat="45.11764" lon="4.59231">
        <ele>882</ele>
        <time>2019-10-12T16:00:10 02:00</time>
      </trkpt>
      <trkpt lat="45.11796" lon="4.59265">
        <ele>886</ele>
        <time>2019-10-12T16:00:15 02:00</time>
      </trkpt>
      <trkpt lat="45.11837" lon="4.59396">
        <ele>884</ele>
        <time>2019-10-12T16:00:20 02:00</time>
      </trkpt>
      <trkpt lat="45.11849" lon="4.59443">
        <ele>884</ele>
        <time>2019-10-12T16:00:25 02:00</time>
      </trkpt>
      <trkpt lat="45.11884" lon="4.59525">
        <ele>893</ele>
        <time>2019-10-12T16:00:30 02:00</time>
      </trkpt>
      <trkpt lat="45.11893" lon="4.59576">
        <ele>895</ele>
        <time>2019-10-12T16:00:35 02:00</time>
      </trkpt>
      <trkpt lat="45.11887" lon="4.59628">
        <ele>893</ele>
        <time>2019-10-12T16:00:40 02:00</time>
      </trkpt>
      <trkpt lat="45.11854" lon="4.59731">
        <ele>883</ele>
        <time>2019-10-12T16:00:45 02:00</time>
      </trkpt>
      <trkpt lat="45.11834" lon="4.59797">
        <ele>876</ele>
        <time>2019-10-12T16:00:50 02:00</time>
      </trkpt>
      <trkpt lat="45.11831" lon="4.59849">
        <ele>875</ele>
        <time>2019-10-12T16:00:55 02:00</time>
      </trkpt>
      <trkpt lat="45.1184" lon="4.59917">
        <ele>876</ele>
        <time>2019-10-12T16:01:00 02:00</time>
      </trkpt>
      <trkpt lat="45.11864" lon="4.59986">
        <ele>883</ele>
        <time>2019-10-12T16:01:05 02:00</time>
      </trkpt>
      <trkpt lat="45.1189" lon="4.60112">
        <ele>882</ele>
        <time>2019-10-12T16:01:10 02:00</time>
      </trkpt>
      <trkpt lat="45.11901" lon="4.60203">
        <ele>881</ele>
        <time>2019-10-12T16:01:15 02:00</time>
      </trkpt>
      <trkpt lat="45.11901" lon="4.60267">
        <ele>881</ele>
        <time>2019-10-12T16:01:20 02:00</time>
      </trkpt>
      <trkpt lat="45.11802" lon="4.60449">
        <ele>861</ele>
        <time>2019-10-12T16:01:25 02:00</time>
      </trkpt>
      <trkpt lat="45.11793" lon="4.60471">
        <ele>859</ele>
        <time>2019-10-12T16:01:30 02:00</time>
      </trkpt>
      <trkpt lat="45.11842" lon="4.60531">
        <ele>859</ele>
        <time>2019-10-12T16:01:35 02:00</time>
      </trkpt>
      <trkpt lat="45.11895" lon="4.60559">
        <ele>862</ele>
        <time>2019-10-12T16:01:40 02:00</time>
      </trkpt>
      <trkpt lat="45.11958" lon="4.60574">
        <ele>869</ele>
        <time>2019-10-12T16:01:45 02:00</time>
      </trkpt>
      <trkpt lat="45.11987" lon="4.60617">
        <ele>862</ele>
        <time>2019-10-12T16:01:50 02:00</time>
      </trkpt>
      <trkpt lat="45.11988" lon="4.60703">
        <ele>844</ele>
        <time>2019-10-12T16:01:55 02:00</time>
      </trkpt>
      <trkpt lat="45.12004" lon="4.60793">
        <ele>847</ele>
        <time>2019-10-12T16:02:00 02:00</time>
      </trkpt>
      <trkpt lat="45.12001" lon="4.60812">
        <ele>847</ele>
        <time>2019-10-12T16:02:05 02:00</time>
      </trkpt>
      <trkpt lat="45.11951" lon="4.60859">
        <ele>834</ele>
        <time>2019-10-12T16:02:10 02:00</time>
      </trkpt>
      <trkpt lat="45.11929" lon="4.60906">
        <ele>832</ele>
        <time>2019-10-12T16:02:15 02:00</time>
      </trkpt>
      <trkpt lat="45.11911" lon="4.60956">
        <ele>827</ele>
        <time>2019-10-12T16:02:20 02:00</time>
      </trkpt>
      <trkpt lat="45.11902" lon="4.60977">
        <ele>824</ele>
        <time>2019-10-12T16:02:25 02:00</time>
      </trkpt>
      <trkpt lat="45.11914" lon="4.61035">
        <ele>824</ele>
        <time>2019-10-12T16:02:30 02:00</time>
      </trkpt>
      <trkpt lat="45.12017" lon="4.6119">
        <ele>820</ele>
        <time>2019-10-12T16:02:35 02:00</time>
      </trkpt>
      <trkpt lat="45.12122" lon="4.61213">
        <ele>822</ele>
        <time>2019-10-12T16:02:40 02:00</time>
      </trkpt>
      <trkpt lat="45.12193" lon="4.61233">
        <ele>819</ele>
        <time>2019-10-12T16:02:45 02:00</time>
      </trkpt>
      <trkpt lat="45.12228" lon="4.61211">
        <ele>830</ele>
        <time>2019-10-12T16:02:50 02:00</time>
      </trkpt>
      <trkpt lat="45.12259" lon="4.61243">
        <ele>826</ele>
        <time>2019-10-12T16:02:55 02:00</time>
      </trkpt>
      <trkpt lat="45.12276" lon="4.61303">
        <ele>820</ele>
        <time>2019-10-12T16:03:00 02:00</time>
      </trkpt>
      <trkpt lat="45.12288" lon="4.61492">
        <ele>810</ele>
        <time>2019-10-12T16:03:05 02:00</time>
      </trkpt>
      <trkpt lat="45.12272" lon="4.61535">
        <ele>806</ele>
        <time>2019-10-12T16:03:10 02:00</time>
      </trkpt>
      <trkpt lat="45.12234" lon="4.61604">
        <ele>801</ele>
        <time>2019-10-12T16:03:15 02:00</time>
      </trkpt>
      <trkpt lat="45.12213" lon="4.61653">
        <ele>803</ele>
        <time>2019-10-12T16:03:20 02:00</time>
      </trkpt>
      <trkpt lat="45.1215" lon="4.61698">
        <ele>790</ele>
        <time>2019-10-12T16:03:25 02:00</time>
      </trkpt>
      <trkpt lat="45.12119" lon="4.61754">
        <ele>787</ele>
        <time>2019-10-12T16:03:30 02:00</time>
      </trkpt>
      <trkpt lat="45.12105" lon="4.61833">
        <ele>782</ele>
        <time>2019-10-12T16:03:35 02:00</time>
      </trkpt>
      <trkpt lat="45.12137" lon="4.619">
        <ele>790</ele>
        <time>2019-10-12T16:03:40 02:00</time>
      </trkpt>
      <trkpt lat="45.12211" lon="4.61947">
        <ele>814</ele>
        <time>2019-10-12T16:03:45 02:00</time>
      </trkpt>
      <trkpt lat="45.12184" lon="4.62033">
        <ele>810</ele>
        <time>2019-10-12T16:03:50 02:00</time>
      </trkpt>
      <trkpt lat="45.12175" lon="4.62177">
        <ele>807</ele>
        <time>2019-10-12T16:03:55 02:00</time>
      </trkpt>
      <trkpt lat="45.12166" lon="4.62245">
        <ele>805</ele>
        <time>2019-10-12T16:04:00 02:00</time>
      </trkpt>
      <trkpt lat="45.12125" lon="4.6228">
        <ele>807</ele>
        <time>2019-10-12T16:04:05 02:00</time>
      </trkpt>
      <trkpt lat="45.12055" lon="4.62235">
        <ele>800</ele>
        <time>2019-10-12T16:04:10 02:00</time>
      </trkpt>
      <trkpt lat="45.1196" lon="4.6216">
        <ele>786</ele>
        <time>2019-10-12T16:04:15 02:00</time>
      </trkpt>
      <trkpt lat="45.11896" lon="4.62142">
        <ele>788</ele>
        <time>2019-10-12T16:04:20 02:00</time>
      </trkpt>
      <trkpt lat="45.11852" lon="4.62123">
        <ele>788</ele>
        <time>2019-10-12T16:04:25 02:00</time>
      </trkpt>
      <trkpt lat="45.11819" lon="4.62061">
        <ele>780</ele>
        <time>2019-10-12T16:04:30 02:00</time>
      </trkpt>
      <trkpt lat="45.11787" lon="4.62039">
        <ele>776</ele>
        <time>2019-10-12T16:04:35 02:00</time>
      </trkpt>
      <trkpt lat="45.11722" lon="4.62024">
        <ele>770</ele>
        <time>2019-10-12T16:04:40 02:00</time>
      </trkpt>
      <trkpt lat="45.1169" lon="4.62011">
        <ele>763</ele>
        <time>2019-10-12T16:04:45 02:00</time>
      </trkpt>
      <trkpt lat="45.1162" lon="4.62007">
        <ele>750</ele>
        <time>2019-10-12T16:04:50 02:00</time>
      </trkpt>
      <trkpt lat="45.11543" lon="4.62011">
        <ele>740</ele>
        <time>2019-10-12T16:04:55 02:00</time>
      </trkpt>
      <trkpt lat="45.11465" lon="4.62005">
        <ele>729</ele>
        <time>2019-10-12T16:05:00 02:00</time>
      </trkpt>
      <trkpt lat="45.11355" lon="4.61962">
        <ele>710</ele>
        <time>2019-10-12T16:05:05 02:00</time>
      </trkpt>
      <trkpt lat="45.1129" lon="4.61921">
        <ele>700</ele>
        <time>2019-10-12T16:05:10 02:00</time>
      </trkpt>
      <trkpt lat="45.11147" lon="4.61836">
        <ele>688</ele>
        <time>2019-10-12T16:05:15 02:00</time>
      </trkpt>
      <trkpt lat="45.11143" lon="4.61851">
        <ele>685</ele>
        <time>2019-10-12T16:05:20 02:00</time>
      </trkpt>
      <trkpt lat="45.11172" lon="4.61914">
        <ele>680</ele>
        <time>2019-10-12T16:05:25 02:00</time>
      </trkpt>
      <trkpt lat="45.11218" lon="4.61947">
        <ele>682</ele>
        <time>2019-10-12T16:05:30 02:00</time>
      </trkpt>
      <trkpt lat="45.11273" lon="4.6202">
        <ele>684</ele>
        <time>2019-10-12T16:05:35 02:00</time>
      </trkpt>
      <trkpt lat="45.113" lon="4.62096">
        <ele>680</ele>
        <time>2019-10-12T16:05:40 02:00</time>
      </trkpt>
      <trkpt lat="45.11298" lon="4.62155">
        <ele>675</ele>
        <time>2019-10-12T16:05:45 02:00</time>
      </trkpt>
      <trkpt lat="45.11289" lon="4.62208">
        <ele>670</ele>
        <time>2019-10-12T16:05:50 02:00</time>
      </trkpt>
      <trkpt lat="45.11289" lon="4.62267">
        <ele>666</ele>
        <time>2019-10-12T16:05:55 02:00</time>
      </trkpt>
      <trkpt lat="45.11309" lon="4.62342">
        <ele>664</ele>
        <time>2019-10-12T16:06:00 02:00</time>
      </trkpt>
      <trkpt lat="45.11333" lon="4.62385">
        <ele>661</ele>
        <time>2019-10-12T16:06:05 02:00</time>
      </trkpt>
      <trkpt lat="45.11344" lon="4.62401">
        <ele>660</ele>
        <time>2019-10-12T16:06:10 02:00</time>
      </trkpt>
      <trkpt lat="45.1139" lon="4.62419">
        <ele>667</ele>
        <time>2019-10-12T16:06:15 02:00</time>
      </trkpt>
      <trkpt lat="45.11398" lon="4.62436">
        <ele>669</ele>
        <time>2019-10-12T16:06:20 02:00</time>
      </trkpt>
      <trkpt lat="45.11393" lon="4.62455">
        <ele>669</ele>
        <time>2019-10-12T16:06:25 02:00</time>
      </trkpt>
      <trkpt lat="45.11355" lon="4.6249">
        <ele>660</ele>
        <time>2019-10-12T16:06:30 02:00</time>
      </trkpt>
      <trkpt lat="45.11312" lon="4.62531">
        <ele>654</ele>
        <time>2019-10-12T16:06:35 02:00</time>
      </trkpt>
      <trkpt lat="45.1128" lon="4.62567">
        <ele>649</ele>
        <time>2019-10-12T16:06:40 02:00</time>
      </trkpt>
      <trkpt lat="45.11263" lon="4.62614">
        <ele>646</ele>
        <time>2019-10-12T16:06:45 02:00</time>
      </trkpt>
      <trkpt lat="45.11276" lon="4.62654">
        <ele>650</ele>
        <time>2019-10-12T16:06:50 02:00</time>
      </trkpt>
      <trkpt lat="45.11276" lon="4.62667">
        <ele>650</ele>
        <time>2019-10-12T16:06:55 02:00</time>
      </trkpt>
      <trkpt lat="45.11256" lon="4.62622">
        <ele>643</ele>
        <time>2019-10-12T16:07:00 02:00</time>
      </trkpt>
      <trkpt lat="45.11252" lon="4.6258">
        <ele>642</ele>
        <time>2019-10-12T16:07:05 02:00</time>
      </trkpt>
      <trkpt lat="45.11261" lon="4.62539">
        <ele>642</ele>
        <time>2019-10-12T16:07:10 02:00</time>
      </trkpt>
      <trkpt lat="45.1124" lon="4.62565">
        <ele>639</ele>
        <time>2019-10-12T16:07:15 02:00</time>
      </trkpt>
      <trkpt lat="45.11233" lon="4.62597">
        <ele>638</ele>
        <time>2019-10-12T16:07:20 02:00</time>
      </trkpt>
      <trkpt lat="45.11239" lon="4.62641">
        <ele>640</ele>
        <time>2019-10-12T16:07:25 02:00</time>
      </trkpt>
      <trkpt lat="45.11238" lon="4.62664">
        <ele>639</ele>
        <time>2019-10-12T16:07:30 02:00</time>
      </trkpt>
      <trkpt lat="45.1123" lon="4.62698">
        <ele>638</ele>
        <time>2019-10-12T16:07:35 02:00</time>
      </trkpt>
      <trkpt lat="45.1124" lon="4.62775">
        <ele>638</ele>
        <time>2019-10-12T16:07:40 02:00</time>
      </trkpt>
      <trkpt lat="45.11214" lon="4.62779">
        <ele>640</ele>
        <time>2019-10-12T16:07:45 02:00</time>
      </trkpt>
      <trkpt lat="45.11178" lon="4.62699">
        <ele>635</ele>
        <time>2019-10-12T16:07:50 02:00</time>
      </trkpt>
      <trkpt lat="45.1116" lon="4.62683">
        <ele>633</ele>
        <time>2019-10-12T16:07:55 02:00</time>
      </trkpt>
      <trkpt lat="45.11125" lon="4.62687">
        <ele>639</ele>
        <time>2019-10-12T16:08:00 02:00</time>
      </trkpt>
      <trkpt lat="45.11094" lon="4.62655">
        <ele>637</ele>
        <time>2019-10-12T16:08:05 02:00</time>
      </trkpt>
      <trkpt lat="45.11074" lon="4.62639">
        <ele>637</ele>
        <time>2019-10-12T16:08:10 02:00</time>
      </trkpt>
      <trkpt lat="45.11036" lon="4.62641">
        <ele>646</ele>
        <time>2019-10-12T16:08:15 02:00</time>
      </trkpt>
      <trkpt lat="45.11021" lon="4.62647">
        <ele>651</ele>
        <time>2019-10-12T16:08:20 02:00</time>
      </trkpt>
      <trkpt lat="45.11047" lon="4.62666">
        <ele>649</ele>
        <time>2019-10-12T16:08:25 02:00</time>
      </trkpt>
      <trkpt lat="45.1106" lon="4.62673">
        <ele>648</ele>
        <time>2019-10-12T16:08:30 02:00</time>
      </trkpt>
      <trkpt lat="45.11056" lon="4.62695">
        <ele>655</ele>
        <time>2019-10-12T16:08:35 02:00</time>
      </trkpt>
      <trkpt lat="45.11019" lon="4.62691">
        <ele>663</ele>
        <time>2019-10-12T16:08:40 02:00</time>
      </trkpt>
      <trkpt lat="45.11006" lon="4.62682">
        <ele>664</ele>
        <time>2019-10-12T16:08:45 02:00</time>
      </trkpt>
      <trkpt lat="45.11003" lon="4.6267">
        <ele>661</ele>
        <time>2019-10-12T16:08:50 02:00</time>
      </trkpt>
      <trkpt lat="45.10965" lon="4.62664">
        <ele>670</ele>
        <time>2019-10-12T16:08:55 02:00</time>
      </trkpt>
      <trkpt lat="45.10928" lon="4.62636">
        <ele>672</ele>
        <time>2019-10-12T16:09:00 02:00</time>
      </trkpt>
      <trkpt lat="45.10887" lon="4.62629">
        <ele>681</ele>
        <time>2019-10-12T16:09:05 02:00</time>
      </trkpt>
      <trkpt lat="45.10794" lon="4.62637">
        <ele>706</ele>
        <time>2019-10-12T16:09:10 02:00</time>
      </trkpt>
      <trkpt lat="45.10744" lon="4.62636">
        <ele>715</ele>
        <time>2019-10-12T16:09:15 02:00</time>
      </trkpt>
      <trkpt lat="45.10733" lon="4.62638">
        <ele>716</ele>
        <time>2019-10-12T16:09:20 02:00</time>
      </trkpt>
      <trkpt lat="45.10714" lon="4.62661">
        <ele>721</ele>
        <time>2019-10-12T16:09:25 02:00</time>
      </trkpt>
      <trkpt lat="45.10639" lon="4.62776">
        <ele>740</ele>
        <time>2019-10-12T16:09:30 02:00</time>
      </trkpt>
      <trkpt lat="45.1062" lon="4.62854">
        <ele>756</ele>
        <time>2019-10-12T16:09:35 02:00</time>
      </trkpt>
      <trkpt lat="45.10604" lon="4.62864">
        <ele>757</ele>
        <time>2019-10-12T16:09:40 02:00</time>
      </trkpt>
      <trkpt lat="45.1055" lon="4.62877">
        <ele>752</ele>
        <time>2019-10-12T16:09:45 02:00</time>
      </trkpt>
      <trkpt lat="45.10523" lon="4.62907">
        <ele>754</ele>
        <time>2019-10-12T16:09:50 02:00</time>
      </trkpt>
      <trkpt lat="45.1051" lon="4.62966">
        <ele>754</ele>
        <time>2019-10-12T16:09:55 02:00</time>
      </trkpt>
      <trkpt lat="45.10513" lon="4.63025">
        <ele>756</ele>
        <time>2019-10-12T16:10:00 02:00</time>
      </trkpt>
      <trkpt lat="45.10511" lon="4.63077">
        <ele>757</ele>
        <time>2019-10-12T16:10:05 02:00</time>
      </trkpt>
      <trkpt lat="45.10507" lon="4.631">
        <ele>757</ele>
        <time>2019-10-12T16:10:10 02:00</time>
      </trkpt>
      <trkpt lat="45.10509" lon="4.6313">
        <ele>759</ele>
        <time>2019-10-12T16:10:15 02:00</time>
      </trkpt>
      <trkpt lat="45.10504" lon="4.63162">
        <ele>759</ele>
        <time>2019-10-12T16:10:20 02:00</time>
      </trkpt>
      <trkpt lat="45.10509" lon="4.63256">
        <ele>757</ele>
        <time>2019-10-12T16:10:25 02:00</time>
      </trkpt>
      <trkpt lat="45.1052" lon="4.63289">
        <ele>760</ele>
        <time>2019-10-12T16:10:30 02:00</time>
      </trkpt>
      <trkpt lat="45.10542" lon="4.63309">
        <ele>765</ele>
        <time>2019-10-12T16:10:35 02:00</time>
      </trkpt>
      <trkpt lat="45.10547" lon="4.63383">
        <ele>760</ele>
        <time>2019-10-12T16:10:40 02:00</time>
      </trkpt>
      <trkpt lat="45.10534" lon="4.63423">
        <ele>755</ele>
        <time>2019-10-12T16:10:45 02:00</time>
      </trkpt>
      <trkpt lat="45.10507" lon="4.63438">
        <ele>752</ele>
        <time>2019-10-12T16:10:50 02:00</time>
      </trkpt>
      <trkpt lat="45.10478" lon="4.63453">
        <ele>751</ele>
        <time>2019-10-12T16:10:55 02:00</time>
      </trkpt>
      <trkpt lat="45.10445" lon="4.63457">
        <ele>748</ele>
        <time>2019-10-12T16:11:00 02:00</time>
      </trkpt>
      <trkpt lat="45.10419" lon="4.63466">
        <ele>747</ele>
        <time>2019-10-12T16:11:05 02:00</time>
      </trkpt>
      <trkpt lat="45.1041" lon="4.63479">
        <ele>747</ele>
        <time>2019-10-12T16:11:10 02:00</time>
      </trkpt>
      <trkpt lat="45.1037" lon="4.63542">
        <ele>744</ele>
        <time>2019-10-12T16:11:15 02:00</time>
      </trkpt>
      <trkpt lat="45.10343" lon="4.63611">
        <ele>742</ele>
        <time>2019-10-12T16:11:20 02:00</time>
      </trkpt>
      <trkpt lat="45.10296" lon="4.63732">
        <ele>733</ele>
        <time>2019-10-12T16:11:25 02:00</time>
      </trkpt>
      <trkpt lat="45.10258" lon="4.63869">
        <ele>726</ele>
        <time>2019-10-12T16:11:30 02:00</time>
      </trkpt>
      <trkpt lat="45.10217" lon="4.63984">
        <ele>719</ele>
        <time>2019-10-12T16:11:35 02:00</time>
      </trkpt>
      <trkpt lat="45.10166" lon="4.6409">
        <ele>714</ele>
        <time>2019-10-12T16:11:40 02:00</time>
      </trkpt>
      <trkpt lat="45.10149" lon="4.64129">
        <ele>713</ele>
        <time>2019-10-12T16:11:45 02:00</time>
      </trkpt>
      <trkpt lat="45.10132" lon="4.64142">
        <ele>709</ele>
        <time>2019-10-12T16:11:50 02:00</time>
      </trkpt>
      <trkpt lat="45.10127" lon="4.64186">
        <ele>713</ele>
        <time>2019-10-12T16:11:55 02:00</time>
      </trkpt>
      <trkpt lat="45.10117" lon="4.64233">
        <ele>717</ele>
        <time>2019-10-12T16:12:00 02:00</time>
      </trkpt>
      <trkpt lat="45.10116" lon="4.64287">
        <ele>720</ele>
        <time>2019-10-12T16:12:05 02:00</time>
      </trkpt>
      <trkpt lat="45.10113" lon="4.64346">
        <ele>721</ele>
        <time>2019-10-12T16:12:10 02:00</time>
      </trkpt>
      <trkpt lat="45.10107" lon="4.64383">
        <ele>721</ele>
        <time>2019-10-12T16:12:15 02:00</time>
      </trkpt>
      <trkpt lat="45.10131" lon="4.64432">
        <ele>729</ele>
        <time>2019-10-12T16:12:20 02:00</time>
      </trkpt>
      <trkpt lat="45.10167" lon="4.64472">
        <ele>736</ele>
        <time>2019-10-12T16:12:25 02:00</time>
      </trkpt>
      <trkpt lat="45.10214" lon="4.64503">
        <ele>729</ele>
        <time>2019-10-12T16:12:30 02:00</time>
      </trkpt>
      <trkpt lat="45.10242" lon="4.64543">
        <ele>718</ele>
        <time>2019-10-12T16:12:35 02:00</time>
      </trkpt>
      <trkpt lat="45.10295" lon="4.64489">
        <ele>713</ele>
        <time>2019-10-12T16:12:40 02:00</time>
      </trkpt>
      <trkpt lat="45.10327" lon="4.64438">
        <ele>714</ele>
        <time>2019-10-12T16:12:45 02:00</time>
      </trkpt>
      <trkpt lat="45.10286" lon="4.64526">
        <ele>709</ele>
        <time>2019-10-12T16:12:50 02:00</time>
      </trkpt>
      <trkpt lat="45.10253" lon="4.64597">
        <ele>705</ele>
        <time>2019-10-12T16:12:55 02:00</time>
      </trkpt>
      <trkpt lat="45.10237" lon="4.6463">
        <ele>700</ele>
        <time>2019-10-12T16:13:00 02:00</time>
      </trkpt>
      <trkpt lat="45.10229" lon="4.64679">
        <ele>690</ele>
        <time>2019-10-12T16:13:05 02:00</time>
      </trkpt>
      <trkpt lat="45.10243" lon="4.64634">
        <ele>698</ele>
        <time>2019-10-12T16:13:10 02:00</time>
      </trkpt>
      <trkpt lat="45.10274" lon="4.64625">
        <ele>690</ele>
        <time>2019-10-12T16:13:15 02:00</time>
      </trkpt>
      <trkpt lat="45.10302" lon="4.64608">
        <ele>684</ele>
        <time>2019-10-12T16:13:20 02:00</time>
      </trkpt>
      <trkpt lat="45.10347" lon="4.64611">
        <ele>671</ele>
        <time>2019-10-12T16:13:25 02:00</time>
      </trkpt>
      <trkpt lat="45.10217" lon="4.64761">
        <ele>674</ele>
        <time>2019-10-12T16:13:30 02:00</time>
      </trkpt>
      <trkpt lat="45.10179" lon="4.64815">
        <ele>675</ele>
        <time>2019-10-12T16:13:35 02:00</time>
      </trkpt>
      <trkpt lat="45.10142" lon="4.64876">
        <ele>670</ele>
        <time>2019-10-12T16:13:40 02:00</time>
      </trkpt>
      <trkpt lat="45.10108" lon="4.6491">
        <ele>664</ele>
        <time>2019-10-12T16:13:45 02:00</time>
      </trkpt>
      <trkpt lat="45.10074" lon="4.64921">
        <ele>662</ele>
        <time>2019-10-12T16:13:50 02:00</time>
      </trkpt>
      <trkpt lat="45.1002" lon="4.64939">
        <ele>656</ele>
        <time>2019-10-12T16:13:55 02:00</time>
      </trkpt>
      <trkpt lat="45.09967" lon="4.64922">
        <ele>652</ele>
        <time>2019-10-12T16:14:00 02:00</time>
      </trkpt>
      <trkpt lat="45.0993" lon="4.64905">
        <ele>648</ele>
        <time>2019-10-12T16:14:05 02:00</time>
      </trkpt>
      <trkpt lat="45.09911" lon="4.64908">
        <ele>645</ele>
        <time>2019-10-12T16:14:10 02:00</time>
      </trkpt>
      <trkpt lat="45.09893" lon="4.64931">
        <ele>642</ele>
        <time>2019-10-12T16:14:15 02:00</time>
      </trkpt>
      <trkpt lat="45.09884" lon="4.64904">
        <ele>640</ele>
        <time>2019-10-12T16:14:20 02:00</time>
      </trkpt>
      <trkpt lat="45.09872" lon="4.64924">
        <ele>638</ele>
        <time>2019-10-12T16:14:25 02:00</time>
      </trkpt>
      <trkpt lat="45.0987" lon="4.64875">
        <ele>637</ele>
        <time>2019-10-12T16:14:30 02:00</time>
      </trkpt>
      <trkpt lat="45.09866" lon="4.64855">
        <ele>635</ele>
        <time>2019-10-12T16:14:35 02:00</time>
      </trkpt>
      <trkpt lat="45.09825" lon="4.64813">
        <ele>628</ele>
        <time>2019-10-12T16:14:40 02:00</time>
      </trkpt>
      <trkpt lat="45.09771" lon="4.64761">
        <ele>624</ele>
        <time>2019-10-12T16:14:45 02:00</time>
      </trkpt>
      <trkpt lat="45.09746" lon="4.64727">
        <ele>622</ele>
        <time>2019-10-12T16:14:50 02:00</time>
      </trkpt>
      <trkpt lat="45.09719" lon="4.64654">
        <ele>623</ele>
        <time>2019-10-12T16:14:55 02:00</time>
      </trkpt>
      <trkpt lat="45.09695" lon="4.64614">
        <ele>620</ele>
        <time>2019-10-12T16:15:00 02:00</time>
      </trkpt>
      <trkpt lat="45.09652" lon="4.64614">
        <ele>616</ele>
        <time>2019-10-12T16:15:05 02:00</time>
      </trkpt>
      <trkpt lat="45.09607" lon="4.64594">
        <ele>614</ele>
        <time>2019-10-12T16:15:10 02:00</time>
      </trkpt>
      <trkpt lat="45.09565" lon="4.64599">
        <ele>617</ele>
        <time>2019-10-12T16:15:15 02:00</time>
      </trkpt>
      <trkpt lat="45.09537" lon="4.64598">
        <ele>621</ele>
        <time>2019-10-12T16:15:20 02:00</time>
      </trkpt>
      <trkpt lat="45.09474" lon="4.64554">
        <ele>623</ele>
        <time>2019-10-12T16:15:25 02:00</time>
      </trkpt>
      <trkpt lat="45.09412" lon="4.6454">
        <ele>627</ele>
        <time>2019-10-12T16:15:30 02:00</time>
      </trkpt>
      <trkpt lat="45.09365" lon="4.64537">
        <ele>629</ele>
        <time>2019-10-12T16:15:35 02:00</time>
      </trkpt>
      <trkpt lat="45.09344" lon="4.64537">
        <ele>630</ele>
        <time>2019-10-12T16:15:40 02:00</time>
      </trkpt>
      <trkpt lat="45.09346" lon="4.6459">
        <ele>637</ele>
        <time>2019-10-12T16:15:45 02:00</time>
      </trkpt>
      <trkpt lat="45.09366" lon="4.64656">
        <ele>641</ele>
        <time>2019-10-12T16:15:50 02:00</time>
      </trkpt>
      <trkpt lat="45.09377" lon="4.64781">
        <ele>644</ele>
        <time>2019-10-12T16:15:55 02:00</time>
      </trkpt>
      <trkpt lat="45.09374" lon="4.64964">
        <ele>637</ele>
        <time>2019-10-12T16:16:00 02:00</time>
      </trkpt>
      <trkpt lat="45.09405" lon="4.64962">
        <ele>635</ele>
        <time>2019-10-12T16:16:05 02:00</time>
      </trkpt>
      <trkpt lat="45.09419" lon="4.64976">
        <ele>633</ele>
        <time>2019-10-12T16:16:10 02:00</time>
      </trkpt>
      <trkpt lat="45.09427" lon="4.65005">
        <ele>631</ele>
        <time>2019-10-12T16:16:15 02:00</time>
      </trkpt>
      <trkpt lat="45.09427" lon="4.65036">
        <ele>628</ele>
        <time>2019-10-12T16:16:20 02:00</time>
      </trkpt>
      <trkpt lat="45.09408" lon="4.65056">
        <ele>628</ele>
        <time>2019-10-12T16:16:25 02:00</time>
      </trkpt>
      <trkpt lat="45.09391" lon="4.65069">
        <ele>628</ele>
        <time>2019-10-12T16:16:30 02:00</time>
      </trkpt>
      <trkpt lat="45.09401" lon="4.65161">
        <ele>621</ele>
        <time>2019-10-12T16:16:35 02:00</time>
      </trkpt>
      <trkpt lat="45.09397" lon="4.65208">
        <ele>619</ele>
        <time>2019-10-12T16:16:40 02:00</time>
      </trkpt>
      <trkpt lat="45.09419" lon="4.65228">
        <ele>617</ele>
        <time>2019-10-12T16:16:45 02:00</time>
      </trkpt>
    </trkseg>
  </trk>
  <trk>
    <name><![CDATA[07 - St Félicien : Bozas : murs et murets]]></name>
    <trkseg>
      <trkpt lat="45.0938" lon="4.65203">
        <ele>620</ele>
        <time>2020-07-15T18:56:03 02:00</time>
      </trkpt>
      <trkpt lat="45.09326" lon="4.65229">
        <ele>618</ele>
        <time>2020-07-15T18:56:08 02:00</time>
      </trkpt>
      <trkpt lat="45.09226" lon="4.65199">
        <ele>616</ele>
        <time>2020-07-15T18:56:13 02:00</time>
      </trkpt>
      <trkpt lat="45.09174" lon="4.65272">
        <ele>605</ele>
        <time>2020-07-15T18:56:18 02:00</time>
      </trkpt>
      <trkpt lat="45.09177" lon="4.65456">
        <ele>583</ele>
        <time>2020-07-15T18:56:23 02:00</time>
      </trkpt>
      <trkpt lat="45.09171" lon="4.65529">
        <ele>576</ele>
        <time>2020-07-15T18:56:28 02:00</time>
      </trkpt>
      <trkpt lat="45.09102" lon="4.65653">
        <ele>568</ele>
        <time>2020-07-15T18:56:33 02:00</time>
      </trkpt>
      <trkpt lat="45.09059" lon="4.65688">
        <ele>564</ele>
        <time>2020-07-15T18:56:38 02:00</time>
      </trkpt>
      <trkpt lat="45.09026" lon="4.65761">
        <ele>560</ele>
        <time>2020-07-15T18:56:43 02:00</time>
      </trkpt>
      <trkpt lat="45.08929" lon="4.65885">
        <ele>554</ele>
        <time>2020-07-15T18:56:48 02:00</time>
      </trkpt>
      <trkpt lat="45.08902" lon="4.65915">
        <ele>554</ele>
        <time>2020-07-15T18:56:53 02:00</time>
      </trkpt>
      <trkpt lat="45.08777" lon="4.65928">
        <ele>555</ele>
        <time>2020-07-15T18:56:58 02:00</time>
      </trkpt>
      <trkpt lat="45.08711" lon="4.65945">
        <ele>561</ele>
        <time>2020-07-15T18:57:03 02:00</time>
      </trkpt>
      <trkpt lat="45.08653" lon="4.65945">
        <ele>564</ele>
        <time>2020-07-15T18:57:08 02:00</time>
      </trkpt>
      <trkpt lat="45.08559" lon="4.65907">
        <ele>558</ele>
        <time>2020-07-15T18:57:13 02:00</time>
      </trkpt>
      <trkpt lat="45.08511" lon="4.65872">
        <ele>554</ele>
        <time>2020-07-15T18:57:18 02:00</time>
      </trkpt>
      <trkpt lat="45.08447" lon="4.65902">
        <ele>544</ele>
        <time>2020-07-15T18:57:23 02:00</time>
      </trkpt>
      <trkpt lat="45.08429" lon="4.65945">
        <ele>537</ele>
        <time>2020-07-15T18:57:28 02:00</time>
      </trkpt>
      <trkpt lat="45.08387" lon="4.65941">
        <ele>531</ele>
        <time>2020-07-15T18:57:33 02:00</time>
      </trkpt>
      <trkpt lat="45.08268" lon="4.65684">
        <ele>532</ele>
        <time>2020-07-15T18:57:38 02:00</time>
      </trkpt>
      <trkpt lat="45.08159" lon="4.65731">
        <ele>524</ele>
        <time>2020-07-15T18:57:43 02:00</time>
      </trkpt>
      <trkpt lat="45.08105" lon="4.65795">
        <ele>520</ele>
        <time>2020-07-15T18:57:48 02:00</time>
      </trkpt>
      <trkpt lat="45.08002" lon="4.65799">
        <ele>516</ele>
        <time>2020-07-15T18:57:53 02:00</time>
      </trkpt>
      <trkpt lat="45.07956" lon="4.66108">
        <ele>498</ele>
        <time>2020-07-15T18:57:58 02:00</time>
      </trkpt>
      <trkpt lat="45.07978" lon="4.66263">
        <ele>483</ele>
        <time>2020-07-15T18:58:03 02:00</time>
      </trkpt>
      <trkpt lat="45.07978" lon="4.66323">
        <ele>476</ele>
        <time>2020-07-15T18:58:08 02:00</time>
      </trkpt>
      <trkpt lat="45.0789" lon="4.66267">
        <ele>470</ele>
        <time>2020-07-15T18:58:13 02:00</time>
      </trkpt>
      <trkpt lat="45.07802" lon="4.66173">
        <ele>468</ele>
        <time>2020-07-15T18:58:18 02:00</time>
      </trkpt>
      <trkpt lat="45.07723" lon="4.6607">
        <ele>471</ele>
        <time>2020-07-15T18:58:23 02:00</time>
      </trkpt>
      <trkpt lat="45.07659" lon="4.66014">
        <ele>461</ele>
        <time>2020-07-15T18:58:28 02:00</time>
      </trkpt>
      <trkpt lat="45.07657" lon="4.66131">
        <ele>455</ele>
        <time>2020-07-15T18:58:33 02:00</time>
      </trkpt>
      <trkpt lat="45.07671" lon="4.66253">
        <ele>448</ele>
        <time>2020-07-15T18:58:38 02:00</time>
      </trkpt>
      <trkpt lat="45.07681" lon="4.66301">
        <ele>445</ele>
        <time>2020-07-15T18:58:43 02:00</time>
      </trkpt>
      <trkpt lat="45.07696" lon="4.66323">
        <ele>444</ele>
        <time>2020-07-15T18:58:48 02:00</time>
      </trkpt>
      <trkpt lat="45.0772" lon="4.66353">
        <ele>441</ele>
        <time>2020-07-15T18:58:53 02:00</time>
      </trkpt>
      <trkpt lat="45.07593" lon="4.6631">
        <ele>429</ele>
        <time>2020-07-15T18:58:58 02:00</time>
      </trkpt>
      <trkpt lat="45.07565" lon="4.66284">
        <ele>425</ele>
        <time>2020-07-15T18:59:03 02:00</time>
      </trkpt>
      <trkpt lat="45.07545" lon="4.66196">
        <ele>426</ele>
        <time>2020-07-15T18:59:08 02:00</time>
      </trkpt>
      <trkpt lat="45.07505" lon="4.66147">
        <ele>420</ele>
        <time>2020-07-15T18:59:13 02:00</time>
      </trkpt>
      <trkpt lat="45.07493" lon="4.6595">
        <ele>418</ele>
        <time>2020-07-15T18:59:18 02:00</time>
      </trkpt>
      <trkpt lat="45.07393" lon="4.66138">
        <ele>398</ele>
        <time>2020-07-15T18:59:23 02:00</time>
      </trkpt>
      <trkpt lat="45.07374" lon="4.66216">
        <ele>394</ele>
        <time>2020-07-15T18:59:28 02:00</time>
      </trkpt>
      <trkpt lat="45.07317" lon="4.6628">
        <ele>395</ele>
        <time>2020-07-15T18:59:33 02:00</time>
      </trkpt>
      <trkpt lat="45.073" lon="4.66214">
        <ele>400</ele>
        <time>2020-07-15T18:59:38 02:00</time>
      </trkpt>
      <trkpt lat="45.0732" lon="4.66134">
        <ele>397</ele>
        <time>2020-07-15T18:59:43 02:00</time>
      </trkpt>
      <trkpt lat="45.07347" lon="4.66098">
        <ele>396</ele>
        <time>2020-07-15T18:59:48 02:00</time>
      </trkpt>
      <trkpt lat="45.07326" lon="4.6603">
        <ele>399</ele>
        <time>2020-07-15T18:59:53 02:00</time>
      </trkpt>
      <trkpt lat="45.073" lon="4.66016">
        <ele>404</ele>
        <time>2020-07-15T18:59:58 02:00</time>
      </trkpt>
      <trkpt lat="45.07283" lon="4.66019">
        <ele>407</ele>
        <time>2020-07-15T19:00:03 02:00</time>
      </trkpt>
      <trkpt lat="45.07276" lon="4.65979">
        <ele>409</ele>
        <time>2020-07-15T19:00:08 02:00</time>
      </trkpt>
      <trkpt lat="45.07269" lon="4.65945">
        <ele>412</ele>
        <time>2020-07-15T19:00:13 02:00</time>
      </trkpt>
      <trkpt lat="45.07253" lon="4.65952">
        <ele>415</ele>
        <time>2020-07-15T19:00:18 02:00</time>
      </trkpt>
      <trkpt lat="45.07247" lon="4.65963">
        <ele>416</ele>
        <time>2020-07-15T19:00:23 02:00</time>
      </trkpt>
      <trkpt lat="45.07235" lon="4.66008">
        <ele>418</ele>
        <time>2020-07-15T19:00:28 02:00</time>
      </trkpt>
      <trkpt lat="45.07223" lon="4.66028">
        <ele>422</ele>
        <time>2020-07-15T19:00:33 02:00</time>
      </trkpt>
      <trkpt lat="45.07228" lon="4.66066">
        <ele>422</ele>
        <time>2020-07-15T19:00:38 02:00</time>
      </trkpt>
      <trkpt lat="45.07227" lon="4.66095">
        <ele>423</ele>
        <time>2020-07-15T19:00:43 02:00</time>
      </trkpt>
      <trkpt lat="45.07212" lon="4.66125">
        <ele>427</ele>
        <time>2020-07-15T19:00:48 02:00</time>
      </trkpt>
      <trkpt lat="45.07192" lon="4.66135">
        <ele>432</ele>
        <time>2020-07-15T19:00:53 02:00</time>
      </trkpt>
      <trkpt lat="45.07173" lon="4.66106">
        <ele>438</ele>
        <time>2020-07-15T19:00:58 02:00</time>
      </trkpt>
      <trkpt lat="45.07106" lon="4.66097">
        <ele>448</ele>
        <time>2020-07-15T19:01:03 02:00</time>
      </trkpt>
      <trkpt lat="45.07074" lon="4.66092">
        <ele>452</ele>
        <time>2020-07-15T19:01:08 02:00</time>
      </trkpt>
      <trkpt lat="45.07038" lon="4.66104">
        <ele>455</ele>
        <time>2020-07-15T19:01:13 02:00</time>
      </trkpt>
      <trkpt lat="45.07011" lon="4.66091">
        <ele>460</ele>
        <time>2020-07-15T19:01:18 02:00</time>
      </trkpt>
      <trkpt lat="45.06994" lon="4.66108">
        <ele>460</ele>
        <time>2020-07-15T19:01:23 02:00</time>
      </trkpt>
      <trkpt lat="45.06916" lon="4.66031">
        <ele>467</ele>
        <time>2020-07-15T19:01:28 02:00</time>
      </trkpt>
      <trkpt lat="45.06897" lon="4.65998">
        <ele>472</ele>
        <time>2020-07-15T19:01:33 02:00</time>
      </trkpt>
      <trkpt lat="45.06814" lon="4.65996">
        <ele>479</ele>
        <time>2020-07-15T19:01:38 02:00</time>
      </trkpt>
      <trkpt lat="45.06732" lon="4.65993">
        <ele>482</ele>
        <time>2020-07-15T19:01:43 02:00</time>
      </trkpt>
      <trkpt lat="45.0669" lon="4.65964">
        <ele>487</ele>
        <time>2020-07-15T19:01:48 02:00</time>
      </trkpt>
      <trkpt lat="45.06612" lon="4.65945">
        <ele>489</ele>
        <time>2020-07-15T19:01:53 02:00</time>
      </trkpt>
      <trkpt lat="45.06536" lon="4.65916">
        <ele>489</ele>
        <time>2020-07-15T19:01:58 02:00</time>
      </trkpt>
      <trkpt lat="45.06508" lon="4.66183">
        <ele>469</ele>
        <time>2020-07-15T19:02:03 02:00</time>
      </trkpt>
      <trkpt lat="45.0652" lon="4.66338">
        <ele>464</ele>
        <time>2020-07-15T19:02:08 02:00</time>
      </trkpt>
      <trkpt lat="45.06529" lon="4.66531">
        <ele>468</ele>
        <time>2020-07-15T19:02:13 02:00</time>
      </trkpt>
      <trkpt lat="45.06541" lon="4.66758">
        <ele>465</ele>
        <time>2020-07-15T19:02:18 02:00</time>
      </trkpt>
      <trkpt lat="45.06423" lon="4.66715">
        <ele>464</ele>
        <time>2020-07-15T19:02:23 02:00</time>
      </trkpt>
      <trkpt lat="45.0619" lon="4.66728">
        <ele>446</ele>
        <time>2020-07-15T19:02:28 02:00</time>
      </trkpt>
      <trkpt lat="45.06066" lon="4.66664">
        <ele>436</ele>
        <time>2020-07-15T19:02:33 02:00</time>
      </trkpt>
      <trkpt lat="45.05996" lon="4.66668">
        <ele>430</ele>
        <time>2020-07-15T19:02:38 02:00</time>
      </trkpt>
      <trkpt lat="45.05965" lon="4.66662">
        <ele>427</ele>
        <time>2020-07-15T19:02:43 02:00</time>
      </trkpt>
      <trkpt lat="45.05943" lon="4.66606">
        <ele>427</ele>
        <time>2020-07-15T19:02:48 02:00</time>
      </trkpt>
      <trkpt lat="45.05932" lon="4.66612">
        <ele>426</ele>
        <time>2020-07-15T19:02:53 02:00</time>
      </trkpt>
      <trkpt lat="45.05911" lon="4.6666">
        <ele>422</ele>
        <time>2020-07-15T19:02:58 02:00</time>
      </trkpt>
      <trkpt lat="45.05894" lon="4.66675">
        <ele>422</ele>
        <time>2020-07-15T19:03:03 02:00</time>
      </trkpt>
      <trkpt lat="45.05896" lon="4.66741">
        <ele>421</ele>
        <time>2020-07-15T19:03:08 02:00</time>
      </trkpt>
      <trkpt lat="45.05887" lon="4.66767">
        <ele>421</ele>
        <time>2020-07-15T19:03:13 02:00</time>
      </trkpt>
      <trkpt lat="45.05835" lon="4.66767">
        <ele>423</ele>
        <time>2020-07-15T19:03:18 02:00</time>
      </trkpt>
      <trkpt lat="45.05761" lon="4.66763">
        <ele>426</ele>
        <time>2020-07-15T19:03:23 02:00</time>
      </trkpt>
      <trkpt lat="45.05738" lon="4.66773">
        <ele>427</ele>
        <time>2020-07-15T19:03:28 02:00</time>
      </trkpt>
      <trkpt lat="45.05673" lon="4.66808">
        <ele>430</ele>
        <time>2020-07-15T19:03:33 02:00</time>
      </trkpt>
      <trkpt lat="45.05618" lon="4.66874">
        <ele>436</ele>
        <time>2020-07-15T19:03:38 02:00</time>
      </trkpt>
      <trkpt lat="45.05584" lon="4.66913">
        <ele>440</ele>
        <time>2020-07-15T19:03:43 02:00</time>
      </trkpt>
      <trkpt lat="45.05515" lon="4.66857">
        <ele>446</ele>
        <time>2020-07-15T19:03:48 02:00</time>
      </trkpt>
      <trkpt lat="45.05505" lon="4.66831">
        <ele>448</ele>
        <time>2020-07-15T19:03:53 02:00</time>
      </trkpt>
      <trkpt lat="45.05497" lon="4.66797">
        <ele>452</ele>
        <time>2020-07-15T19:03:58 02:00</time>
      </trkpt>
      <trkpt lat="45.05494" lon="4.66765">
        <ele>455</ele>
        <time>2020-07-15T19:04:03 02:00</time>
      </trkpt>
      <trkpt lat="45.05515" lon="4.66718">
        <ele>456</ele>
        <time>2020-07-15T19:04:08 02:00</time>
      </trkpt>
      <trkpt lat="45.05508" lon="4.66668">
        <ele>460</ele>
        <time>2020-07-15T19:04:13 02:00</time>
      </trkpt>
      <trkpt lat="45.05506" lon="4.66638">
        <ele>462</ele>
        <time>2020-07-15T19:04:18 02:00</time>
      </trkpt>
      <trkpt lat="45.05484" lon="4.66602">
        <ele>465</ele>
        <time>2020-07-15T19:04:23 02:00</time>
      </trkpt>
      <trkpt lat="45.05446" lon="4.66516">
        <ele>468</ele>
        <time>2020-07-15T19:04:28 02:00</time>
      </trkpt>
      <trkpt lat="45.05403" lon="4.66445">
        <ele>470</ele>
        <time>2020-07-15T19:04:33 02:00</time>
      </trkpt>
      <trkpt lat="45.0534" lon="4.66419">
        <ele>471</ele>
        <time>2020-07-15T19:04:38 02:00</time>
      </trkpt>
      <trkpt lat="45.05273" lon="4.66394">
        <ele>473</ele>
        <time>2020-07-15T19:04:43 02:00</time>
      </trkpt>
      <trkpt lat="45.05211" lon="4.66353">
        <ele>473</ele>
        <time>2020-07-15T19:04:48 02:00</time>
      </trkpt>
      <trkpt lat="45.05152" lon="4.66295">
        <ele>473</ele>
        <time>2020-07-15T19:04:53 02:00</time>
      </trkpt>
      <trkpt lat="45.05111" lon="4.66226">
        <ele>472</ele>
        <time>2020-07-15T19:04:58 02:00</time>
      </trkpt>
      <trkpt lat="45.0509" lon="4.66186">
        <ele>473</ele>
        <time>2020-07-15T19:05:03 02:00</time>
      </trkpt>
      <trkpt lat="45.05024" lon="4.66139">
        <ele>470</ele>
        <time>2020-07-15T19:05:08 02:00</time>
      </trkpt>
      <trkpt lat="45.04956" lon="4.66096">
        <ele>469</ele>
        <time>2020-07-15T19:05:13 02:00</time>
      </trkpt>
      <trkpt lat="45.04917" lon="4.66064">
        <ele>470</ele>
        <time>2020-07-15T19:05:18 02:00</time>
      </trkpt>
      <trkpt lat="45.04946" lon="4.66053">
        <ele>473</ele>
        <time>2020-07-15T19:05:23 02:00</time>
      </trkpt>
      <trkpt lat="45.04971" lon="4.66022">
        <ele>478</ele>
        <time>2020-07-15T19:05:28 02:00</time>
      </trkpt>
      <trkpt lat="45.05012" lon="4.65982">
        <ele>484</ele>
        <time>2020-07-15T19:05:33 02:00</time>
      </trkpt>
      <trkpt lat="45.05074" lon="4.65938">
        <ele>492</ele>
        <time>2020-07-15T19:05:38 02:00</time>
      </trkpt>
      <trkpt lat="45.05111" lon="4.65902">
        <ele>496</ele>
        <time>2020-07-15T19:05:43 02:00</time>
      </trkpt>
      <trkpt lat="45.05124" lon="4.65864">
        <ele>499</ele>
        <time>2020-07-15T19:05:48 02:00</time>
      </trkpt>
      <trkpt lat="45.05155" lon="4.65786">
        <ele>504</ele>
        <time>2020-07-15T19:05:53 02:00</time>
      </trkpt>
      <trkpt lat="45.05182" lon="4.65707">
        <ele>508</ele>
        <time>2020-07-15T19:05:58 02:00</time>
      </trkpt>
      <trkpt lat="45.05199" lon="4.65604">
        <ele>515</ele>
        <time>2020-07-15T19:06:03 02:00</time>
      </trkpt>
      <trkpt lat="45.05217" lon="4.65516">
        <ele>521</ele>
        <time>2020-07-15T19:06:08 02:00</time>
      </trkpt>
      <trkpt lat="45.05221" lon="4.65487">
        <ele>524</ele>
        <time>2020-07-15T19:06:13 02:00</time>
      </trkpt>
      <trkpt lat="45.05221" lon="4.65459">
        <ele>528</ele>
        <time>2020-07-15T19:06:18 02:00</time>
      </trkpt>
      <trkpt lat="45.05264" lon="4.65447">
        <ele>529</ele>
        <time>2020-07-15T19:06:23 02:00</time>
      </trkpt>
      <trkpt lat="45.05302" lon="4.65395">
        <ele>535</ele>
        <time>2020-07-15T19:06:28 02:00</time>
      </trkpt>
      <trkpt lat="45.05338" lon="4.65338">
        <ele>540</ele>
        <time>2020-07-15T19:06:33 02:00</time>
      </trkpt>
      <trkpt lat="45.05393" lon="4.65274">
        <ele>542</ele>
        <time>2020-07-15T19:06:38 02:00</time>
      </trkpt>
      <trkpt lat="45.05462" lon="4.65199">
        <ele>541</ele>
        <time>2020-07-15T19:06:43 02:00</time>
      </trkpt>
      <trkpt lat="45.05487" lon="4.65166">
        <ele>540</ele>
        <time>2020-07-15T19:06:48 02:00</time>
      </trkpt>
      <trkpt lat="45.05537" lon="4.6512">
        <ele>537</ele>
        <time>2020-07-15T19:06:53 02:00</time>
      </trkpt>
      <trkpt lat="45.05566" lon="4.65086">
        <ele>537</ele>
        <time>2020-07-15T19:06:58 02:00</time>
      </trkpt>
      <trkpt lat="45.05575" lon="4.65078">
        <ele>536</ele>
        <time>2020-07-15T19:07:03 02:00</time>
      </trkpt>
      <trkpt lat="45.05564" lon="4.65031">
        <ele>540</ele>
        <time>2020-07-15T19:07:08 02:00</time>
      </trkpt>
      <trkpt lat="45.05568" lon="4.65019">
        <ele>540</ele>
        <time>2020-07-15T19:07:13 02:00</time>
      </trkpt>
      <trkpt lat="45.05566" lon="4.65054">
        <ele>539</ele>
        <time>2020-07-15T19:07:18 02:00</time>
      </trkpt>
      <trkpt lat="45.05607" lon="4.65036">
        <ele>531</ele>
        <time>2020-07-15T19:07:23 02:00</time>
      </trkpt>
      <trkpt lat="45.05618" lon="4.64992">
        <ele>530</ele>
        <time>2020-07-15T19:07:28 02:00</time>
      </trkpt>
      <trkpt lat="45.05644" lon="4.65019">
        <ele>524</ele>
        <time>2020-07-15T19:07:33 02:00</time>
      </trkpt>
      <trkpt lat="45.05671" lon="4.65032">
        <ele>518</ele>
        <time>2020-07-15T19:07:38 02:00</time>
      </trkpt>
      <trkpt lat="45.05737" lon="4.65044">
        <ele>512</ele>
        <time>2020-07-15T19:07:43 02:00</time>
      </trkpt>
      <trkpt lat="45.05759" lon="4.65078">
        <ele>510</ele>
        <time>2020-07-15T19:07:48 02:00</time>
      </trkpt>
      <trkpt lat="45.05763" lon="4.65108">
        <ele>508</ele>
        <time>2020-07-15T19:07:53 02:00</time>
      </trkpt>
      <trkpt lat="45.05761" lon="4.65139">
        <ele>507</ele>
        <time>2020-07-15T19:07:58 02:00</time>
      </trkpt>
      <trkpt lat="45.05761" lon="4.65178">
        <ele>506</ele>
        <time>2020-07-15T19:08:03 02:00</time>
      </trkpt>
      <trkpt lat="45.05767" lon="4.65202">
        <ele>506</ele>
        <time>2020-07-15T19:08:08 02:00</time>
      </trkpt>
      <trkpt lat="45.05796" lon="4.65221">
        <ele>507</ele>
        <time>2020-07-15T19:08:13 02:00</time>
      </trkpt>
      <trkpt lat="45.05817" lon="4.65227">
        <ele>509</ele>
        <time>2020-07-15T19:08:18 02:00</time>
      </trkpt>
      <trkpt lat="45.05935" lon="4.65187">
        <ele>518</ele>
        <time>2020-07-15T19:08:23 02:00</time>
      </trkpt>
      <trkpt lat="45.06023" lon="4.65172">
        <ele>522</ele>
        <time>2020-07-15T19:08:28 02:00</time>
      </trkpt>
      <trkpt lat="45.06085" lon="4.65146">
        <ele>526</ele>
        <time>2020-07-15T19:08:33 02:00</time>
      </trkpt>
      <trkpt lat="45.06142" lon="4.65089">
        <ele>531</ele>
        <time>2020-07-15T19:08:38 02:00</time>
      </trkpt>
      <trkpt lat="45.06157" lon="4.65047">
        <ele>536</ele>
        <time>2020-07-15T19:08:43 02:00</time>
      </trkpt>
      <trkpt lat="45.06178" lon="4.65015">
        <ele>540</ele>
        <time>2020-07-15T19:08:48 02:00</time>
      </trkpt>
      <trkpt lat="45.06205" lon="4.64983">
        <ele>543</ele>
        <time>2020-07-15T19:08:53 02:00</time>
      </trkpt>
      <trkpt lat="45.06278" lon="4.64941">
        <ele>546</ele>
        <time>2020-07-15T19:08:58 02:00</time>
      </trkpt>
      <trkpt lat="45.06307" lon="4.64918">
        <ele>549</ele>
        <time>2020-07-15T19:09:03 02:00</time>
      </trkpt>
      <trkpt lat="45.06337" lon="4.64908">
        <ele>550</ele>
        <time>2020-07-15T19:09:08 02:00</time>
      </trkpt>
      <trkpt lat="45.06379" lon="4.64893">
        <ele>555</ele>
        <time>2020-07-15T19:09:13 02:00</time>
      </trkpt>
      <trkpt lat="45.06438" lon="4.64869">
        <ele>564</ele>
        <time>2020-07-15T19:09:18 02:00</time>
      </trkpt>
      <trkpt lat="45.06464" lon="4.64859">
        <ele>568</ele>
        <time>2020-07-15T19:09:23 02:00</time>
      </trkpt>
      <trkpt lat="45.06486" lon="4.64861">
        <ele>570</ele>
        <time>2020-07-15T19:09:28 02:00</time>
      </trkpt>
      <trkpt lat="45.06506" lon="4.64855">
        <ele>573</ele>
        <time>2020-07-15T19:09:33 02:00</time>
      </trkpt>
      <trkpt lat="45.06526" lon="4.64841">
        <ele>575</ele>
        <time>2020-07-15T19:09:38 02:00</time>
      </trkpt>
      <trkpt lat="45.06569" lon="4.648">
        <ele>580</ele>
        <time>2020-07-15T19:09:43 02:00</time>
      </trkpt>
      <trkpt lat="45.06619" lon="4.64749">
        <ele>587</ele>
        <time>2020-07-15T19:09:48 02:00</time>
      </trkpt>
      <trkpt lat="45.06658" lon="4.64727">
        <ele>590</ele>
        <time>2020-07-15T19:09:53 02:00</time>
      </trkpt>
      <trkpt lat="45.06717" lon="4.64645">
        <ele>590</ele>
        <time>2020-07-15T19:09:58 02:00</time>
      </trkpt>
      <trkpt lat="45.06745" lon="4.64607">
        <ele>584</ele>
        <time>2020-07-15T19:10:03 02:00</time>
      </trkpt>
      <trkpt lat="45.06773" lon="4.6459">
        <ele>582</ele>
        <time>2020-07-15T19:10:08 02:00</time>
      </trkpt>
      <trkpt lat="45.06807" lon="4.6457">
        <ele>580</ele>
        <time>2020-07-15T19:10:13 02:00</time>
      </trkpt>
      <trkpt lat="45.06833" lon="4.6455">
        <ele>577</ele>
        <time>2020-07-15T19:10:18 02:00</time>
      </trkpt>
      <trkpt lat="45.06858" lon="4.64544">
        <ele>573</ele>
        <time>2020-07-15T19:10:23 02:00</time>
      </trkpt>
      <trkpt lat="45.06889" lon="4.64529">
        <ele>566</ele>
        <time>2020-07-15T19:10:28 02:00</time>
      </trkpt>
      <trkpt lat="45.06931" lon="4.64527">
        <ele>559</ele>
        <time>2020-07-15T19:10:33 02:00</time>
      </trkpt>
      <trkpt lat="45.06957" lon="4.64529">
        <ele>555</ele>
        <time>2020-07-15T19:10:38 02:00</time>
      </trkpt>
      <trkpt lat="45.06983" lon="4.64549">
        <ele>553</ele>
        <time>2020-07-15T19:10:43 02:00</time>
      </trkpt>
      <trkpt lat="45.06995" lon="4.64568">
        <ele>554</ele>
        <time>2020-07-15T19:10:48 02:00</time>
      </trkpt>
      <trkpt lat="45.07007" lon="4.64585">
        <ele>554</ele>
        <time>2020-07-15T19:10:53 02:00</time>
      </trkpt>
      <trkpt lat="45.07019" lon="4.6459">
        <ele>551</ele>
        <time>2020-07-15T19:10:58 02:00</time>
      </trkpt>
      <trkpt lat="45.07028" lon="4.64566">
        <ele>545</ele>
        <time>2020-07-15T19:11:03 02:00</time>
      </trkpt>
      <trkpt lat="45.0702" lon="4.64536">
        <ele>542</ele>
        <time>2020-07-15T19:11:08 02:00</time>
      </trkpt>
      <trkpt lat="45.07019" lon="4.64505">
        <ele>538</ele>
        <time>2020-07-15T19:11:13 02:00</time>
      </trkpt>
      <trkpt lat="45.07048" lon="4.6454">
        <ele>536</ele>
        <time>2020-07-15T19:11:18 02:00</time>
      </trkpt>
      <trkpt lat="45.07063" lon="4.64555">
        <ele>535</ele>
        <time>2020-07-15T19:11:23 02:00</time>
      </trkpt>
      <trkpt lat="45.0708" lon="4.64559">
        <ele>531</ele>
        <time>2020-07-15T19:11:28 02:00</time>
      </trkpt>
      <trkpt lat="45.07098" lon="4.64575">
        <ele>527</ele>
        <time>2020-07-15T19:11:33 02:00</time>
      </trkpt>
      <trkpt lat="45.07124" lon="4.64594">
        <ele>522</ele>
        <time>2020-07-15T19:11:38 02:00</time>
      </trkpt>
      <trkpt lat="45.07146" lon="4.64624">
        <ele>522</ele>
        <time>2020-07-15T19:11:43 02:00</time>
      </trkpt>
      <trkpt lat="45.07168" lon="4.64644">
        <ele>518</ele>
        <time>2020-07-15T19:11:48 02:00</time>
      </trkpt>
      <trkpt lat="45.07172" lon="4.6463">
        <ele>514</ele>
        <time>2020-07-15T19:11:53 02:00</time>
      </trkpt>
      <trkpt lat="45.07154" lon="4.6459">
        <ele>512</ele>
        <time>2020-07-15T19:11:58 02:00</time>
      </trkpt>
      <trkpt lat="45.07144" lon="4.64555">
        <ele>511</ele>
        <time>2020-07-15T19:12:03 02:00</time>
      </trkpt>
      <trkpt lat="45.07139" lon="4.64514">
        <ele>509</ele>
        <time>2020-07-15T19:12:08 02:00</time>
      </trkpt>
      <trkpt lat="45.07201" lon="4.64472">
        <ele>495</ele>
        <time>2020-07-15T19:12:13 02:00</time>
      </trkpt>
      <trkpt lat="45.07227" lon="4.6446">
        <ele>490</ele>
        <time>2020-07-15T19:12:18 02:00</time>
      </trkpt>
      <trkpt lat="45.07255" lon="4.64457">
        <ele>485</ele>
        <time>2020-07-15T19:12:23 02:00</time>
      </trkpt>
      <trkpt lat="45.07299" lon="4.64446">
        <ele>484</ele>
        <time>2020-07-15T19:12:28 02:00</time>
      </trkpt>
      <trkpt lat="45.07311" lon="4.64436">
        <ele>484</ele>
        <time>2020-07-15T19:12:33 02:00</time>
      </trkpt>
      <trkpt lat="45.07335" lon="4.64438">
        <ele>482</ele>
        <time>2020-07-15T19:12:38 02:00</time>
      </trkpt>
      <trkpt lat="45.07373" lon="4.6444">
        <ele>475</ele>
        <time>2020-07-15T19:12:43 02:00</time>
      </trkpt>
      <trkpt lat="45.07392" lon="4.64452">
        <ele>471</ele>
        <time>2020-07-15T19:12:48 02:00</time>
      </trkpt>
      <trkpt lat="45.07409" lon="4.64446">
        <ele>468</ele>
        <time>2020-07-15T19:12:53 02:00</time>
      </trkpt>
      <trkpt lat="45.07415" lon="4.64404">
        <ele>467</ele>
        <time>2020-07-15T19:12:58 02:00</time>
      </trkpt>
      <trkpt lat="45.07404" lon="4.64337">
        <ele>464</ele>
        <time>2020-07-15T19:13:03 02:00</time>
      </trkpt>
      <trkpt lat="45.07392" lon="4.64276">
        <ele>461</ele>
        <time>2020-07-15T19:13:08 02:00</time>
      </trkpt>
      <trkpt lat="45.07387" lon="4.64245">
        <ele>459</ele>
        <time>2020-07-15T19:13:13 02:00</time>
      </trkpt>
      <trkpt lat="45.07439" lon="4.64305">
        <ele>450</ele>
        <time>2020-07-15T19:13:18 02:00</time>
      </trkpt>
      <trkpt lat="45.07458" lon="4.64335">
        <ele>444</ele>
        <time>2020-07-15T19:13:23 02:00</time>
      </trkpt>
      <trkpt lat="45.07464" lon="4.64356">
        <ele>444</ele>
        <time>2020-07-15T19:13:28 02:00</time>
      </trkpt>
      <trkpt lat="45.07489" lon="4.64395">
        <ele>437</ele>
        <time>2020-07-15T19:13:33 02:00</time>
      </trkpt>
      <trkpt lat="45.07493" lon="4.64423">
        <ele>437</ele>
        <time>2020-07-15T19:13:38 02:00</time>
      </trkpt>
      <trkpt lat="45.07498" lon="4.6447">
        <ele>433</ele>
        <time>2020-07-15T19:13:43 02:00</time>
      </trkpt>
      <trkpt lat="45.07519" lon="4.64457">
        <ele>428</ele>
        <time>2020-07-15T19:13:48 02:00</time>
      </trkpt>
      <trkpt lat="45.07528" lon="4.64435">
        <ele>427</ele>
        <time>2020-07-15T19:13:53 02:00</time>
      </trkpt>
      <trkpt lat="45.07522" lon="4.64371">
        <ele>426</ele>
        <time>2020-07-15T19:13:58 02:00</time>
      </trkpt>
      <trkpt lat="45.07528" lon="4.64365">
        <ele>424</ele>
        <time>2020-07-15T19:14:03 02:00</time>
      </trkpt>
      <trkpt lat="45.07516" lon="4.64262">
        <ele>422</ele>
        <time>2020-07-15T19:14:08 02:00</time>
      </trkpt>
      <trkpt lat="45.0752" lon="4.642">
        <ele>419</ele>
        <time>2020-07-15T19:14:13 02:00</time>
      </trkpt>
      <trkpt lat="45.07561" lon="4.64147">
        <ele>415</ele>
        <time>2020-07-15T19:14:18 02:00</time>
      </trkpt>
      <trkpt lat="45.07573" lon="4.64109">
        <ele>415</ele>
        <time>2020-07-15T19:14:23 02:00</time>
      </trkpt>
      <trkpt lat="45.07578" lon="4.64015">
        <ele>417</ele>
        <time>2020-07-15T19:14:28 02:00</time>
      </trkpt>
      <trkpt lat="45.07563" lon="4.63952">
        <ele>419</ele>
        <time>2020-07-15T19:14:33 02:00</time>
      </trkpt>
      <trkpt lat="45.0762" lon="4.63965">
        <ele>418</ele>
        <time>2020-07-15T19:14:38 02:00</time>
      </trkpt>
      <trkpt lat="45.07613" lon="4.64041">
        <ele>416</ele>
        <time>2020-07-15T19:14:43 02:00</time>
      </trkpt>
      <trkpt lat="45.07617" lon="4.64097">
        <ele>415</ele>
        <time>2020-07-15T19:14:48 02:00</time>
      </trkpt>
      <trkpt lat="45.07601" lon="4.64176">
        <ele>413</ele>
        <time>2020-07-15T19:14:53 02:00</time>
      </trkpt>
      <trkpt lat="45.07587" lon="4.64242">
        <ele>413</ele>
        <time>2020-07-15T19:14:58 02:00</time>
      </trkpt>
      <trkpt lat="45.0759" lon="4.64296">
        <ele>413</ele>
        <time>2020-07-15T19:15:03 02:00</time>
      </trkpt>
      <trkpt lat="45.07627" lon="4.64292">
        <ele>414</ele>
        <time>2020-07-15T19:15:08 02:00</time>
      </trkpt>
      <trkpt lat="45.07705" lon="4.6427">
        <ele>421</ele>
        <time>2020-07-15T19:15:13 02:00</time>
      </trkpt>
      <trkpt lat="45.07814" lon="4.64283">
        <ele>432</ele>
        <time>2020-07-15T19:15:18 02:00</time>
      </trkpt>
      <trkpt lat="45.0782" lon="4.64284">
        <ele>432</ele>
        <time>2020-07-15T19:15:23 02:00</time>
      </trkpt>
      <trkpt lat="45.07818" lon="4.64265">
        <ele>433</ele>
        <time>2020-07-15T19:15:28 02:00</time>
      </trkpt>
      <trkpt lat="45.07807" lon="4.64235">
        <ele>434</ele>
        <time>2020-07-15T19:15:33 02:00</time>
      </trkpt>
      <trkpt lat="45.07804" lon="4.64191">
        <ele>438</ele>
        <time>2020-07-15T19:15:38 02:00</time>
      </trkpt>
      <trkpt lat="45.07802" lon="4.64167">
        <ele>440</ele>
        <time>2020-07-15T19:15:43 02:00</time>
      </trkpt>
      <trkpt lat="45.07796" lon="4.6406">
        <ele>447</ele>
        <time>2020-07-15T19:15:48 02:00</time>
      </trkpt>
      <trkpt lat="45.07804" lon="4.6401">
        <ele>452</ele>
        <time>2020-07-15T19:15:53 02:00</time>
      </trkpt>
      <trkpt lat="45.07806" lon="4.63957">
        <ele>455</ele>
        <time>2020-07-15T19:15:58 02:00</time>
      </trkpt>
      <trkpt lat="45.07809" lon="4.63919">
        <ele>456</ele>
        <time>2020-07-15T19:16:03 02:00</time>
      </trkpt>
      <trkpt lat="45.07814" lon="4.63884">
        <ele>456</ele>
        <time>2020-07-15T19:16:08 02:00</time>
      </trkpt>
      <trkpt lat="45.07867" lon="4.63912">
        <ele>467</ele>
        <time>2020-07-15T19:16:13 02:00</time>
      </trkpt>
      <trkpt lat="45.07917" lon="4.63951">
        <ele>473</ele>
        <time>2020-07-15T19:16:18 02:00</time>
      </trkpt>
      <trkpt lat="45.07936" lon="4.63973">
        <ele>474</ele>
        <time>2020-07-15T19:16:23 02:00</time>
      </trkpt>
      <trkpt lat="45.07957" lon="4.63986">
        <ele>476</ele>
        <time>2020-07-15T19:16:28 02:00</time>
      </trkpt>
      <trkpt lat="45.07991" lon="4.64003">
        <ele>479</ele>
        <time>2020-07-15T19:16:33 02:00</time>
      </trkpt>
      <trkpt lat="45.08005" lon="4.64039">
        <ele>478</ele>
        <time>2020-07-15T19:16:38 02:00</time>
      </trkpt>
      <trkpt lat="45.08027" lon="4.64056">
        <ele>478</ele>
        <time>2020-07-15T19:16:43 02:00</time>
      </trkpt>
      <trkpt lat="45.08048" lon="4.64039">
        <ele>481</ele>
        <time>2020-07-15T19:16:48 02:00</time>
      </trkpt>
      <trkpt lat="45.08061" lon="4.64021">
        <ele>483</ele>
        <time>2020-07-15T19:16:53 02:00</time>
      </trkpt>
      <trkpt lat="45.08077" lon="4.64019">
        <ele>484</ele>
        <time>2020-07-15T19:16:58 02:00</time>
      </trkpt>
      <trkpt lat="45.08116" lon="4.64021">
        <ele>488</ele>
        <time>2020-07-15T19:17:03 02:00</time>
      </trkpt>
      <trkpt lat="45.08131" lon="4.64011">
        <ele>490</ele>
        <time>2020-07-15T19:17:08 02:00</time>
      </trkpt>
      <trkpt lat="45.08146" lon="4.6397">
        <ele>491</ele>
        <time>2020-07-15T19:17:13 02:00</time>
      </trkpt>
      <trkpt lat="45.08155" lon="4.63946">
        <ele>491</ele>
        <time>2020-07-15T19:17:18 02:00</time>
      </trkpt>
      <trkpt lat="45.08166" lon="4.63979">
        <ele>494</ele>
        <time>2020-07-15T19:17:23 02:00</time>
      </trkpt>
      <trkpt lat="45.08167" lon="4.64007">
        <ele>495</ele>
        <time>2020-07-15T19:17:28 02:00</time>
      </trkpt>
      <trkpt lat="45.08175" lon="4.64028">
        <ele>496</ele>
        <time>2020-07-15T19:17:33 02:00</time>
      </trkpt>
      <trkpt lat="45.0821" lon="4.64044">
        <ele>501</ele>
        <time>2020-07-15T19:17:38 02:00</time>
      </trkpt>
      <trkpt lat="45.08215" lon="4.64095">
        <ele>504</ele>
        <time>2020-07-15T19:17:43 02:00</time>
      </trkpt>
      <trkpt lat="45.08223" lon="4.64146">
        <ele>507</ele>
        <time>2020-07-15T19:17:48 02:00</time>
      </trkpt>
      <trkpt lat="45.08233" lon="4.64169">
        <ele>509</ele>
        <time>2020-07-15T19:17:53 02:00</time>
      </trkpt>
      <trkpt lat="45.08244" lon="4.64174">
        <ele>512</ele>
        <time>2020-07-15T19:17:58 02:00</time>
      </trkpt>
      <trkpt lat="45.08261" lon="4.64141">
        <ele>515</ele>
        <time>2020-07-15T19:18:03 02:00</time>
      </trkpt>
      <trkpt lat="45.08282" lon="4.64108">
        <ele>517</ele>
        <time>2020-07-15T19:18:08 02:00</time>
      </trkpt>
      <trkpt lat="45.0832" lon="4.64163">
        <ele>526</ele>
        <time>2020-07-15T19:18:13 02:00</time>
      </trkpt>
      <trkpt lat="45.084" lon="4.64094">
        <ele>532</ele>
        <time>2020-07-15T19:18:18 02:00</time>
      </trkpt>
      <trkpt lat="45.08418" lon="4.64094">
        <ele>534</ele>
        <time>2020-07-15T19:18:23 02:00</time>
      </trkpt>
      <trkpt lat="45.08405" lon="4.64116">
        <ele>536</ele>
        <time>2020-07-15T19:18:28 02:00</time>
      </trkpt>
      <trkpt lat="45.08399" lon="4.64139">
        <ele>537</ele>
        <time>2020-07-15T19:18:33 02:00</time>
      </trkpt>
      <trkpt lat="45.08442" lon="4.64161">
        <ele>545</ele>
        <time>2020-07-15T19:18:38 02:00</time>
      </trkpt>
      <trkpt lat="45.0845" lon="4.64178">
        <ele>546</ele>
        <time>2020-07-15T19:18:43 02:00</time>
      </trkpt>
      <trkpt lat="45.08455" lon="4.64198">
        <ele>547</ele>
        <time>2020-07-15T19:18:48 02:00</time>
      </trkpt>
      <trkpt lat="45.0846" lon="4.64216">
        <ele>548</ele>
        <time>2020-07-15T19:18:53 02:00</time>
      </trkpt>
      <trkpt lat="45.08471" lon="4.6424">
        <ele>550</ele>
        <time>2020-07-15T19:18:58 02:00</time>
      </trkpt>
      <trkpt lat="45.0848" lon="4.64258">
        <ele>551</ele>
        <time>2020-07-15T19:19:03 02:00</time>
      </trkpt>
      <trkpt lat="45.08487" lon="4.6427">
        <ele>551</ele>
        <time>2020-07-15T19:19:08 02:00</time>
      </trkpt>
      <trkpt lat="45.08532" lon="4.64278">
        <ele>560</ele>
        <time>2020-07-15T19:19:13 02:00</time>
      </trkpt>
      <trkpt lat="45.08542" lon="4.64247">
        <ele>563</ele>
        <time>2020-07-15T19:19:18 02:00</time>
      </trkpt>
      <trkpt lat="45.08548" lon="4.64227">
        <ele>564</ele>
        <time>2020-07-15T19:19:23 02:00</time>
      </trkpt>
      <trkpt lat="45.08581" lon="4.6423">
        <ele>571</ele>
        <time>2020-07-15T19:19:28 02:00</time>
      </trkpt>
      <trkpt lat="45.08617" lon="4.64176">
        <ele>574</ele>
        <time>2020-07-15T19:19:33 02:00</time>
      </trkpt>
      <trkpt lat="45.08623" lon="4.64215">
        <ele>578</ele>
        <time>2020-07-15T19:19:38 02:00</time>
      </trkpt>
      <trkpt lat="45.08634" lon="4.64247">
        <ele>582</ele>
        <time>2020-07-15T19:19:43 02:00</time>
      </trkpt>
      <trkpt lat="45.08664" lon="4.64264">
        <ele>590</ele>
        <time>2020-07-15T19:19:48 02:00</time>
      </trkpt>
      <trkpt lat="45.08657" lon="4.643">
        <ele>591</ele>
        <time>2020-07-15T19:19:53 02:00</time>
      </trkpt>
      <trkpt lat="45.08676" lon="4.64337">
        <ele>597</ele>
        <time>2020-07-15T19:19:58 02:00</time>
      </trkpt>
      <trkpt lat="45.0871" lon="4.6435">
        <ele>601</ele>
        <time>2020-07-15T19:20:03 02:00</time>
      </trkpt>
      <trkpt lat="45.08776" lon="4.64365">
        <ele>607</ele>
        <time>2020-07-15T19:20:08 02:00</time>
      </trkpt>
      <trkpt lat="45.08848" lon="4.64365">
        <ele>611</ele>
        <time>2020-07-15T19:20:13 02:00</time>
      </trkpt>
      <trkpt lat="45.08887" lon="4.64384">
        <ele>613</ele>
        <time>2020-07-15T19:20:18 02:00</time>
      </trkpt>
      <trkpt lat="45.08913" lon="4.6441">
        <ele>616</ele>
        <time>2020-07-15T19:20:23 02:00</time>
      </trkpt>
      <trkpt lat="45.0894" lon="4.64416">
        <ele>619</ele>
        <time>2020-07-15T19:20:28 02:00</time>
      </trkpt>
      <trkpt lat="45.08983" lon="4.64414">
        <ele>623</ele>
        <time>2020-07-15T19:20:33 02:00</time>
      </trkpt>
      <trkpt lat="45.0911" lon="4.64472">
        <ele>634</ele>
        <time>2020-07-15T19:20:38 02:00</time>
      </trkpt>
      <trkpt lat="45.09167" lon="4.64511">
        <ele>636</ele>
        <time>2020-07-15T19:20:43 02:00</time>
      </trkpt>
      <trkpt lat="45.09205" lon="4.64515">
        <ele>633</ele>
        <time>2020-07-15T19:20:48 02:00</time>
      </trkpt>
      <trkpt lat="45.0924" lon="4.64539">
        <ele>635</ele>
        <time>2020-07-15T19:20:53 02:00</time>
      </trkpt>
      <trkpt lat="45.09308" lon="4.64543">
        <ele>632</ele>
        <time>2020-07-15T19:20:58 02:00</time>
      </trkpt>
      <trkpt lat="45.09343" lon="4.64534">
        <ele>629</ele>
        <time>2020-07-15T19:21:03 02:00</time>
      </trkpt>
      <trkpt lat="45.09366" lon="4.6468">
        <ele>642</ele>
        <time>2020-07-15T19:21:08 02:00</time>
      </trkpt>
      <trkpt lat="45.09376" lon="4.64768">
        <ele>645</ele>
        <time>2020-07-15T19:21:13 02:00</time>
      </trkpt>
      <trkpt lat="45.09373" lon="4.6485">
        <ele>644</ele>
        <time>2020-07-15T19:21:18 02:00</time>
      </trkpt>
      <trkpt lat="45.09376" lon="4.64972">
        <ele>637</ele>
        <time>2020-07-15T19:21:23 02:00</time>
      </trkpt>
      <trkpt lat="45.09408" lon="4.64963">
        <ele>635</ele>
        <time>2020-07-15T19:21:28 02:00</time>
      </trkpt>
      <trkpt lat="45.09426" lon="4.64998">
        <ele>631</ele>
        <time>2020-07-15T19:21:33 02:00</time>
      </trkpt>
      <trkpt lat="45.09423" lon="4.65036">
        <ele>628</ele>
        <time>2020-07-15T19:21:38 02:00</time>
      </trkpt>
      <trkpt lat="45.09393" lon="4.65086">
        <ele>626</ele>
        <time>2020-07-15T19:21:43 02:00</time>
      </trkpt>
      <trkpt lat="45.09399" lon="4.65202">
        <ele>619</ele>
        <time>2020-07-15T19:21:48 02:00</time>
      </trkpt>
    </trkseg>
  </trk>
  <trk>
    <name><![CDATA[07 - St Félicien : Le tour de Rochefort en Ardèche]]></name>
    <trkseg>
      <trkpt lat="45.09389" lon="4.65209">
        <ele>619</ele>
        <time>2019-10-12T15:43:22 02:00</time>
      </trkpt>
      <trkpt lat="45.09389" lon="4.65209">
        <ele>619</ele>
        <time>2019-10-12T15:43:22 02:00</time>
      </trkpt>
      <trkpt lat="45.09335" lon="4.65233">
        <ele>619</ele>
        <time>2019-10-12T15:43:27 02:00</time>
      </trkpt>
      <trkpt lat="45.09213" lon="4.652">
        <ele>616</ele>
        <time>2019-10-12T15:43:32 02:00</time>
      </trkpt>
      <trkpt lat="45.09174" lon="4.65281">
        <ele>603</ele>
        <time>2019-10-12T15:43:37 02:00</time>
      </trkpt>
      <trkpt lat="45.09186" lon="4.65488">
        <ele>580</ele>
        <time>2019-10-12T15:43:42 02:00</time>
      </trkpt>
      <trkpt lat="45.09134" lon="4.65591">
        <ele>570</ele>
        <time>2019-10-12T15:43:47 02:00</time>
      </trkpt>
      <trkpt lat="45.09051" lon="4.65695">
        <ele>563</ele>
        <time>2019-10-12T15:43:52 02:00</time>
      </trkpt>
      <trkpt lat="45.09038" lon="4.65751">
        <ele>560</ele>
        <time>2019-10-12T15:43:57 02:00</time>
      </trkpt>
      <trkpt lat="45.09012" lon="4.65793">
        <ele>559</ele>
        <time>2019-10-12T15:44:02 02:00</time>
      </trkpt>
      <trkpt lat="45.08957" lon="4.65846">
        <ele>556</ele>
        <time>2019-10-12T15:44:07 02:00</time>
      </trkpt>
      <trkpt lat="45.08894" lon="4.65921">
        <ele>554</ele>
        <time>2019-10-12T15:44:12 02:00</time>
      </trkpt>
      <trkpt lat="45.08845" lon="4.65935">
        <ele>551</ele>
        <time>2019-10-12T15:44:17 02:00</time>
      </trkpt>
      <trkpt lat="45.08792" lon="4.6593">
        <ele>554</ele>
        <time>2019-10-12T15:44:22 02:00</time>
      </trkpt>
      <trkpt lat="45.08752" lon="4.65929">
        <ele>557</ele>
        <time>2019-10-12T15:44:27 02:00</time>
      </trkpt>
      <trkpt lat="45.08722" lon="4.65948">
        <ele>561</ele>
        <time>2019-10-12T15:44:32 02:00</time>
      </trkpt>
      <trkpt lat="45.08692" lon="4.65955">
        <ele>563</ele>
        <time>2019-10-12T15:44:37 02:00</time>
      </trkpt>
      <trkpt lat="45.08613" lon="4.65951">
        <ele>560</ele>
        <time>2019-10-12T15:44:42 02:00</time>
      </trkpt>
      <trkpt lat="45.08565" lon="4.65908">
        <ele>559</ele>
        <time>2019-10-12T15:44:47 02:00</time>
      </trkpt>
      <trkpt lat="45.08528" lon="4.65873">
        <ele>557</ele>
        <time>2019-10-12T15:44:52 02:00</time>
      </trkpt>
      <trkpt lat="45.08483" lon="4.65868">
        <ele>552</ele>
        <time>2019-10-12T15:44:57 02:00</time>
      </trkpt>
      <trkpt lat="45.08456" lon="4.65904">
        <ele>545</ele>
        <time>2019-10-12T15:45:02 02:00</time>
      </trkpt>
      <trkpt lat="45.08428" lon="4.65943">
        <ele>537</ele>
        <time>2019-10-12T15:45:07 02:00</time>
      </trkpt>
      <trkpt lat="45.0838" lon="4.65943">
        <ele>530</ele>
        <time>2019-10-12T15:45:12 02:00</time>
      </trkpt>
      <trkpt lat="45.08328" lon="4.6583">
        <ele>529</ele>
        <time>2019-10-12T15:45:17 02:00</time>
      </trkpt>
      <trkpt lat="45.08284" lon="4.6571">
        <ele>532</ele>
        <time>2019-10-12T15:45:22 02:00</time>
      </trkpt>
      <trkpt lat="45.08262" lon="4.6568">
        <ele>532</ele>
        <time>2019-10-12T15:45:27 02:00</time>
      </trkpt>
      <trkpt lat="45.08206" lon="4.65657">
        <ele>529</ele>
        <time>2019-10-12T15:45:32 02:00</time>
      </trkpt>
      <trkpt lat="45.08118" lon="4.65613">
        <ele>531</ele>
        <time>2019-10-12T15:45:37 02:00</time>
      </trkpt>
      <trkpt lat="45.08119" lon="4.65575">
        <ele>531</ele>
        <time>2019-10-12T15:45:42 02:00</time>
      </trkpt>
      <trkpt lat="45.08111" lon="4.65551">
        <ele>531</ele>
        <time>2019-10-12T15:45:47 02:00</time>
      </trkpt>
      <trkpt lat="45.08107" lon="4.65475">
        <ele>530</ele>
        <time>2019-10-12T15:45:52 02:00</time>
      </trkpt>
      <trkpt lat="45.08104" lon="4.6538">
        <ele>527</ele>
        <time>2019-10-12T15:45:57 02:00</time>
      </trkpt>
      <trkpt lat="45.08074" lon="4.65325">
        <ele>525</ele>
        <time>2019-10-12T15:46:02 02:00</time>
      </trkpt>
      <trkpt lat="45.08034" lon="4.65269">
        <ele>520</ele>
        <time>2019-10-12T15:46:07 02:00</time>
      </trkpt>
      <trkpt lat="45.07995" lon="4.6514">
        <ele>512</ele>
        <time>2019-10-12T15:46:12 02:00</time>
      </trkpt>
      <trkpt lat="45.07931" lon="4.64969">
        <ele>496</ele>
        <time>2019-10-12T15:46:17 02:00</time>
      </trkpt>
      <trkpt lat="45.07914" lon="4.64931">
        <ele>493</ele>
        <time>2019-10-12T15:46:22 02:00</time>
      </trkpt>
      <trkpt lat="45.07883" lon="4.64908">
        <ele>488</ele>
        <time>2019-10-12T15:46:27 02:00</time>
      </trkpt>
      <trkpt lat="45.07836" lon="4.64851">
        <ele>479</ele>
        <time>2019-10-12T15:46:32 02:00</time>
      </trkpt>
      <trkpt lat="45.0782" lon="4.6481">
        <ele>470</ele>
        <time>2019-10-12T15:46:37 02:00</time>
      </trkpt>
      <trkpt lat="45.07825" lon="4.64758">
        <ele>466</ele>
        <time>2019-10-12T15:46:42 02:00</time>
      </trkpt>
      <trkpt lat="45.07798" lon="4.64713">
        <ele>457</ele>
        <time>2019-10-12T15:46:47 02:00</time>
      </trkpt>
      <trkpt lat="45.07786" lon="4.64702">
        <ele>455</ele>
        <time>2019-10-12T15:46:52 02:00</time>
      </trkpt>
      <trkpt lat="45.07785" lon="4.64645">
        <ele>452</ele>
        <time>2019-10-12T15:46:57 02:00</time>
      </trkpt>
      <trkpt lat="45.07792" lon="4.64574">
        <ele>447</ele>
        <time>2019-10-12T15:47:02 02:00</time>
      </trkpt>
      <trkpt lat="45.07801" lon="4.64526">
        <ele>442</ele>
        <time>2019-10-12T15:47:07 02:00</time>
      </trkpt>
      <trkpt lat="45.07789" lon="4.64497">
        <ele>440</ele>
        <time>2019-10-12T15:47:12 02:00</time>
      </trkpt>
      <trkpt lat="45.07768" lon="4.64476">
        <ele>438</ele>
        <time>2019-10-12T15:47:17 02:00</time>
      </trkpt>
      <trkpt lat="45.07759" lon="4.64453">
        <ele>435</ele>
        <time>2019-10-12T15:47:22 02:00</time>
      </trkpt>
      <trkpt lat="45.07754" lon="4.64416">
        <ele>431</ele>
        <time>2019-10-12T15:47:27 02:00</time>
      </trkpt>
      <trkpt lat="45.07781" lon="4.64402">
        <ele>431</ele>
        <time>2019-10-12T15:47:32 02:00</time>
      </trkpt>
      <trkpt lat="45.0781" lon="4.64414">
        <ele>432</ele>
        <time>2019-10-12T15:47:37 02:00</time>
      </trkpt>
      <trkpt lat="45.07823" lon="4.64407">
        <ele>432</ele>
        <time>2019-10-12T15:47:42 02:00</time>
      </trkpt>
      <trkpt lat="45.07802" lon="4.64354">
        <ele>429</ele>
        <time>2019-10-12T15:47:47 02:00</time>
      </trkpt>
      <trkpt lat="45.07761" lon="4.64303">
        <ele>425</ele>
        <time>2019-10-12T15:47:52 02:00</time>
      </trkpt>
      <trkpt lat="45.07734" lon="4.64285">
        <ele>423</ele>
        <time>2019-10-12T15:47:57 02:00</time>
      </trkpt>
      <trkpt lat="45.07683" lon="4.64252">
        <ele>419</ele>
        <time>2019-10-12T15:48:02 02:00</time>
      </trkpt>
      <trkpt lat="45.07583" lon="4.64252">
        <ele>413</ele>
        <time>2019-10-12T15:48:07 02:00</time>
      </trkpt>
      <trkpt lat="45.07589" lon="4.64179">
        <ele>413</ele>
        <time>2019-10-12T15:48:12 02:00</time>
      </trkpt>
      <trkpt lat="45.07604" lon="4.63986">
        <ele>417</ele>
        <time>2019-10-12T15:48:17 02:00</time>
      </trkpt>
      <trkpt lat="45.07586" lon="4.63956">
        <ele>417</ele>
        <time>2019-10-12T15:48:22 02:00</time>
      </trkpt>
      <trkpt lat="45.07568" lon="4.63956">
        <ele>418</ele>
        <time>2019-10-12T15:48:27 02:00</time>
      </trkpt>
      <trkpt lat="45.07542" lon="4.63892">
        <ele>422</ele>
        <time>2019-10-12T15:48:32 02:00</time>
      </trkpt>
      <trkpt lat="45.07529" lon="4.6382">
        <ele>424</ele>
        <time>2019-10-12T15:48:37 02:00</time>
      </trkpt>
      <trkpt lat="45.07512" lon="4.63913">
        <ele>425</ele>
        <time>2019-10-12T15:48:42 02:00</time>
      </trkpt>
      <trkpt lat="45.07469" lon="4.63737">
        <ele>435</ele>
        <time>2019-10-12T15:48:47 02:00</time>
      </trkpt>
      <trkpt lat="45.07442" lon="4.63608">
        <ele>451</ele>
        <time>2019-10-12T15:48:52 02:00</time>
      </trkpt>
      <trkpt lat="45.07442" lon="4.63586">
        <ele>451</ele>
        <time>2019-10-12T15:48:57 02:00</time>
      </trkpt>
      <trkpt lat="45.07387" lon="4.63393">
        <ele>460</ele>
        <time>2019-10-12T15:49:02 02:00</time>
      </trkpt>
      <trkpt lat="45.07369" lon="4.63295">
        <ele>467</ele>
        <time>2019-10-12T15:49:07 02:00</time>
      </trkpt>
      <trkpt lat="45.074" lon="4.63146">
        <ele>461</ele>
        <time>2019-10-12T15:49:12 02:00</time>
      </trkpt>
      <trkpt lat="45.07448" lon="4.63037">
        <ele>459</ele>
        <time>2019-10-12T15:49:17 02:00</time>
      </trkpt>
      <trkpt lat="45.0746" lon="4.62999">
        <ele>462</ele>
        <time>2019-10-12T15:49:22 02:00</time>
      </trkpt>
      <trkpt lat="45.07554" lon="4.62986">
        <ele>457</ele>
        <time>2019-10-12T15:49:27 02:00</time>
      </trkpt>
      <trkpt lat="45.07593" lon="4.63016">
        <ele>450</ele>
        <time>2019-10-12T15:49:32 02:00</time>
      </trkpt>
      <trkpt lat="45.07669" lon="4.62908">
        <ele>462</ele>
        <time>2019-10-12T15:49:37 02:00</time>
      </trkpt>
      <trkpt lat="45.0763" lon="4.6287">
        <ele>468</ele>
        <time>2019-10-12T15:49:42 02:00</time>
      </trkpt>
      <trkpt lat="45.07578" lon="4.62724">
        <ele>465</ele>
        <time>2019-10-12T15:49:47 02:00</time>
      </trkpt>
      <trkpt lat="45.0757" lon="4.62689">
        <ele>463</ele>
        <time>2019-10-12T15:49:52 02:00</time>
      </trkpt>
      <trkpt lat="45.07544" lon="4.62717">
        <ele>470</ele>
        <time>2019-10-12T15:49:57 02:00</time>
      </trkpt>
      <trkpt lat="45.07505" lon="4.62704">
        <ele>477</ele>
        <time>2019-10-12T15:50:02 02:00</time>
      </trkpt>
      <trkpt lat="45.07453" lon="4.62663">
        <ele>492</ele>
        <time>2019-10-12T15:50:07 02:00</time>
      </trkpt>
      <trkpt lat="45.07435" lon="4.62575">
        <ele>501</ele>
        <time>2019-10-12T15:50:12 02:00</time>
      </trkpt>
      <trkpt lat="45.07456" lon="4.62489">
        <ele>493</ele>
        <time>2019-10-12T15:50:17 02:00</time>
      </trkpt>
      <trkpt lat="45.07493" lon="4.62406">
        <ele>477</ele>
        <time>2019-10-12T15:50:22 02:00</time>
      </trkpt>
      <trkpt lat="45.07462" lon="4.62296">
        <ele>486</ele>
        <time>2019-10-12T15:50:27 02:00</time>
      </trkpt>
      <trkpt lat="45.07447" lon="4.62264">
        <ele>491</ele>
        <time>2019-10-12T15:50:32 02:00</time>
      </trkpt>
      <trkpt lat="45.07474" lon="4.62236">
        <ele>484</ele>
        <time>2019-10-12T15:50:37 02:00</time>
      </trkpt>
      <trkpt lat="45.07493" lon="4.62196">
        <ele>485</ele>
        <time>2019-10-12T15:50:42 02:00</time>
      </trkpt>
      <trkpt lat="45.07536" lon="4.62024">
        <ele>507</ele>
        <time>2019-10-12T15:50:47 02:00</time>
      </trkpt>
      <trkpt lat="45.07572" lon="4.61917">
        <ele>519</ele>
        <time>2019-10-12T15:50:52 02:00</time>
      </trkpt>
      <trkpt lat="45.07639" lon="4.61908">
        <ele>514</ele>
        <time>2019-10-12T15:50:57 02:00</time>
      </trkpt>
      <trkpt lat="45.07699" lon="4.61951">
        <ele>499</ele>
        <time>2019-10-12T15:51:02 02:00</time>
      </trkpt>
      <trkpt lat="45.07708" lon="4.61956">
        <ele>496</ele>
        <time>2019-10-12T15:51:07 02:00</time>
      </trkpt>
      <trkpt lat="45.07744" lon="4.61873">
        <ele>493</ele>
        <time>2019-10-12T15:51:12 02:00</time>
      </trkpt>
      <trkpt lat="45.07767" lon="4.61906">
        <ele>485</ele>
        <time>2019-10-12T15:51:17 02:00</time>
      </trkpt>
      <trkpt lat="45.07775" lon="4.61981">
        <ele>473</ele>
        <time>2019-10-12T15:51:22 02:00</time>
      </trkpt>
      <trkpt lat="45.07818" lon="4.61921">
        <ele>466</ele>
        <time>2019-10-12T15:51:27 02:00</time>
      </trkpt>
      <trkpt lat="45.07815" lon="4.61767">
        <ele>467</ele>
        <time>2019-10-12T15:51:32 02:00</time>
      </trkpt>
      <trkpt lat="45.07848" lon="4.61733">
        <ele>463</ele>
        <time>2019-10-12T15:51:37 02:00</time>
      </trkpt>
      <trkpt lat="45.07854" lon="4.61668">
        <ele>469</ele>
        <time>2019-10-12T15:51:42 02:00</time>
      </trkpt>
      <trkpt lat="45.07902" lon="4.61608">
        <ele>471</ele>
        <time>2019-10-12T15:51:47 02:00</time>
      </trkpt>
      <trkpt lat="45.0783" lon="4.61509">
        <ele>494</ele>
        <time>2019-10-12T15:51:52 02:00</time>
      </trkpt>
      <trkpt lat="45.07736" lon="4.61325">
        <ele>511</ele>
        <time>2019-10-12T15:51:57 02:00</time>
      </trkpt>
      <trkpt lat="45.07709" lon="4.6127">
        <ele>514</ele>
        <time>2019-10-12T15:52:02 02:00</time>
      </trkpt>
      <trkpt lat="45.07724" lon="4.61207">
        <ele>518</ele>
        <time>2019-10-12T15:52:07 02:00</time>
      </trkpt>
      <trkpt lat="45.07732" lon="4.61148">
        <ele>524</ele>
        <time>2019-10-12T15:52:12 02:00</time>
      </trkpt>
      <trkpt lat="45.07718" lon="4.61129">
        <ele>528</ele>
        <time>2019-10-12T15:52:17 02:00</time>
      </trkpt>
      <trkpt lat="45.07654" lon="4.61174">
        <ele>527</ele>
        <time>2019-10-12T15:52:22 02:00</time>
      </trkpt>
      <trkpt lat="45.07606" lon="4.61148">
        <ele>533</ele>
        <time>2019-10-12T15:52:27 02:00</time>
      </trkpt>
      <trkpt lat="45.07613" lon="4.61138">
        <ele>534</ele>
        <time>2019-10-12T15:52:32 02:00</time>
      </trkpt>
      <trkpt lat="45.07641" lon="4.61139">
        <ele>533</ele>
        <time>2019-10-12T15:52:37 02:00</time>
      </trkpt>
      <trkpt lat="45.07688" lon="4.6106">
        <ele>541</ele>
        <time>2019-10-12T15:52:42 02:00</time>
      </trkpt>
      <trkpt lat="45.07672" lon="4.61059">
        <ele>543</ele>
        <time>2019-10-12T15:52:47 02:00</time>
      </trkpt>
      <trkpt lat="45.07673" lon="4.61032">
        <ele>547</ele>
        <time>2019-10-12T15:52:52 02:00</time>
      </trkpt>
      <trkpt lat="45.07658" lon="4.60971">
        <ele>556</ele>
        <time>2019-10-12T15:52:57 02:00</time>
      </trkpt>
      <trkpt lat="45.07527" lon="4.60728">
        <ele>589</ele>
        <time>2019-10-12T15:53:02 02:00</time>
      </trkpt>
      <trkpt lat="45.07447" lon="4.60677">
        <ele>596</ele>
        <time>2019-10-12T15:53:07 02:00</time>
      </trkpt>
      <trkpt lat="45.07366" lon="4.60642">
        <ele>600</ele>
        <time>2019-10-12T15:53:12 02:00</time>
      </trkpt>
      <trkpt lat="45.07296" lon="4.60604">
        <ele>606</ele>
        <time>2019-10-12T15:53:17 02:00</time>
      </trkpt>
      <trkpt lat="45.07258" lon="4.6058">
        <ele>610</ele>
        <time>2019-10-12T15:53:22 02:00</time>
      </trkpt>
      <trkpt lat="45.07221" lon="4.60542">
        <ele>617</ele>
        <time>2019-10-12T15:53:27 02:00</time>
      </trkpt>
      <trkpt lat="45.07198" lon="4.60622">
        <ele>611</ele>
        <time>2019-10-12T15:53:32 02:00</time>
      </trkpt>
      <trkpt lat="45.07155" lon="4.60707">
        <ele>607</ele>
        <time>2019-10-12T15:53:37 02:00</time>
      </trkpt>
      <trkpt lat="45.07104" lon="4.60776">
        <ele>608</ele>
        <time>2019-10-12T15:53:42 02:00</time>
      </trkpt>
      <trkpt lat="45.0713" lon="4.60946">
        <ele>606</ele>
        <time>2019-10-12T15:53:47 02:00</time>
      </trkpt>
      <trkpt lat="45.07133" lon="4.61034">
        <ele>607</ele>
        <time>2019-10-12T15:53:52 02:00</time>
      </trkpt>
      <trkpt lat="45.07142" lon="4.6106">
        <ele>607</ele>
        <time>2019-10-12T15:53:57 02:00</time>
      </trkpt>
      <trkpt lat="45.07155" lon="4.61071">
        <ele>603</ele>
        <time>2019-10-12T15:54:02 02:00</time>
      </trkpt>
      <trkpt lat="45.07166" lon="4.61086">
        <ele>601</ele>
        <time>2019-10-12T15:54:07 02:00</time>
      </trkpt>
      <trkpt lat="45.07155" lon="4.61108">
        <ele>605</ele>
        <time>2019-10-12T15:54:12 02:00</time>
      </trkpt>
      <trkpt lat="45.07144" lon="4.61124">
        <ele>609</ele>
        <time>2019-10-12T15:54:17 02:00</time>
      </trkpt>
      <trkpt lat="45.07127" lon="4.61123">
        <ele>614</ele>
        <time>2019-10-12T15:54:22 02:00</time>
      </trkpt>
      <trkpt lat="45.07105" lon="4.61102">
        <ele>619</ele>
        <time>2019-10-12T15:54:27 02:00</time>
      </trkpt>
      <trkpt lat="45.07072" lon="4.61068">
        <ele>629</ele>
        <time>2019-10-12T15:54:32 02:00</time>
      </trkpt>
      <trkpt lat="45.07007" lon="4.60928">
        <ele>644</ele>
        <time>2019-10-12T15:54:37 02:00</time>
      </trkpt>
      <trkpt lat="45.06999" lon="4.60956">
        <ele>649</ele>
        <time>2019-10-12T15:54:42 02:00</time>
      </trkpt>
      <trkpt lat="45.06988" lon="4.61028">
        <ele>661</ele>
        <time>2019-10-12T15:54:47 02:00</time>
      </trkpt>
      <trkpt lat="45.06965" lon="4.61097">
        <ele>678</ele>
        <time>2019-10-12T15:54:52 02:00</time>
      </trkpt>
      <trkpt lat="45.0696" lon="4.61124">
        <ele>681</ele>
        <time>2019-10-12T15:54:57 02:00</time>
      </trkpt>
      <trkpt lat="45.06909" lon="4.61008">
        <ele>698</ele>
        <time>2019-10-12T15:55:02 02:00</time>
      </trkpt>
      <trkpt lat="45.06845" lon="4.60887">
        <ele>708</ele>
        <time>2019-10-12T15:55:07 02:00</time>
      </trkpt>
      <trkpt lat="45.06817" lon="4.60866">
        <ele>712</ele>
        <time>2019-10-12T15:55:12 02:00</time>
      </trkpt>
      <trkpt lat="45.06727" lon="4.60831">
        <ele>727</ele>
        <time>2019-10-12T15:55:17 02:00</time>
      </trkpt>
      <trkpt lat="45.067" lon="4.60816">
        <ele>734</ele>
        <time>2019-10-12T15:55:22 02:00</time>
      </trkpt>
      <trkpt lat="45.06679" lon="4.60795">
        <ele>739</ele>
        <time>2019-10-12T15:55:27 02:00</time>
      </trkpt>
      <trkpt lat="45.06678" lon="4.60759">
        <ele>738</ele>
        <time>2019-10-12T15:55:32 02:00</time>
      </trkpt>
      <trkpt lat="45.06671" lon="4.60713">
        <ele>741</ele>
        <time>2019-10-12T15:55:37 02:00</time>
      </trkpt>
      <trkpt lat="45.06611" lon="4.60608">
        <ele>760</ele>
        <time>2019-10-12T15:55:42 02:00</time>
      </trkpt>
      <trkpt lat="45.06599" lon="4.60527">
        <ele>767</ele>
        <time>2019-10-12T15:55:47 02:00</time>
      </trkpt>
      <trkpt lat="45.0659" lon="4.60475">
        <ele>776</ele>
        <time>2019-10-12T15:55:52 02:00</time>
      </trkpt>
      <trkpt lat="45.06623" lon="4.60364">
        <ele>785</ele>
        <time>2019-10-12T15:55:57 02:00</time>
      </trkpt>
      <trkpt lat="45.0662" lon="4.60304">
        <ele>798</ele>
        <time>2019-10-12T15:56:02 02:00</time>
      </trkpt>
      <trkpt lat="45.0666" lon="4.60261">
        <ele>798</ele>
        <time>2019-10-12T15:56:07 02:00</time>
      </trkpt>
      <trkpt lat="45.06688" lon="4.60204">
        <ele>800</ele>
        <time>2019-10-12T15:56:12 02:00</time>
      </trkpt>
      <trkpt lat="45.06714" lon="4.60141">
        <ele>801</ele>
        <time>2019-10-12T15:56:17 02:00</time>
      </trkpt>
      <trkpt lat="45.06722" lon="4.6005">
        <ele>805</ele>
        <time>2019-10-12T15:56:22 02:00</time>
      </trkpt>
      <trkpt lat="45.06721" lon="4.59959">
        <ele>814</ele>
        <time>2019-10-12T15:56:27 02:00</time>
      </trkpt>
      <trkpt lat="45.06736" lon="4.59879">
        <ele>821</ele>
        <time>2019-10-12T15:56:32 02:00</time>
      </trkpt>
      <trkpt lat="45.0682" lon="4.59742">
        <ele>820</ele>
        <time>2019-10-12T15:56:37 02:00</time>
      </trkpt>
      <trkpt lat="45.06904" lon="4.59712">
        <ele>802</ele>
        <time>2019-10-12T15:56:42 02:00</time>
      </trkpt>
      <trkpt lat="45.06908" lon="4.5967">
        <ele>806</ele>
        <time>2019-10-12T15:56:47 02:00</time>
      </trkpt>
      <trkpt lat="45.06907" lon="4.5961">
        <ele>803</ele>
        <time>2019-10-12T15:56:52 02:00</time>
      </trkpt>
      <trkpt lat="45.06895" lon="4.59546">
        <ele>801</ele>
        <time>2019-10-12T15:56:57 02:00</time>
      </trkpt>
      <trkpt lat="45.06875" lon="4.59473">
        <ele>799</ele>
        <time>2019-10-12T15:57:02 02:00</time>
      </trkpt>
      <trkpt lat="45.06842" lon="4.59405">
        <ele>801</ele>
        <time>2019-10-12T15:57:07 02:00</time>
      </trkpt>
      <trkpt lat="45.06806" lon="4.59374">
        <ele>802</ele>
        <time>2019-10-12T15:57:12 02:00</time>
      </trkpt>
      <trkpt lat="45.06775" lon="4.59381">
        <ele>806</ele>
        <time>2019-10-12T15:57:17 02:00</time>
      </trkpt>
      <trkpt lat="45.06748" lon="4.59407">
        <ele>810</ele>
        <time>2019-10-12T15:57:22 02:00</time>
      </trkpt>
      <trkpt lat="45.06724" lon="4.59462">
        <ele>814</ele>
        <time>2019-10-12T15:57:27 02:00</time>
      </trkpt>
      <trkpt lat="45.06699" lon="4.59492">
        <ele>816</ele>
        <time>2019-10-12T15:57:32 02:00</time>
      </trkpt>
      <trkpt lat="45.06575" lon="4.59557">
        <ele>824</ele>
        <time>2019-10-12T15:57:37 02:00</time>
      </trkpt>
      <trkpt lat="45.06505" lon="4.59565">
        <ele>828</ele>
        <time>2019-10-12T15:57:42 02:00</time>
      </trkpt>
      <trkpt lat="45.06442" lon="4.59561">
        <ele>823</ele>
        <time>2019-10-12T15:57:47 02:00</time>
      </trkpt>
      <trkpt lat="45.06376" lon="4.59599">
        <ele>829</ele>
        <time>2019-10-12T15:57:52 02:00</time>
      </trkpt>
      <trkpt lat="45.06329" lon="4.596">
        <ele>828</ele>
        <time>2019-10-12T15:57:57 02:00</time>
      </trkpt>
      <trkpt lat="45.06269" lon="4.59488">
        <ele>822</ele>
        <time>2019-10-12T15:58:02 02:00</time>
      </trkpt>
      <trkpt lat="45.06193" lon="4.59664">
        <ele>851</ele>
        <time>2019-10-12T15:58:07 02:00</time>
      </trkpt>
      <trkpt lat="45.06163" lon="4.59707">
        <ele>857</ele>
        <time>2019-10-12T15:58:12 02:00</time>
      </trkpt>
      <trkpt lat="45.06138" lon="4.59711">
        <ele>861</ele>
        <time>2019-10-12T15:58:17 02:00</time>
      </trkpt>
      <trkpt lat="45.06099" lon="4.59806">
        <ele>860</ele>
        <time>2019-10-12T15:58:22 02:00</time>
      </trkpt>
      <trkpt lat="45.06096" lon="4.59823">
        <ele>858</ele>
        <time>2019-10-12T15:58:27 02:00</time>
      </trkpt>
      <trkpt lat="45.06123" lon="4.59857">
        <ele>859</ele>
        <time>2019-10-12T15:58:32 02:00</time>
      </trkpt>
      <trkpt lat="45.06114" lon="4.59904">
        <ele>854</ele>
        <time>2019-10-12T15:58:37 02:00</time>
      </trkpt>
      <trkpt lat="45.06069" lon="4.59857">
        <ele>852</ele>
        <time>2019-10-12T15:58:42 02:00</time>
      </trkpt>
      <trkpt lat="45.06017" lon="4.59883">
        <ele>842</ele>
        <time>2019-10-12T15:58:47 02:00</time>
      </trkpt>
      <trkpt lat="45.05884" lon="4.59956">
        <ele>824</ele>
        <time>2019-10-12T15:58:52 02:00</time>
      </trkpt>
      <trkpt lat="45.05844" lon="4.59969">
        <ele>824</ele>
        <time>2019-10-12T15:58:57 02:00</time>
      </trkpt>
      <trkpt lat="45.05733" lon="4.60097">
        <ele>816</ele>
        <time>2019-10-12T15:59:02 02:00</time>
      </trkpt>
      <trkpt lat="45.05614" lon="4.60205">
        <ele>804</ele>
        <time>2019-10-12T15:59:07 02:00</time>
      </trkpt>
      <trkpt lat="45.05584" lon="4.60226">
        <ele>803</ele>
        <time>2019-10-12T15:59:12 02:00</time>
      </trkpt>
      <trkpt lat="45.05429" lon="4.60364">
        <ele>815</ele>
        <time>2019-10-12T15:59:17 02:00</time>
      </trkpt>
      <trkpt lat="45.05408" lon="4.60445">
        <ele>801</ele>
        <time>2019-10-12T15:59:22 02:00</time>
      </trkpt>
      <trkpt lat="45.05279" lon="4.60523">
        <ele>796</ele>
        <time>2019-10-12T15:59:27 02:00</time>
      </trkpt>
      <trkpt lat="45.05138" lon="4.60402">
        <ele>809</ele>
        <time>2019-10-12T15:59:32 02:00</time>
      </trkpt>
      <trkpt lat="45.0512" lon="4.60402">
        <ele>810</ele>
        <time>2019-10-12T15:59:37 02:00</time>
      </trkpt>
      <trkpt lat="45.05047" lon="4.60458">
        <ele>803</ele>
        <time>2019-10-12T15:59:42 02:00</time>
      </trkpt>
      <trkpt lat="45.05008" lon="4.60479">
        <ele>807</ele>
        <time>2019-10-12T15:59:47 02:00</time>
      </trkpt>
      <trkpt lat="45.04974" lon="4.60484">
        <ele>810</ele>
        <time>2019-10-12T15:59:52 02:00</time>
      </trkpt>
      <trkpt lat="45.0495" lon="4.60484">
        <ele>812</ele>
        <time>2019-10-12T15:59:57 02:00</time>
      </trkpt>
      <trkpt lat="45.0492" lon="4.60604">
        <ele>807</ele>
        <time>2019-10-12T16:00:02 02:00</time>
      </trkpt>
      <trkpt lat="45.04892" lon="4.60771">
        <ele>801</ele>
        <time>2019-10-12T16:00:07 02:00</time>
      </trkpt>
      <trkpt lat="45.04941" lon="4.60913">
        <ele>786</ele>
        <time>2019-10-12T16:00:12 02:00</time>
      </trkpt>
      <trkpt lat="45.04959" lon="4.60823">
        <ele>776</ele>
        <time>2019-10-12T16:00:17 02:00</time>
      </trkpt>
      <trkpt lat="45.04977" lon="4.60836">
        <ele>770</ele>
        <time>2019-10-12T16:00:22 02:00</time>
      </trkpt>
      <trkpt lat="45.05023" lon="4.60741">
        <ele>755</ele>
        <time>2019-10-12T16:00:27 02:00</time>
      </trkpt>
      <trkpt lat="45.05059" lon="4.60784">
        <ele>746</ele>
        <time>2019-10-12T16:00:32 02:00</time>
      </trkpt>
      <trkpt lat="45.05102" lon="4.60741">
        <ele>740</ele>
        <time>2019-10-12T16:00:37 02:00</time>
      </trkpt>
      <trkpt lat="45.05147" lon="4.60737">
        <ele>736</ele>
        <time>2019-10-12T16:00:42 02:00</time>
      </trkpt>
      <trkpt lat="45.0519" lon="4.60752">
        <ele>734</ele>
        <time>2019-10-12T16:00:47 02:00</time>
      </trkpt>
      <trkpt lat="45.0522" lon="4.6078">
        <ele>730</ele>
        <time>2019-10-12T16:00:52 02:00</time>
      </trkpt>
      <trkpt lat="45.05314" lon="4.60827">
        <ele>720</ele>
        <time>2019-10-12T16:00:57 02:00</time>
      </trkpt>
      <trkpt lat="45.05226" lon="4.60836">
        <ele>716</ele>
        <time>2019-10-12T16:01:02 02:00</time>
      </trkpt>
      <trkpt lat="45.05196" lon="4.60913">
        <ele>709</ele>
        <time>2019-10-12T16:01:07 02:00</time>
      </trkpt>
      <trkpt lat="45.05196" lon="4.60943">
        <ele>707</ele>
        <time>2019-10-12T16:01:12 02:00</time>
      </trkpt>
      <trkpt lat="45.05155" lon="4.60996">
        <ele>715</ele>
        <time>2019-10-12T16:01:17 02:00</time>
      </trkpt>
      <trkpt lat="45.05174" lon="4.61075">
        <ele>704</ele>
        <time>2019-10-12T16:01:22 02:00</time>
      </trkpt>
      <trkpt lat="45.05187" lon="4.61166">
        <ele>701</ele>
        <time>2019-10-12T16:01:27 02:00</time>
      </trkpt>
      <trkpt lat="45.05205" lon="4.61093">
        <ele>694</ele>
        <time>2019-10-12T16:01:32 02:00</time>
      </trkpt>
      <trkpt lat="45.05268" lon="4.61157">
        <ele>676</ele>
        <time>2019-10-12T16:01:37 02:00</time>
      </trkpt>
      <trkpt lat="45.05305" lon="4.612">
        <ele>671</ele>
        <time>2019-10-12T16:01:42 02:00</time>
      </trkpt>
      <trkpt lat="45.05359" lon="4.61324">
        <ele>658</ele>
        <time>2019-10-12T16:01:47 02:00</time>
      </trkpt>
      <trkpt lat="45.05408" lon="4.61475">
        <ele>643</ele>
        <time>2019-10-12T16:01:52 02:00</time>
      </trkpt>
      <trkpt lat="45.05417" lon="4.61518">
        <ele>639</ele>
        <time>2019-10-12T16:01:57 02:00</time>
      </trkpt>
      <trkpt lat="45.0539" lon="4.61681">
        <ele>652</ele>
        <time>2019-10-12T16:02:02 02:00</time>
      </trkpt>
      <trkpt lat="45.0545" lon="4.61801">
        <ele>630</ele>
        <time>2019-10-12T16:02:07 02:00</time>
      </trkpt>
      <trkpt lat="45.05475" lon="4.61823">
        <ele>621</ele>
        <time>2019-10-12T16:02:12 02:00</time>
      </trkpt>
      <trkpt lat="45.05484" lon="4.6181">
        <ele>617</ele>
        <time>2019-10-12T16:02:17 02:00</time>
      </trkpt>
      <trkpt lat="45.05493" lon="4.61827">
        <ele>614</ele>
        <time>2019-10-12T16:02:22 02:00</time>
      </trkpt>
      <trkpt lat="45.05475" lon="4.61904">
        <ele>617</ele>
        <time>2019-10-12T16:02:27 02:00</time>
      </trkpt>
      <trkpt lat="45.05511" lon="4.6199">
        <ele>610</ele>
        <time>2019-10-12T16:02:32 02:00</time>
      </trkpt>
      <trkpt lat="45.0562" lon="4.6202">
        <ele>592</ele>
        <time>2019-10-12T16:02:37 02:00</time>
      </trkpt>
      <trkpt lat="45.05663" lon="4.6214">
        <ele>588</ele>
        <time>2019-10-12T16:02:42 02:00</time>
      </trkpt>
      <trkpt lat="45.05644" lon="4.62235">
        <ele>591</ele>
        <time>2019-10-12T16:02:47 02:00</time>
      </trkpt>
      <trkpt lat="45.05629" lon="4.62381">
        <ele>581</ele>
        <time>2019-10-12T16:02:52 02:00</time>
      </trkpt>
      <trkpt lat="45.0562" lon="4.62415">
        <ele>580</ele>
        <time>2019-10-12T16:02:57 02:00</time>
      </trkpt>
      <trkpt lat="45.05705" lon="4.62569">
        <ele>564</ele>
        <time>2019-10-12T16:03:02 02:00</time>
      </trkpt>
      <trkpt lat="45.05776" lon="4.62669">
        <ele>556</ele>
        <time>2019-10-12T16:03:07 02:00</time>
      </trkpt>
      <trkpt lat="45.05831" lon="4.62776">
        <ele>563</ele>
        <time>2019-10-12T16:03:12 02:00</time>
      </trkpt>
      <trkpt lat="45.05916" lon="4.62875">
        <ele>567</ele>
        <time>2019-10-12T16:03:17 02:00</time>
      </trkpt>
      <trkpt lat="45.0597" lon="4.62969">
        <ele>565</ele>
        <time>2019-10-12T16:03:22 02:00</time>
      </trkpt>
      <trkpt lat="45.06019" lon="4.63081">
        <ele>562</ele>
        <time>2019-10-12T16:03:27 02:00</time>
      </trkpt>
      <trkpt lat="45.06072" lon="4.63137">
        <ele>550</ele>
        <time>2019-10-12T16:03:32 02:00</time>
      </trkpt>
      <trkpt lat="45.0611" lon="4.63156">
        <ele>542</ele>
        <time>2019-10-12T16:03:37 02:00</time>
      </trkpt>
      <trkpt lat="45.06129" lon="4.63212">
        <ele>546</ele>
        <time>2019-10-12T16:03:42 02:00</time>
      </trkpt>
      <trkpt lat="45.0622" lon="4.63282">
        <ele>534</ele>
        <time>2019-10-12T16:03:47 02:00</time>
      </trkpt>
      <trkpt lat="45.06295" lon="4.63338">
        <ele>531</ele>
        <time>2019-10-12T16:03:52 02:00</time>
      </trkpt>
      <trkpt lat="45.06354" lon="4.63424">
        <ele>530</ele>
        <time>2019-10-12T16:03:57 02:00</time>
      </trkpt>
      <trkpt lat="45.06429" lon="4.63529">
        <ele>533</ele>
        <time>2019-10-12T16:04:02 02:00</time>
      </trkpt>
      <trkpt lat="45.06495" lon="4.63626">
        <ele>538</ele>
        <time>2019-10-12T16:04:07 02:00</time>
      </trkpt>
      <trkpt lat="45.0651" lon="4.63699">
        <ele>546</ele>
        <time>2019-10-12T16:04:12 02:00</time>
      </trkpt>
      <trkpt lat="45.06578" lon="4.63746">
        <ele>532</ele>
        <time>2019-10-12T16:04:17 02:00</time>
      </trkpt>
      <trkpt lat="45.06604" lon="4.63774">
        <ele>528</ele>
        <time>2019-10-12T16:04:22 02:00</time>
      </trkpt>
      <trkpt lat="45.06666" lon="4.63748">
        <ele>507</ele>
        <time>2019-10-12T16:04:27 02:00</time>
      </trkpt>
      <trkpt lat="45.06713" lon="4.63727">
        <ele>497</ele>
        <time>2019-10-12T16:04:32 02:00</time>
      </trkpt>
      <trkpt lat="45.0673" lon="4.63682">
        <ele>490</ele>
        <time>2019-10-12T16:04:37 02:00</time>
      </trkpt>
      <trkpt lat="45.06704" lon="4.63637">
        <ele>494</ele>
        <time>2019-10-12T16:04:42 02:00</time>
      </trkpt>
      <trkpt lat="45.06717" lon="4.63598">
        <ele>489</ele>
        <time>2019-10-12T16:04:47 02:00</time>
      </trkpt>
      <trkpt lat="45.06733" lon="4.63557">
        <ele>483</ele>
        <time>2019-10-12T16:04:52 02:00</time>
      </trkpt>
      <trkpt lat="45.06754" lon="4.63602">
        <ele>479</ele>
        <time>2019-10-12T16:04:57 02:00</time>
      </trkpt>
      <trkpt lat="45.06789" lon="4.63649">
        <ele>473</ele>
        <time>2019-10-12T16:05:02 02:00</time>
      </trkpt>
      <trkpt lat="45.06833" lon="4.63675">
        <ele>464</ele>
        <time>2019-10-12T16:05:07 02:00</time>
      </trkpt>
      <trkpt lat="45.06872" lon="4.63731">
        <ele>461</ele>
        <time>2019-10-12T16:05:12 02:00</time>
      </trkpt>
      <trkpt lat="45.0693" lon="4.63763">
        <ele>452</ele>
        <time>2019-10-12T16:05:17 02:00</time>
      </trkpt>
      <trkpt lat="45.06951" lon="4.63791">
        <ele>452</ele>
        <time>2019-10-12T16:05:22 02:00</time>
      </trkpt>
      <trkpt lat="45.06955" lon="4.63819">
        <ele>454</ele>
        <time>2019-10-12T16:05:27 02:00</time>
      </trkpt>
      <trkpt lat="45.07025" lon="4.63838">
        <ele>446</ele>
        <time>2019-10-12T16:05:32 02:00</time>
      </trkpt>
      <trkpt lat="45.07081" lon="4.63875">
        <ele>446</ele>
        <time>2019-10-12T16:05:37 02:00</time>
      </trkpt>
      <trkpt lat="45.07114" lon="4.63905">
        <ele>446</ele>
        <time>2019-10-12T16:05:42 02:00</time>
      </trkpt>
      <trkpt lat="45.07193" lon="4.63948">
        <ele>443</ele>
        <time>2019-10-12T16:05:47 02:00</time>
      </trkpt>
      <trkpt lat="45.07268" lon="4.64008">
        <ele>440</ele>
        <time>2019-10-12T16:05:52 02:00</time>
      </trkpt>
      <trkpt lat="45.07293" lon="4.6401">
        <ele>438</ele>
        <time>2019-10-12T16:05:57 02:00</time>
      </trkpt>
      <trkpt lat="45.07378" lon="4.64025">
        <ele>433</ele>
        <time>2019-10-12T16:06:02 02:00</time>
      </trkpt>
      <trkpt lat="45.07431" lon="4.64055">
        <ele>431</ele>
        <time>2019-10-12T16:06:07 02:00</time>
      </trkpt>
      <trkpt lat="45.0746" lon="4.64106">
        <ele>430</ele>
        <time>2019-10-12T16:06:12 02:00</time>
      </trkpt>
      <trkpt lat="45.0748" lon="4.64141">
        <ele>426</ele>
        <time>2019-10-12T16:06:17 02:00</time>
      </trkpt>
      <trkpt lat="45.07492" lon="4.64164">
        <ele>423</ele>
        <time>2019-10-12T16:06:22 02:00</time>
      </trkpt>
      <trkpt lat="45.0749" lon="4.6416">
        <ele>423</ele>
        <time>2019-10-12T16:06:27 02:00</time>
      </trkpt>
      <trkpt lat="45.07495" lon="4.6416">
        <ele>422</ele>
        <time>2019-10-12T16:06:32 02:00</time>
      </trkpt>
      <trkpt lat="45.0751" lon="4.64197">
        <ele>420</ele>
        <time>2019-10-12T16:06:37 02:00</time>
      </trkpt>
      <trkpt lat="45.07535" lon="4.64177">
        <ele>417</ele>
        <time>2019-10-12T16:06:42 02:00</time>
      </trkpt>
      <trkpt lat="45.07566" lon="4.64136">
        <ele>415</ele>
        <time>2019-10-12T16:06:47 02:00</time>
      </trkpt>
      <trkpt lat="45.07581" lon="4.64037">
        <ele>416</ele>
        <time>2019-10-12T16:06:52 02:00</time>
      </trkpt>
      <trkpt lat="45.07578" lon="4.63943">
        <ele>418</ele>
        <time>2019-10-12T16:06:57 02:00</time>
      </trkpt>
      <trkpt lat="45.07645" lon="4.6399">
        <ele>417</ele>
        <time>2019-10-12T16:07:02 02:00</time>
      </trkpt>
      <trkpt lat="45.07651" lon="4.64097">
        <ele>416</ele>
        <time>2019-10-12T16:07:07 02:00</time>
      </trkpt>
      <trkpt lat="45.07666" lon="4.64136">
        <ele>415</ele>
        <time>2019-10-12T16:07:12 02:00</time>
      </trkpt>
      <trkpt lat="45.07672" lon="4.64252">
        <ele>418</ele>
        <time>2019-10-12T16:07:17 02:00</time>
      </trkpt>
      <trkpt lat="45.07751" lon="4.64273">
        <ele>425</ele>
        <time>2019-10-12T16:07:22 02:00</time>
      </trkpt>
      <trkpt lat="45.07822" lon="4.64281">
        <ele>433</ele>
        <time>2019-10-12T16:07:27 02:00</time>
      </trkpt>
      <trkpt lat="45.07806" lon="4.64232">
        <ele>434</ele>
        <time>2019-10-12T16:07:32 02:00</time>
      </trkpt>
      <trkpt lat="45.07802" lon="4.64175">
        <ele>439</ele>
        <time>2019-10-12T16:07:37 02:00</time>
      </trkpt>
      <trkpt lat="45.07799" lon="4.64046">
        <ele>449</ele>
        <time>2019-10-12T16:07:42 02:00</time>
      </trkpt>
      <trkpt lat="45.07809" lon="4.63907">
        <ele>456</ele>
        <time>2019-10-12T16:07:47 02:00</time>
      </trkpt>
      <trkpt lat="45.07811" lon="4.6388">
        <ele>456</ele>
        <time>2019-10-12T16:07:52 02:00</time>
      </trkpt>
      <trkpt lat="45.07885" lon="4.63927">
        <ele>469</ele>
        <time>2019-10-12T16:07:57 02:00</time>
      </trkpt>
      <trkpt lat="45.07948" lon="4.63981">
        <ele>475</ele>
        <time>2019-10-12T16:08:02 02:00</time>
      </trkpt>
      <trkpt lat="45.0799" lon="4.64001">
        <ele>479</ele>
        <time>2019-10-12T16:08:07 02:00</time>
      </trkpt>
      <trkpt lat="45.08001" lon="4.64032">
        <ele>478</ele>
        <time>2019-10-12T16:08:12 02:00</time>
      </trkpt>
      <trkpt lat="45.08021" lon="4.64054">
        <ele>478</ele>
        <time>2019-10-12T16:08:17 02:00</time>
      </trkpt>
      <trkpt lat="45.0804" lon="4.64049">
        <ele>480</ele>
        <time>2019-10-12T16:08:22 02:00</time>
      </trkpt>
      <trkpt lat="45.08056" lon="4.64022">
        <ele>482</ele>
        <time>2019-10-12T16:08:27 02:00</time>
      </trkpt>
      <trkpt lat="45.08069" lon="4.64016">
        <ele>483</ele>
        <time>2019-10-12T16:08:32 02:00</time>
      </trkpt>
      <trkpt lat="45.081" lon="4.64022">
        <ele>486</ele>
        <time>2019-10-12T16:08:37 02:00</time>
      </trkpt>
      <trkpt lat="45.08128" lon="4.64015">
        <ele>490</ele>
        <time>2019-10-12T16:08:42 02:00</time>
      </trkpt>
      <trkpt lat="45.0815" lon="4.63942">
        <ele>490</ele>
        <time>2019-10-12T16:08:47 02:00</time>
      </trkpt>
      <trkpt lat="45.08166" lon="4.6398">
        <ele>494</ele>
        <time>2019-10-12T16:08:52 02:00</time>
      </trkpt>
      <trkpt lat="45.08168" lon="4.64025">
        <ele>495</ele>
        <time>2019-10-12T16:08:57 02:00</time>
      </trkpt>
      <trkpt lat="45.08208" lon="4.64043">
        <ele>500</ele>
        <time>2019-10-12T16:09:02 02:00</time>
      </trkpt>
      <trkpt lat="45.08219" lon="4.64118">
        <ele>505</ele>
        <time>2019-10-12T16:09:07 02:00</time>
      </trkpt>
      <trkpt lat="45.08233" lon="4.64187">
        <ele>508</ele>
        <time>2019-10-12T16:09:12 02:00</time>
      </trkpt>
      <trkpt lat="45.08284" lon="4.6411">
        <ele>517</ele>
        <time>2019-10-12T16:09:17 02:00</time>
      </trkpt>
      <trkpt lat="45.08324" lon="4.64162">
        <ele>527</ele>
        <time>2019-10-12T16:09:22 02:00</time>
      </trkpt>
      <trkpt lat="45.08349" lon="4.64127">
        <ele>528</ele>
        <time>2019-10-12T16:09:27 02:00</time>
      </trkpt>
      <trkpt lat="45.08408" lon="4.64103">
        <ele>535</ele>
        <time>2019-10-12T16:09:32 02:00</time>
      </trkpt>
      <trkpt lat="45.08404" lon="4.64122">
        <ele>536</ele>
        <time>2019-10-12T16:09:37 02:00</time>
      </trkpt>
      <trkpt lat="45.08403" lon="4.64139">
        <ele>538</ele>
        <time>2019-10-12T16:09:42 02:00</time>
      </trkpt>
      <trkpt lat="45.08451" lon="4.64165">
        <ele>546</ele>
        <time>2019-10-12T16:09:47 02:00</time>
      </trkpt>
      <trkpt lat="45.08454" lon="4.64182">
        <ele>547</ele>
        <time>2019-10-12T16:09:52 02:00</time>
      </trkpt>
      <trkpt lat="45.08485" lon="4.64282">
        <ele>550</ele>
        <time>2019-10-12T16:09:57 02:00</time>
      </trkpt>
      <trkpt lat="45.08534" lon="4.64277">
        <ele>561</ele>
        <time>2019-10-12T16:10:02 02:00</time>
      </trkpt>
      <trkpt lat="45.08549" lon="4.64212">
        <ele>563</ele>
        <time>2019-10-12T16:10:07 02:00</time>
      </trkpt>
      <trkpt lat="45.08621" lon="4.64282">
        <ele>581</ele>
        <time>2019-10-12T16:10:12 02:00</time>
      </trkpt>
      <trkpt lat="45.08657" lon="4.64303">
        <ele>591</ele>
        <time>2019-10-12T16:10:17 02:00</time>
      </trkpt>
      <trkpt lat="45.08715" lon="4.64342">
        <ele>602</ele>
        <time>2019-10-12T16:10:22 02:00</time>
      </trkpt>
      <trkpt lat="45.0886" lon="4.64363">
        <ele>612</ele>
        <time>2019-10-12T16:10:27 02:00</time>
      </trkpt>
      <trkpt lat="45.08875" lon="4.64393">
        <ele>612</ele>
        <time>2019-10-12T16:10:32 02:00</time>
      </trkpt>
      <trkpt lat="45.0899" lon="4.64415">
        <ele>624</ele>
        <time>2019-10-12T16:10:37 02:00</time>
      </trkpt>
      <trkpt lat="45.09154" lon="4.64505">
        <ele>636</ele>
        <time>2019-10-12T16:10:42 02:00</time>
      </trkpt>
      <trkpt lat="45.09196" lon="4.64518">
        <ele>635</ele>
        <time>2019-10-12T16:10:47 02:00</time>
      </trkpt>
      <trkpt lat="45.09272" lon="4.64561">
        <ele>638</ele>
        <time>2019-10-12T16:10:52 02:00</time>
      </trkpt>
      <trkpt lat="45.09341" lon="4.64536">
        <ele>630</ele>
        <time>2019-10-12T16:10:57 02:00</time>
      </trkpt>
      <trkpt lat="45.09369" lon="4.64667">
        <ele>641</ele>
        <time>2019-10-12T16:11:02 02:00</time>
      </trkpt>
      <trkpt lat="45.09381" lon="4.64803">
        <ele>644</ele>
        <time>2019-10-12T16:11:07 02:00</time>
      </trkpt>
      <trkpt lat="45.09375" lon="4.64964">
        <ele>637</ele>
        <time>2019-10-12T16:11:12 02:00</time>
      </trkpt>
      <trkpt lat="45.09417" lon="4.64972">
        <ele>634</ele>
        <time>2019-10-12T16:11:17 02:00</time>
      </trkpt>
      <trkpt lat="45.0943" lon="4.6505">
        <ele>627</ele>
        <time>2019-10-12T16:11:22 02:00</time>
      </trkpt>
      <trkpt lat="45.09414" lon="4.65067">
        <ele>626</ele>
        <time>2019-10-12T16:11:27 02:00</time>
      </trkpt>
      <trkpt lat="45.09402" lon="4.65076">
        <ele>626</ele>
        <time>2019-10-12T16:11:32 02:00</time>
      </trkpt>
      <trkpt lat="45.09399" lon="4.65191">
        <ele>620</ele>
        <time>2019-10-12T16:11:37 02:00</time>
      </trkpt>
    </trkseg>
  </trk>
</gpx>